<?xml version='1.0' encoding='UTF-8'?><gpx version="1.1" creator="JPX - https://github.com/jenetics/jpx" xmlns="http://www.topografix.com/GPX/1/1"><trk><trkseg><trkpt lat="44.90995219113481" lon="7.302615817008802"><ele>604.0</ele><time>2026-05-01T09:41:27.973Z</time></trkpt><trkpt lat="44.909981825923325" lon="7.302528012088657"><ele>604.0</ele><time>2026-05-01T09:42:58.999Z</time></trkpt><trkpt lat="44.910040399080664" lon="7.3025788204383195"><ele>604.0</ele><time>2026-05-01T09:43:01.999Z</time></trkpt><trkpt lat="44.910122203625036" lon="7.302631177330567"><ele>604.0</ele><time>2026-05-01T09:43:53Z</time></trkpt><trkpt lat="44.91011385170275" lon="7.302747358148171"><ele>604.0</ele><time>2026-05-01T09:43:58Z</time></trkpt><trkpt lat="44.91005478193794" lon="7.302812082798879"><ele>604.0</ele><time>2026-05-01T09:43:59Z</time></trkpt><trkpt lat="44.90997702502895" lon="7.302907743073657"><ele>604.0</ele><time>2026-05-01T09:44:00Z</time></trkpt><trkpt lat="44.90987614679222" lon="7.303036037743001"><ele>604.0</ele><time>2026-05-01T09:44:01Z</time></trkpt><trkpt lat="44.9097705153819" lon="7.303174762475596"><ele>604.0</ele><time>2026-05-01T09:44:02Z</time></trkpt><trkpt lat="44.909668875266824" lon="7.303312549224017"><ele>604.0</ele><time>2026-05-01T09:44:03Z</time></trkpt><trkpt lat="44.9095781295668" lon="7.303433772157092"><ele>602.25</ele><time>2026-05-01T09:44:04Z</time></trkpt><trkpt lat="44.90950093396953" lon="7.303549989462266"><ele>600.5</ele><time>2026-05-01T09:44:05Z</time></trkpt><trkpt lat="44.90940879249715" lon="7.3036473864089135"><ele>598.75</ele><time>2026-05-01T09:44:06Z</time></trkpt><trkpt lat="44.90932022849327" lon="7.303791741815945"><ele>597.0</ele><time>2026-05-01T09:44:07Z</time></trkpt><trkpt lat="44.90920243385991" lon="7.303924715199251"><ele>591.5</ele><time>2026-05-01T09:44:08Z</time></trkpt><trkpt lat="44.909118402035695" lon="7.304080030531757"><ele>586.0</ele><time>2026-05-01T09:44:09Z</time></trkpt><trkpt lat="44.90904273392352" lon="7.304199513860926"><ele>580.5</ele><time>2026-05-01T09:44:10Z</time></trkpt><trkpt lat="44.908968024446274" lon="7.304312349538607"><ele>575.0</ele><time>2026-05-01T09:44:11Z</time></trkpt><trkpt lat="44.90890058784672" lon="7.304395397116987"><ele>575.0</ele><time>2026-05-01T09:44:12Z</time></trkpt><trkpt lat="44.90886704816753" lon="7.304494585160963"><ele>575.0</ele><time>2026-05-01T09:44:14Z</time></trkpt><trkpt lat="44.9088126013441" lon="7.304606362468852"><ele>575.0</ele><time>2026-05-01T09:44:17Z</time></trkpt><trkpt lat="44.90892360944412" lon="7.304777878426138"><ele>575.0</ele><time>2026-05-01T09:44:18Z</time></trkpt><trkpt lat="44.90902540111592" lon="7.304867536883674"><ele>572.2</ele><time>2026-05-01T09:44:19Z</time></trkpt><trkpt lat="44.90914800744553" lon="7.3049370170496"><ele>569.4</ele><time>2026-05-01T09:44:20Z</time></trkpt><trkpt lat="44.90923420950288" lon="7.305005845231839"><ele>566.6</ele><time>2026-05-01T09:44:21Z</time></trkpt><trkpt lat="44.90928341844796" lon="7.3050902754487215"><ele>563.8</ele><time>2026-05-01T09:44:21.999Z</time></trkpt><trkpt lat="44.90929792251017" lon="7.305213611188867"><ele>561.0</ele><time>2026-05-01T09:44:22.999Z</time></trkpt><trkpt lat="44.90924515786397" lon="7.3053526273667835"><ele>561.0</ele><time>2026-05-01T09:44:23.999Z</time></trkpt><trkpt lat="44.909210253334265" lon="7.3054471665795555"><ele>561.0</ele><time>2026-05-01T09:44:24.999Z</time></trkpt><trkpt lat="44.90929894844897" lon="7.305514945849366"><ele>561.0</ele><time>2026-05-01T09:44:28.999Z</time></trkpt><trkpt lat="44.90936560760355" lon="7.305433122814783"><ele>561.0</ele><time>2026-05-01T09:44:29.999Z</time></trkpt><trkpt lat="44.9094307611349" lon="7.305323098676751"><ele>561.0</ele><time>2026-05-01T09:44:30.999Z</time></trkpt><trkpt lat="44.90948727460747" lon="7.305189204539618"><ele>561.0</ele><time>2026-05-01T09:44:31.999Z</time></trkpt><trkpt lat="44.90959457132345" lon="7.305149888915749"><ele>561.0</ele><time>2026-05-01T09:44:32.999Z</time></trkpt><trkpt lat="44.90971864064965" lon="7.305069615768161"><ele>561.0</ele><time>2026-05-01T09:44:33.999Z</time></trkpt><trkpt lat="44.909849177141275" lon="7.3049970834639995"><ele>561.0</ele><time>2026-05-01T09:44:34.999Z</time></trkpt><trkpt lat="44.9099666323622" lon="7.304966492613327"><ele>559.0</ele><time>2026-05-01T09:44:35.999Z</time></trkpt><trkpt lat="44.910076775153875" lon="7.304983108879262"><ele>557.0</ele><time>2026-05-01T09:44:36.999Z</time></trkpt><trkpt lat="44.910200999646975" lon="7.305021153659572"><ele>555.0</ele><time>2026-05-01T09:44:37.999Z</time></trkpt><trkpt lat="44.910324264056214" lon="7.305063232397911"><ele>553.0</ele><time>2026-05-01T09:44:38.999Z</time></trkpt><trkpt lat="44.91042944349181" lon="7.305048217515345"><ele>553.0</ele><time>2026-05-01T09:44:39.999Z</time></trkpt><trkpt lat="44.91052895437113" lon="7.304967532388047"><ele>553.0</ele><time>2026-05-01T09:44:40.999Z</time></trkpt><trkpt lat="44.91062810211436" lon="7.304862046709582"><ele>553.0</ele><time>2026-05-01T09:44:41.999Z</time></trkpt><trkpt lat="44.91072669748719" lon="7.304714511630031"><ele>553.0</ele><time>2026-05-01T09:44:42.999Z</time></trkpt><trkpt lat="44.91080143713679" lon="7.304574061766304"><ele>557.4</ele><time>2026-05-01T09:44:43.999Z</time></trkpt><trkpt lat="44.91085001992581" lon="7.304428456793566"><ele>561.8</ele><time>2026-05-01T09:44:44.999Z</time></trkpt><trkpt lat="44.91094369376329" lon="7.30431979914421"><ele>566.2</ele><time>2026-05-01T09:44:45.999Z</time></trkpt><trkpt lat="44.91101235310965" lon="7.304265193404034"><ele>570.6</ele><time>2026-05-01T09:44:46.999Z</time></trkpt><trkpt lat="44.91110697016387" lon="7.304288747687016"><ele>575.0</ele><time>2026-05-01T09:44:47.999Z</time></trkpt><trkpt lat="44.91118557622706" lon="7.304322746971479"><ele>575.0</ele><time>2026-05-01T09:44:48.999Z</time></trkpt><trkpt lat="44.9112583798416" lon="7.304347172032721"><ele>575.0</ele><time>2026-05-01T09:44:49.999Z</time></trkpt><trkpt lat="44.91132079252544" lon="7.304367702522987"><ele>575.0</ele><time>2026-05-01T09:44:50.999Z</time></trkpt><trkpt lat="44.91141862992405" lon="7.304425789895467"><ele>575.0</ele><time>2026-05-01T09:44:51.999Z</time></trkpt><trkpt lat="44.911519808204986" lon="7.3044918436971935"><ele>575.0</ele><time>2026-05-01T09:44:52.999Z</time></trkpt><trkpt lat="44.91163861459323" lon="7.304505475268604"><ele>571.0</ele><time>2026-05-01T09:44:53.999Z</time></trkpt><trkpt lat="44.911801202495205" lon="7.304519190810397"><ele>567.0</ele><time>2026-05-01T09:44:54.999Z</time></trkpt><trkpt lat="44.91196135667274" lon="7.304504577223384"><ele>563.0</ele><time>2026-05-01T09:44:55.999Z</time></trkpt><trkpt lat="44.91212427785625" lon="7.304502642506851"><ele>563.0</ele><time>2026-05-01T09:44:56.999Z</time></trkpt><trkpt lat="44.91226718564615" lon="7.304539912008468"><ele>563.0</ele><time>2026-05-01T09:44:57.999Z</time></trkpt><trkpt lat="44.91239204811688" lon="7.304593408372413"><ele>563.0</ele><time>2026-05-01T09:44:58.999Z</time></trkpt><trkpt lat="44.91252363034912" lon="7.304649741743327"><ele>563.0</ele><time>2026-05-01T09:44:59.999Z</time></trkpt><trkpt lat="44.91263979910474" lon="7.304656062087162"><ele>560.5</ele><time>2026-05-01T09:45:00.999Z</time></trkpt><trkpt lat="44.91272894474623" lon="7.304622561392405"><ele>558.0</ele><time>2026-05-01T09:45:01.999Z</time></trkpt><trkpt lat="44.91279950025049" lon="7.304599352353699"><ele>555.5</ele><time>2026-05-01T09:45:02.999Z</time></trkpt><trkpt lat="44.91289023711797" lon="7.304629081540052"><ele>553.0</ele><time>2026-05-01T09:45:04.999Z</time></trkpt><trkpt lat="44.9128801790997" lon="7.304719246571486"><ele>550.5</ele><time>2026-05-01T09:45:05.999Z</time></trkpt><trkpt lat="44.91280420503635" lon="7.304855145254937"><ele>548.0</ele><time>2026-05-01T09:45:06.999Z</time></trkpt><trkpt lat="44.91274702569101" lon="7.305044638855797"><ele>546.0</ele><time>2026-05-01T09:45:07.998Z</time></trkpt><trkpt lat="44.91266014696629" lon="7.305218200805228"><ele>544.0</ele><time>2026-05-01T09:45:08.998Z</time></trkpt><trkpt lat="44.912568314417065" lon="7.305367592544226"><ele>542.0</ele><time>2026-05-01T09:45:09.998Z</time></trkpt><trkpt lat="44.912445880498275" lon="7.305455273716178"><ele>540.0</ele><time>2026-05-01T09:45:10.998Z</time></trkpt><trkpt lat="44.91232139117092" lon="7.305566142568535"><ele>535.75</ele><time>2026-05-01T09:45:11.998Z</time></trkpt><trkpt lat="44.9121894709953" lon="7.305701125868573"><ele>531.5</ele><time>2026-05-01T09:45:12.998Z</time></trkpt><trkpt lat="44.91207196249382" lon="7.305788039831273"><ele>527.25</ele><time>2026-05-01T09:45:13.998Z</time></trkpt><trkpt lat="44.91197027593045" lon="7.305862706481803"><ele>523.0</ele><time>2026-05-01T09:45:14.998Z</time></trkpt><trkpt lat="44.91184449752824" lon="7.305908802085684"><ele>523.6</ele><time>2026-05-01T09:45:15.998Z</time></trkpt><trkpt lat="44.9117116005483" lon="7.305947033536314"><ele>524.1999999999999</ele><time>2026-05-01T09:45:16.998Z</time></trkpt><trkpt lat="44.911604431210236" lon="7.305993349759807"><ele>524.8</ele><time>2026-05-01T09:45:17.998Z</time></trkpt><trkpt lat="44.91152875101148" lon="7.306065488130409"><ele>525.4</ele><time>2026-05-01T09:45:18.998Z</time></trkpt><trkpt lat="44.9114568616001" lon="7.306183043459784"><ele>526.0</ele><time>2026-05-01T09:45:19.998Z</time></trkpt><trkpt lat="44.911398274566544" lon="7.306313999658326"><ele>523.25</ele><time>2026-05-01T09:45:20.998Z</time></trkpt><trkpt lat="44.911374096228165" lon="7.306450143582432"><ele>520.5</ele><time>2026-05-01T09:45:21.998Z</time></trkpt><trkpt lat="44.91138776866607" lon="7.3066346109948945"><ele>517.75</ele><time>2026-05-01T09:45:22.998Z</time></trkpt><trkpt lat="44.91141616121311" lon="7.30684655343555"><ele>515.0</ele><time>2026-05-01T09:45:23.998Z</time></trkpt><trkpt lat="44.91147354163428" lon="7.306982822833529"><ele>515.0</ele><time>2026-05-01T09:45:24.998Z</time></trkpt><trkpt lat="44.91154349846737" lon="7.30707748667455"><ele>515.0</ele><time>2026-05-01T09:45:25.998Z</time></trkpt><trkpt lat="44.91163966640393" lon="7.307118785711834"><ele>515.0</ele><time>2026-05-01T09:45:26.998Z</time></trkpt><trkpt lat="44.91176838397855" lon="7.307144769327717"><ele>515.0</ele><time>2026-05-01T09:45:27.998Z</time></trkpt><trkpt lat="44.91191456812812" lon="7.307180916525137"><ele>514.0</ele><time>2026-05-01T09:45:28.998Z</time></trkpt><trkpt lat="44.91206544071091" lon="7.30720478998167"><ele>513.0</ele><time>2026-05-01T09:45:29.998Z</time></trkpt><trkpt lat="44.91217801561912" lon="7.307210761383647"><ele>512.0</ele><time>2026-05-01T09:45:30.998Z</time></trkpt><trkpt lat="44.9122603992628" lon="7.307239264575251"><ele>511.0</ele><time>2026-05-01T09:45:31.998Z</time></trkpt><trkpt lat="44.912347497670005" lon="7.307308705115837"><ele>510.0</ele><time>2026-05-01T09:45:33.998Z</time></trkpt><trkpt lat="44.91232269216395" lon="7.307436815781153"><ele>506.0</ele><time>2026-05-01T09:45:34.998Z</time></trkpt><trkpt lat="44.91223699899051" lon="7.307549693210899"><ele>502.0</ele><time>2026-05-01T09:45:35.998Z</time></trkpt><trkpt lat="44.91213766052935" lon="7.307685931711374"><ele>498.0</ele><time>2026-05-01T09:45:36.998Z</time></trkpt><trkpt lat="44.91202979583573" lon="7.307834447617963"><ele>494.0</ele><time>2026-05-01T09:45:37.998Z</time></trkpt><trkpt lat="44.91194464339075" lon="7.307973807356924"><ele>492.0</ele><time>2026-05-01T09:45:38.998Z</time></trkpt><trkpt lat="44.91187804210551" lon="7.308158331614131"><ele>490.0</ele><time>2026-05-01T09:45:39.998Z</time></trkpt><trkpt lat="44.91181014880618" lon="7.308326908684272"><ele>488.0</ele><time>2026-05-01T09:45:40.998Z</time></trkpt><trkpt lat="44.91175454492643" lon="7.308475945638648"><ele>486.0</ele><time>2026-05-01T09:45:41.998Z</time></trkpt><trkpt lat="44.91173082200337" lon="7.308641883271594"><ele>484.5</ele><time>2026-05-01T09:45:43Z</time></trkpt><trkpt lat="44.91174275102647" lon="7.308855117204661"><ele>483.0</ele><time>2026-05-01T09:45:44Z</time></trkpt><trkpt lat="44.91172837354242" lon="7.3090513677314854"><ele>481.5</ele><time>2026-05-01T09:45:45Z</time></trkpt><trkpt lat="44.911653068132374" lon="7.309217355698295"><ele>480.0</ele><time>2026-05-01T09:45:46Z</time></trkpt><trkpt lat="44.911585262444774" lon="7.3093833489793765"><ele>479.0</ele><time>2026-05-01T09:45:47Z</time></trkpt><trkpt lat="44.911541548904395" lon="7.309525773452417"><ele>478.0</ele><time>2026-05-01T09:45:48Z</time></trkpt><trkpt lat="44.91152631332146" lon="7.309655034443461"><ele>477.0</ele><time>2026-05-01T09:45:49Z</time></trkpt><trkpt lat="44.91151883662135" lon="7.3097523290364785"><ele>476.0</ele><time>2026-05-01T09:45:50Z</time></trkpt><trkpt lat="44.91154432306961" lon="7.309866727690833"><ele>475.0</ele><time>2026-05-01T09:45:53Z</time></trkpt><trkpt lat="44.91169902997998" lon="7.309816634227659"><ele>475.25</ele><time>2026-05-01T09:45:54Z</time></trkpt><trkpt lat="44.91180931713109" lon="7.309746636451842"><ele>475.5</ele><time>2026-05-01T09:45:55Z</time></trkpt><trkpt lat="44.91195267697153" lon="7.309671507282079"><ele>475.75</ele><time>2026-05-01T09:45:56Z</time></trkpt><trkpt lat="44.91211682529154" lon="7.309614986865465"><ele>476.0</ele><time>2026-05-01T09:45:57Z</time></trkpt><trkpt lat="44.912300430992424" lon="7.309567657371425"><ele>476.0</ele><time>2026-05-01T09:45:58Z</time></trkpt><trkpt lat="44.91249585040333" lon="7.309524032974325"><ele>476.0</ele><time>2026-05-01T09:45:59Z</time></trkpt><trkpt lat="44.91269129231369" lon="7.309489323666198"><ele>476.0</ele><time>2026-05-01T09:46:00Z</time></trkpt><trkpt lat="44.91287168567159" lon="7.309440951603394"><ele>477.3333333333333</ele><time>2026-05-01T09:46:01Z</time></trkpt><trkpt lat="44.91303820103806" lon="7.3093700672595965"><ele>478.66666666666663</ele><time>2026-05-01T09:46:02Z</time></trkpt><trkpt lat="44.91320745906407" lon="7.309260796180054"><ele>480.0</ele><time>2026-05-01T09:46:03Z</time></trkpt><trkpt lat="44.913395821702906" lon="7.30913469848382"><ele>480.0</ele><time>2026-05-01T09:46:04Z</time></trkpt><trkpt lat="44.91359744862283" lon="7.309037610864947"><ele>480.0</ele><time>2026-05-01T09:46:05Z</time></trkpt><trkpt lat="44.91381505460848" lon="7.308984256779164"><ele>480.0</ele><time>2026-05-01T09:46:06Z</time></trkpt><trkpt lat="44.914044901437066" lon="7.308969705132598"><ele>480.0</ele><time>2026-05-01T09:46:07Z</time></trkpt><trkpt lat="44.91424067051521" lon="7.308952610517758"><ele>480.0</ele><time>2026-05-01T09:46:08Z</time></trkpt><trkpt lat="44.914417126289074" lon="7.3088927705007265"><ele>480.0</ele><time>2026-05-01T09:46:09Z</time></trkpt><trkpt lat="44.914596568164974" lon="7.30879031276339"><ele>484.0</ele><time>2026-05-01T09:46:10Z</time></trkpt><trkpt lat="44.91479908860407" lon="7.308644718636478"><ele>488.0</ele><time>2026-05-01T09:46:11Z</time></trkpt><trkpt lat="44.91503418989354" lon="7.308481865909373"><ele>487.5</ele><time>2026-05-01T09:46:12Z</time></trkpt><trkpt lat="44.91529658480043" lon="7.3083273898824395"><ele>487.0</ele><time>2026-05-01T09:46:13Z</time></trkpt><trkpt lat="44.9155624871013" lon="7.308252896486896"><ele>487.0</ele><time>2026-05-01T09:46:14Z</time></trkpt><trkpt lat="44.91578522896929" lon="7.3081651697616"><ele>487.0</ele><time>2026-05-01T09:46:15Z</time></trkpt><trkpt lat="44.915982344066066" lon="7.308108493192424"><ele>487.0</ele><time>2026-05-01T09:46:16Z</time></trkpt><trkpt lat="44.91615434336776" lon="7.30803304858994"><ele>488.33333333333337</ele><time>2026-05-01T09:46:17Z</time></trkpt><trkpt lat="44.9163057319854" lon="7.307932293515937"><ele>489.66666666666663</ele><time>2026-05-01T09:46:18Z</time></trkpt><trkpt lat="44.91643349679183" lon="7.307803340652432"><ele>491.0</ele><time>2026-05-01T09:46:19Z</time></trkpt><trkpt lat="44.91654841424027" lon="7.307626879769376"><ele>491.0</ele><time>2026-05-01T09:46:20Z</time></trkpt><trkpt lat="44.91666299237764" lon="7.3074385626175715"><ele>491.0</ele><time>2026-05-01T09:46:21Z</time></trkpt><trkpt lat="44.91676733101701" lon="7.307298804963787"><ele>491.0</ele><time>2026-05-01T09:46:22Z</time></trkpt><trkpt lat="44.91685777561354" lon="7.307227645320529"><ele>491.0</ele><time>2026-05-01T09:46:23Z</time></trkpt><trkpt lat="44.91695455363923" lon="7.307224653968222"><ele>491.5</ele><time>2026-05-01T09:46:23.999Z</time></trkpt><trkpt lat="44.917033644378535" lon="7.307355873036118"><ele>492.0</ele><time>2026-05-01T09:46:24.999Z</time></trkpt><trkpt lat="44.917119112717735" lon="7.307491790475659"><ele>492.5</ele><time>2026-05-01T09:46:25.999Z</time></trkpt><trkpt lat="44.91720862904725" lon="7.307569138870867"><ele>493.0</ele><time>2026-05-01T09:46:26.999Z</time></trkpt><trkpt lat="44.917306182087614" lon="7.307613082337593"><ele>493.0</ele><time>2026-05-01T09:46:27.999Z</time></trkpt><trkpt lat="44.91743296117087" lon="7.307614749281065"><ele>493.0</ele><time>2026-05-01T09:46:28.999Z</time></trkpt><trkpt lat="44.917584787424055" lon="7.307579241218443"><ele>493.0</ele><time>2026-05-01T09:46:29.999Z</time></trkpt><trkpt lat="44.91775713169032" lon="7.30748868704779"><ele>494.33333333333337</ele><time>2026-05-01T09:46:30.999Z</time></trkpt><trkpt lat="44.917937273443655" lon="7.307358252002752"><ele>495.66666666666663</ele><time>2026-05-01T09:46:31.999Z</time></trkpt><trkpt lat="44.91812258456589" lon="7.30719607790834"><ele>497.0</ele><time>2026-05-01T09:46:32.999Z</time></trkpt><trkpt lat="44.91826412844974" lon="7.307031831496868"><ele>497.0</ele><time>2026-05-01T09:46:33.999Z</time></trkpt><trkpt lat="44.918376059456975" lon="7.306862300316662"><ele>497.0</ele><time>2026-05-01T09:46:34.999Z</time></trkpt><trkpt lat="44.91847139079883" lon="7.306670917006041"><ele>497.0</ele><time>2026-05-01T09:46:35.999Z</time></trkpt><trkpt lat="44.918571420253095" lon="7.306448593108404"><ele>499.3333333333333</ele><time>2026-05-01T09:46:36.999Z</time></trkpt><trkpt lat="44.91869404809207" lon="7.306289291727277"><ele>501.66666666666663</ele><time>2026-05-01T09:46:37.999Z</time></trkpt><trkpt lat="44.918811929003816" lon="7.3061707274096745"><ele>504.0</ele><time>2026-05-01T09:46:38.999Z</time></trkpt><trkpt lat="44.9189525095579" lon="7.306079716345339"><ele>504.0</ele><time>2026-05-01T09:46:39.999Z</time></trkpt><trkpt lat="44.919108339222724" lon="7.305966993319323"><ele>504.0</ele><time>2026-05-01T09:46:40.999Z</time></trkpt><trkpt lat="44.91922417045621" lon="7.305815413393102"><ele>504.0</ele><time>2026-05-01T09:46:41.999Z</time></trkpt><trkpt lat="44.919294466530566" lon="7.305643655474955"><ele>504.6</ele><time>2026-05-01T09:46:42.999Z</time></trkpt><trkpt lat="44.919356771939185" lon="7.305528045864952"><ele>505.2</ele><time>2026-05-01T09:46:43.999Z</time></trkpt><trkpt lat="44.919421766238" lon="7.305448477262671"><ele>505.80000000000007</ele><time>2026-05-01T09:46:45.999Z</time></trkpt><trkpt lat="44.91929760818337" lon="7.305253269341368"><ele>506.40000000000003</ele><time>2026-05-01T09:46:47.999Z</time></trkpt><trkpt lat="44.919232105613915" lon="7.305229381846472"><ele>507.0</ele><time>2026-05-01T09:46:48.999Z</time></trkpt><trkpt lat="44.919163784615854" lon="7.305281784221908"><ele>507.0</ele><time>2026-05-01T09:46:50.999Z</time></trkpt><trkpt lat="44.919284318447765" lon="7.30525817838931"><ele>507.0</ele><time>2026-05-01T09:47:58Z</time></trkpt><trkpt lat="44.919265642042575" lon="7.305169236624994"><ele>507.0</ele><time>2026-05-01T09:48:30.999Z</time></trkpt><trkpt lat="44.919255298170356" lon="7.305271884567141"><ele>507.0</ele><time>2026-05-01T09:48:54.999Z</time></trkpt><trkpt lat="44.91935539690821" lon="7.30533829082806"><ele>507.0</ele><time>2026-05-01T09:50:20Z</time></trkpt><trkpt lat="44.91938084852973" lon="7.305428612154202"><ele>507.0</ele><time>2026-05-01T09:50:21Z</time></trkpt><trkpt lat="44.9193306022801" lon="7.305571088215124"><ele>506.25</ele><time>2026-05-01T09:50:25Z</time></trkpt><trkpt lat="44.91925516995398" lon="7.305666926496761"><ele>505.5</ele><time>2026-05-01T09:50:26Z</time></trkpt><trkpt lat="44.91917136635299" lon="7.305813663095702"><ele>504.75</ele><time>2026-05-01T09:50:27Z</time></trkpt><trkpt lat="44.91908701187941" lon="7.305984816143236"><ele>504.0</ele><time>2026-05-01T09:50:28Z</time></trkpt><trkpt lat="44.91897255550666" lon="7.3060978443067395"><ele>504.0</ele><time>2026-05-01T09:50:28.999Z</time></trkpt><trkpt lat="44.918855491009815" lon="7.306173474033552"><ele>504.0</ele><time>2026-05-01T09:50:29.999Z</time></trkpt><trkpt lat="44.91874897617274" lon="7.306216494918956"><ele>504.0</ele><time>2026-05-01T09:50:30.999Z</time></trkpt><trkpt lat="44.91865778440117" lon="7.306294186993526"><ele>504.0</ele><time>2026-05-01T09:50:31.999Z</time></trkpt><trkpt lat="44.91857475297127" lon="7.306410150253114"><ele>504.4</ele><time>2026-05-01T09:50:32.999Z</time></trkpt><trkpt lat="44.91850839283033" lon="7.3065395296073765"><ele>504.79999999999995</ele><time>2026-05-01T09:50:33.999Z</time></trkpt><trkpt lat="44.9184460048802" lon="7.306659835749734"><ele>505.20000000000005</ele><time>2026-05-01T09:50:34.999Z</time></trkpt><trkpt lat="44.918392202108826" lon="7.306786785190794"><ele>505.6</ele><time>2026-05-01T09:50:35.999Z</time></trkpt><trkpt lat="44.91833007459187" lon="7.306896049614787"><ele>506.0</ele><time>2026-05-01T09:50:36.999Z</time></trkpt><trkpt lat="44.91825260960294" lon="7.306973202840881"><ele>504.6</ele><time>2026-05-01T09:50:37.999Z</time></trkpt><trkpt lat="44.91820223235534" lon="7.30706191916887"><ele>503.20000000000005</ele><time>2026-05-01T09:50:38.999Z</time></trkpt><trkpt lat="44.918133471532066" lon="7.307135230797182"><ele>501.79999999999995</ele><time>2026-05-01T09:50:39.999Z</time></trkpt><trkpt lat="44.91805335917676" lon="7.307184157884956"><ele>500.4</ele><time>2026-05-01T09:50:40.999Z</time></trkpt><trkpt lat="44.917983567620475" lon="7.307273059372533"><ele>499.0</ele><time>2026-05-01T09:50:41.999Z</time></trkpt><trkpt lat="44.917891838071945" lon="7.307350224121019"><ele>499.0</ele><time>2026-05-01T09:50:42.999Z</time></trkpt><trkpt lat="44.91776893779949" lon="7.307409981621066"><ele>499.0</ele><time>2026-05-01T09:50:43.999Z</time></trkpt><trkpt lat="44.91766635885024" lon="7.307474215473557"><ele>499.0</ele><time>2026-05-01T09:50:44.999Z</time></trkpt><trkpt lat="44.917584355679345" lon="7.307542483452805"><ele>499.0</ele><time>2026-05-01T09:50:45.999Z</time></trkpt><trkpt lat="44.917497038735085" lon="7.307568169899642"><ele>499.0</ele><time>2026-05-01T09:50:46.999Z</time></trkpt><trkpt lat="44.917400049077465" lon="7.307556278486774"><ele>498.00000000000006</ele><time>2026-05-01T09:50:47.999Z</time></trkpt><trkpt lat="44.91730622067778" lon="7.307569096663724"><ele>497.0</ele><time>2026-05-01T09:50:48.999Z</time></trkpt><trkpt lat="44.91723008889396" lon="7.307538602307706"><ele>496.0</ele><time>2026-05-01T09:50:49.999Z</time></trkpt><trkpt lat="44.917161826725554" lon="7.307484062911979"><ele>495.0</ele><time>2026-05-01T09:50:50.999Z</time></trkpt><trkpt lat="44.917097917924956" lon="7.307394018116673"><ele>494.00000000000006</ele><time>2026-05-01T09:50:51.999Z</time></trkpt><trkpt lat="44.917044339908266" lon="7.307308602885114"><ele>493.0</ele><time>2026-05-01T09:50:52.999Z</time></trkpt><trkpt lat="44.916996231728945" lon="7.307250888941017"><ele>492.59999999999997</ele><time>2026-05-01T09:50:53.999Z</time></trkpt><trkpt lat="44.91693167703032" lon="7.307217060868566"><ele>492.19999999999993</ele><time>2026-05-01T09:50:54.999Z</time></trkpt><trkpt lat="44.916851305820614" lon="7.307215372823998"><ele>491.8</ele><time>2026-05-01T09:50:55.999Z</time></trkpt><trkpt lat="44.916771998958424" lon="7.30720349142648"><ele>491.4</ele><time>2026-05-01T09:50:56.999Z</time></trkpt><trkpt lat="44.91669156990464" lon="7.307339461823661"><ele>491.0</ele><time>2026-05-01T09:50:57.999Z</time></trkpt><trkpt lat="44.91662927051252" lon="7.307446050842581"><ele>491.0</ele><time>2026-05-01T09:50:58.999Z</time></trkpt><trkpt lat="44.916572696586634" lon="7.307545354510183"><ele>491.0</ele><time>2026-05-01T09:50:59.999Z</time></trkpt><trkpt lat="44.916501785423016" lon="7.307619180024125"><ele>491.0</ele><time>2026-05-01T09:51:00.999Z</time></trkpt><trkpt lat="44.91645029202575" lon="7.307721957864699"><ele>491.0</ele><time>2026-05-01T09:51:01.999Z</time></trkpt><trkpt lat="44.91636419604959" lon="7.307791026336919"><ele>491.0</ele><time>2026-05-01T09:51:02.999Z</time></trkpt><trkpt lat="44.91629116278336" lon="7.307867795534753"><ele>491.0</ele><time>2026-05-01T09:51:03.999Z</time></trkpt><trkpt lat="44.916220898233014" lon="7.307932173735461"><ele>491.0</ele><time>2026-05-01T09:51:04.999Z</time></trkpt><trkpt lat="44.916134409071006" lon="7.307997329422299"><ele>491.0</ele><time>2026-05-01T09:51:05.999Z</time></trkpt><trkpt lat="44.916018860810624" lon="7.308044062994509"><ele>491.0</ele><time>2026-05-01T09:51:06.999Z</time></trkpt><trkpt lat="44.915871195799916" lon="7.308101837455993"><ele>489.66666666666663</ele><time>2026-05-01T09:51:07.999Z</time></trkpt><trkpt lat="44.91569177023359" lon="7.308162027760833"><ele>488.33333333333337</ele><time>2026-05-01T09:51:08.999Z</time></trkpt><trkpt lat="44.91550174306643" lon="7.308225492365159"><ele>487.0</ele><time>2026-05-01T09:51:09.999Z</time></trkpt><trkpt lat="44.91533629330634" lon="7.308283011844338"><ele>487.0</ele><time>2026-05-01T09:51:10.999Z</time></trkpt><trkpt lat="44.91517237583719" lon="7.308350239668327"><ele>487.0</ele><time>2026-05-01T09:51:11.999Z</time></trkpt><trkpt lat="44.914980292642596" lon="7.308452562595424"><ele>487.0</ele><time>2026-05-01T09:51:12.999Z</time></trkpt><trkpt lat="44.914765104582095" lon="7.308582590961388"><ele>487.5</ele><time>2026-05-01T09:51:13.999Z</time></trkpt><trkpt lat="44.91453372319658" lon="7.308733398635257"><ele>488.0</ele><time>2026-05-01T09:51:14.999Z</time></trkpt><trkpt lat="44.91434097770054" lon="7.308887159830836"><ele>485.3333333333333</ele><time>2026-05-01T09:51:15.999Z</time></trkpt><trkpt lat="44.91415567846989" lon="7.308923088624233"><ele>482.66666666666663</ele><time>2026-05-01T09:51:16.998Z</time></trkpt><trkpt lat="44.913979905903375" lon="7.308938694064689"><ele>480.0</ele><time>2026-05-01T09:51:17.998Z</time></trkpt><trkpt lat="44.913812890495066" lon="7.3089761367959865"><ele>480.0</ele><time>2026-05-01T09:51:18.998Z</time></trkpt><trkpt lat="44.9136334737152" lon="7.309006675911128"><ele>480.0</ele><time>2026-05-01T09:51:19.998Z</time></trkpt><trkpt lat="44.91346215853002" lon="7.309066015252429"><ele>480.0</ele><time>2026-05-01T09:51:20.998Z</time></trkpt><trkpt lat="44.913307541354826" lon="7.309150011305013"><ele>480.0</ele><time>2026-05-01T09:51:21.998Z</time></trkpt><trkpt lat="44.91315676843885" lon="7.309245953803168"><ele>480.0</ele><time>2026-05-01T09:51:22.998Z</time></trkpt><trkpt lat="44.912986986248946" lon="7.309353772375683"><ele>480.0</ele><time>2026-05-01T09:51:23.998Z</time></trkpt><trkpt lat="44.91282151051831" lon="7.309439087684663"><ele>480.0</ele><time>2026-05-01T09:51:24.998Z</time></trkpt><trkpt lat="44.91265649852321" lon="7.3094873609296735"><ele>480.0</ele><time>2026-05-01T09:51:25.998Z</time></trkpt><trkpt lat="44.91246546473324" lon="7.309512619105019"><ele>480.0</ele><time>2026-05-01T09:51:26.998Z</time></trkpt><trkpt lat="44.91227570406263" lon="7.309547352580933"><ele>478.66666666666663</ele><time>2026-05-01T09:51:27.998Z</time></trkpt><trkpt lat="44.912090698963354" lon="7.309596911024177"><ele>477.3333333333333</ele><time>2026-05-01T09:51:28.998Z</time></trkpt><trkpt lat="44.91190187181383" lon="7.309658870227826"><ele>476.0</ele><time>2026-05-01T09:51:29.998Z</time></trkpt><trkpt lat="44.911728711575854" lon="7.30973091035757"><ele>473.3333333333333</ele><time>2026-05-01T09:51:30.998Z</time></trkpt><trkpt lat="44.91157442896599" lon="7.309818604588891"><ele>470.66666666666663</ele><time>2026-05-01T09:51:31.998Z</time></trkpt><trkpt lat="44.9114307333669" lon="7.309917251760169"><ele>468.0</ele><time>2026-05-01T09:51:32.998Z</time></trkpt><trkpt lat="44.911288352018744" lon="7.310030670753855"><ele>468.0</ele><time>2026-05-01T09:51:33.998Z</time></trkpt><trkpt lat="44.91114490833486" lon="7.310167373192456"><ele>468.0</ele><time>2026-05-01T09:51:34.998Z</time></trkpt><trkpt lat="44.91102588048944" lon="7.310320251949407"><ele>468.0</ele><time>2026-05-01T09:51:35.998Z</time></trkpt><trkpt lat="44.91092289772368" lon="7.310471039428726"><ele>466.33333333333337</ele><time>2026-05-01T09:51:36.998Z</time></trkpt><trkpt lat="44.91080268629904" lon="7.31058217619401"><ele>464.6666666666667</ele><time>2026-05-01T09:51:37.998Z</time></trkpt><trkpt lat="44.91065535051021" lon="7.310625202848498"><ele>463.0</ele><time>2026-05-01T09:51:38.998Z</time></trkpt><trkpt lat="44.910479842286485" lon="7.310664249984296"><ele>463.0</ele><time>2026-05-01T09:51:39.998Z</time></trkpt><trkpt lat="44.91029207420499" lon="7.310679774770612"><ele>463.0</ele><time>2026-05-01T09:51:40.998Z</time></trkpt><trkpt lat="44.9101182973618" lon="7.310650820689487"><ele>463.0</ele><time>2026-05-01T09:51:41.998Z</time></trkpt><trkpt lat="44.909946271883456" lon="7.310656223371571"><ele>462.33333333333337</ele><time>2026-05-01T09:51:42.998Z</time></trkpt><trkpt lat="44.90976344047538" lon="7.310693339000343"><ele>461.66666666666663</ele><time>2026-05-01T09:51:43.998Z</time></trkpt><trkpt lat="44.90958216178144" lon="7.310770069395259"><ele>461.0</ele><time>2026-05-01T09:51:44.998Z</time></trkpt><trkpt lat="44.90942747886987" lon="7.310866710356483"><ele>461.0</ele><time>2026-05-01T09:51:45.998Z</time></trkpt><trkpt lat="44.9092546478183" lon="7.310920861478888"><ele>461.0</ele><time>2026-05-01T09:51:46.998Z</time></trkpt><trkpt lat="44.90908333528982" lon="7.311024417324987"><ele>461.0</ele><time>2026-05-01T09:51:47.998Z</time></trkpt><trkpt lat="44.908937028778105" lon="7.311143075934304"><ele>460.0</ele><time>2026-05-01T09:51:48.998Z</time></trkpt><trkpt lat="44.908807297293805" lon="7.311264266681595"><ele>459.0</ele><time>2026-05-01T09:51:49.998Z</time></trkpt><trkpt lat="44.90866603650112" lon="7.311389608096663"><ele>458.0</ele><time>2026-05-01T09:51:50.998Z</time></trkpt><trkpt lat="44.908524334526575" lon="7.311531396048545"><ele>456.66666666666663</ele><time>2026-05-01T09:51:51.998Z</time></trkpt><trkpt lat="44.908405727708136" lon="7.3116970992129655"><ele>455.33333333333337</ele><time>2026-05-01T09:51:52.998Z</time></trkpt><trkpt lat="44.90831360693071" lon="7.311872928490254"><ele>454.0</ele><time>2026-05-01T09:51:53.998Z</time></trkpt><trkpt lat="44.90823639047021" lon="7.312022150048842"><ele>454.0</ele><time>2026-05-01T09:51:54.998Z</time></trkpt><trkpt lat="44.90815717940505" lon="7.312126134208519"><ele>454.0</ele><time>2026-05-01T09:51:55.998Z</time></trkpt><trkpt lat="44.90804893759092" lon="7.312153370059138"><ele>454.0</ele><time>2026-05-01T09:51:56.998Z</time></trkpt><trkpt lat="44.907909035507" lon="7.312212180943898"><ele>454.0</ele><time>2026-05-01T09:51:57.998Z</time></trkpt><trkpt lat="44.90775097853311" lon="7.312236639824068"><ele>453.4</ele><time>2026-05-01T09:51:59Z</time></trkpt><trkpt lat="44.90763389901989" lon="7.31226424706104"><ele>452.79999999999995</ele><time>2026-05-01T09:52:00Z</time></trkpt><trkpt lat="44.907543337199826" lon="7.312265790979256"><ele>452.20000000000005</ele><time>2026-05-01T09:52:02Z</time></trkpt><trkpt lat="44.90746157606351" lon="7.312282854234973"><ele>451.6</ele><time>2026-05-01T09:52:04Z</time></trkpt><trkpt lat="44.90744428931781" lon="7.312500157732491"><ele>451.0</ele><time>2026-05-01T09:52:05Z</time></trkpt><trkpt lat="44.90744202472672" lon="7.312690692590632"><ele>451.0</ele><time>2026-05-01T09:52:06Z</time></trkpt><trkpt lat="44.907430882314415" lon="7.312848017280154"><ele>451.0</ele><time>2026-05-01T09:52:07Z</time></trkpt><trkpt lat="44.9073667730563" lon="7.312989907747313"><ele>451.0</ele><time>2026-05-01T09:52:09Z</time></trkpt><trkpt lat="44.907276942629025" lon="7.313040496327528"><ele>451.0</ele><time>2026-05-01T09:52:10Z</time></trkpt><trkpt lat="44.90715714309024" lon="7.312889181786802"><ele>451.0</ele><time>2026-05-01T09:52:11Z</time></trkpt><trkpt lat="44.90704065592736" lon="7.312821114130077"><ele>451.0</ele><time>2026-05-01T09:52:12Z</time></trkpt><trkpt lat="44.90692168505209" lon="7.312746217056067"><ele>451.0</ele><time>2026-05-01T09:52:13Z</time></trkpt><trkpt lat="44.90676986325009" lon="7.312639038505702"><ele>451.0</ele><time>2026-05-01T09:52:14Z</time></trkpt><trkpt lat="44.90659299446794" lon="7.312529587133873"><ele>450.33333333333337</ele><time>2026-05-01T09:52:15Z</time></trkpt><trkpt lat="44.90642447015719" lon="7.312376671769657"><ele>449.66666666666663</ele><time>2026-05-01T09:52:16Z</time></trkpt><trkpt lat="44.90626253639814" lon="7.31219863814085"><ele>449.0</ele><time>2026-05-01T09:52:17Z</time></trkpt><trkpt lat="44.906128763810806" lon="7.31203106458065"><ele>449.79999999999995</ele><time>2026-05-01T09:52:18Z</time></trkpt><trkpt lat="44.9060265042118" lon="7.3119082536001905"><ele>450.59999999999997</ele><time>2026-05-01T09:52:19Z</time></trkpt><trkpt lat="44.90596333803765" lon="7.311840297701994"><ele>451.4</ele><time>2026-05-01T09:52:20Z</time></trkpt><trkpt lat="44.905899109669996" lon="7.3117602097913235"><ele>452.2</ele><time>2026-05-01T09:52:22Z</time></trkpt><trkpt lat="44.90583932271077" lon="7.311706173972064"><ele>453.0</ele><time>2026-05-01T09:52:23Z</time></trkpt><trkpt lat="44.90583897228182" lon="7.311431046540482"><ele>454.6666666666667</ele><time>2026-05-01T09:52:24Z</time></trkpt><trkpt lat="44.905798599725024" lon="7.31128806545417"><ele>456.33333333333337</ele><time>2026-05-01T09:52:25Z</time></trkpt><trkpt lat="44.905793839906075" lon="7.311182798213564"><ele>458.0</ele><time>2026-05-01T09:52:26Z</time></trkpt><trkpt lat="44.90574733282836" lon="7.31111691739806"><ele>459.6666666666667</ele><time>2026-05-01T09:58:27Z</time></trkpt><trkpt lat="44.905760701607804" lon="7.311020446798461"><ele>461.33333333333337</ele><time>2026-05-01T09:58:29Z</time></trkpt><trkpt lat="44.90586178377105" lon="7.311065325308556"><ele>463.0</ele><time>2026-05-01T09:58:31Z</time></trkpt><trkpt lat="44.90588876917054" lon="7.311175406730709"><ele>463.0</ele><time>2026-05-01T09:58:33Z</time></trkpt><trkpt lat="44.90584609996277" lon="7.3112961499345825"><ele>462.99999999999994</ele><time>2026-05-01T09:58:35Z</time></trkpt><trkpt lat="44.9058789026975" lon="7.3114385999422575"><ele>462.99999999999994</ele><time>2026-05-01T09:58:37Z</time></trkpt><trkpt lat="44.905918415509646" lon="7.311604447531743"><ele>463.0</ele><time>2026-05-01T09:58:39Z</time></trkpt><trkpt lat="44.905930723559585" lon="7.311692516253573"><ele>463.0</ele><time>2026-05-01T09:58:40Z</time></trkpt><trkpt lat="44.90593353979993" lon="7.311792924433174"><ele>461.0</ele><time>2026-05-01T09:58:42.999Z</time></trkpt><trkpt lat="44.90595514613868" lon="7.31189300595202"><ele>458.99999999999994</ele><time>2026-05-01T09:58:52.999Z</time></trkpt><trkpt lat="44.9060247729016" lon="7.311961897168442"><ele>456.99999999999994</ele><time>2026-05-01T09:58:54.999Z</time></trkpt><trkpt lat="44.90612072505721" lon="7.3120579634503295"><ele>455.0</ele><time>2026-05-01T09:58:56.999Z</time></trkpt><trkpt lat="44.906172641554" lon="7.3121491762349935"><ele>453.0</ele><time>2026-05-01T09:58:57.999Z</time></trkpt><trkpt lat="44.90624262998368" lon="7.3122363200176"><ele>452.0</ele><time>2026-05-01T09:58:58.999Z</time></trkpt><trkpt lat="44.90632735878745" lon="7.31233370459195"><ele>451.0</ele><time>2026-05-01T09:58:59.999Z</time></trkpt><trkpt lat="44.906429864678294" lon="7.3124369830882525"><ele>450.0</ele><time>2026-05-01T09:59:00.999Z</time></trkpt><trkpt lat="44.906561349470515" lon="7.312524721062207"><ele>449.0</ele><time>2026-05-01T09:59:01.999Z</time></trkpt><trkpt lat="44.906678370097424" lon="7.3126184722786025"><ele>449.4</ele><time>2026-05-01T09:59:02.999Z</time></trkpt><trkpt lat="44.90678142848154" lon="7.312699540066277"><ele>449.79999999999995</ele><time>2026-05-01T09:59:03.999Z</time></trkpt><trkpt lat="44.906874999123275" lon="7.312767342106755"><ele>450.20000000000005</ele><time>2026-05-01T09:59:04.999Z</time></trkpt><trkpt lat="44.90696225907802" lon="7.312819766991464"><ele>450.6</ele><time>2026-05-01T09:59:05.999Z</time></trkpt><trkpt lat="44.90703887348528" lon="7.312856320932674"><ele>451.0</ele><time>2026-05-01T09:59:06.999Z</time></trkpt><trkpt lat="44.907109243262596" lon="7.312892039587223"><ele>451.0</ele><time>2026-05-01T09:59:07.999Z</time></trkpt><trkpt lat="44.90718691605513" lon="7.312934432436215"><ele>451.0</ele><time>2026-05-01T09:59:08.999Z</time></trkpt><trkpt lat="44.9072574246789" lon="7.312983650546628"><ele>451.0</ele><time>2026-05-01T09:59:09.999Z</time></trkpt><trkpt lat="44.90734612299058" lon="7.3130965302747395"><ele>451.0</ele><time>2026-05-01T09:59:11.999Z</time></trkpt><trkpt lat="44.90743265343396" lon="7.313125101765698"><ele>451.0</ele><time>2026-05-01T09:59:13.999Z</time></trkpt><trkpt lat="44.90751206245753" lon="7.3130439649521"><ele>451.0</ele><time>2026-05-01T09:59:15.999Z</time></trkpt><trkpt lat="44.90745675155378" lon="7.312918782436723"><ele>451.0</ele><time>2026-05-01T09:59:16.999Z</time></trkpt><trkpt lat="44.90745370083577" lon="7.312761561925866"><ele>451.0</ele><time>2026-05-01T09:59:18.999Z</time></trkpt><trkpt lat="44.90746620203642" lon="7.312654828537783"><ele>451.0</ele><time>2026-05-01T09:59:19.999Z</time></trkpt><trkpt lat="44.90748131760004" lon="7.31251702101431"><ele>451.0</ele><time>2026-05-01T09:59:20.999Z</time></trkpt><trkpt lat="44.907499967718145" lon="7.312369610798172"><ele>451.75</ele><time>2026-05-01T09:59:21.999Z</time></trkpt><trkpt lat="44.90752611827273" lon="7.3122134400745455"><ele>452.5</ele><time>2026-05-01T09:59:22.999Z</time></trkpt><trkpt lat="44.90755375049717" lon="7.312047350495791"><ele>453.25</ele><time>2026-05-01T09:59:23.999Z</time></trkpt><trkpt lat="44.90757067192118" lon="7.311874255442036"><ele>454.0</ele><time>2026-05-01T09:59:24.999Z</time></trkpt><trkpt lat="44.907579045916705" lon="7.311706628214843"><ele>454.0</ele><time>2026-05-01T09:59:25.999Z</time></trkpt><trkpt lat="44.90758214176457" lon="7.31153240552736"><ele>454.0</ele><time>2026-05-01T09:59:26.999Z</time></trkpt><trkpt lat="44.90757729004021" lon="7.311357328678112"><ele>454.0</ele><time>2026-05-01T09:59:27.999Z</time></trkpt><trkpt lat="44.90756047383515" lon="7.311184059544653"><ele>454.0</ele><time>2026-05-01T09:59:28.999Z</time></trkpt><trkpt lat="44.907528628509816" lon="7.311024190806601"><ele>456.0</ele><time>2026-05-01T09:59:29.999Z</time></trkpt><trkpt lat="44.90749330490524" lon="7.310865864063785"><ele>458.0</ele><time>2026-05-01T09:59:30.998Z</time></trkpt><trkpt lat="44.90747018744384" lon="7.31071655313342"><ele>460.0</ele><time>2026-05-01T09:59:31.998Z</time></trkpt><trkpt lat="44.90746967535104" lon="7.31056446577521"><ele>462.0</ele><time>2026-05-01T09:59:32.998Z</time></trkpt><trkpt lat="44.90751097378063" lon="7.310438713386172"><ele>464.0</ele><time>2026-05-01T09:59:33.998Z</time></trkpt><trkpt lat="44.907588791014334" lon="7.310332189691955"><ele>466.0</ele><time>2026-05-01T09:59:34.998Z</time></trkpt><trkpt lat="44.90768689276976" lon="7.310243688780405"><ele>468.0</ele><time>2026-05-01T09:59:35.998Z</time></trkpt><trkpt lat="44.907789943744234" lon="7.310169238973491"><ele>470.0</ele><time>2026-05-01T09:59:36.998Z</time></trkpt><trkpt lat="44.907882209968925" lon="7.310085299316262"><ele>472.0</ele><time>2026-05-01T09:59:37.998Z</time></trkpt><trkpt lat="44.90795791819936" lon="7.309983774165486"><ele>474.0</ele><time>2026-05-01T09:59:38.998Z</time></trkpt><trkpt lat="44.90800484380426" lon="7.3098457634290455"><ele>477.5</ele><time>2026-05-01T09:59:39.998Z</time></trkpt><trkpt lat="44.90803252053699" lon="7.309703244664036"><ele>481.0</ele><time>2026-05-01T09:59:40.998Z</time></trkpt><trkpt lat="44.907968881742974" lon="7.30953026142485"><ele>484.5</ele><time>2026-05-01T09:59:41.998Z</time></trkpt><trkpt lat="44.9079036300065" lon="7.3093778727440215"><ele>488.0</ele><time>2026-05-01T09:59:42.998Z</time></trkpt><trkpt lat="44.9078375304779" lon="7.309237496283247"><ele>488.0</ele><time>2026-05-01T09:59:43.998Z</time></trkpt><trkpt lat="44.90777065483687" lon="7.309089841555353"><ele>488.0</ele><time>2026-05-01T09:59:44.998Z</time></trkpt><trkpt lat="44.907708157869685" lon="7.308908407385183"><ele>488.0</ele><time>2026-05-01T09:59:45.998Z</time></trkpt><trkpt lat="44.907618209393576" lon="7.308731100937356"><ele>488.0</ele><time>2026-05-01T09:59:46.998Z</time></trkpt><trkpt lat="44.907550211838455" lon="7.308543884975508"><ele>488.75</ele><time>2026-05-01T09:59:47.998Z</time></trkpt><trkpt lat="44.90747821755396" lon="7.308370894688118"><ele>489.5</ele><time>2026-05-01T09:59:48.998Z</time></trkpt><trkpt lat="44.9074098410747" lon="7.308198558649415"><ele>490.25</ele><time>2026-05-01T09:59:49.998Z</time></trkpt><trkpt lat="44.90734752650701" lon="7.308032940411222"><ele>491.0</ele><time>2026-05-01T09:59:50.998Z</time></trkpt><trkpt lat="44.90727782771905" lon="7.307875934726558"><ele>493.25</ele><time>2026-05-01T09:59:51.998Z</time></trkpt><trkpt lat="44.907238104536184" lon="7.307701174181595"><ele>495.5</ele><time>2026-05-01T09:59:52.998Z</time></trkpt><trkpt lat="44.90721621763418" lon="7.307534629041433"><ele>497.75</ele><time>2026-05-01T09:59:53.998Z</time></trkpt><trkpt lat="44.90725032009856" lon="7.307383724790453"><ele>500.0</ele><time>2026-05-01T09:59:54.998Z</time></trkpt><trkpt lat="44.90729980261008" lon="7.307251724659007"><ele>501.5</ele><time>2026-05-01T09:59:55.998Z</time></trkpt><trkpt lat="44.907346868692564" lon="7.307095352473119"><ele>503.0</ele><time>2026-05-01T09:59:56.998Z</time></trkpt><trkpt lat="44.907368255605306" lon="7.306937809271656"><ele>504.5</ele><time>2026-05-01T09:59:57.998Z</time></trkpt><trkpt lat="44.90732819737119" lon="7.306768925609942"><ele>506.0</ele><time>2026-05-01T09:59:58.998Z</time></trkpt><trkpt lat="44.907249053484925" lon="7.30663029752767"><ele>506.0</ele><time>2026-05-01T09:59:59.998Z</time></trkpt><trkpt lat="44.90717615839647" lon="7.30651514036718"><ele>506.0</ele><time>2026-05-01T10:00:00.998Z</time></trkpt><trkpt lat="44.90714438267928" lon="7.306415405477055"><ele>506.0</ele><time>2026-05-01T10:00:01.998Z</time></trkpt><trkpt lat="44.90716705994597" lon="7.306292870918596"><ele>506.0</ele><time>2026-05-01T10:00:03.998Z</time></trkpt><trkpt lat="44.90724607886061" lon="7.306257416621878"><ele>506.0</ele><time>2026-05-01T10:00:04.998Z</time></trkpt><trkpt lat="44.90734292671986" lon="7.306259260326638"><ele>508.4</ele><time>2026-05-01T10:00:05.998Z</time></trkpt><trkpt lat="44.90743670029381" lon="7.306202732742507"><ele>510.8</ele><time>2026-05-01T10:00:06.998Z</time></trkpt><trkpt lat="44.907539347702105" lon="7.30613780756543"><ele>513.1999999999999</ele><time>2026-05-01T10:00:07.998Z</time></trkpt><trkpt lat="44.90764457355368" lon="7.306074818466822"><ele>515.6</ele><time>2026-05-01T10:00:08.998Z</time></trkpt><trkpt lat="44.907745440723446" lon="7.306038294688353"><ele>518.0</ele><time>2026-05-01T10:00:09.998Z</time></trkpt><trkpt lat="44.90781799574549" lon="7.306017876389141"><ele>518.0</ele><time>2026-05-01T10:00:10.998Z</time></trkpt><trkpt lat="44.90780421126104" lon="7.305849762507992"><ele>518.0</ele><time>2026-05-01T10:00:12.998Z</time></trkpt><trkpt lat="44.90771171612864" lon="7.30578167467708"><ele>518.0</ele><time>2026-05-01T10:00:13.998Z</time></trkpt><trkpt lat="44.90761075436144" lon="7.305742502398036"><ele>518.0</ele><time>2026-05-01T10:00:14.998Z</time></trkpt><trkpt lat="44.90750935107676" lon="7.30567917809142"><ele>518.0</ele><time>2026-05-01T10:00:15.998Z</time></trkpt><trkpt lat="44.907418338692665" lon="7.305594865262968"><ele>519.0</ele><time>2026-05-01T10:00:16.998Z</time></trkpt><trkpt lat="44.90736906354284" lon="7.305460856294508"><ele>520.0</ele><time>2026-05-01T10:00:17.998Z</time></trkpt><trkpt lat="44.907332300711104" lon="7.30533880373001"><ele>521.0</ele><time>2026-05-01T10:00:18.997Z</time></trkpt><trkpt lat="44.907331583132255" lon="7.305214252684154"><ele>522.0</ele><time>2026-05-01T10:00:19.997Z</time></trkpt><trkpt lat="44.90733394122426" lon="7.305096705577029"><ele>523.0</ele><time>2026-05-01T10:00:20.997Z</time></trkpt><trkpt lat="44.90741051972357" lon="7.305009264175799"><ele>523.0</ele><time>2026-05-01T10:00:21.997Z</time></trkpt><trkpt lat="44.9075102555477" lon="7.30495312570388"><ele>523.0</ele><time>2026-05-01T10:00:23Z</time></trkpt><trkpt lat="44.90762637262841" lon="7.304935098397569"><ele>523.0</ele><time>2026-05-01T10:00:24Z</time></trkpt><trkpt lat="44.90773841486149" lon="7.3049045231707845"><ele>523.0</ele><time>2026-05-01T10:00:25Z</time></trkpt><trkpt lat="44.907845831408814" lon="7.304929430907414"><ele>523.0</ele><time>2026-05-01T10:00:26Z</time></trkpt><trkpt lat="44.90793234895295" lon="7.305017122213878"><ele>527.6</ele><time>2026-05-01T10:00:27Z</time></trkpt><trkpt lat="44.908016108756044" lon="7.30511400350957"><ele>532.1999999999999</ele><time>2026-05-01T10:00:28Z</time></trkpt><trkpt lat="44.90811777967473" lon="7.305199565590072"><ele>536.8</ele><time>2026-05-01T10:00:29Z</time></trkpt><trkpt lat="44.90820280314112" lon="7.305300769444394"><ele>541.4</ele><time>2026-05-01T10:00:30Z</time></trkpt><trkpt lat="44.9082868569626" lon="7.305395928129206"><ele>546.0</ele><time>2026-05-01T10:00:31Z</time></trkpt><trkpt lat="44.90837301216783" lon="7.305492905980269"><ele>545.2</ele><time>2026-05-01T10:00:32Z</time></trkpt><trkpt lat="44.90845744516894" lon="7.3055827707870735"><ele>544.4000000000001</ele><time>2026-05-01T10:00:33Z</time></trkpt><trkpt lat="44.90854734685896" lon="7.305674573745485"><ele>543.6</ele><time>2026-05-01T10:00:34Z</time></trkpt><trkpt lat="44.90863643820532" lon="7.30574600607597"><ele>542.8000000000001</ele><time>2026-05-01T10:00:35Z</time></trkpt><trkpt lat="44.908735557026816" lon="7.305802257880735"><ele>542.0</ele><time>2026-05-01T10:00:36Z</time></trkpt><trkpt lat="44.908836352621606" lon="7.305828990581303"><ele>542.0</ele><time>2026-05-01T10:00:37Z</time></trkpt><trkpt lat="44.908940794479335" lon="7.305821544748971"><ele>542.0</ele><time>2026-05-01T10:00:38Z</time></trkpt><trkpt lat="44.90905046433427" lon="7.305765615882547"><ele>542.0</ele><time>2026-05-01T10:00:39Z</time></trkpt><trkpt lat="44.90913936948577" lon="7.305674262904006"><ele>542.0</ele><time>2026-05-01T10:00:40Z</time></trkpt><trkpt lat="44.909206382431414" lon="7.3055328908766315"><ele>545.4</ele><time>2026-05-01T10:00:41Z</time></trkpt><trkpt lat="44.90926530961409" lon="7.305384169142221"><ele>548.8000000000001</ele><time>2026-05-01T10:00:42Z</time></trkpt><trkpt lat="44.909298300325155" lon="7.305230469982463"><ele>552.2</ele><time>2026-05-01T10:00:43Z</time></trkpt><trkpt lat="44.90930862736656" lon="7.305096179231037"><ele>555.6</ele><time>2026-05-01T10:00:44Z</time></trkpt><trkpt lat="44.90926537239809" lon="7.304979263141902"><ele>559.0</ele><time>2026-05-01T10:00:45Z</time></trkpt><trkpt lat="44.909174276937" lon="7.304880885474879"><ele>559.0</ele><time>2026-05-01T10:00:46Z</time></trkpt><trkpt lat="44.909050647272345" lon="7.3048182291928025"><ele>559.0</ele><time>2026-05-01T10:00:47Z</time></trkpt><trkpt lat="44.908947881323954" lon="7.304728720217341"><ele>559.0</ele><time>2026-05-01T10:00:47.999Z</time></trkpt><trkpt lat="44.90888339918471" lon="7.304617731028759"><ele>559.0</ele><time>2026-05-01T10:00:48.999Z</time></trkpt><trkpt lat="44.90882887185929" lon="7.304470342240102"><ele>563.0</ele><time>2026-05-01T10:00:49.999Z</time></trkpt><trkpt lat="44.90879090371386" lon="7.304310421292314"><ele>567.0</ele><time>2026-05-01T10:00:50.999Z</time></trkpt><trkpt lat="44.908760835472044" lon="7.304143571065336"><ele>571.0</ele><time>2026-05-01T10:00:51.999Z</time></trkpt><trkpt lat="44.908761929745324" lon="7.303975131451239"><ele>575.0</ele><time>2026-05-01T10:00:52.999Z</time></trkpt><trkpt lat="44.908771864751316" lon="7.303786887024905"><ele>576.75</ele><time>2026-05-01T10:00:53.999Z</time></trkpt><trkpt lat="44.90878480889285" lon="7.30361807464012"><ele>578.5</ele><time>2026-05-01T10:00:54.999Z</time></trkpt><trkpt lat="44.908801273827585" lon="7.30344215204158"><ele>580.25</ele><time>2026-05-01T10:00:55.999Z</time></trkpt><trkpt lat="44.908822091368194" lon="7.303251764151561"><ele>582.0</ele><time>2026-05-01T10:00:56.999Z</time></trkpt><trkpt lat="44.90882851186216" lon="7.303063645462941"><ele>582.5</ele><time>2026-05-01T10:00:57.999Z</time></trkpt><trkpt lat="44.90885771913597" lon="7.302883954521713"><ele>583.0</ele><time>2026-05-01T10:00:58.999Z</time></trkpt><trkpt lat="44.90888853567745" lon="7.302692034829863"><ele>583.5</ele><time>2026-05-01T10:00:59.999Z</time></trkpt><trkpt lat="44.90893518620622" lon="7.302504695870049"><ele>584.0</ele><time>2026-05-01T10:01:00.999Z</time></trkpt><trkpt lat="44.90896817849829" lon="7.30231342919886"><ele>583.25</ele><time>2026-05-01T10:01:01.999Z</time></trkpt><trkpt lat="44.909002506817885" lon="7.302133725142881"><ele>582.5</ele><time>2026-05-01T10:01:02.999Z</time></trkpt><trkpt lat="44.90904251279313" lon="7.301949372901999"><ele>581.75</ele><time>2026-05-01T10:01:03.999Z</time></trkpt><trkpt lat="44.90908813054721" lon="7.301777910076974"><ele>581.0</ele><time>2026-05-01T10:01:04.999Z</time></trkpt><trkpt lat="44.909145292844514" lon="7.301621179213494"><ele>581.0</ele><time>2026-05-01T10:01:05.999Z</time></trkpt><trkpt lat="44.909215941099994" lon="7.301488847989237"><ele>581.0</ele><time>2026-05-01T10:01:06.999Z</time></trkpt><trkpt lat="44.909299506604135" lon="7.301376131759738"><ele>581.0</ele><time>2026-05-01T10:01:07.999Z</time></trkpt><trkpt lat="44.90939517708041" lon="7.301304123000531"><ele>581.0</ele><time>2026-05-01T10:01:08.999Z</time></trkpt><trkpt lat="44.90948240096057" lon="7.301203635880747"><ele>586.0</ele><time>2026-05-01T10:01:09.999Z</time></trkpt><trkpt lat="44.90956660161095" lon="7.30111251172812"><ele>591.0</ele><time>2026-05-01T10:01:10.999Z</time></trkpt><trkpt lat="44.90961223922038" lon="7.300985712767045"><ele>596.0</ele><time>2026-05-01T10:01:11.999Z</time></trkpt><trkpt lat="44.909633957802946" lon="7.300837022383834"><ele>601.0</ele><time>2026-05-01T10:01:12.999Z</time></trkpt><trkpt lat="44.90965006335248" lon="7.3006801684304845"><ele>606.0</ele><time>2026-05-01T10:01:13.999Z</time></trkpt><trkpt lat="44.90966751794273" lon="7.300536892372738"><ele>606.5</ele><time>2026-05-01T10:01:14.999Z</time></trkpt><trkpt lat="44.90968643862362" lon="7.300427759775675"><ele>607.0</ele><time>2026-05-01T10:01:15.999Z</time></trkpt><trkpt lat="44.90972293105665" lon="7.300349983964724"><ele>607.5</ele><time>2026-05-01T10:01:16.999Z</time></trkpt><trkpt lat="44.90968844396624" lon="7.3002355796468965"><ele>608.0</ele><time>2026-05-01T10:01:17.999Z</time></trkpt><trkpt lat="44.90967385830645" lon="7.300138359291723"><ele>608.5</ele><time>2026-05-01T10:01:18.999Z</time></trkpt><trkpt lat="44.90967197357344" lon="7.300039061922972"><ele>609.0</ele><time>2026-05-01T10:01:19.999Z</time></trkpt><trkpt lat="44.90968232019685" lon="7.299928068019553"><ele>609.0</ele><time>2026-05-01T10:01:20.999Z</time></trkpt><trkpt lat="44.90969902613534" lon="7.299796972258069"><ele>609.0</ele><time>2026-05-01T10:01:21.999Z</time></trkpt><trkpt lat="44.909738338440924" lon="7.299656047147776"><ele>609.0</ele><time>2026-05-01T10:01:22.999Z</time></trkpt><trkpt lat="44.90975171991548" lon="7.299501342924514"><ele>609.0</ele><time>2026-05-01T10:01:23.999Z</time></trkpt><trkpt lat="44.90978698503218" lon="7.299351621889564"><ele>609.0</ele><time>2026-05-01T10:01:24.999Z</time></trkpt><trkpt lat="44.909821956570546" lon="7.2991987107599465"><ele>609.0</ele><time>2026-05-01T10:01:25.999Z</time></trkpt><trkpt lat="44.9098224243537" lon="7.299055621901677"><ele>609.0</ele><time>2026-05-01T10:01:26.999Z</time></trkpt><trkpt lat="44.90983127520868" lon="7.298939279915005"><ele>609.0</ele><time>2026-05-01T10:01:27.999Z</time></trkpt><trkpt lat="44.909838138983815" lon="7.298849057651914"><ele>609.0</ele><time>2026-05-01T10:01:28.999Z</time></trkpt><trkpt lat="44.90977588942819" lon="7.298779033361617"><ele>609.0</ele><time>2026-05-01T10:01:30.999Z</time></trkpt><trkpt lat="44.909745760983625" lon="7.298892756784634"><ele>609.0</ele><time>2026-05-01T10:01:31.999Z</time></trkpt><trkpt lat="44.90965885259671" lon="7.2988288830441315"><ele>611.3333333333334</ele><time>2026-05-01T10:01:35.998Z</time></trkpt><trkpt lat="44.90957895633797" lon="7.298738393772188"><ele>613.6666666666666</ele><time>2026-05-01T10:01:36.998Z</time></trkpt><trkpt lat="44.909517561575925" lon="7.298677913934318"><ele>616.0</ele><time>2026-05-01T10:01:37.998Z</time></trkpt><trkpt lat="44.909453064106465" lon="7.298604417445181"><ele>618.3333333333333</ele><time>2026-05-01T10:01:38.998Z</time></trkpt><trkpt lat="44.9093932384115" lon="7.298526072709195"><ele>620.6666666666666</ele><time>2026-05-01T10:01:40.998Z</time></trkpt><trkpt lat="44.9093212642963" lon="7.298477511022497"><ele>623.0</ele><time>2026-05-01T10:01:57.998Z</time></trkpt><trkpt lat="44.90932038750287" lon="7.298385900339742"><ele>623.0</ele><time>2026-05-01T10:01:59.998Z</time></trkpt><trkpt lat="44.90942010028999" lon="7.29839971282994"><ele>623.0</ele><time>2026-05-01T10:02:01.998Z</time></trkpt><trkpt lat="44.90953490057762" lon="7.298381323545248"><ele>623.0</ele><time>2026-05-01T10:02:03.998Z</time></trkpt><trkpt lat="44.90959246238241" lon="7.298335574318065"><ele>623.0</ele><time>2026-05-01T10:02:04.998Z</time></trkpt><trkpt lat="44.90971183879693" lon="7.298232648718894"><ele>623.0</ele><time>2026-05-01T10:02:06.998Z</time></trkpt><trkpt lat="44.9097682073101" lon="7.2981772175896475"><ele>627.5999999999999</ele><time>2026-05-01T10:02:07.998Z</time></trkpt><trkpt lat="44.90981120175327" lon="7.298065172645362"><ele>632.1999999999999</ele><time>2026-05-01T10:02:08.998Z</time></trkpt><trkpt lat="44.90988188982656" lon="7.2979600530236235"><ele>636.8</ele><time>2026-05-01T10:02:09.998Z</time></trkpt><trkpt lat="44.90994510448189" lon="7.297869524648449"><ele>641.4</ele><time>2026-05-01T10:02:10.998Z</time></trkpt><trkpt lat="44.91002972799236" lon="7.297748271999513"><ele>646.0</ele><time>2026-05-01T10:02:11.998Z</time></trkpt><trkpt lat="44.91010505710014" lon="7.297647927527592"><ele>648.1999999999999</ele><time>2026-05-01T10:02:12.998Z</time></trkpt><trkpt lat="44.910174594315585" lon="7.297559852362557"><ele>650.4</ele><time>2026-05-01T10:02:13.998Z</time></trkpt><trkpt lat="44.91024333459685" lon="7.297474223701243"><ele>652.6</ele><time>2026-05-01T10:02:14.998Z</time></trkpt><trkpt lat="44.9103255689618" lon="7.297412257497573"><ele>654.8</ele><time>2026-05-01T10:02:15.998Z</time></trkpt><trkpt lat="44.91043296836313" lon="7.297279423848541"><ele>657.0</ele><time>2026-05-01T10:02:17.998Z</time></trkpt><trkpt lat="44.91048749211256" lon="7.2971888485383625"><ele>661.4000000000001</ele><time>2026-05-01T10:02:18.998Z</time></trkpt><trkpt lat="44.91042874176135" lon="7.297109837763592"><ele>665.8000000000001</ele><time>2026-05-01T10:02:20.998Z</time></trkpt><trkpt lat="44.91035999948533" lon="7.297107120354073"><ele>670.2</ele><time>2026-05-01T10:02:21.998Z</time></trkpt><trkpt lat="44.9102561956407" lon="7.297118307943179"><ele>674.6</ele><time>2026-05-01T10:02:23.997Z</time></trkpt><trkpt lat="44.91018029590925" lon="7.297012428862754"><ele>679.0</ele><time>2026-05-01T10:02:25.997Z</time></trkpt><trkpt lat="44.91015430721425" lon="7.296884362114872"><ele>679.0</ele><time>2026-05-01T10:02:26.997Z</time></trkpt><trkpt lat="44.91010482632747" lon="7.296745870412583"><ele>679.0</ele><time>2026-05-01T10:02:27.997Z</time></trkpt><trkpt lat="44.91006005495599" lon="7.296605344350426"><ele>679.0</ele><time>2026-05-01T10:02:29Z</time></trkpt><trkpt lat="44.91001282070966" lon="7.296492903963037"><ele>679.0</ele><time>2026-05-01T10:02:30Z</time></trkpt><trkpt lat="44.90997045047163" lon="7.296364881592249"><ele>679.0</ele><time>2026-05-01T10:02:31Z</time></trkpt><trkpt lat="44.90991461200482" lon="7.296217650453333"><ele>677.8000000000001</ele><time>2026-05-01T10:02:32Z</time></trkpt><trkpt lat="44.90988059980919" lon="7.296127099387626"><ele>676.6</ele><time>2026-05-01T10:02:33Z</time></trkpt><trkpt lat="44.909836847261275" lon="7.295955469883619"><ele>675.4</ele><time>2026-05-01T10:02:34Z</time></trkpt><trkpt lat="44.90978279424151" lon="7.295781245960713"><ele>674.2</ele><time>2026-05-01T10:02:35Z</time></trkpt><trkpt lat="44.909743716752615" lon="7.295651453615415"><ele>673.0</ele><time>2026-05-01T10:02:36Z</time></trkpt><trkpt lat="44.909725261349834" lon="7.295526466955112"><ele>673.0</ele><time>2026-05-01T10:02:37Z</time></trkpt><trkpt lat="44.90972510860686" lon="7.295397004367283"><ele>673.0</ele><time>2026-05-01T10:02:38Z</time></trkpt><trkpt lat="44.909746358724234" lon="7.295262767825161"><ele>673.0</ele><time>2026-05-01T10:02:39Z</time></trkpt><trkpt lat="44.90976407154372" lon="7.2951600114133415"><ele>673.0</ele><time>2026-05-01T10:02:40Z</time></trkpt><trkpt lat="44.90974471601745" lon="7.295057721665848"><ele>673.0</ele><time>2026-05-01T10:02:42Z</time></trkpt><trkpt lat="44.90980953245201" lon="7.295064801726623"><ele>673.0</ele><time>2026-05-01T10:02:49Z</time></trkpt><trkpt lat="44.909873940431474" lon="7.295086892373822"><ele>673.0</ele><time>2026-05-01T10:02:51Z</time></trkpt><trkpt lat="44.909935305385204" lon="7.294971169459173"><ele>673.0</ele><time>2026-05-01T10:02:53.999Z</time></trkpt><trkpt lat="44.90997108702111" lon="7.2947897684734935"><ele>673.0</ele><time>2026-05-01T10:02:55.999Z</time></trkpt><trkpt lat="44.9100154070754" lon="7.294687899493567"><ele>673.0</ele><time>2026-05-01T10:02:56.999Z</time></trkpt><trkpt lat="44.91005751971157" lon="7.294587830028682"><ele>673.0</ele><time>2026-05-01T10:02:57.999Z</time></trkpt><trkpt lat="44.910141008812545" lon="7.294494918497275"><ele>678.0</ele><time>2026-05-01T10:02:58.999Z</time></trkpt><trkpt lat="44.91018740148672" lon="7.294415465880979"><ele>683.0</ele><time>2026-05-01T10:02:59.999Z</time></trkpt><trkpt lat="44.91028931755918" lon="7.294353298365209"><ele>688.0</ele><time>2026-05-01T10:03:01.999Z</time></trkpt><trkpt lat="44.910375288533146" lon="7.294345641966967"><ele>693.0</ele><time>2026-05-01T10:03:03.999Z</time></trkpt><trkpt lat="44.91035143117609" lon="7.2944484127883085"><ele>698.0</ele><time>2026-05-01T10:03:05.999Z</time></trkpt><trkpt lat="44.910386405455625" lon="7.294572927251379"><ele>703.0</ele><time>2026-05-01T10:03:07.999Z</time></trkpt><trkpt lat="44.91043731280111" lon="7.294642718965171"><ele>703.0</ele><time>2026-05-01T10:03:09.999Z</time></trkpt><trkpt lat="44.91048443883087" lon="7.294727019145318"><ele>703.0</ele><time>2026-05-01T10:03:12.999Z</time></trkpt><trkpt lat="44.910533836282134" lon="7.295045134474377"><ele>703.0</ele><time>2026-05-01T10:03:14.999Z</time></trkpt><trkpt lat="44.91050985323803" lon="7.294889313580389"><ele>703.0</ele><time>2026-05-01T10:03:15.999Z</time></trkpt><trkpt lat="44.91056912280687" lon="7.295007027175895"><ele>702.3333333333334</ele><time>2026-05-01T10:03:16.999Z</time></trkpt><trkpt lat="44.91083192778557" lon="7.29509798223715"><ele>701.6666666666666</ele><time>2026-05-01T10:03:20.999Z</time></trkpt><trkpt lat="44.91095849013481" lon="7.295125718036861"><ele>701.0</ele><time>2026-05-01T10:03:21.999Z</time></trkpt><trkpt lat="44.91102595103703" lon="7.295188139764398"><ele>704.5999999999999</ele><time>2026-05-01T10:03:22.999Z</time></trkpt><trkpt lat="44.91110078388496" lon="7.2951517661954846"><ele>708.2</ele><time>2026-05-01T10:03:24.999Z</time></trkpt><trkpt lat="44.911192983278724" lon="7.29515040923049"><ele>711.8</ele><time>2026-05-01T10:03:27.999Z</time></trkpt><trkpt lat="44.91128275540647" lon="7.295142902344609"><ele>715.4000000000001</ele><time>2026-05-01T10:03:29.999Z</time></trkpt><trkpt lat="44.91140995942919" lon="7.295110059268129"><ele>719.0</ele><time>2026-05-01T10:03:31.999Z</time></trkpt><trkpt lat="44.91145425791682" lon="7.294971020097649"><ele>719.0</ele><time>2026-05-01T10:03:33.999Z</time></trkpt><trkpt lat="44.9114729249595" lon="7.294859260663259"><ele>719.0</ele><time>2026-05-01T10:03:35.999Z</time></trkpt><trkpt lat="44.911500864549154" lon="7.294745228364924"><ele>719.0</ele><time>2026-05-01T10:03:37.999Z</time></trkpt><trkpt lat="44.91153742297116" lon="7.294645805826837"><ele>719.0</ele><time>2026-05-01T10:03:39.999Z</time></trkpt><trkpt lat="44.911616016461274" lon="7.294508096746011"><ele>719.0</ele><time>2026-05-01T10:03:40.998Z</time></trkpt><trkpt lat="44.9116844892037" lon="7.294494578936499"><ele>719.0</ele><time>2026-05-01T10:04:07.998Z</time></trkpt><trkpt lat="44.91175654644057" lon="7.294484143900523"><ele>721.5714285714286</ele><time>2026-05-01T10:04:09.998Z</time></trkpt><trkpt lat="44.91181703079391" lon="7.294556434253822"><ele>724.1428571428571</ele><time>2026-05-01T10:04:21.998Z</time></trkpt><trkpt lat="44.91190332149315" lon="7.29457039478493"><ele>726.7142857142858</ele><time>2026-05-01T10:04:25.998Z</time></trkpt><trkpt lat="44.91192434810012" lon="7.294656497712636"><ele>729.2857142857142</ele><time>2026-05-01T10:04:56Z</time></trkpt><trkpt lat="44.911993824916834" lon="7.294629928114197"><ele>731.8571428571429</ele><time>2026-05-01T10:07:40.999Z</time></trkpt><trkpt lat="44.9120403425252" lon="7.294555028126719"><ele>734.4285714285714</ele><time>2026-05-01T10:07:43.999Z</time></trkpt><trkpt lat="44.91205995953165" lon="7.294454421355874"><ele>737.0</ele><time>2026-05-01T10:07:45.999Z</time></trkpt><trkpt lat="44.912092203192785" lon="7.294368060165838"><ele>737.0</ele><time>2026-05-01T10:07:48.999Z</time></trkpt><trkpt lat="44.912094417577165" lon="7.294268905847244"><ele>737.0</ele><time>2026-05-01T10:07:53.998Z</time></trkpt><trkpt lat="44.91207639943832" lon="7.29417109737558"><ele>737.0</ele><time>2026-05-01T10:07:56.998Z</time></trkpt><trkpt lat="44.91207892929982" lon="7.294069655270993"><ele>737.0</ele><time>2026-05-01T10:07:58.998Z</time></trkpt><trkpt lat="44.9121585537866" lon="7.2939770755807345"><ele>737.0</ele><time>2026-05-01T10:08:01.998Z</time></trkpt><trkpt lat="44.91222359359587" lon="7.293879143758787"><ele>737.0</ele><time>2026-05-01T10:08:03.998Z</time></trkpt><trkpt lat="44.91224842270408" lon="7.293795715003144"><ele>738.1666666666666</ele><time>2026-05-01T10:08:07.998Z</time></trkpt><trkpt lat="44.91229017368684" lon="7.293724176578377"><ele>739.3333333333333</ele><time>2026-05-01T10:08:09.998Z</time></trkpt><trkpt lat="44.912356473518344" lon="7.293622073935733"><ele>740.5</ele><time>2026-05-01T10:08:11.998Z</time></trkpt><trkpt lat="44.91241895233656" lon="7.293519691789514"><ele>741.6666666666666</ele><time>2026-05-01T10:08:13.998Z</time></trkpt><trkpt lat="44.91248404806074" lon="7.293453282116698"><ele>742.8333333333334</ele><time>2026-05-01T10:08:17.998Z</time></trkpt><trkpt lat="44.912571496329114" lon="7.2934689899930385"><ele>744.0</ele><time>2026-05-01T10:08:20.998Z</time></trkpt><trkpt lat="44.91262311554518" lon="7.293528103054472"><ele>744.0</ele><time>2026-05-01T10:08:23.998Z</time></trkpt><trkpt lat="44.912688978963146" lon="7.293430889549597"><ele>744.0</ele><time>2026-05-01T10:08:28.998Z</time></trkpt><trkpt lat="44.91274325116692" lon="7.293337773896853"><ele>744.0</ele><time>2026-05-01T10:08:31.998Z</time></trkpt><trkpt lat="44.91270082677017" lon="7.2932607237143605"><ele>744.0</ele><time>2026-05-01T10:08:34.998Z</time></trkpt><trkpt lat="44.91267440743748" lon="7.293171601201585"><ele>744.0</ele><time>2026-05-01T10:08:37.998Z</time></trkpt><trkpt lat="44.91267793108818" lon="7.2930786344412075"><ele>744.0</ele><time>2026-05-01T10:09:03Z</time></trkpt><trkpt lat="44.91267950766013" lon="7.29293309391038"><ele>745.6666666666666</ele><time>2026-05-01T10:09:05Z</time></trkpt><trkpt lat="44.912685756119046" lon="7.292807379833818"><ele>747.3333333333334</ele><time>2026-05-01T10:09:06Z</time></trkpt><trkpt lat="44.912707555425676" lon="7.292676573922776"><ele>749.0</ele><time>2026-05-01T10:09:07Z</time></trkpt><trkpt lat="44.91274370404532" lon="7.292531597327925"><ele>750.6666666666667</ele><time>2026-05-01T10:09:07.999Z</time></trkpt><trkpt lat="44.91276398705491" lon="7.2924338351749745"><ele>752.3333333333334</ele><time>2026-05-01T10:09:08.999Z</time></trkpt><trkpt lat="44.91273839935261" lon="7.29234151756922"><ele>754.0</ele><time>2026-05-01T10:09:09.999Z</time></trkpt><trkpt lat="44.91274994175529" lon="7.292192368390395"><ele>755.8000000000001</ele><time>2026-05-01T10:09:11.999Z</time></trkpt><trkpt lat="44.91279088083516" lon="7.292080764587473"><ele>757.6</ele><time>2026-05-01T10:09:13.999Z</time></trkpt><trkpt lat="44.91288496550349" lon="7.291975584294289"><ele>759.4</ele><time>2026-05-01T10:09:14.999Z</time></trkpt><trkpt lat="44.91290764508195" lon="7.291865862252765"><ele>761.2</ele><time>2026-05-01T10:09:15.999Z</time></trkpt><trkpt lat="44.91289897989234" lon="7.291742844735984"><ele>763.0</ele><time>2026-05-01T10:09:16.999Z</time></trkpt><trkpt lat="44.912861584354594" lon="7.291619152754322"><ele>763.0</ele><time>2026-05-01T10:09:17.999Z</time></trkpt><trkpt lat="44.91280426418787" lon="7.29149079085497"><ele>763.0</ele><time>2026-05-01T10:09:18.999Z</time></trkpt><trkpt lat="44.91276394213066" lon="7.291357616838304"><ele>763.0</ele><time>2026-05-01T10:09:19.999Z</time></trkpt><trkpt lat="44.91275801690496" lon="7.291226428444075"><ele>763.0</ele><time>2026-05-01T10:09:20.999Z</time></trkpt><trkpt lat="44.91274522581813" lon="7.291124411616786"><ele>763.0</ele><time>2026-05-01T10:09:21.999Z</time></trkpt><trkpt lat="44.912694487818584" lon="7.291015424809141"><ele>761.4</ele><time>2026-05-01T10:09:23.999Z</time></trkpt><trkpt lat="44.91262257885823" lon="7.291028050566525"><ele>759.8</ele><time>2026-05-01T10:09:24.999Z</time></trkpt><trkpt lat="44.91253419162435" lon="7.291058617229953"><ele>758.2</ele><time>2026-05-01T10:09:25.999Z</time></trkpt><trkpt lat="44.91241265035277" lon="7.291056189381231"><ele>756.6</ele><time>2026-05-01T10:09:27.999Z</time></trkpt><trkpt lat="44.91233569548377" lon="7.290954881536857"><ele>755.0</ele><time>2026-05-01T10:09:29.999Z</time></trkpt><trkpt lat="44.91228504631371" lon="7.290892566939711"><ele>755.0</ele><time>2026-05-01T10:09:30.999Z</time></trkpt><trkpt lat="44.91222082013626" lon="7.290765199125941"><ele>755.0</ele><time>2026-05-01T10:09:32.999Z</time></trkpt><trkpt lat="44.91217000810776" lon="7.29065704651505"><ele>755.0</ele><time>2026-05-01T10:09:34.999Z</time></trkpt><trkpt lat="44.912137123309385" lon="7.290567656447429"><ele>755.0</ele><time>2026-05-01T10:09:35.999Z</time></trkpt><trkpt lat="44.91212377851681" lon="7.290428412636273"><ele>755.0</ele><time>2026-05-01T10:09:36.999Z</time></trkpt><trkpt lat="44.91211581092587" lon="7.290326283114425"><ele>755.0</ele><time>2026-05-01T10:09:37.999Z</time></trkpt><trkpt lat="44.91212623577472" lon="7.290165237455748"><ele>756.6666666666666</ele><time>2026-05-01T10:09:39.999Z</time></trkpt><trkpt lat="44.91215559748902" lon="7.290006095660496"><ele>758.3333333333333</ele><time>2026-05-01T10:09:41.999Z</time></trkpt><trkpt lat="44.91216115954687" lon="7.2899132456789735"><ele>760.0</ele><time>2026-05-01T10:09:42.999Z</time></trkpt><trkpt lat="44.91216446466965" lon="7.2898007919577195"><ele>761.6666666666666</ele><time>2026-05-01T10:09:43.999Z</time></trkpt><trkpt lat="44.912178295939455" lon="7.289673604062999"><ele>763.3333333333334</ele><time>2026-05-01T10:09:44.999Z</time></trkpt><trkpt lat="44.91219362099282" lon="7.289565748704186"><ele>765.0</ele><time>2026-05-01T10:09:45.999Z</time></trkpt><trkpt lat="44.91220615145775" lon="7.289443224782364"><ele>765.8</ele><time>2026-05-01T10:09:47.999Z</time></trkpt><trkpt lat="44.9122055327408" lon="7.289286412461342"><ele>766.6</ele><time>2026-05-01T10:09:49.999Z</time></trkpt><trkpt lat="44.91214156248116" lon="7.28918795874497"><ele>767.4000000000001</ele><time>2026-05-01T10:09:51.999Z</time></trkpt><trkpt lat="44.912038566856424" lon="7.289184838646679"><ele>768.2</ele><time>2026-05-01T10:09:53.999Z</time></trkpt><trkpt lat="44.91197170580066" lon="7.289253991895322"><ele>769.0</ele><time>2026-05-01T10:09:57.998Z</time></trkpt><trkpt lat="44.911874743841665" lon="7.289278989047531"><ele>768.9999999999999</ele><time>2026-05-01T10:10:02.998Z</time></trkpt><trkpt lat="44.91178266183796" lon="7.28928710645685"><ele>769.0</ele><time>2026-05-01T10:10:04.998Z</time></trkpt><trkpt lat="44.91167526169359" lon="7.28930089651602"><ele>769.0</ele><time>2026-05-01T10:10:06.998Z</time></trkpt><trkpt lat="44.91160822181125" lon="7.289250293917197"><ele>769.0</ele><time>2026-05-01T10:10:08.998Z</time></trkpt><trkpt lat="44.911606734125165" lon="7.2891429676041515"><ele>768.9999999999999</ele><time>2026-05-01T10:10:11.998Z</time></trkpt><trkpt lat="44.91166310787147" lon="7.2890740743270905"><ele>769.0</ele><time>2026-05-01T10:10:13.998Z</time></trkpt><trkpt lat="44.91169880243195" lon="7.288995733263946"><ele>770.2</ele><time>2026-05-01T10:10:15.998Z</time></trkpt><trkpt lat="44.9117918958747" lon="7.288886502381633"><ele>771.4000000000001</ele><time>2026-05-01T10:10:17.998Z</time></trkpt><trkpt lat="44.91183971659176" lon="7.2888117027548125"><ele>772.6</ele><time>2026-05-01T10:10:18.998Z</time></trkpt><trkpt lat="44.91191806095246" lon="7.288736828174764"><ele>773.8</ele><time>2026-05-01T10:10:20.998Z</time></trkpt><trkpt lat="44.91197596136618" lon="7.288697208281255"><ele>775.0</ele><time>2026-05-01T10:10:21.998Z</time></trkpt><trkpt lat="44.91207094139534" lon="7.288660772077432"><ele>775.0</ele><time>2026-05-01T10:10:23.998Z</time></trkpt><trkpt lat="44.9121661002122" lon="7.2886079348088"><ele>775.0</ele><time>2026-05-01T10:10:25.998Z</time></trkpt><trkpt lat="44.91226758243877" lon="7.288547846053945"><ele>775.0</ele><time>2026-05-01T10:10:27.998Z</time></trkpt><trkpt lat="44.912350060994534" lon="7.288450546810421"><ele>775.0</ele><time>2026-05-01T10:10:29.998Z</time></trkpt><trkpt lat="44.91239684679288" lon="7.28831973121845"><ele>775.0</ele><time>2026-05-01T10:10:31.998Z</time></trkpt><trkpt lat="44.91245302248804" lon="7.288165008428111"><ele>777.6666666666666</ele><time>2026-05-01T10:10:33.998Z</time></trkpt><trkpt lat="44.91252354817428" lon="7.288021195007901"><ele>780.3333333333333</ele><time>2026-05-01T10:10:35.998Z</time></trkpt><trkpt lat="44.91257721356248" lon="7.287869847497362"><ele>783.0</ele><time>2026-05-01T10:10:37.998Z</time></trkpt><trkpt lat="44.91259747799081" lon="7.287775646487944"><ele>785.6666666666667</ele><time>2026-05-01T10:10:39.998Z</time></trkpt><trkpt lat="44.91264736712641" lon="7.287716612387548"><ele>788.3333333333334</ele><time>2026-05-01T10:10:51.997Z</time></trkpt><trkpt lat="44.912709176170274" lon="7.287699570300163"><ele>791.0</ele><time>2026-05-01T10:11:31.999Z</time></trkpt><trkpt lat="44.91278144290136" lon="7.28759867839989"><ele>793.8</ele><time>2026-05-01T10:11:34.999Z</time></trkpt><trkpt lat="44.91282746998774" lon="7.28753663372943"><ele>796.5999999999999</ele><time>2026-05-01T10:11:35.999Z</time></trkpt><trkpt lat="44.91290391664481" lon="7.2875191379558855"><ele>799.4</ele><time>2026-05-01T10:11:37.999Z</time></trkpt><trkpt lat="44.91297211359318" lon="7.2877074327602465"><ele>802.2</ele><time>2026-05-01T10:11:39.999Z</time></trkpt><trkpt lat="44.91302582460426" lon="7.287833162028554"><ele>805.0</ele><time>2026-05-01T10:11:40.999Z</time></trkpt><trkpt lat="44.91309859229544" lon="7.287902668447844"><ele>805.0</ele><time>2026-05-01T10:11:41.999Z</time></trkpt><trkpt lat="44.91318264080474" lon="7.288004974457518"><ele>805.0</ele><time>2026-05-01T10:11:42.999Z</time></trkpt><trkpt lat="44.91321231312973" lon="7.288134859668412"><ele>805.0</ele><time>2026-05-01T10:11:43.999Z</time></trkpt><trkpt lat="44.91325542440255" lon="7.288245117002997"><ele>805.0</ele><time>2026-05-01T10:11:44.999Z</time></trkpt><trkpt lat="44.91328458010778" lon="7.288367313362591"><ele>805.0</ele><time>2026-05-01T10:11:45.999Z</time></trkpt><trkpt lat="44.913250918194585" lon="7.288481881220844"><ele>802.8</ele><time>2026-05-01T10:11:46.999Z</time></trkpt><trkpt lat="44.91320717905328" lon="7.288624838284125"><ele>800.6</ele><time>2026-05-01T10:11:47.999Z</time></trkpt><trkpt lat="44.913200085826425" lon="7.288796985069035"><ele>798.4000000000001</ele><time>2026-05-01T10:11:48.999Z</time></trkpt><trkpt lat="44.913231355647085" lon="7.28892010956094"><ele>796.2</ele><time>2026-05-01T10:11:49.999Z</time></trkpt><trkpt lat="44.91329956699109" lon="7.288946497717875"><ele>794.0</ele><time>2026-05-01T10:12:01.998Z</time></trkpt><trkpt lat="44.913374577823056" lon="7.288912729189423"><ele>797.8000000000001</ele><time>2026-05-01T10:12:03.998Z</time></trkpt><trkpt lat="44.91347572040891" lon="7.288827077639097"><ele>801.6</ele><time>2026-05-01T10:12:05.998Z</time></trkpt><trkpt lat="44.91354338002037" lon="7.2887346165638105"><ele>805.4</ele><time>2026-05-01T10:12:07.998Z</time></trkpt><trkpt lat="44.91357744438451" lon="7.2886383752234405"><ele>809.2</ele><time>2026-05-01T10:12:09.998Z</time></trkpt><trkpt lat="44.91364214441536" lon="7.288540310042723"><ele>813.0</ele><time>2026-05-01T10:12:12.998Z</time></trkpt><trkpt lat="44.913633979128406" lon="7.288439254409301"><ele>813.0</ele><time>2026-05-01T10:12:14.998Z</time></trkpt><trkpt lat="44.91363903227979" lon="7.288284716749657"><ele>813.0</ele><time>2026-05-01T10:12:16.998Z</time></trkpt><trkpt lat="44.91371277037108" lon="7.288163330462278"><ele>813.0</ele><time>2026-05-01T10:12:18.998Z</time></trkpt><trkpt lat="44.91372175835957" lon="7.2880625706731985"><ele>813.0</ele><time>2026-05-01T10:12:21.998Z</time></trkpt><trkpt lat="44.91374514760815" lon="7.287972899404499"><ele>813.0</ele><time>2026-05-01T10:12:24.998Z</time></trkpt><trkpt lat="44.91378729047623" lon="7.287872623844366"><ele>813.0</ele><time>2026-05-01T10:12:27.998Z</time></trkpt><trkpt lat="44.913856040254" lon="7.287741359276505"><ele>815.2</ele><time>2026-05-01T10:12:29.998Z</time></trkpt><trkpt lat="44.91392931800801" lon="7.287639609471866"><ele>817.4</ele><time>2026-05-01T10:12:30.998Z</time></trkpt><trkpt lat="44.913977697339504" lon="7.287543348995643"><ele>819.6</ele><time>2026-05-01T10:12:32.998Z</time></trkpt><trkpt lat="44.91391846807886" lon="7.28742821070965"><ele>821.8000000000001</ele><time>2026-05-01T10:12:37.998Z</time></trkpt><trkpt lat="44.91384695013834" lon="7.287313989567913"><ele>824.0</ele><time>2026-05-01T10:12:40.998Z</time></trkpt><trkpt lat="44.9138265770517" lon="7.287213850184857"><ele>825.6</ele><time>2026-05-01T10:12:42.998Z</time></trkpt><trkpt lat="44.913842325191965" lon="7.287106342746627"><ele>827.2</ele><time>2026-05-01T10:13:43.999Z</time></trkpt><trkpt lat="44.91380285272822" lon="7.286947407694825"><ele>828.8000000000001</ele><time>2026-05-01T10:13:45.999Z</time></trkpt><trkpt lat="44.913780507274126" lon="7.2868205258694765"><ele>830.4000000000001</ele><time>2026-05-01T10:13:46.999Z</time></trkpt><trkpt lat="44.9137582540897" lon="7.286678880495939"><ele>832.0</ele><time>2026-05-01T10:13:47.999Z</time></trkpt><trkpt lat="44.913745530367905" lon="7.286541589191552"><ele>833.4999999999999</ele><time>2026-05-01T10:13:48.999Z</time></trkpt><trkpt lat="44.913731435589675" lon="7.286405575095372"><ele>835.0</ele><time>2026-05-01T10:13:49.999Z</time></trkpt><trkpt lat="44.91372499087834" lon="7.28628895466148"><ele>836.5</ele><time>2026-05-01T10:13:50.999Z</time></trkpt><trkpt lat="44.9137191259764" lon="7.286189422058988"><ele>838.0</ele><time>2026-05-01T10:13:51.999Z</time></trkpt><trkpt lat="44.913685780715454" lon="7.286094993749546"><ele>839.4999999999999</ele><time>2026-05-01T10:13:52.999Z</time></trkpt><trkpt lat="44.91362124056872" lon="7.285991591280619"><ele>841.0</ele><time>2026-05-01T10:13:53.999Z</time></trkpt><trkpt lat="44.913552204978444" lon="7.285871331109095"><ele>841.0</ele><time>2026-05-01T10:13:54.999Z</time></trkpt><trkpt lat="44.91348677709725" lon="7.285760169656774"><ele>841.0</ele><time>2026-05-01T10:13:55.999Z</time></trkpt><trkpt lat="44.91342647012725" lon="7.285639499273576"><ele>841.0</ele><time>2026-05-01T10:13:56.999Z</time></trkpt><trkpt lat="44.91335408524066" lon="7.285516481506101"><ele>841.0</ele><time>2026-05-01T10:13:57.999Z</time></trkpt><trkpt lat="44.91329564495329" lon="7.285374200333465"><ele>841.0</ele><time>2026-05-01T10:13:58.999Z</time></trkpt><trkpt lat="44.91322232375845" lon="7.285239930947333"><ele>841.0</ele><time>2026-05-01T10:13:59.999Z</time></trkpt><trkpt lat="44.91316550260015" lon="7.285102784819925"><ele>841.0</ele><time>2026-05-01T10:14:00.999Z</time></trkpt><trkpt lat="44.91311947901902" lon="7.284981459578078"><ele>841.0</ele><time>2026-05-01T10:14:01.999Z</time></trkpt><trkpt lat="44.91306359702256" lon="7.284881787614172"><ele>841.0</ele><time>2026-05-01T10:14:02.999Z</time></trkpt><trkpt lat="44.91299705469047" lon="7.284791802576703"><ele>841.0</ele><time>2026-05-01T10:14:03.998Z</time></trkpt><trkpt lat="44.91292742907429" lon="7.28468336923447"><ele>841.0</ele><time>2026-05-01T10:14:04.998Z</time></trkpt><trkpt lat="44.91284797440883" lon="7.284603397378211"><ele>841.0</ele><time>2026-05-01T10:14:05.998Z</time></trkpt><trkpt lat="44.91277256823656" lon="7.284565144571253"><ele>841.0</ele><time>2026-05-01T10:14:06.998Z</time></trkpt><trkpt lat="44.91270778281007" lon="7.28458983141839"><ele>841.0</ele><time>2026-05-01T10:14:08.998Z</time></trkpt><trkpt lat="44.91272278424431" lon="7.284785862332609"><ele>841.0</ele><time>2026-05-01T10:14:10.998Z</time></trkpt><trkpt lat="44.912707734029624" lon="7.284897730802047"><ele>841.0</ele><time>2026-05-01T10:14:11.998Z</time></trkpt><trkpt lat="44.91266600144273" lon="7.285015309035719"><ele>841.0</ele><time>2026-05-01T10:14:12.998Z</time></trkpt><trkpt lat="44.91261685149509" lon="7.285136532626432"><ele>841.0</ele><time>2026-05-01T10:14:13.998Z</time></trkpt><trkpt lat="44.9125734776578" lon="7.285253823600667"><ele>841.0</ele><time>2026-05-01T10:14:14.998Z</time></trkpt><trkpt lat="44.91253750936959" lon="7.285375182069657"><ele>841.0</ele><time>2026-05-01T10:14:15.998Z</time></trkpt><trkpt lat="44.9125149156459" lon="7.28548563756968"><ele>839.8333333333333</ele><time>2026-05-01T10:14:16.998Z</time></trkpt><trkpt lat="44.912482173198896" lon="7.285576284453041"><ele>838.6666666666666</ele><time>2026-05-01T10:14:17.998Z</time></trkpt><trkpt lat="44.91244061686006" lon="7.285663589551354"><ele>837.5</ele><time>2026-05-01T10:14:18.998Z</time></trkpt><trkpt lat="44.91239329179641" lon="7.285738869891845"><ele>836.3333333333333</ele><time>2026-05-01T10:14:19.998Z</time></trkpt><trkpt lat="44.91234549930468" lon="7.285799699945384"><ele>835.1666666666666</ele><time>2026-05-01T10:14:20.998Z</time></trkpt><trkpt lat="44.91226771316339" lon="7.285928895888588"><ele>834.0</ele><time>2026-05-01T10:14:22.998Z</time></trkpt><trkpt lat="44.91222897954662" lon="7.286019886968268"><ele>831.8000000000001</ele><time>2026-05-01T10:14:24.998Z</time></trkpt><trkpt lat="44.912166844044265" lon="7.286168399172895"><ele>829.6</ele><time>2026-05-01T10:14:27.998Z</time></trkpt><trkpt lat="44.91212496326646" lon="7.286272823176731"><ele>827.4</ele><time>2026-05-01T10:14:28.998Z</time></trkpt><trkpt lat="44.91205675314169" lon="7.28633834698335"><ele>825.2</ele><time>2026-05-01T10:14:30.998Z</time></trkpt><trkpt lat="44.911987754788434" lon="7.286428430374294"><ele>823.0</ele><time>2026-05-01T10:14:33.998Z</time></trkpt><trkpt lat="44.91192280122619" lon="7.286499252587661"><ele>824.0</ele><time>2026-05-01T10:14:35.998Z</time></trkpt><trkpt lat="44.911830178919644" lon="7.28658389430163"><ele>825.0</ele><time>2026-05-01T10:14:37.998Z</time></trkpt><trkpt lat="44.91168992997988" lon="7.286642499229197"><ele>826.0</ele><time>2026-05-01T10:14:39.998Z</time></trkpt><trkpt lat="44.911625072595875" lon="7.286669599264471"><ele>827.0</ele><time>2026-05-01T10:14:40.998Z</time></trkpt><trkpt lat="44.91153101907748" lon="7.286699262712741"><ele>828.0</ele><time>2026-05-01T10:14:41.998Z</time></trkpt><trkpt lat="44.911459621810096" lon="7.2867269876109075"><ele>828.0</ele><time>2026-05-01T10:14:42.998Z</time></trkpt><trkpt lat="44.91139232145826" lon="7.286754770526727"><ele>828.0</ele><time>2026-05-01T10:14:43.998Z</time></trkpt><trkpt lat="44.91131952232996" lon="7.28676682979281"><ele>828.0</ele><time>2026-05-01T10:14:44.998Z</time></trkpt><trkpt lat="44.9112351287041" lon="7.28676191636232"><ele>828.0</ele><time>2026-05-01T10:14:45.998Z</time></trkpt><trkpt lat="44.9111557954702" lon="7.286736960938651"><ele>828.0</ele><time>2026-05-01T10:14:46.998Z</time></trkpt><trkpt lat="44.91107784581136" lon="7.286717262498089"><ele>828.0</ele><time>2026-05-01T10:14:47.998Z</time></trkpt><trkpt lat="44.91096429054673" lon="7.286692829988798"><ele>830.5</ele><time>2026-05-01T10:14:48.998Z</time></trkpt><trkpt lat="44.910883423642446" lon="7.286716558841038"><ele>833.0</ele><time>2026-05-01T10:14:49.998Z</time></trkpt><trkpt lat="44.91079840041499" lon="7.286711127753961"><ele>835.5</ele><time>2026-05-01T10:14:50.998Z</time></trkpt><trkpt lat="44.910716028440106" lon="7.286724946763604"><ele>838.0</ele><time>2026-05-01T10:14:51.997Z</time></trkpt><trkpt lat="44.91062123225852" lon="7.286712059288751"><ele>840.5</ele><time>2026-05-01T10:14:52.997Z</time></trkpt><trkpt lat="44.91053809724001" lon="7.2866893957199546"><ele>843.0</ele><time>2026-05-01T10:14:53.997Z</time></trkpt><trkpt lat="44.91044593159981" lon="7.286681915670654"><ele>843.0</ele><time>2026-05-01T10:14:54.997Z</time></trkpt><trkpt lat="44.91036920572889" lon="7.2866684795109125"><ele>843.0</ele><time>2026-05-01T10:14:55.997Z</time></trkpt><trkpt lat="44.9102627181071" lon="7.286683434008592"><ele>843.0</ele><time>2026-05-01T10:14:57.997Z</time></trkpt><trkpt lat="44.91020991962458" lon="7.286737894180974"><ele>843.0</ele><time>2026-05-01T10:14:58.997Z</time></trkpt><trkpt lat="44.91015359949809" lon="7.2867793033028025"><ele>843.0</ele><time>2026-05-01T10:14:59.997Z</time></trkpt><trkpt lat="44.910080651161714" lon="7.286795937258806"><ele>843.0</ele><time>2026-05-01T10:15:00.997Z</time></trkpt><trkpt lat="44.909997863069414" lon="7.286800040596205"><ele>844.3333333333334</ele><time>2026-05-01T10:15:01.997Z</time></trkpt><trkpt lat="44.90990615818716" lon="7.286816791534773"><ele>845.6666666666667</ele><time>2026-05-01T10:15:02.997Z</time></trkpt><trkpt lat="44.90983996857785" lon="7.286857018059261"><ele>847.0</ele><time>2026-05-01T10:15:03.997Z</time></trkpt><trkpt lat="44.909783040501324" lon="7.286899821633404"><ele>848.3333333333334</ele><time>2026-05-01T10:15:05Z</time></trkpt><trkpt lat="44.90972532603613" lon="7.286994916080814"><ele>849.6666666666667</ele><time>2026-05-01T10:15:07Z</time></trkpt><trkpt lat="44.90963128089619" lon="7.287068518945548"><ele>851.0</ele><time>2026-05-01T10:15:09Z</time></trkpt><trkpt lat="44.90954912463878" lon="7.28709335112189"><ele>851.0</ele><time>2026-05-01T10:15:10Z</time></trkpt><trkpt lat="44.90947542626839" lon="7.287112756350091"><ele>851.0</ele><time>2026-05-01T10:15:11Z</time></trkpt><trkpt lat="44.90940350482233" lon="7.287187675809034"><ele>851.0</ele><time>2026-05-01T10:15:12Z</time></trkpt><trkpt lat="44.90938659817256" lon="7.28729399980756"><ele>851.0</ele><time>2026-05-01T10:15:13Z</time></trkpt><trkpt lat="44.9093482364663" lon="7.287377812804559"><ele>851.0</ele><time>2026-05-01T10:15:14Z</time></trkpt><trkpt lat="44.90929029690193" lon="7.287431156085704"><ele>851.0</ele><time>2026-05-01T10:15:15Z</time></trkpt><trkpt lat="44.909261366764845" lon="7.287512933639607"><ele>851.0</ele><time>2026-05-01T10:15:16Z</time></trkpt><trkpt lat="44.909205264978176" lon="7.287580887678712"><ele>852.1666666666667</ele><time>2026-05-01T10:15:17Z</time></trkpt><trkpt lat="44.90915142655356" lon="7.287641598014718"><ele>853.3333333333334</ele><time>2026-05-01T10:15:18Z</time></trkpt><trkpt lat="44.909032759888376" lon="7.287656284263537"><ele>854.5</ele><time>2026-05-01T10:15:19.999Z</time></trkpt><trkpt lat="44.9089643678627" lon="7.287603629462922"><ele>855.6666666666667</ele><time>2026-05-01T10:15:20.999Z</time></trkpt><trkpt lat="44.90890457766319" lon="7.287510989720828"><ele>856.8333333333334</ele><time>2026-05-01T10:15:21.999Z</time></trkpt><trkpt lat="44.9088746319388" lon="7.287431891632506"><ele>858.0</ele><time>2026-05-01T10:15:22.999Z</time></trkpt><trkpt lat="44.9089215964769" lon="7.287351181482297"><ele>858.0</ele><time>2026-05-01T10:15:24.999Z</time></trkpt><trkpt lat="44.90881270911687" lon="7.287386462697801"><ele>858.0</ele><time>2026-05-01T10:15:26.999Z</time></trkpt><trkpt lat="44.90888084555725" lon="7.287286005678276"><ele>858.0</ele><time>2026-05-01T10:15:28.999Z</time></trkpt><trkpt lat="44.908942676528326" lon="7.287202607114446"><ele>858.0</ele><time>2026-05-01T10:15:29.999Z</time></trkpt><trkpt lat="44.90899349700673" lon="7.2871231421748055"><ele>858.0</ele><time>2026-05-01T10:15:30.999Z</time></trkpt><trkpt lat="44.909059674156104" lon="7.287014123271163"><ele>856.5999999999999</ele><time>2026-05-01T10:15:31.999Z</time></trkpt><trkpt lat="44.9091304487492" lon="7.286903045452732"><ele>855.1999999999999</ele><time>2026-05-01T10:15:32.999Z</time></trkpt><trkpt lat="44.90920676431661" lon="7.286798452740815"><ele>853.8</ele><time>2026-05-01T10:15:33.999Z</time></trkpt><trkpt lat="44.90927413409091" lon="7.286688369778451"><ele>852.4</ele><time>2026-05-01T10:15:34.999Z</time></trkpt><trkpt lat="44.90934556395528" lon="7.286586320715631"><ele>851.0</ele><time>2026-05-01T10:15:35.999Z</time></trkpt><trkpt lat="44.90940695819549" lon="7.286501011836657"><ele>851.0</ele><time>2026-05-01T10:15:36.999Z</time></trkpt><trkpt lat="44.90946616707981" lon="7.286438231409286"><ele>851.0</ele><time>2026-05-01T10:15:37.999Z</time></trkpt><trkpt lat="44.90951150952083" lon="7.286326370996741"><ele>851.0</ele><time>2026-05-01T10:15:39.999Z</time></trkpt><trkpt lat="44.90954274855161" lon="7.286175089719781"><ele>851.0</ele><time>2026-05-01T10:15:41.999Z</time></trkpt><trkpt lat="44.90955369602113" lon="7.2860637649928925"><ele>851.0</ele><time>2026-05-01T10:15:42.999Z</time></trkpt><trkpt lat="44.909565021291854" lon="7.285912908538687"><ele>854.5000000000001</ele><time>2026-05-01T10:15:43.999Z</time></trkpt><trkpt lat="44.90957551940362" lon="7.285757392921063"><ele>858.0</ele><time>2026-05-01T10:15:44.999Z</time></trkpt><trkpt lat="44.909590277575425" lon="7.285628777285487"><ele>861.5</ele><time>2026-05-01T10:15:45.999Z</time></trkpt><trkpt lat="44.90961167479434" lon="7.285519145534219"><ele>865.0</ele><time>2026-05-01T10:15:46.999Z</time></trkpt><trkpt lat="44.90966886310923" lon="7.285444306146684"><ele>868.5000000000001</ele><time>2026-05-01T10:15:47.999Z</time></trkpt><trkpt lat="44.909737459378505" lon="7.285368176310363"><ele>872.0</ele><time>2026-05-01T10:15:48.999Z</time></trkpt><trkpt lat="44.90979556635124" lon="7.285281058659523"><ele>873.8</ele><time>2026-05-01T10:15:49.999Z</time></trkpt><trkpt lat="44.90983382884799" lon="7.285176327510795"><ele>875.6</ele><time>2026-05-01T10:15:50.999Z</time></trkpt><trkpt lat="44.90989756389035" lon="7.28503116158007"><ele>877.3999999999999</ele><time>2026-05-01T10:15:52.999Z</time></trkpt><trkpt lat="44.91001265219123" lon="7.284959869713475"><ele>879.1999999999999</ele><time>2026-05-01T10:15:54.999Z</time></trkpt><trkpt lat="44.91009352322693" lon="7.284931957421186"><ele>881.0</ele><time>2026-05-01T10:15:55.999Z</time></trkpt><trkpt lat="44.910180146833206" lon="7.284920335163371"><ele>881.0</ele><time>2026-05-01T10:15:56.999Z</time></trkpt><trkpt lat="44.91024942846654" lon="7.284925203871896"><ele>880.9999999999999</ele><time>2026-05-01T10:15:57.999Z</time></trkpt><trkpt lat="44.91035678449519" lon="7.28502645812756"><ele>880.9999999999999</ele><time>2026-05-01T10:15:59.999Z</time></trkpt><trkpt lat="44.910423227389366" lon="7.285030631765237"><ele>881.0</ele><time>2026-05-01T10:16:00.999Z</time></trkpt><trkpt lat="44.910501138941655" lon="7.285028348980629"><ele>881.0</ele><time>2026-05-01T10:16:02.999Z</time></trkpt><trkpt lat="44.910539720187" lon="7.284866664480384"><ele>881.0000000000001</ele><time>2026-05-01T10:16:05.999Z</time></trkpt><trkpt lat="44.91056413379649" lon="7.284773737189543"><ele>881.0</ele><time>2026-05-01T10:16:06.998Z</time></trkpt><trkpt lat="44.91060911963756" lon="7.284627340295388"><ele>881.0</ele><time>2026-05-01T10:16:08.998Z</time></trkpt><trkpt lat="44.910631180748034" lon="7.284522398887536"><ele>881.0</ele><time>2026-05-01T10:16:09.998Z</time></trkpt><trkpt lat="44.91065672978411" lon="7.284423415207939"><ele>881.0000000000001</ele><time>2026-05-01T10:16:10.998Z</time></trkpt><trkpt lat="44.910669049273416" lon="7.284334691920379"><ele>881.0</ele><time>2026-05-01T10:16:11.998Z</time></trkpt><trkpt lat="44.91069190914541" lon="7.284179788968484"><ele>885.0</ele><time>2026-05-01T10:16:13.998Z</time></trkpt><trkpt lat="44.91072720555087" lon="7.284014663974523"><ele>888.9999999999999</ele><time>2026-05-01T10:16:15.998Z</time></trkpt><trkpt lat="44.91075359973971" lon="7.283891514881343"><ele>892.9999999999999</ele><time>2026-05-01T10:16:16.998Z</time></trkpt><trkpt lat="44.910789978252254" lon="7.283782264081305"><ele>897.0</ele><time>2026-05-01T10:16:17.998Z</time></trkpt><trkpt lat="44.91080916429847" lon="7.2836559264996685"><ele>901.0</ele><time>2026-05-01T10:16:18.998Z</time></trkpt><trkpt lat="44.9107972885686" lon="7.28349409075641"><ele>903.1666666666666</ele><time>2026-05-01T10:16:20.998Z</time></trkpt><trkpt lat="44.91073385489965" lon="7.283405935855353"><ele>905.3333333333333</ele><time>2026-05-01T10:16:22.998Z</time></trkpt><trkpt lat="44.9106604289686" lon="7.283482965406119"><ele>907.5</ele><time>2026-05-01T10:16:24.998Z</time></trkpt><trkpt lat="44.910613123981456" lon="7.283572091447859"><ele>909.6666666666667</ele><time>2026-05-01T10:16:25.998Z</time></trkpt><trkpt lat="44.9105561465985" lon="7.2836583759609335"><ele>911.8333333333334</ele><time>2026-05-01T10:16:26.998Z</time></trkpt><trkpt lat="44.91048116508104" lon="7.283761463540565"><ele>914.0</ele><time>2026-05-01T10:16:27.998Z</time></trkpt><trkpt lat="44.910397102189584" lon="7.283848951991929"><ele>914.0</ele><time>2026-05-01T10:16:28.999Z</time></trkpt><trkpt lat="44.91032445469321" lon="7.283915376995298"><ele>914.0000000000001</ele><time>2026-05-01T10:16:29.999Z</time></trkpt><trkpt lat="44.91023245144753" lon="7.283999485806356"><ele>914.0000000000001</ele><time>2026-05-01T10:16:30.999Z</time></trkpt><trkpt lat="44.91016348740519" lon="7.284093931846657"><ele>914.0</ele><time>2026-05-01T10:16:31.999Z</time></trkpt><trkpt lat="44.910085497912306" lon="7.2841641742219"><ele>914.0</ele><time>2026-05-01T10:16:32.999Z</time></trkpt><trkpt lat="44.91001588928784" lon="7.284134905109347"><ele>914.8000000000001</ele><time>2026-05-01T10:16:35.999Z</time></trkpt><trkpt lat="44.90997963747249" lon="7.284051926596354"><ele>915.6000000000001</ele><time>2026-05-01T10:16:37.999Z</time></trkpt><trkpt lat="44.909991672870404" lon="7.283932120205907"><ele>916.4</ele><time>2026-05-01T10:16:39.999Z</time></trkpt><trkpt lat="44.91000651148854" lon="7.283738126366785"><ele>917.2</ele><time>2026-05-01T10:16:41.999Z</time></trkpt><trkpt lat="44.91002743621863" lon="7.283617627056641"><ele>918.0</ele><time>2026-05-01T10:16:42.999Z</time></trkpt><trkpt lat="44.91003912229566" lon="7.283507030088527"><ele>922.0</ele><time>2026-05-01T10:16:43.999Z</time></trkpt><trkpt lat="44.91006358347534" lon="7.2833977430098775"><ele>926.0</ele><time>2026-05-01T10:16:44.999Z</time></trkpt><trkpt lat="44.91007421443658" lon="7.283214362527546"><ele>930.0</ele><time>2026-05-01T10:16:46.999Z</time></trkpt><trkpt lat="44.910061856183816" lon="7.283093931983487"><ele>934.0</ele><time>2026-05-01T10:16:47.999Z</time></trkpt><trkpt lat="44.91004875480085" lon="7.282966841521573"><ele>938.0</ele><time>2026-05-01T10:16:48.999Z</time></trkpt><trkpt lat="44.91003273519467" lon="7.282849690667371"><ele>939.0000000000001</ele><time>2026-05-01T10:16:49.999Z</time></trkpt><trkpt lat="44.910038635632496" lon="7.282753545423878"><ele>940.0</ele><time>2026-05-01T10:16:50.999Z</time></trkpt><trkpt lat="44.910018969492114" lon="7.282655593271757"><ele>941.0</ele><time>2026-05-01T10:16:51.999Z</time></trkpt><trkpt lat="44.90998810760947" lon="7.282545965283191"><ele>942.0</ele><time>2026-05-01T10:16:52.999Z</time></trkpt><trkpt lat="44.90994420978584" lon="7.282441179557401"><ele>943.0000000000001</ele><time>2026-05-01T10:16:53.998Z</time></trkpt><trkpt lat="44.90992885628042" lon="7.282316675221067"><ele>944.0</ele><time>2026-05-01T10:16:54.998Z</time></trkpt><trkpt lat="44.909893408210756" lon="7.282183796286555"><ele>944.1666666666667</ele><time>2026-05-01T10:16:55.998Z</time></trkpt><trkpt lat="44.90985418910161" lon="7.282051387410957"><ele>944.3333333333334</ele><time>2026-05-01T10:16:56.998Z</time></trkpt><trkpt lat="44.909816446630415" lon="7.281917417896055"><ele>944.5</ele><time>2026-05-01T10:16:57.998Z</time></trkpt><trkpt lat="44.90977210545277" lon="7.2818075145366"><ele>944.6666666666667</ele><time>2026-05-01T10:16:58.998Z</time></trkpt><trkpt lat="44.90974212628561" lon="7.281722146040156"><ele>944.8333333333334</ele><time>2026-05-01T10:16:59.998Z</time></trkpt><trkpt lat="44.90969294359842" lon="7.281664983585843"><ele>945.0</ele><time>2026-05-01T10:17:00.998Z</time></trkpt><trkpt lat="44.909633253896864" lon="7.281593214445765"><ele>945.0</ele><time>2026-05-01T10:17:01.998Z</time></trkpt><trkpt lat="44.909563790236305" lon="7.281520065858578"><ele>945.0</ele><time>2026-05-01T10:17:02.998Z</time></trkpt><trkpt lat="44.909465817865794" lon="7.2814803014035245"><ele>945.0</ele><time>2026-05-01T10:17:03.998Z</time></trkpt><trkpt lat="44.909365634347964" lon="7.28146703948331"><ele>945.0</ele><time>2026-05-01T10:17:04.998Z</time></trkpt><trkpt lat="44.909280341738615" lon="7.28144448501989"><ele>945.0</ele><time>2026-05-01T10:17:05.998Z</time></trkpt><trkpt lat="44.909223282292" lon="7.2813986098693055"><ele>945.0</ele><time>2026-05-01T10:17:06.998Z</time></trkpt><trkpt lat="44.90919671901146" lon="7.281231762185923"><ele>945.6666666666666</ele><time>2026-05-01T10:17:08.998Z</time></trkpt><trkpt lat="44.909213022384435" lon="7.281143942702654"><ele>946.3333333333333</ele><time>2026-05-01T10:17:10Z</time></trkpt><trkpt lat="44.909231549006165" lon="7.2810392191162725"><ele>947.0</ele><time>2026-05-01T10:17:11Z</time></trkpt><trkpt lat="44.909248112219" lon="7.280944320545918"><ele>947.6666666666666</ele><time>2026-05-01T10:17:12Z</time></trkpt><trkpt lat="44.909258713460744" lon="7.280845331927733"><ele>948.3333333333333</ele><time>2026-05-01T10:17:13Z</time></trkpt><trkpt lat="44.90927779930472" lon="7.280719183166083"><ele>949.0</ele><time>2026-05-01T10:17:14Z</time></trkpt><trkpt lat="44.909295325357675" lon="7.280609109279389"><ele>951.4999999999999</ele><time>2026-05-01T10:17:15Z</time></trkpt><trkpt lat="44.909320223270186" lon="7.280521959995478"><ele>954.0</ele><time>2026-05-01T10:17:16Z</time></trkpt><trkpt lat="44.90936234448005" lon="7.280429234274688"><ele>956.5</ele><time>2026-05-01T10:17:17Z</time></trkpt><trkpt lat="44.90940667234043" lon="7.280347210484287"><ele>959.0</ele><time>2026-05-01T10:17:19Z</time></trkpt><trkpt lat="44.90935901798005" lon="7.2802710210453165"><ele>961.4999999999999</ele><time>2026-05-01T10:18:27.999Z</time></trkpt><trkpt lat="44.909292363324155" lon="7.280331847050326"><ele>964.0</ele><time>2026-05-01T10:18:28.999Z</time></trkpt><trkpt lat="44.90919540038307" lon="7.280456158657827"><ele>964.2</ele><time>2026-05-01T10:18:30.999Z</time></trkpt><trkpt lat="44.909151368841115" lon="7.280546518627353"><ele>964.4000000000001</ele><time>2026-05-01T10:18:31.999Z</time></trkpt><trkpt lat="44.90908002153152" lon="7.28064314140138"><ele>964.6</ele><time>2026-05-01T10:18:32.999Z</time></trkpt><trkpt lat="44.90898933624416" lon="7.280779038180819"><ele>964.8</ele><time>2026-05-01T10:18:33.999Z</time></trkpt><trkpt lat="44.90892280737334" lon="7.280886445395155"><ele>965.0</ele><time>2026-05-01T10:18:34.999Z</time></trkpt><trkpt lat="44.90885352760525" lon="7.281038052295837"><ele>965.0</ele><time>2026-05-01T10:18:35.999Z</time></trkpt><trkpt lat="44.90879545511684" lon="7.2811785106179725"><ele>965.0</ele><time>2026-05-01T10:18:36.999Z</time></trkpt><trkpt lat="44.908710532633926" lon="7.28132765717487"><ele>965.0</ele><time>2026-05-01T10:18:37.999Z</time></trkpt><trkpt lat="44.90864714596297" lon="7.281470063113476"><ele>965.0</ele><time>2026-05-01T10:18:38.999Z</time></trkpt><trkpt lat="44.90861059118265" lon="7.281610135396993"><ele>965.4</ele><time>2026-05-01T10:18:39.999Z</time></trkpt><trkpt lat="44.90858927272216" lon="7.281734048816821"><ele>965.8</ele><time>2026-05-01T10:18:40.999Z</time></trkpt><trkpt lat="44.90861156858474" lon="7.281858285536445"><ele>966.2</ele><time>2026-05-01T10:18:41.999Z</time></trkpt><trkpt lat="44.90865867261217" lon="7.281972035952458"><ele>966.6</ele><time>2026-05-01T10:18:42.999Z</time></trkpt><trkpt lat="44.90872262617167" lon="7.282060445929475"><ele>967.0</ele><time>2026-05-01T10:18:43.999Z</time></trkpt><trkpt lat="44.90879016254537" lon="7.282171660452159"><ele>966.9999999999999</ele><time>2026-05-01T10:18:44.999Z</time></trkpt><trkpt lat="44.90884684073821" lon="7.282262355818139"><ele>967.0</ele><time>2026-05-01T10:18:45.999Z</time></trkpt><trkpt lat="44.90888371705855" lon="7.282335903236268"><ele>967.0</ele><time>2026-05-01T10:18:46.999Z</time></trkpt><trkpt lat="44.90883318611792" lon="7.282435217124749"><ele>967.0</ele><time>2026-05-01T10:18:49.999Z</time></trkpt><trkpt lat="44.90875929568611" lon="7.282395633402974"><ele>966.9999999999999</ele><time>2026-05-01T10:18:50.999Z</time></trkpt><trkpt lat="44.90869755182591" lon="7.282308719081065"><ele>967.0</ele><time>2026-05-01T10:18:53.999Z</time></trkpt><trkpt lat="44.90858022713411" lon="7.282162128480909"><ele>967.0</ele><time>2026-05-01T10:18:55.999Z</time></trkpt><trkpt lat="44.90843801093196" lon="7.282037376610359"><ele>967.0</ele><time>2026-05-01T10:18:56.999Z</time></trkpt><trkpt lat="44.908309992044295" lon="7.281980368862139"><ele>967.0</ele><time>2026-05-01T10:18:57.999Z</time></trkpt><trkpt lat="44.90815898110564" lon="7.2819126608871"><ele>972.6666666666666</ele><time>2026-05-01T10:18:58.998Z</time></trkpt><trkpt lat="44.90800951752926" lon="7.281837013496315"><ele>978.3333333333333</ele><time>2026-05-01T10:18:59.998Z</time></trkpt><trkpt lat="44.90785612663955" lon="7.281726006139914"><ele>984.0</ele><time>2026-05-01T10:19:00.998Z</time></trkpt><trkpt lat="44.90772045249176" lon="7.281661152158919"><ele>984.0</ele><time>2026-05-01T10:19:01.998Z</time></trkpt><trkpt lat="44.90761712439419" lon="7.281604817537803"><ele>984.0000000000001</ele><time>2026-05-01T10:19:02.998Z</time></trkpt><trkpt lat="44.907536328043115" lon="7.281539403653486"><ele>984.0000000000001</ele><time>2026-05-01T10:19:04.998Z</time></trkpt><trkpt lat="44.90765762507033" lon="7.281509405031952"><ele>984.0</ele><time>2026-05-01T10:19:07.998Z</time></trkpt><trkpt lat="44.90774239915025" lon="7.281490351271915"><ele>984.0</ele><time>2026-05-01T10:19:08.998Z</time></trkpt><trkpt lat="44.90783082581669" lon="7.281461217612845"><ele>984.8333333333334</ele><time>2026-05-01T10:19:09.998Z</time></trkpt><trkpt lat="44.90792220700265" lon="7.28142333184695"><ele>985.6666666666667</ele><time>2026-05-01T10:19:10.998Z</time></trkpt><trkpt lat="44.90799638051806" lon="7.281384351187659"><ele>986.5</ele><time>2026-05-01T10:19:11.998Z</time></trkpt><trkpt lat="44.90805864096785" lon="7.281329861708029"><ele>987.3333333333334</ele><time>2026-05-01T10:19:12.998Z</time></trkpt><trkpt lat="44.90810297470221" lon="7.281258529110859"><ele>988.1666666666667</ele><time>2026-05-01T10:19:13.998Z</time></trkpt><trkpt lat="44.90819675614004" lon="7.281173331969838"><ele>989.0</ele><time>2026-05-01T10:19:15Z</time></trkpt><trkpt lat="44.90825701442521" lon="7.281091090935738"><ele>989.0000000000001</ele><time>2026-05-01T10:19:16Z</time></trkpt><trkpt lat="44.908308300978355" lon="7.281006811981712"><ele>989.0</ele><time>2026-05-01T10:19:17Z</time></trkpt><trkpt lat="44.90836043501711" lon="7.2809387784112465"><ele>989.0</ele><time>2026-05-01T10:19:18Z</time></trkpt><trkpt lat="44.90840704174128" lon="7.2808723118742495"><ele>989.0</ele><time>2026-05-01T10:19:19Z</time></trkpt><trkpt lat="44.908444387247464" lon="7.280769211119991"><ele>989.0000000000001</ele><time>2026-05-01T10:19:20Z</time></trkpt><trkpt lat="44.90847959617494" lon="7.280653111101153"><ele>989.0</ele><time>2026-05-01T10:19:21Z</time></trkpt><trkpt lat="44.90851614726228" lon="7.280546324912809"><ele>986.6</ele><time>2026-05-01T10:19:22Z</time></trkpt><trkpt lat="44.90855565933759" lon="7.280403951580966"><ele>984.2</ele><time>2026-05-01T10:19:23Z</time></trkpt><trkpt lat="44.908595385586565" lon="7.280244719087456"><ele>981.8000000000001</ele><time>2026-05-01T10:19:24Z</time></trkpt><trkpt lat="44.90864517882015" lon="7.280124854396565"><ele>979.4000000000001</ele><time>2026-05-01T10:19:25Z</time></trkpt><trkpt lat="44.90869569293468" lon="7.280002603958667"><ele>977.0</ele><time>2026-05-01T10:19:26Z</time></trkpt><trkpt lat="44.90873717060444" lon="7.2798920681146875"><ele>977.0</ele><time>2026-05-01T10:19:27Z</time></trkpt><trkpt lat="44.908763224577996" lon="7.2797761174663265"><ele>977.0</ele><time>2026-05-01T10:19:28Z</time></trkpt><trkpt lat="44.908769960045426" lon="7.279669790722897"><ele>977.0</ele><time>2026-05-01T10:19:29Z</time></trkpt><trkpt lat="44.90883090182785" lon="7.279522509565199"><ele>977.0</ele><time>2026-05-01T10:19:31Z</time></trkpt><trkpt lat="44.90889408057674" lon="7.279429219255108"><ele>977.0</ele><time>2026-05-01T10:19:46Z</time></trkpt><trkpt lat="44.90891127403712" lon="7.279309831207597"><ele>979.4285714285716</ele><time>2026-05-01T10:19:48Z</time></trkpt><trkpt lat="44.908863345392206" lon="7.279223946940843"><ele>981.8571428571429</ele><time>2026-05-01T10:19:50Z</time></trkpt><trkpt lat="44.90881690133221" lon="7.279158225659483"><ele>984.2857142857143</ele><time>2026-05-01T10:19:52Z</time></trkpt><trkpt lat="44.908762341951515" lon="7.279098368925008"><ele>986.7142857142858</ele><time>2026-05-01T10:19:56Z</time></trkpt><trkpt lat="44.908712842286235" lon="7.2790183796303545"><ele>989.1428571428571</ele><time>2026-05-01T10:19:59Z</time></trkpt><trkpt lat="44.9086821667372" lon="7.278906218826634"><ele>991.5714285714286</ele><time>2026-05-01T10:20:01Z</time></trkpt><trkpt lat="44.90866580439028" lon="7.2788010380572805"><ele>994.0</ele><time>2026-05-01T10:20:03Z</time></trkpt><trkpt lat="44.9086127368302" lon="7.278703691523698"><ele>996.1428571428571</ele><time>2026-05-01T10:20:06Z</time></trkpt><trkpt lat="44.90856041225385" lon="7.278601956182887"><ele>998.2857142857142</ele><time>2026-05-01T10:20:08Z</time></trkpt><trkpt lat="44.9085385287737" lon="7.278501792254165"><ele>1000.4285714285714</ele><time>2026-05-01T10:20:54.999Z</time></trkpt><trkpt lat="44.90859907615928" lon="7.278540895478415"><ele>1002.5714285714286</ele><time>2026-05-01T10:21:11.998Z</time></trkpt><trkpt lat="44.90864960910886" lon="7.278605385403353"><ele>1004.7142857142857</ele><time>2026-05-01T10:21:15.998Z</time></trkpt><trkpt lat="44.908673193284436" lon="7.27868922639309"><ele>1006.8571428571429</ele><time>2026-05-01T10:21:21Z</time></trkpt><trkpt lat="44.90871920010052" lon="7.278774027298931"><ele>1009.0</ele><time>2026-05-01T10:21:27Z</time></trkpt><trkpt lat="44.90874276372282" lon="7.2788715447888"><ele>1009.0</ele><time>2026-05-01T10:21:32Z</time></trkpt><trkpt lat="44.90874988239797" lon="7.278971600840162"><ele>1009.0</ele><time>2026-05-01T10:21:38Z</time></trkpt><trkpt lat="44.90879533779979" lon="7.279037056317568"><ele>1009.0</ele><time>2026-05-01T10:21:57Z</time></trkpt><trkpt lat="44.90879533779979" lon="7.279037056317568"><ele>1009.0</ele><time>2026-05-01T10:21:57Z</time></trkpt><trkpt lat="44.90873121213939" lon="7.279002762257609"><ele>1009.0</ele><time>2026-05-01T10:22:34.999Z</time></trkpt><trkpt lat="44.90871125484751" lon="7.278913654655691"><ele>1009.0</ele><time>2026-05-01T10:22:40.999Z</time></trkpt><trkpt lat="44.90868604791439" lon="7.278829993728109"><ele>1009.0</ele><time>2026-05-01T10:22:48.999Z</time></trkpt><trkpt lat="44.90865978372092" lon="7.278747866253339"><ele>1009.0</ele><time>2026-05-01T10:22:58.999Z</time></trkpt><trkpt lat="44.90861472694103" lon="7.2786695729246915"><ele>1009.0</ele><time>2026-05-01T10:23:06.998Z</time></trkpt><trkpt lat="44.90858578957866" lon="7.278579782934418"><ele>1009.0</ele><time>2026-05-01T10:23:13.998Z</time></trkpt><trkpt lat="44.908526156625655" lon="7.278543017804948"><ele>1009.0</ele><time>2026-05-01T10:23:22.998Z</time></trkpt><trkpt lat="44.908466190424086" lon="7.278571586619876"><ele>1009.0</ele><time>2026-05-01T10:23:30Z</time></trkpt><trkpt lat="44.90839292209757" lon="7.278592754579519"><ele>1009.0</ele><time>2026-05-01T10:23:33Z</time></trkpt><trkpt lat="44.90844751964978" lon="7.278514969233889"><ele>1009.0</ele><time>2026-05-01T10:23:42Z</time></trkpt><trkpt lat="44.90851045571204" lon="7.278501168930932"><ele>1009.0</ele><time>2026-05-01T10:23:43Z</time></trkpt><trkpt lat="44.90849463080076" lon="7.278384955917022"><ele>1008.9999999999999</ele><time>2026-05-01T10:23:49Z</time></trkpt><trkpt lat="44.908438866001184" lon="7.278266113399609"><ele>1009.0</ele><time>2026-05-01T10:23:52Z</time></trkpt><trkpt lat="44.90840294319839" lon="7.278144978243576"><ele>1009.0</ele><time>2026-05-01T10:23:54Z</time></trkpt><trkpt lat="44.90836883304025" lon="7.278030923390928"><ele>1009.0</ele><time>2026-05-01T10:23:56Z</time></trkpt><trkpt lat="44.908318828312" lon="7.277930148366878"><ele>1008.9999999999999</ele><time>2026-05-01T10:23:58Z</time></trkpt><trkpt lat="44.908280955841036" lon="7.2778423235654355"><ele>1009.0</ele><time>2026-05-01T10:24:00Z</time></trkpt><trkpt lat="44.90824044791508" lon="7.277753139241046"><ele>1012.3333333333333</ele><time>2026-05-01T10:24:02Z</time></trkpt><trkpt lat="44.90818921626693" lon="7.277677619130948"><ele>1015.6666666666666</ele><time>2026-05-01T10:24:04Z</time></trkpt><trkpt lat="44.90812728258707" lon="7.277628421130912"><ele>1019.0</ele><time>2026-05-01T10:24:07Z</time></trkpt><trkpt lat="44.90806808643452" lon="7.277529128381963"><ele>1022.3333333333333</ele><time>2026-05-01T10:24:21Z</time></trkpt><trkpt lat="44.90801591131306" lon="7.277463206038992"><ele>1025.6666666666667</ele><time>2026-05-01T10:24:22.999Z</time></trkpt><trkpt lat="44.90807994589075" lon="7.277484497220629"><ele>1029.0</ele><time>2026-05-01T10:24:27.999Z</time></trkpt><trkpt lat="44.908158162490665" lon="7.2774497462433905"><ele>1029.0</ele><time>2026-05-01T10:24:29.999Z</time></trkpt><trkpt lat="44.90824285615238" lon="7.277364843029493"><ele>1029.0</ele><time>2026-05-01T10:24:33.999Z</time></trkpt><trkpt lat="44.908308753771" lon="7.277358845534895"><ele>1029.0</ele><time>2026-05-01T10:24:36.999Z</time></trkpt><trkpt lat="44.90837709044354" lon="7.277298392706328"><ele>1029.0</ele><time>2026-05-01T10:24:40.999Z</time></trkpt><trkpt lat="44.90845884296835" lon="7.277316418672614"><ele>1029.0</ele><time>2026-05-01T10:24:42.999Z</time></trkpt><trkpt lat="44.9085629276949" lon="7.277339539730575"><ele>1029.0</ele><time>2026-05-01T10:24:44.999Z</time></trkpt><trkpt lat="44.90866251206504" lon="7.277423708080481"><ele>1027.6666666666667</ele><time>2026-05-01T10:24:46.999Z</time></trkpt><trkpt lat="44.90872298964" lon="7.277475939880398"><ele>1026.3333333333333</ele><time>2026-05-01T10:24:47.999Z</time></trkpt><trkpt lat="44.908783084612004" lon="7.277513237489642"><ele>1025.0</ele><time>2026-05-01T10:24:48.999Z</time></trkpt><trkpt lat="44.908871960270204" lon="7.27755543112295"><ele>1023.6666666666666</ele><time>2026-05-01T10:24:50.999Z</time></trkpt><trkpt lat="44.908916715836746" lon="7.277475762276679"><ele>1022.3333333333333</ele><time>2026-05-01T10:24:52.999Z</time></trkpt><trkpt lat="44.90892395760675" lon="7.27735095883656"><ele>1021.0</ele><time>2026-05-01T10:24:54.999Z</time></trkpt><trkpt lat="44.90897114725029" lon="7.277287210575785"><ele>1021.4</ele><time>2026-05-01T10:24:56.999Z</time></trkpt><trkpt lat="44.90907278756689" lon="7.277236339262907"><ele>1021.8</ele><time>2026-05-01T10:24:58.999Z</time></trkpt><trkpt lat="44.90909915177643" lon="7.277119422132586"><ele>1022.1999999999999</ele><time>2026-05-01T10:25:00.999Z</time></trkpt><trkpt lat="44.90915485207245" lon="7.277004266642816"><ele>1022.5999999999999</ele><time>2026-05-01T10:25:02.999Z</time></trkpt><trkpt lat="44.90922300781145" lon="7.276940216550705"><ele>1023.0</ele><time>2026-05-01T10:25:05.999Z</time></trkpt><trkpt lat="44.90932722247224" lon="7.276903257017907"><ele>1022.0</ele><time>2026-05-01T10:25:07.999Z</time></trkpt><trkpt lat="44.909438319659074" lon="7.2768844958240875"><ele>1021.0</ele><time>2026-05-01T10:25:09.999Z</time></trkpt><trkpt lat="44.90950445136624" lon="7.27689756900417"><ele>1020.0</ele><time>2026-05-01T10:25:10.998Z</time></trkpt><trkpt lat="44.909609222018624" lon="7.276919018958443"><ele>1019.0</ele><time>2026-05-01T10:25:12.998Z</time></trkpt><trkpt lat="44.909680496846434" lon="7.276877292269413"><ele>1018.0</ele><time>2026-05-01T10:25:19.998Z</time></trkpt><trkpt lat="44.909723814871796" lon="7.276778572354048"><ele>1017.0</ele><time>2026-05-01T10:25:22.998Z</time></trkpt><trkpt lat="44.90976399919954" lon="7.276667358220717"><ele>1017.0</ele><time>2026-05-01T10:25:25.998Z</time></trkpt><trkpt lat="44.90986567365683" lon="7.2764541881335605"><ele>1017.0</ele><time>2026-05-01T10:25:27.998Z</time></trkpt><trkpt lat="44.909894700836574" lon="7.276298678988104"><ele>1017.0</ele><time>2026-05-01T10:25:29.998Z</time></trkpt><trkpt lat="44.90992013207917" lon="7.276212587778744"><ele>1017.0</ele><time>2026-05-01T10:25:30.998Z</time></trkpt><trkpt lat="44.90994167947986" lon="7.276121239511161"><ele>1017.0</ele><time>2026-05-01T10:25:31.998Z</time></trkpt><trkpt lat="44.90998318148021" lon="7.275955707000519"><ele>1015.4000000000001</ele><time>2026-05-01T10:25:34Z</time></trkpt><trkpt lat="44.9100415020896" lon="7.275831756014506"><ele>1013.8000000000001</ele><time>2026-05-01T10:25:36Z</time></trkpt><trkpt lat="44.91012018673324" lon="7.275746423422676"><ele>1012.2</ele><time>2026-05-01T10:25:38Z</time></trkpt><trkpt lat="44.910183856688505" lon="7.275656362272857"><ele>1010.6</ele><time>2026-05-01T10:25:40Z</time></trkpt><trkpt lat="44.91025429043488" lon="7.275568849787973"><ele>1009.0</ele><time>2026-05-01T10:25:42Z</time></trkpt><trkpt lat="44.91033865681945" lon="7.275476624029294"><ele>1004.6</ele><time>2026-05-01T10:25:44Z</time></trkpt><trkpt lat="44.910439946641965" lon="7.275382507366204"><ele>1000.2</ele><time>2026-05-01T10:25:46Z</time></trkpt><trkpt lat="44.91059950050116" lon="7.275250578197994"><ele>995.8000000000001</ele><time>2026-05-01T10:25:48Z</time></trkpt><trkpt lat="44.91061559586557" lon="7.2751478626097"><ele>991.4000000000001</ele><time>2026-05-01T10:25:49Z</time></trkpt><trkpt lat="44.91062549347134" lon="7.27505349047194"><ele>987.0</ele><time>2026-05-01T10:25:50Z</time></trkpt><trkpt lat="44.91071365007865" lon="7.274960365957241"><ele>987.0</ele><time>2026-05-01T10:25:52Z</time></trkpt><trkpt lat="44.910796435998414" lon="7.274895594077461"><ele>987.0</ele><time>2026-05-01T10:25:53Z</time></trkpt><trkpt lat="44.91086048981044" lon="7.27480544809676"><ele>987.0</ele><time>2026-05-01T10:25:54Z</time></trkpt><trkpt lat="44.91091863094579" lon="7.274717654593398"><ele>987.0</ele><time>2026-05-01T10:25:55Z</time></trkpt><trkpt lat="44.91097099114564" lon="7.274630632111948"><ele>987.0</ele><time>2026-05-01T10:25:56Z</time></trkpt><trkpt lat="44.91103795878463" lon="7.274544947274861"><ele>987.0</ele><time>2026-05-01T10:25:57Z</time></trkpt><trkpt lat="44.911073076460816" lon="7.274414244563828"><ele>983.3333333333334</ele><time>2026-05-01T10:26:07Z</time></trkpt><trkpt lat="44.911137493911454" lon="7.274362559243787"><ele>979.6666666666667</ele><time>2026-05-01T10:26:09Z</time></trkpt><trkpt lat="44.91117253770895" lon="7.274249537872352"><ele>976.0</ele><time>2026-05-01T10:26:13Z</time></trkpt><trkpt lat="44.91121737715937" lon="7.274144612782062"><ele>972.3333333333334</ele><time>2026-05-01T10:26:15Z</time></trkpt><trkpt lat="44.91128458043069" lon="7.274035209892475"><ele>968.6666666666667</ele><time>2026-05-01T10:26:17Z</time></trkpt><trkpt lat="44.911352639863054" lon="7.273965536610877"><ele>965.0</ele><time>2026-05-01T10:26:18Z</time></trkpt><trkpt lat="44.9114267281445" lon="7.273882631293607"><ele>963.6666666666667</ele><time>2026-05-01T10:26:19Z</time></trkpt><trkpt lat="44.91149591696542" lon="7.273815645159425"><ele>962.3333333333334</ele><time>2026-05-01T10:26:20Z</time></trkpt><trkpt lat="44.91156850401652" lon="7.273747527701767"><ele>961.0</ele><time>2026-05-01T10:26:21Z</time></trkpt><trkpt lat="44.91163236671181" lon="7.273674869059638"><ele>959.6666666666667</ele><time>2026-05-01T10:26:22Z</time></trkpt><trkpt lat="44.91167978336535" lon="7.273588357436839"><ele>958.3333333333334</ele><time>2026-05-01T10:26:23Z</time></trkpt><trkpt lat="44.91171511558396" lon="7.273507107447105"><ele>957.0</ele><time>2026-05-01T10:26:24Z</time></trkpt><trkpt lat="44.91173966491147" lon="7.273424971169193"><ele>957.0</ele><time>2026-05-01T10:26:25Z</time></trkpt><trkpt lat="44.91176924838598" lon="7.273323762090485"><ele>957.0</ele><time>2026-05-01T10:26:27Z</time></trkpt><trkpt lat="44.91174501529379" lon="7.273213636232563"><ele>957.0</ele><time>2026-05-01T10:26:32.999Z</time></trkpt><trkpt lat="44.9117151049389" lon="7.2731197730944315"><ele>957.0</ele><time>2026-05-01T10:26:35.999Z</time></trkpt><trkpt lat="44.911691777032445" lon="7.272963713058493"><ele>957.0</ele><time>2026-05-01T10:26:38.999Z</time></trkpt><trkpt lat="44.91164431390091" lon="7.27271548987066"><ele>954.8333333333334</ele><time>2026-05-01T10:26:40.999Z</time></trkpt><trkpt lat="44.91167791441985" lon="7.2725731808123"><ele>952.6666666666667</ele><time>2026-05-01T10:26:42.999Z</time></trkpt><trkpt lat="44.911725730222294" lon="7.27250593041909"><ele>950.5</ele><time>2026-05-01T10:26:45.999Z</time></trkpt><trkpt lat="44.91179708299328" lon="7.2723943510299005"><ele>948.3333333333334</ele><time>2026-05-01T10:26:48.999Z</time></trkpt><trkpt lat="44.911872101538" lon="7.272308695267059"><ele>946.1666666666667</ele><time>2026-05-01T10:26:50.999Z</time></trkpt><trkpt lat="44.911925585045736" lon="7.272261460421908"><ele>944.0</ele><time>2026-05-01T10:26:51.999Z</time></trkpt><trkpt lat="44.91198683579052" lon="7.272237329097334"><ele>941.3333333333334</ele><time>2026-05-01T10:26:52.999Z</time></trkpt><trkpt lat="44.912061439577485" lon="7.272190912296768"><ele>938.6666666666667</ele><time>2026-05-01T10:26:53.999Z</time></trkpt><trkpt lat="44.91212951152202" lon="7.272154706179867"><ele>936.0</ele><time>2026-05-01T10:26:54.999Z</time></trkpt><trkpt lat="44.912195680696215" lon="7.272090202800905"><ele>933.3333333333333</ele><time>2026-05-01T10:26:55.999Z</time></trkpt><trkpt lat="44.91227727574953" lon="7.27200525363779"><ele>930.6666666666666</ele><time>2026-05-01T10:26:56.999Z</time></trkpt><trkpt lat="44.91235254126809" lon="7.271930003344504"><ele>928.0</ele><time>2026-05-01T10:26:57.999Z</time></trkpt><trkpt lat="44.91241241068274" lon="7.271853944741159"><ele>927.9999999999999</ele><time>2026-05-01T10:26:58.999Z</time></trkpt><trkpt lat="44.912472740729434" lon="7.271726927020192"><ele>928.0</ele><time>2026-05-01T10:26:59.999Z</time></trkpt><trkpt lat="44.912378280572355" lon="7.2717078996956"><ele>928.0</ele><time>2026-05-01T10:27:01.999Z</time></trkpt><trkpt lat="44.912306071618836" lon="7.2716798737556"><ele>928.0</ele><time>2026-05-01T10:27:03.999Z</time></trkpt><trkpt lat="44.912362725483085" lon="7.27163085228738"><ele>927.9999999999999</ele><time>2026-05-01T10:27:05.999Z</time></trkpt><trkpt lat="44.91245493287109" lon="7.271600024005637"><ele>928.0</ele><time>2026-05-01T10:27:07.999Z</time></trkpt><trkpt lat="44.912560986500665" lon="7.271660695027511"><ele>921.25</ele><time>2026-05-01T10:27:09.999Z</time></trkpt><trkpt lat="44.91260030263158" lon="7.2718361409267"><ele>914.5</ele><time>2026-05-01T10:27:11.999Z</time></trkpt><trkpt lat="44.9125997405733" lon="7.271987232368627"><ele>907.75</ele><time>2026-05-01T10:27:12.999Z</time></trkpt><trkpt lat="44.91258961002137" lon="7.272145881333408"><ele>901.0</ele><time>2026-05-01T10:27:13.999Z</time></trkpt><trkpt lat="44.912575522981136" lon="7.272370208486201"><ele>912.6666666666666</ele><time>2026-05-01T10:27:14.998Z</time></trkpt><trkpt lat="44.912571069110136" lon="7.272569913765261"><ele>924.3333333333333</ele><time>2026-05-01T10:27:15.998Z</time></trkpt><trkpt lat="44.91256426486455" lon="7.272804437008768"><ele>936.0</ele><time>2026-05-01T10:27:16.998Z</time></trkpt><trkpt lat="44.91256067936435" lon="7.273029428677224"><ele>936.75</ele><time>2026-05-01T10:27:17.998Z</time></trkpt><trkpt lat="44.912553591835064" lon="7.2732087478624985"><ele>937.5</ele><time>2026-05-01T10:27:18.998Z</time></trkpt><trkpt lat="44.91251756357706" lon="7.2734258364749405"><ele>938.25</ele><time>2026-05-01T10:27:19.998Z</time></trkpt><trkpt lat="44.91246488361602" lon="7.273637590736209"><ele>939.0</ele><time>2026-05-01T10:27:20.998Z</time></trkpt><trkpt lat="44.9124413359764" lon="7.273827945296243"><ele>939.0</ele><time>2026-05-01T10:27:21.998Z</time></trkpt><trkpt lat="44.91243379117956" lon="7.2739968689366705"><ele>939.0</ele><time>2026-05-01T10:27:22.998Z</time></trkpt><trkpt lat="44.91244128808496" lon="7.274191302451732"><ele>939.0</ele><time>2026-05-01T10:27:23.998Z</time></trkpt><trkpt lat="44.91248154304882" lon="7.274368966085292"><ele>939.0</ele><time>2026-05-01T10:27:24.998Z</time></trkpt><trkpt lat="44.91250956563528" lon="7.274528736816807"><ele>939.0</ele><time>2026-05-01T10:27:25.998Z</time></trkpt><trkpt lat="44.91253718783071" lon="7.274671345154176"><ele>939.0000000000001</ele><time>2026-05-01T10:27:26.998Z</time></trkpt><trkpt lat="44.91255683663307" lon="7.274792870300375"><ele>939.0000000000001</ele><time>2026-05-01T10:27:27.998Z</time></trkpt><trkpt lat="44.912586856532144" lon="7.274899054675197"><ele>939.0</ele><time>2026-05-01T10:27:28.998Z</time></trkpt><trkpt lat="44.912709739060226" lon="7.274987928888472"><ele>939.0</ele><time>2026-05-01T10:27:30.998Z</time></trkpt><trkpt lat="44.91278204380078" lon="7.275060675033639"><ele>935.5</ele><time>2026-05-01T10:27:31.998Z</time></trkpt><trkpt lat="44.912832366135376" lon="7.275177504490661"><ele>932.0</ele><time>2026-05-01T10:27:32.998Z</time></trkpt><trkpt lat="44.91287050997303" lon="7.275345346263181"><ele>928.5</ele><time>2026-05-01T10:27:33.998Z</time></trkpt><trkpt lat="44.91290599942433" lon="7.275528931300104"><ele>925.0</ele><time>2026-05-01T10:27:34.998Z</time></trkpt><trkpt lat="44.91294063822569" lon="7.275704203622326"><ele>925.0</ele><time>2026-05-01T10:27:35.998Z</time></trkpt><trkpt lat="44.912982364672565" lon="7.275872550662273"><ele>925.0</ele><time>2026-05-01T10:27:36.998Z</time></trkpt><trkpt lat="44.91302446182886" lon="7.276037473802887"><ele>925.0</ele><time>2026-05-01T10:27:37.998Z</time></trkpt><trkpt lat="44.913077817981645" lon="7.276203715803596"><ele>925.0</ele><time>2026-05-01T10:27:39Z</time></trkpt><trkpt lat="44.913143838035026" lon="7.276341790811368"><ele>926.25</ele><time>2026-05-01T10:27:40Z</time></trkpt><trkpt lat="44.913212258357724" lon="7.276461369310311"><ele>927.5</ele><time>2026-05-01T10:27:41Z</time></trkpt><trkpt lat="44.91328989597284" lon="7.276592012685368"><ele>928.75</ele><time>2026-05-01T10:27:42Z</time></trkpt><trkpt lat="44.913393838611825" lon="7.27669993962713"><ele>930.0</ele><time>2026-05-01T10:27:43Z</time></trkpt><trkpt lat="44.91348687087266" lon="7.27680398595686"><ele>926.6</ele><time>2026-05-01T10:27:44Z</time></trkpt><trkpt lat="44.91357467636313" lon="7.276915104530086"><ele>923.2</ele><time>2026-05-01T10:27:45Z</time></trkpt><trkpt lat="44.91365996759032" lon="7.277029144521477"><ele>919.8</ele><time>2026-05-01T10:27:46Z</time></trkpt><trkpt lat="44.913743471109456" lon="7.277129284329849"><ele>916.4</ele><time>2026-05-01T10:27:47Z</time></trkpt><trkpt lat="44.91382505618539" lon="7.2772093174228765"><ele>913.0</ele><time>2026-05-01T10:27:48Z</time></trkpt><trkpt lat="44.91392699058325" lon="7.277237741885946"><ele>913.0</ele><time>2026-05-01T10:27:49Z</time></trkpt><trkpt lat="44.91401546913889" lon="7.277230044440041"><ele>913.0</ele><time>2026-05-01T10:27:50Z</time></trkpt><trkpt lat="44.91408426955901" lon="7.2772265991440905"><ele>913.0</ele><time>2026-05-01T10:27:51Z</time></trkpt><trkpt lat="44.91416484505452" lon="7.277292999105417"><ele>913.0</ele><time>2026-05-01T10:27:53Z</time></trkpt><trkpt lat="44.9142036634464" lon="7.277398787809131"><ele>913.0</ele><time>2026-05-01T10:27:57Z</time></trkpt><trkpt lat="44.91428346516337" lon="7.277523506861028"><ele>915.3333333333333</ele><time>2026-05-01T10:27:59Z</time></trkpt><trkpt lat="44.91432179904132" lon="7.277610599844274"><ele>917.6666666666666</ele><time>2026-05-01T10:28:00Z</time></trkpt><trkpt lat="44.91436440862" lon="7.277797899508343"><ele>920.0</ele><time>2026-05-01T10:28:01Z</time></trkpt><trkpt lat="44.91442205923479" lon="7.277856973471497"><ele>922.3333333333333</ele><time>2026-05-01T10:28:02Z</time></trkpt><trkpt lat="44.91446986094007" lon="7.277928786755399"><ele>924.6666666666666</ele><time>2026-05-01T10:28:03Z</time></trkpt><trkpt lat="44.91451248244248" lon="7.278046170105483"><ele>927.0</ele><time>2026-05-01T10:28:04Z</time></trkpt><trkpt lat="44.91457508197257" lon="7.278212550668273"><ele>927.0</ele><time>2026-05-01T10:28:05Z</time></trkpt><trkpt lat="44.914655076380924" lon="7.278319141047533"><ele>927.0</ele><time>2026-05-01T10:28:06Z</time></trkpt><trkpt lat="44.91472854823866" lon="7.278413679223604"><ele>927.0</ele><time>2026-05-01T10:28:07Z</time></trkpt><trkpt lat="44.91480444018012" lon="7.278515226650442"><ele>927.0</ele><time>2026-05-01T10:28:08Z</time></trkpt><trkpt lat="44.91488262334487" lon="7.278615957725176"><ele>927.0</ele><time>2026-05-01T10:28:09Z</time></trkpt><trkpt lat="44.91496366167008" lon="7.2786949917772015"><ele>927.0</ele><time>2026-05-01T10:28:10Z</time></trkpt><trkpt lat="44.915046587759626" lon="7.278788818175485"><ele>927.0</ele><time>2026-05-01T10:28:11Z</time></trkpt><trkpt lat="44.91512888660524" lon="7.278899650446749"><ele>927.0</ele><time>2026-05-01T10:28:12Z</time></trkpt><trkpt lat="44.91519307076204" lon="7.279009827789397"><ele>927.0</ele><time>2026-05-01T10:28:13Z</time></trkpt><trkpt lat="44.915270229867076" lon="7.2791247892913"><ele>927.0</ele><time>2026-05-01T10:28:14Z</time></trkpt><trkpt lat="44.915355288970105" lon="7.279238135403335"><ele>929.0</ele><time>2026-05-01T10:28:15Z</time></trkpt><trkpt lat="44.91542440408029" lon="7.279339332810326"><ele>931.0</ele><time>2026-05-01T10:28:16Z</time></trkpt><trkpt lat="44.91550333602359" lon="7.27942923246614"><ele>933.0</ele><time>2026-05-01T10:28:17Z</time></trkpt><trkpt lat="44.91559932019483" lon="7.2795332544911036"><ele>935.0</ele><time>2026-05-01T10:28:18Z</time></trkpt><trkpt lat="44.91568448302662" lon="7.27962987418355"><ele>937.0</ele><time>2026-05-01T10:28:19Z</time></trkpt><trkpt lat="44.91577934262773" lon="7.279702126233797"><ele>937.0</ele><time>2026-05-01T10:28:20Z</time></trkpt><trkpt lat="44.915854505147394" lon="7.279778751621159"><ele>937.0</ele><time>2026-05-01T10:28:21Z</time></trkpt><trkpt lat="44.915934660317276" lon="7.279842179275618"><ele>937.0</ele><time>2026-05-01T10:28:22Z</time></trkpt><trkpt lat="44.9160411490496" lon="7.2799060383572884"><ele>937.0</ele><time>2026-05-01T10:28:23Z</time></trkpt><trkpt lat="44.91612619363792" lon="7.279976995760806"><ele>937.0</ele><time>2026-05-01T10:28:24Z</time></trkpt><trkpt lat="44.9161858500923" lon="7.280047171718539"><ele>937.0</ele><time>2026-05-01T10:28:25Z</time></trkpt><trkpt lat="44.91625394879815" lon="7.280093311897915"><ele>937.0</ele><time>2026-05-01T10:28:26Z</time></trkpt><trkpt lat="44.91634665001859" lon="7.280151312082685"><ele>937.0</ele><time>2026-05-01T10:28:28Z</time></trkpt><trkpt lat="44.91640361106333" lon="7.280230485364699"><ele>937.0</ele><time>2026-05-01T10:28:53.999Z</time></trkpt><trkpt lat="44.916471165002804" lon="7.280315382005169"><ele>937.0</ele><time>2026-05-01T10:28:55.999Z</time></trkpt><trkpt lat="44.91658626664922" lon="7.280455274319298"><ele>936.9999999999999</ele><time>2026-05-01T10:28:57.999Z</time></trkpt><trkpt lat="44.916655475549014" lon="7.2805347934678855"><ele>937.0</ele><time>2026-05-01T10:28:58.999Z</time></trkpt><trkpt lat="44.916703717476196" lon="7.280602712526288"><ele>937.0</ele><time>2026-05-01T10:28:59.999Z</time></trkpt><trkpt lat="44.91676533415487" lon="7.280665941491098"><ele>937.0</ele><time>2026-05-01T10:29:00.999Z</time></trkpt><trkpt lat="44.91683801957618" lon="7.280739538175228"><ele>936.9999999999999</ele><time>2026-05-01T10:29:01.999Z</time></trkpt><trkpt lat="44.91691253089503" lon="7.280821686827916"><ele>937.0</ele><time>2026-05-01T10:29:02.999Z</time></trkpt><trkpt lat="44.91698331454451" lon="7.280911033480634"><ele>932.6666666666666</ele><time>2026-05-01T10:29:03.999Z</time></trkpt><trkpt lat="44.91705413310039" lon="7.280996986549496"><ele>928.3333333333333</ele><time>2026-05-01T10:29:04.999Z</time></trkpt><trkpt lat="44.91712739302169" lon="7.281059699341065"><ele>924.0</ele><time>2026-05-01T10:29:05.999Z</time></trkpt><trkpt lat="44.91718787999834" lon="7.281091427466921"><ele>919.6666666666667</ele><time>2026-05-01T10:29:06.999Z</time></trkpt><trkpt lat="44.91728231553901" lon="7.281097118903635"><ele>915.3333333333334</ele><time>2026-05-01T10:29:07.999Z</time></trkpt><trkpt lat="44.91735905979884" lon="7.2811200175780355"><ele>911.0</ele><time>2026-05-01T10:29:08.999Z</time></trkpt><trkpt lat="44.917475061321426" lon="7.281136414113266"><ele>909.5</ele><time>2026-05-01T10:29:09.999Z</time></trkpt><trkpt lat="44.917599028978714" lon="7.28112229925995"><ele>908.0</ele><time>2026-05-01T10:29:10.999Z</time></trkpt><trkpt lat="44.91772009626733" lon="7.281080179709194"><ele>906.5</ele><time>2026-05-01T10:29:11.999Z</time></trkpt><trkpt lat="44.91782592603738" lon="7.281028060926127"><ele>905.0</ele><time>2026-05-01T10:29:12.999Z</time></trkpt><trkpt lat="44.917957141205264" lon="7.281001871378922"><ele>905.0</ele><time>2026-05-01T10:29:13.999Z</time></trkpt><trkpt lat="44.91809561808853" lon="7.280996603732445"><ele>905.0</ele><time>2026-05-01T10:29:14.999Z</time></trkpt><trkpt lat="44.91821492456514" lon="7.281011850483402"><ele>905.0</ele><time>2026-05-01T10:29:15.999Z</time></trkpt><trkpt lat="44.91830689985312" lon="7.281019647455165"><ele>905.0</ele><time>2026-05-01T10:29:16.999Z</time></trkpt><trkpt lat="44.91837920772146" lon="7.28102108327934"><ele>905.0</ele><time>2026-05-01T10:29:17.999Z</time></trkpt><trkpt lat="44.91845727241009" lon="7.280966547604796"><ele>907.6666666666667</ele><time>2026-05-01T10:29:19.998Z</time></trkpt><trkpt lat="44.918539959425004" lon="7.28092042882279"><ele>910.3333333333334</ele><time>2026-05-01T10:29:27.998Z</time></trkpt><trkpt lat="44.918623539754826" lon="7.280895349078251"><ele>913.0</ele><time>2026-05-01T10:29:32.998Z</time></trkpt><trkpt lat="44.91870165022572" lon="7.280966478082761"><ele>915.6666666666667</ele><time>2026-05-01T10:29:35.998Z</time></trkpt><trkpt lat="44.91876470843085" lon="7.281037105231856"><ele>918.3333333333334</ele><time>2026-05-01T10:29:45Z</time></trkpt><trkpt lat="44.918787626913655" lon="7.281155512066627"><ele>921.0</ele><time>2026-05-01T10:29:47Z</time></trkpt><trkpt lat="44.918793052632275" lon="7.281261352044007"><ele>921.0</ele><time>2026-05-01T10:29:48Z</time></trkpt><trkpt lat="44.9187939771511" lon="7.281367968136282"><ele>921.0</ele><time>2026-05-01T10:29:49Z</time></trkpt><trkpt lat="44.918791047686014" lon="7.2814751350123625"><ele>921.0</ele><time>2026-05-01T10:29:50Z</time></trkpt><trkpt lat="44.918792968775534" lon="7.281585756240163"><ele>921.0</ele><time>2026-05-01T10:29:51Z</time></trkpt><trkpt lat="44.91879619460723" lon="7.281689172153883"><ele>921.0</ele><time>2026-05-01T10:29:52Z</time></trkpt><trkpt lat="44.91880772215639" lon="7.281798642091145"><ele>921.0</ele><time>2026-05-01T10:29:53Z</time></trkpt><trkpt lat="44.9188056996243" lon="7.281932792579276"><ele>918.3333333333334</ele><time>2026-05-01T10:29:54Z</time></trkpt><trkpt lat="44.91881851531722" lon="7.282069768240412"><ele>915.6666666666667</ele><time>2026-05-01T10:29:55Z</time></trkpt><trkpt lat="44.91883292327526" lon="7.282191894795433"><ele>913.0</ele><time>2026-05-01T10:29:56Z</time></trkpt><trkpt lat="44.918854341739426" lon="7.282318060335788"><ele>910.3333333333334</ele><time>2026-05-01T10:29:57Z</time></trkpt><trkpt lat="44.91888524304452" lon="7.2824219746805445"><ele>907.6666666666667</ele><time>2026-05-01T10:29:58Z</time></trkpt><trkpt lat="44.91893677131614" lon="7.282500055986161"><ele>905.0</ele><time>2026-05-01T10:29:59Z</time></trkpt><trkpt lat="44.91901455421323" lon="7.282508916708327"><ele>906.8</ele><time>2026-05-01T10:30:00Z</time></trkpt><trkpt lat="44.91910961742321" lon="7.282497419082115"><ele>908.6</ele><time>2026-05-01T10:30:01Z</time></trkpt><trkpt lat="44.91917563000784" lon="7.2825084036941155"><ele>910.4000000000001</ele><time>2026-05-01T10:30:02Z</time></trkpt><trkpt lat="44.91923700805115" lon="7.282669877255494"><ele>912.2</ele><time>2026-05-01T10:30:04Z</time></trkpt><trkpt lat="44.919288333982685" lon="7.282774912438279"><ele>914.0</ele><time>2026-05-01T10:30:05Z</time></trkpt><trkpt lat="44.91934588240445" lon="7.2828369152465475"><ele>914.0000000000001</ele><time>2026-05-01T10:30:06Z</time></trkpt><trkpt lat="44.91941109727887" lon="7.282855490938135"><ele>914.0</ele><time>2026-05-01T10:30:07Z</time></trkpt><trkpt lat="44.91948815671433" lon="7.282879354590246"><ele>914.0</ele><time>2026-05-01T10:30:08Z</time></trkpt><trkpt lat="44.91955376445145" lon="7.282941044580661"><ele>914.0</ele><time>2026-05-01T10:30:09Z</time></trkpt><trkpt lat="44.91961358440088" lon="7.283003188140755"><ele>914.0000000000001</ele><time>2026-05-01T10:30:10Z</time></trkpt><trkpt lat="44.91969759999288" lon="7.283072330828334"><ele>914.0</ele><time>2026-05-01T10:30:11Z</time></trkpt><trkpt lat="44.91977275043076" lon="7.283067104810086"><ele>914.0000000000001</ele><time>2026-05-01T10:30:12Z</time></trkpt><trkpt lat="44.91984364108119" lon="7.283084977957375"><ele>914.0</ele><time>2026-05-01T10:30:13Z</time></trkpt><trkpt lat="44.91995061050409" lon="7.28309519558092"><ele>914.0</ele><time>2026-05-01T10:30:15Z</time></trkpt><trkpt lat="44.92003509900228" lon="7.283097461912659"><ele>914.0</ele><time>2026-05-01T10:30:17Z</time></trkpt><trkpt lat="44.92010294492124" lon="7.283091139430233"><ele>914.0000000000001</ele><time>2026-05-01T10:30:18Z</time></trkpt><trkpt lat="44.92018981088096" lon="7.2830437816872164"><ele>914.0</ele><time>2026-05-01T10:30:20Z</time></trkpt><trkpt lat="44.92024812365665" lon="7.2829815514627425"><ele>914.0</ele><time>2026-05-01T10:30:22Z</time></trkpt><trkpt lat="44.920591317243066" lon="7.282862628426188"><ele>914.0</ele><time>2026-05-01T10:30:26Z</time></trkpt><trkpt lat="44.9206100761261" lon="7.282767544995452"><ele>914.0</ele><time>2026-05-01T10:30:27Z</time></trkpt><trkpt lat="44.92063872179244" lon="7.282685533604633"><ele>914.0000000000001</ele><time>2026-05-01T10:30:28Z</time></trkpt><trkpt lat="44.92066319510135" lon="7.282596906308625"><ele>914.0</ele><time>2026-05-01T10:30:29Z</time></trkpt><trkpt lat="44.920678874988496" lon="7.28250652292564"><ele>914.0000000000001</ele><time>2026-05-01T10:30:30Z</time></trkpt><trkpt lat="44.92069818435448" lon="7.2824102473686505"><ele>914.0000000000001</ele><time>2026-05-01T10:30:31Z</time></trkpt><trkpt lat="44.92071966352413" lon="7.282303019817723"><ele>914.0</ele><time>2026-05-01T10:30:32Z</time></trkpt><trkpt lat="44.9207317238005" lon="7.2822056293189865"><ele>914.0000000000001</ele><time>2026-05-01T10:30:33Z</time></trkpt><trkpt lat="44.92074549461428" lon="7.282097797488636"><ele>914.0000000000001</ele><time>2026-05-01T10:30:34.999Z</time></trkpt><trkpt lat="44.92074732664509" lon="7.281996712472506"><ele>916.0</ele><time>2026-05-01T10:30:37.999Z</time></trkpt><trkpt lat="44.92076036717841" lon="7.281904491733445"><ele>918.0000000000001</ele><time>2026-05-01T10:30:39.999Z</time></trkpt><trkpt lat="44.92076224612988" lon="7.281745840453332"><ele>920.0000000000001</ele><time>2026-05-01T10:30:41.999Z</time></trkpt><trkpt lat="44.920741876639156" lon="7.281619409900604"><ele>922.0</ele><time>2026-05-01T10:30:42.999Z</time></trkpt><trkpt lat="44.92071971757153" lon="7.281468507212801"><ele>924.0</ele><time>2026-05-01T10:30:43.999Z</time></trkpt><trkpt lat="44.9206415998631" lon="7.281337577125232"><ele>925.6666666666666</ele><time>2026-05-01T10:30:44.999Z</time></trkpt><trkpt lat="44.920648204135" lon="7.281230882797472"><ele>927.3333333333333</ele><time>2026-05-01T10:30:45.999Z</time></trkpt><trkpt lat="44.920672992736606" lon="7.281102569643026"><ele>929.0</ele><time>2026-05-01T10:30:46.999Z</time></trkpt><trkpt lat="44.92068441793876" lon="7.280997538653406"><ele>930.6666666666666</ele><time>2026-05-01T10:30:47.999Z</time></trkpt><trkpt lat="44.9207034667677" lon="7.280872864972057"><ele>932.3333333333333</ele><time>2026-05-01T10:30:49.999Z</time></trkpt><trkpt lat="44.9206997236582" lon="7.280771310900442"><ele>934.0</ele><time>2026-05-01T10:30:51.999Z</time></trkpt><trkpt lat="44.920690475571824" lon="7.280674278356751"><ele>935.0</ele><time>2026-05-01T10:31:04.999Z</time></trkpt><trkpt lat="44.92075452782619" lon="7.280484825024032"><ele>936.0000000000001</ele><time>2026-05-01T10:31:06.999Z</time></trkpt><trkpt lat="44.92081264989799" lon="7.280373479011988"><ele>937.0000000000001</ele><time>2026-05-01T10:31:07.999Z</time></trkpt><trkpt lat="44.92085703125772" lon="7.280263078791625"><ele>938.0</ele><time>2026-05-01T10:31:08.999Z</time></trkpt><trkpt lat="44.9209026828301" lon="7.280127164903712"><ele>939.0</ele><time>2026-05-01T10:31:09.999Z</time></trkpt><trkpt lat="44.92092655024911" lon="7.279971180889632"><ele>939.0</ele><time>2026-05-01T10:31:10.999Z</time></trkpt><trkpt lat="44.92095904776208" lon="7.279830125854456"><ele>939.0000000000001</ele><time>2026-05-01T10:31:11.999Z</time></trkpt><trkpt lat="44.92102585139141" lon="7.279734210757267"><ele>939.0000000000001</ele><time>2026-05-01T10:31:12.999Z</time></trkpt><trkpt lat="44.92108279971792" lon="7.279631712783936"><ele>939.0</ele><time>2026-05-01T10:31:13.999Z</time></trkpt><trkpt lat="44.92116679136168" lon="7.279549473407241"><ele>939.0</ele><time>2026-05-01T10:31:14.999Z</time></trkpt><trkpt lat="44.921255912723254" lon="7.2794878917647035"><ele>939.0</ele><time>2026-05-01T10:31:15.999Z</time></trkpt><trkpt lat="44.92135997206702" lon="7.2794558437690196"><ele>939.0000000000001</ele><time>2026-05-01T10:31:16.999Z</time></trkpt><trkpt lat="44.92147146519987" lon="7.279428137282929"><ele>939.0000000000001</ele><time>2026-05-01T10:31:17.999Z</time></trkpt><trkpt lat="44.92157524029857" lon="7.279391430454151"><ele>939.0</ele><time>2026-05-01T10:31:18.999Z</time></trkpt><trkpt lat="44.921675237449264" lon="7.27931797507337"><ele>939.0</ele><time>2026-05-01T10:31:19.999Z</time></trkpt><trkpt lat="44.9217476426252" lon="7.279224483061759"><ele>939.0</ele><time>2026-05-01T10:31:20.999Z</time></trkpt><trkpt lat="44.92184504404115" lon="7.279129549987401"><ele>939.0000000000001</ele><time>2026-05-01T10:31:21.999Z</time></trkpt><trkpt lat="44.921945035873655" lon="7.279034276971036"><ele>939.0000000000001</ele><time>2026-05-01T10:31:22.998Z</time></trkpt><trkpt lat="44.92201980705258" lon="7.278937218482066"><ele>939.0</ele><time>2026-05-01T10:31:23.998Z</time></trkpt><trkpt lat="44.922080618391725" lon="7.278824095302071"><ele>939.0</ele><time>2026-05-01T10:31:24.998Z</time></trkpt><trkpt lat="44.92213594152466" lon="7.278706016246776"><ele>939.5</ele><time>2026-05-01T10:31:25.998Z</time></trkpt><trkpt lat="44.922183007983996" lon="7.278536100279737"><ele>940.0</ele><time>2026-05-01T10:31:26.998Z</time></trkpt><trkpt lat="44.92227745326396" lon="7.278346594412366"><ele>940.5</ele><time>2026-05-01T10:31:27.998Z</time></trkpt><trkpt lat="44.922333424443494" lon="7.27822731212034"><ele>941.0</ele><time>2026-05-01T10:31:28.998Z</time></trkpt><trkpt lat="44.92236210039975" lon="7.278146053243846"><ele>941.1666666666667</ele><time>2026-05-01T10:31:29.998Z</time></trkpt><trkpt lat="44.92245144350366" lon="7.2780929213377465"><ele>941.3333333333334</ele><time>2026-05-01T10:31:32.998Z</time></trkpt><trkpt lat="44.92251107421459" lon="7.278064112474214"><ele>941.5</ele><time>2026-05-01T10:31:33.998Z</time></trkpt><trkpt lat="44.922635194008414" lon="7.278017185318115"><ele>941.6666666666667</ele><time>2026-05-01T10:31:35.998Z</time></trkpt><trkpt lat="44.92270134531709" lon="7.278054823801687"><ele>941.8333333333334</ele><time>2026-05-01T10:31:38.998Z</time></trkpt><trkpt lat="44.922742309235616" lon="7.278135660441294"><ele>942.0</ele><time>2026-05-01T10:31:42.998Z</time></trkpt><trkpt lat="44.922790025538056" lon="7.278220312338965"><ele>942.0</ele><time>2026-05-01T10:31:54Z</time></trkpt><trkpt lat="44.922841796795936" lon="7.278319367332945"><ele>942.0</ele><time>2026-05-01T10:31:55Z</time></trkpt><trkpt lat="44.92289802543839" lon="7.278419272996196"><ele>942.0</ele><time>2026-05-01T10:31:56Z</time></trkpt><trkpt lat="44.92296184726536" lon="7.278534846456131"><ele>942.0</ele><time>2026-05-01T10:31:57Z</time></trkpt><trkpt lat="44.92302256850066" lon="7.278633955925888"><ele>942.0</ele><time>2026-05-01T10:31:58Z</time></trkpt><trkpt lat="44.923079846674504" lon="7.278719422931062"><ele>942.0</ele><time>2026-05-01T10:31:59Z</time></trkpt><trkpt lat="44.92315224781765" lon="7.278791295932037"><ele>942.0</ele><time>2026-05-01T10:32:00Z</time></trkpt><trkpt lat="44.92324177425352" lon="7.278848573225562"><ele>942.0</ele><time>2026-05-01T10:32:01Z</time></trkpt><trkpt lat="44.92333923943051" lon="7.278905689973529"><ele>942.0</ele><time>2026-05-01T10:32:02Z</time></trkpt><trkpt lat="44.923417736736255" lon="7.278975776072321"><ele>942.0</ele><time>2026-05-01T10:32:03Z</time></trkpt><trkpt lat="44.923487732100014" lon="7.279043493467472"><ele>942.8333333333334</ele><time>2026-05-01T10:32:04Z</time></trkpt><trkpt lat="44.923560958004536" lon="7.279109773810414"><ele>943.6666666666667</ele><time>2026-05-01T10:32:05Z</time></trkpt><trkpt lat="44.92362122112867" lon="7.279180510404357"><ele>944.5</ele><time>2026-05-01T10:32:06Z</time></trkpt><trkpt lat="44.923679122453024" lon="7.2792853452260875"><ele>945.3333333333334</ele><time>2026-05-01T10:32:07Z</time></trkpt><trkpt lat="44.92373053749833" lon="7.279403883599379"><ele>946.1666666666667</ele><time>2026-05-01T10:32:08Z</time></trkpt><trkpt lat="44.92378161374455" lon="7.279506861723281"><ele>947.0</ele><time>2026-05-01T10:32:09Z</time></trkpt><trkpt lat="44.92382902693223" lon="7.279604493875317"><ele>947.0</ele><time>2026-05-01T10:32:10Z</time></trkpt><trkpt lat="44.92389426177072" lon="7.279693698652545"><ele>947.0</ele><time>2026-05-01T10:32:11Z</time></trkpt><trkpt lat="44.923971841568296" lon="7.2797893967557075"><ele>947.0</ele><time>2026-05-01T10:32:12Z</time></trkpt><trkpt lat="44.92406582735431" lon="7.2798954103104805"><ele>947.0</ele><time>2026-05-01T10:32:13Z</time></trkpt><trkpt lat="44.92415858722023" lon="7.280012196718342"><ele>947.0</ele><time>2026-05-01T10:32:14Z</time></trkpt><trkpt lat="44.924230019854406" lon="7.2801375176847065"><ele>947.2</ele><time>2026-05-01T10:32:15Z</time></trkpt><trkpt lat="44.92430588435195" lon="7.280270462405012"><ele>947.4000000000001</ele><time>2026-05-01T10:32:16Z</time></trkpt><trkpt lat="44.92437739615329" lon="7.280388400500667"><ele>947.5999999999999</ele><time>2026-05-01T10:32:17Z</time></trkpt><trkpt lat="44.92444783031276" lon="7.280454841827372"><ele>947.8</ele><time>2026-05-01T10:32:18Z</time></trkpt><trkpt lat="44.9245241548286" lon="7.280487742230728"><ele>948.0</ele><time>2026-05-01T10:32:19Z</time></trkpt><trkpt lat="44.92461156498819" lon="7.280523212518789"><ele>948.0</ele><time>2026-05-01T10:32:20Z</time></trkpt><trkpt lat="44.92469151902417" lon="7.280549160010092"><ele>948.0</ele><time>2026-05-01T10:32:21Z</time></trkpt><trkpt lat="44.9247628729026" lon="7.280548027656885"><ele>948.0</ele><time>2026-05-01T10:32:22Z</time></trkpt><trkpt lat="44.924827349044264" lon="7.280510602817628"><ele>948.0</ele><time>2026-05-01T10:32:23Z</time></trkpt><trkpt lat="44.92488478701771" lon="7.280467705493409"><ele>948.0</ele><time>2026-05-01T10:32:24Z</time></trkpt><trkpt lat="44.92499116712739" lon="7.280555652686634"><ele>948.0</ele><time>2026-05-01T10:32:26Z</time></trkpt><trkpt lat="44.925104252029634" lon="7.280667039150735"><ele>940.0</ele><time>2026-05-01T10:32:27Z</time></trkpt><trkpt lat="44.92524661511007" lon="7.280718918846244"><ele>932.0</ele><time>2026-05-01T10:32:28Z</time></trkpt><trkpt lat="44.92535448100931" lon="7.280719607665096"><ele>924.0</ele><time>2026-05-01T10:32:29Z</time></trkpt><trkpt lat="44.92548028708379" lon="7.280632622692033"><ele>916.0</ele><time>2026-05-01T10:32:31Z</time></trkpt><trkpt lat="44.92557189618218" lon="7.2806487943959475"><ele>916.0</ele><time>2026-05-01T10:32:33Z</time></trkpt><trkpt lat="44.92560306081945" lon="7.280738759474459"><ele>915.9999999999999</ele><time>2026-05-01T10:32:33.999Z</time></trkpt><trkpt lat="44.92565349474486" lon="7.280819615356442"><ele>915.9999999999999</ele><time>2026-05-01T10:32:34.999Z</time></trkpt><trkpt lat="44.9257560763724" lon="7.280969713812096"><ele>916.0</ele><time>2026-05-01T10:32:36.999Z</time></trkpt><trkpt lat="44.92584540305888" lon="7.281068525639129"><ele>916.0</ele><time>2026-05-01T10:32:37.999Z</time></trkpt><trkpt lat="44.92594559636719" lon="7.281160387453055"><ele>917.5</ele><time>2026-05-01T10:32:38.999Z</time></trkpt><trkpt lat="44.92605206993122" lon="7.281302511889176"><ele>919.0</ele><time>2026-05-01T10:32:39.999Z</time></trkpt><trkpt lat="44.926163836426994" lon="7.281442492648789"><ele>920.5</ele><time>2026-05-01T10:32:40.999Z</time></trkpt><trkpt lat="44.926271258364835" lon="7.281588521782656"><ele>922.0</ele><time>2026-05-01T10:32:41.999Z</time></trkpt><trkpt lat="44.92637849232103" lon="7.281698512552706"><ele>922.0</ele><time>2026-05-01T10:32:42.999Z</time></trkpt><trkpt lat="44.926477777530806" lon="7.281825189978749"><ele>922.0</ele><time>2026-05-01T10:32:43.999Z</time></trkpt><trkpt lat="44.92657416570816" lon="7.2819324989509004"><ele>922.0</ele><time>2026-05-01T10:32:44.999Z</time></trkpt><trkpt lat="44.92666992676774" lon="7.2820147111488005"><ele>922.0</ele><time>2026-05-01T10:32:45.999Z</time></trkpt><trkpt lat="44.926767204570865" lon="7.282099179237878"><ele>923.5</ele><time>2026-05-01T10:32:46.999Z</time></trkpt><trkpt lat="44.926853471025545" lon="7.282201257806535"><ele>925.0</ele><time>2026-05-01T10:32:47.999Z</time></trkpt><trkpt lat="44.92696554722365" lon="7.282299145293309"><ele>926.5</ele><time>2026-05-01T10:32:48.999Z</time></trkpt><trkpt lat="44.92707061872205" lon="7.2823603374009265"><ele>928.0</ele><time>2026-05-01T10:32:49.999Z</time></trkpt><trkpt lat="44.92718328712192" lon="7.282431559641421"><ele>925.2</ele><time>2026-05-01T10:32:50.999Z</time></trkpt><trkpt lat="44.92728462120918" lon="7.282489257871235"><ele>922.4</ele><time>2026-05-01T10:32:51.999Z</time></trkpt><trkpt lat="44.92739304787122" lon="7.28255911629393"><ele>919.6000000000001</ele><time>2026-05-01T10:32:52.999Z</time></trkpt><trkpt lat="44.927491784065886" lon="7.282605953749267"><ele>916.8000000000001</ele><time>2026-05-01T10:32:53.999Z</time></trkpt><trkpt lat="44.92760075684396" lon="7.28261690920929"><ele>914.0</ele><time>2026-05-01T10:32:54.999Z</time></trkpt><trkpt lat="44.927702890413265" lon="7.28259914453789"><ele>913.3333333333334</ele><time>2026-05-01T10:32:55.999Z</time></trkpt><trkpt lat="44.92778152702939" lon="7.282588883261346"><ele>912.6666666666667</ele><time>2026-05-01T10:32:56.999Z</time></trkpt><trkpt lat="44.92785988418352" lon="7.2825488410392705"><ele>912.0</ele><time>2026-05-01T10:32:57.999Z</time></trkpt><trkpt lat="44.92793453992442" lon="7.282493785860761"><ele>911.3333333333333</ele><time>2026-05-01T10:32:58.999Z</time></trkpt><trkpt lat="44.92800258933679" lon="7.282415120012973"><ele>910.6666666666666</ele><time>2026-05-01T10:32:59.999Z</time></trkpt><trkpt lat="44.928062115361676" lon="7.28229416088961"><ele>910.0</ele><time>2026-05-01T10:33:00.999Z</time></trkpt><trkpt lat="44.92811661577119" lon="7.282143585626672"><ele>910.0</ele><time>2026-05-01T10:33:01.999Z</time></trkpt><trkpt lat="44.928163033542155" lon="7.281991693011363"><ele>910.0</ele><time>2026-05-01T10:33:02.999Z</time></trkpt><trkpt lat="44.928234442825605" lon="7.281855950072888"><ele>910.0</ele><time>2026-05-01T10:33:03.999Z</time></trkpt><trkpt lat="44.92830674015579" lon="7.2817710466787435"><ele>910.0</ele><time>2026-05-01T10:33:04.999Z</time></trkpt><trkpt lat="44.92839455117674" lon="7.281753882701104"><ele>910.0</ele><time>2026-05-01T10:33:05.999Z</time></trkpt><trkpt lat="44.928513108701836" lon="7.281788656564706"><ele>906.25</ele><time>2026-05-01T10:33:06.999Z</time></trkpt><trkpt lat="44.92863300034957" lon="7.281819971589576"><ele>902.5</ele><time>2026-05-01T10:33:07.999Z</time></trkpt><trkpt lat="44.92875555430099" lon="7.2817642327694925"><ele>898.75</ele><time>2026-05-01T10:33:08.999Z</time></trkpt><trkpt lat="44.92886062583676" lon="7.281697372525331"><ele>895.0</ele><time>2026-05-01T10:33:09.999Z</time></trkpt><trkpt lat="44.92895435804233" lon="7.281664275920459"><ele>894.9999999999999</ele><time>2026-05-01T10:33:10.999Z</time></trkpt><trkpt lat="44.92904967155883" lon="7.281637672772145"><ele>895.0</ele><time>2026-05-01T10:33:11.999Z</time></trkpt><trkpt lat="44.92913984238683" lon="7.281624790034731"><ele>895.0</ele><time>2026-05-01T10:33:12.999Z</time></trkpt><trkpt lat="44.92920655390002" lon="7.281649418808786"><ele>895.0</ele><time>2026-05-01T10:33:13.999Z</time></trkpt><trkpt lat="44.9292678133638" lon="7.281687265814135"><ele>894.9999999999999</ele><time>2026-05-01T10:33:14.999Z</time></trkpt><trkpt lat="44.929336456605746" lon="7.281712911268793"><ele>895.0</ele><time>2026-05-01T10:33:15.999Z</time></trkpt><trkpt lat="44.92941787544379" lon="7.281711988761258"><ele>894.2</ele><time>2026-05-01T10:33:16.999Z</time></trkpt><trkpt lat="44.92951629947798" lon="7.281671029940522"><ele>893.4</ele><time>2026-05-01T10:33:17.999Z</time></trkpt><trkpt lat="44.929601895840705" lon="7.281609912094113"><ele>892.5999999999999</ele><time>2026-05-01T10:33:18.999Z</time></trkpt><trkpt lat="44.92969650980592" lon="7.281541257319819"><ele>891.8</ele><time>2026-05-01T10:33:19.999Z</time></trkpt><trkpt lat="44.92980001848383" lon="7.281458949553571"><ele>891.0</ele><time>2026-05-01T10:33:20.999Z</time></trkpt><trkpt lat="44.92991998751286" lon="7.281385717442507"><ele>891.75</ele><time>2026-05-01T10:33:21.998Z</time></trkpt><trkpt lat="44.93002679783929" lon="7.281310041221915"><ele>892.5</ele><time>2026-05-01T10:33:22.998Z</time></trkpt><trkpt lat="44.93013840823962" lon="7.281271728266636"><ele>893.25</ele><time>2026-05-01T10:33:23.998Z</time></trkpt><trkpt lat="44.930271484248074" lon="7.281203492860422"><ele>894.0</ele><time>2026-05-01T10:33:24.998Z</time></trkpt><trkpt lat="44.930382065274955" lon="7.2811184043879775"><ele>894.0</ele><time>2026-05-01T10:33:25.998Z</time></trkpt><trkpt lat="44.93046871757499" lon="7.281027994986573"><ele>894.0000000000001</ele><time>2026-05-01T10:33:26.998Z</time></trkpt><trkpt lat="44.93053827857215" lon="7.280919763116097"><ele>894.0000000000001</ele><time>2026-05-01T10:33:27.998Z</time></trkpt><trkpt lat="44.930601265463324" lon="7.28080923162122"><ele>894.0</ele><time>2026-05-01T10:33:28.998Z</time></trkpt><trkpt lat="44.930649793309044" lon="7.280705891805691"><ele>894.0</ele><time>2026-05-01T10:33:29.998Z</time></trkpt><trkpt lat="44.93067682122129" lon="7.280593372385491"><ele>895.4000000000001</ele><time>2026-05-01T10:33:30.998Z</time></trkpt><trkpt lat="44.93068152796001" lon="7.280492332618961"><ele>896.8000000000001</ele><time>2026-05-01T10:33:31.998Z</time></trkpt><trkpt lat="44.9307152190105" lon="7.280370657471606"><ele>898.1999999999999</ele><time>2026-05-01T10:33:33.998Z</time></trkpt><trkpt lat="44.93079622998769" lon="7.280339348301141"><ele>899.5999999999999</ele><time>2026-05-01T10:33:35.998Z</time></trkpt><trkpt lat="44.93086585782564" lon="7.2802877518325335"><ele>901.0</ele><time>2026-05-01T10:33:38.998Z</time></trkpt><trkpt lat="44.93100576097125" lon="7.280122447294678"><ele>900.9999999999999</ele><time>2026-05-01T10:33:40.998Z</time></trkpt><trkpt lat="44.931049628579295" lon="7.28001312282252"><ele>901.0</ele><time>2026-05-01T10:33:41.998Z</time></trkpt><trkpt lat="44.931071518203375" lon="7.279897501616435"><ele>901.0</ele><time>2026-05-01T10:33:42.998Z</time></trkpt><trkpt lat="44.93108735938756" lon="7.279771870724562"><ele>901.0</ele><time>2026-05-01T10:33:43.998Z</time></trkpt><trkpt lat="44.93109858611222" lon="7.279646330789231"><ele>900.9999999999999</ele><time>2026-05-01T10:33:44.998Z</time></trkpt><trkpt lat="44.93111010637053" lon="7.279529657759992"><ele>901.0</ele><time>2026-05-01T10:33:45.998Z</time></trkpt><trkpt lat="44.93112702112676" lon="7.279382002793977"><ele>903.8</ele><time>2026-05-01T10:33:46.998Z</time></trkpt><trkpt lat="44.931135273808785" lon="7.279240641181401"><ele>906.5999999999999</ele><time>2026-05-01T10:33:47.998Z</time></trkpt><trkpt lat="44.931111929538716" lon="7.279129345955178"><ele>909.4</ele><time>2026-05-01T10:33:48.998Z</time></trkpt><trkpt lat="44.93109363313282" lon="7.278979835567156"><ele>912.2</ele><time>2026-05-01T10:33:49.998Z</time></trkpt><trkpt lat="44.931085486400065" lon="7.278796519466356"><ele>915.0</ele><time>2026-05-01T10:33:50.998Z</time></trkpt><trkpt lat="44.93107448140739" lon="7.278621371022102"><ele>919.1666666666666</ele><time>2026-05-01T10:33:51.998Z</time></trkpt><trkpt lat="44.93107129091415" lon="7.278495638659328"><ele>923.3333333333333</ele><time>2026-05-01T10:33:52.998Z</time></trkpt><trkpt lat="44.93116203665105" lon="7.278451953652336"><ele>927.5</ele><time>2026-05-01T10:33:55Z</time></trkpt><trkpt lat="44.93120158018942" lon="7.278549656696041"><ele>931.6666666666666</ele><time>2026-05-01T10:33:56Z</time></trkpt><trkpt lat="44.93130562190154" lon="7.278623070816148"><ele>935.8333333333333</ele><time>2026-05-01T10:33:58Z</time></trkpt><trkpt lat="44.93136741328919" lon="7.278599403804016"><ele>940.0</ele><time>2026-05-01T10:33:59Z</time></trkpt><trkpt lat="44.93150734731649" lon="7.278524063611697"><ele>940.0</ele><time>2026-05-01T10:34:00Z</time></trkpt><trkpt lat="44.93162197786381" lon="7.278438101543187"><ele>940.0</ele><time>2026-05-01T10:34:01Z</time></trkpt><trkpt lat="44.931732152873515" lon="7.278339649290772"><ele>940.0</ele><time>2026-05-01T10:34:02Z</time></trkpt><trkpt lat="44.931843131584706" lon="7.278240269050487"><ele>940.0</ele><time>2026-05-01T10:34:03Z</time></trkpt><trkpt lat="44.931960570324264" lon="7.278190889056404"><ele>938.4999999999999</ele><time>2026-05-01T10:34:04Z</time></trkpt><trkpt lat="44.93204999070689" lon="7.278170461591467"><ele>937.0</ele><time>2026-05-01T10:34:05Z</time></trkpt><trkpt lat="44.93214707379885" lon="7.278206151653955"><ele>935.5</ele><time>2026-05-01T10:34:06Z</time></trkpt><trkpt lat="44.93223295536001" lon="7.278190400360224"><ele>934.0</ele><time>2026-05-01T10:34:07Z</time></trkpt><trkpt lat="44.93230287940982" lon="7.278159285598746"><ele>932.4999999999999</ele><time>2026-05-01T10:34:08Z</time></trkpt><trkpt lat="44.932372471633784" lon="7.278106638168587"><ele>931.0</ele><time>2026-05-01T10:34:09Z</time></trkpt><trkpt lat="44.93242212879906" lon="7.278039784800361"><ele>935.6666666666666</ele><time>2026-05-01T10:34:10Z</time></trkpt><trkpt lat="44.93247366273105" lon="7.277950865697013"><ele>940.3333333333333</ele><time>2026-05-01T10:34:11Z</time></trkpt><trkpt lat="44.93253633527478" lon="7.277842827312694"><ele>945.0</ele><time>2026-05-01T10:34:12Z</time></trkpt><trkpt lat="44.932598608696814" lon="7.277768183142927"><ele>949.6666666666667</ele><time>2026-05-01T10:34:13Z</time></trkpt><trkpt lat="44.93265727833659" lon="7.277667607304892"><ele>954.3333333333334</ele><time>2026-05-01T10:34:14Z</time></trkpt><trkpt lat="44.93271352548696" lon="7.277587282053335"><ele>959.0</ele><time>2026-05-01T10:34:15Z</time></trkpt><trkpt lat="44.93276217273928" lon="7.277489233377739"><ele>959.0</ele><time>2026-05-01T10:34:16Z</time></trkpt><trkpt lat="44.93288967744643" lon="7.277392253819769"><ele>959.0000000000001</ele><time>2026-05-01T10:34:18Z</time></trkpt><trkpt lat="44.93296671068678" lon="7.277361210542244"><ele>959.0000000000001</ele><time>2026-05-01T10:34:19Z</time></trkpt><trkpt lat="44.933036962929634" lon="7.277359745764819"><ele>959.0</ele><time>2026-05-01T10:34:20Z</time></trkpt><trkpt lat="44.93311747243958" lon="7.277393123429448"><ele>959.0</ele><time>2026-05-01T10:34:21Z</time></trkpt><trkpt lat="44.93319980042586" lon="7.2774317129851465"><ele>959.0</ele><time>2026-05-01T10:34:22Z</time></trkpt><trkpt lat="44.93327023037645" lon="7.277470203541241"><ele>959.0000000000001</ele><time>2026-05-01T10:34:23Z</time></trkpt><trkpt lat="44.93335694262288" lon="7.277468331622435"><ele>959.0000000000001</ele><time>2026-05-01T10:34:24Z</time></trkpt><trkpt lat="44.93345500991544" lon="7.277428597641263"><ele>959.0</ele><time>2026-05-01T10:34:25Z</time></trkpt><trkpt lat="44.933565548381495" lon="7.2773580923299015"><ele>959.0</ele><time>2026-05-01T10:34:26Z</time></trkpt><trkpt lat="44.933671222032046" lon="7.277304084985464"><ele>960.25</ele><time>2026-05-01T10:34:27Z</time></trkpt><trkpt lat="44.933794960830134" lon="7.277271888242346"><ele>961.5</ele><time>2026-05-01T10:34:28Z</time></trkpt><trkpt lat="44.93394840171827" lon="7.277252164204998"><ele>962.75</ele><time>2026-05-01T10:34:29Z</time></trkpt><trkpt lat="44.93407966643132" lon="7.277255150260931"><ele>964.0</ele><time>2026-05-01T10:34:30Z</time></trkpt><trkpt lat="44.93417974592866" lon="7.277240165047102"><ele>965.8000000000001</ele><time>2026-05-01T10:34:31Z</time></trkpt><trkpt lat="44.934270365933365" lon="7.277178748206659"><ele>967.6000000000001</ele><time>2026-05-01T10:34:32Z</time></trkpt><trkpt lat="44.93435579479932" lon="7.277124953499144"><ele>969.4</ele><time>2026-05-01T10:34:33Z</time></trkpt><trkpt lat="44.93444839500686" lon="7.277078309441437"><ele>971.2</ele><time>2026-05-01T10:34:34Z</time></trkpt><trkpt lat="44.93453481091055" lon="7.277060070629629"><ele>973.0</ele><time>2026-05-01T10:34:35Z</time></trkpt><trkpt lat="44.934614019665155" lon="7.27699833345279"><ele>973.0</ele><time>2026-05-01T10:34:36Z</time></trkpt><trkpt lat="44.934691706687" lon="7.27687961288912"><ele>973.0</ele><time>2026-05-01T10:34:37Z</time></trkpt><trkpt lat="44.93477857154605" lon="7.2767896599938"><ele>973.0</ele><time>2026-05-01T10:34:38Z</time></trkpt><trkpt lat="44.934875742688504" lon="7.276770069017736"><ele>973.0</ele><time>2026-05-01T10:34:39Z</time></trkpt><trkpt lat="44.934992496123975" lon="7.276753211906243"><ele>973.0</ele><time>2026-05-01T10:34:40Z</time></trkpt><trkpt lat="44.9351040059977" lon="7.276673852242999"><ele>975.0</ele><time>2026-05-01T10:34:41Z</time></trkpt><trkpt lat="44.93519265558196" lon="7.276584744376887"><ele>977.0</ele><time>2026-05-01T10:34:41.999Z</time></trkpt><trkpt lat="44.93525862236401" lon="7.27651745876167"><ele>979.0</ele><time>2026-05-01T10:34:42.999Z</time></trkpt><trkpt lat="44.93534217582913" lon="7.27650592480306"><ele>981.0</ele><time>2026-05-01T10:34:43.999Z</time></trkpt><trkpt lat="44.93543346986939" lon="7.2765322563685535"><ele>983.0</ele><time>2026-05-01T10:34:44.999Z</time></trkpt><trkpt lat="44.935543235039994" lon="7.276492223346757"><ele>983.0000000000001</ele><time>2026-05-01T10:34:45.999Z</time></trkpt><trkpt lat="44.93562577923366" lon="7.2764572888646395"><ele>983.0</ele><time>2026-05-01T10:34:46.999Z</time></trkpt><trkpt lat="44.935739776362105" lon="7.276543964552189"><ele>983.0</ele><time>2026-05-01T10:34:48.999Z</time></trkpt><trkpt lat="44.935795688880006" lon="7.2765862561937364"><ele>983.0</ele><time>2026-05-01T10:34:49.999Z</time></trkpt><trkpt lat="44.935857301588236" lon="7.276647695538946"><ele>983.0000000000001</ele><time>2026-05-01T10:34:50.999Z</time></trkpt><trkpt lat="44.93592427320079" lon="7.276707786441359"><ele>983.0</ele><time>2026-05-01T10:34:51.999Z</time></trkpt><trkpt lat="44.93602556240868" lon="7.27676803961749"><ele>988.2</ele><time>2026-05-01T10:34:53.999Z</time></trkpt><trkpt lat="44.93608964277182" lon="7.276767042955749"><ele>993.4</ele><time>2026-05-01T10:34:54.999Z</time></trkpt><trkpt lat="44.93616450024562" lon="7.276750900863789"><ele>998.6000000000001</ele><time>2026-05-01T10:34:55.999Z</time></trkpt><trkpt lat="44.93626796738146" lon="7.276850493920933"><ele>1003.8000000000001</ele><time>2026-05-01T10:34:57.999Z</time></trkpt><trkpt lat="44.93634084128147" lon="7.276934176600556"><ele>1009.0</ele><time>2026-05-01T10:34:58.999Z</time></trkpt><trkpt lat="44.936419335666514" lon="7.277009194563176"><ele>1009.0</ele><time>2026-05-01T10:34:59.999Z</time></trkpt><trkpt lat="44.93653745680867" lon="7.277001609564398"><ele>1009.0000000000001</ele><time>2026-05-01T10:35:01.999Z</time></trkpt><trkpt lat="44.93665945354871" lon="7.276978985359347"><ele>1009.0000000000001</ele><time>2026-05-01T10:35:02.999Z</time></trkpt><trkpt lat="44.93673337479799" lon="7.276953874823165"><ele>1009.0</ele><time>2026-05-01T10:35:03.999Z</time></trkpt><trkpt lat="44.93664945605208" lon="7.276926573453591"><ele>1009.0</ele><time>2026-05-01T10:35:07.999Z</time></trkpt><trkpt lat="44.936599774206535" lon="7.276812389790242"><ele>1008.9999999999999</ele><time>2026-05-01T10:36:14Z</time></trkpt><trkpt lat="44.93653201167682" lon="7.276743084988669"><ele>1009.0</ele><time>2026-05-01T10:36:15Z</time></trkpt><trkpt lat="44.936480353323034" lon="7.276672269793825"><ele>1009.0</ele><time>2026-05-01T10:36:16Z</time></trkpt><trkpt lat="44.93641556347508" lon="7.276588514997664"><ele>1009.0</ele><time>2026-05-01T10:36:17Z</time></trkpt><trkpt lat="44.9363589761265" lon="7.2764815534340945"><ele>1008.9999999999999</ele><time>2026-05-01T10:36:18Z</time></trkpt><trkpt lat="44.936323822127726" lon="7.276339502848595"><ele>1009.0</ele><time>2026-05-01T10:36:19Z</time></trkpt><trkpt lat="44.93628647071119" lon="7.276213004759373"><ele>1011.6666666666666</ele><time>2026-05-01T10:36:20Z</time></trkpt><trkpt lat="44.93626130033871" lon="7.2760866828065325"><ele>1014.3333333333333</ele><time>2026-05-01T10:36:21Z</time></trkpt><trkpt lat="44.93622447446344" lon="7.275978703231775"><ele>1017.0</ele><time>2026-05-01T10:36:22Z</time></trkpt><trkpt lat="44.93622855411149" lon="7.275875703670181"><ele>1019.6666666666667</ele><time>2026-05-01T10:36:23Z</time></trkpt><trkpt lat="44.936207129522195" lon="7.275770330096917"><ele>1022.3333333333334</ele><time>2026-05-01T10:36:24Z</time></trkpt><trkpt lat="44.93620032327074" lon="7.2756648268048805"><ele>1025.0</ele><time>2026-05-01T10:36:25Z</time></trkpt><trkpt lat="44.93620063458733" lon="7.275559970226318"><ele>1028.2</ele><time>2026-05-01T10:36:26Z</time></trkpt><trkpt lat="44.93620713556747" lon="7.275454077622807"><ele>1031.4</ele><time>2026-05-01T10:36:27Z</time></trkpt><trkpt lat="44.93620142089373" lon="7.275353553514597"><ele>1034.6</ele><time>2026-05-01T10:36:28Z</time></trkpt><trkpt lat="44.93622217716197" lon="7.275222495879577"><ele>1037.8</ele><time>2026-05-01T10:36:30Z</time></trkpt><trkpt lat="44.936288685546124" lon="7.275261253967672"><ele>1041.0</ele><time>2026-05-01T10:36:32Z</time></trkpt><trkpt lat="44.93636550905312" lon="7.275456319874097"><ele>1041.0</ele><time>2026-05-01T10:36:34Z</time></trkpt><trkpt lat="44.93642709618664" lon="7.275559054689576"><ele>1041.0</ele><time>2026-05-01T10:36:35Z</time></trkpt><trkpt lat="44.93648793567991" lon="7.275627779051962"><ele>1041.0</ele><time>2026-05-01T10:36:37Z</time></trkpt><trkpt lat="44.93647824445521" lon="7.275499255078746"><ele>1041.0</ele><time>2026-05-01T10:36:40Z</time></trkpt><trkpt lat="44.93649194070552" lon="7.275315420013649"><ele>1041.0</ele><time>2026-05-01T10:36:41Z</time></trkpt><trkpt lat="44.93651135366672" lon="7.275132139630601"><ele>1041.0</ele><time>2026-05-01T10:36:42Z</time></trkpt><trkpt lat="44.936476238687035" lon="7.274934389047741"><ele>1041.0</ele><time>2026-05-01T10:36:43Z</time></trkpt><trkpt lat="44.93644301654794" lon="7.274739543894819"><ele>1041.0</ele><time>2026-05-01T10:36:44Z</time></trkpt><trkpt lat="44.93641302263886" lon="7.274592341073965"><ele>1041.0</ele><time>2026-05-01T10:36:45Z</time></trkpt><trkpt lat="44.936376540311514" lon="7.274449760888598"><ele>1046.5</ele><time>2026-05-01T10:36:45.999Z</time></trkpt><trkpt lat="44.93635047563562" lon="7.274344415229353"><ele>1052.0</ele><time>2026-05-01T10:36:46.999Z</time></trkpt><trkpt lat="44.93620499894641" lon="7.274312809499315"><ele>1057.5</ele><time>2026-05-01T10:36:48.999Z</time></trkpt><trkpt lat="44.93605101206205" lon="7.274364665132148"><ele>1063.0</ele><time>2026-05-01T10:36:49.999Z</time></trkpt><trkpt lat="44.93594445007512" lon="7.274388324582123"><ele>1063.0</ele><time>2026-05-01T10:36:50.999Z</time></trkpt><trkpt lat="44.93588775396563" lon="7.274343336045533"><ele>1063.0</ele><time>2026-05-01T10:36:51.999Z</time></trkpt><trkpt lat="44.9358174363008" lon="7.274338989042506"><ele>1063.0</ele><time>2026-05-01T10:36:52.999Z</time></trkpt><trkpt lat="44.93573904403537" lon="7.2743325027898695"><ele>1063.0</ele><time>2026-05-01T10:36:53.999Z</time></trkpt><trkpt lat="44.93563979339074" lon="7.274310131743538"><ele>1063.0</ele><time>2026-05-01T10:36:54.999Z</time></trkpt><trkpt lat="44.93550695356932" lon="7.274295130113573"><ele>1063.0</ele><time>2026-05-01T10:36:55.999Z</time></trkpt><trkpt lat="44.93536221121774" lon="7.274261531501507"><ele>1059.0</ele><time>2026-05-01T10:36:56.999Z</time></trkpt><trkpt lat="44.93518212138189" lon="7.2742014478299595"><ele>1055.0</ele><time>2026-05-01T10:36:57.999Z</time></trkpt><trkpt lat="44.93501833410059" lon="7.274130477496365"><ele>1051.0</ele><time>2026-05-01T10:36:58.999Z</time></trkpt><trkpt lat="44.934863679069736" lon="7.274088639486538"><ele>1050.5</ele><time>2026-05-01T10:36:59.999Z</time></trkpt><trkpt lat="44.93473249034922" lon="7.274030649849332"><ele>1050.0</ele><time>2026-05-01T10:37:00.999Z</time></trkpt><trkpt lat="44.93461142906283" lon="7.274025077644908"><ele>1049.5</ele><time>2026-05-01T10:37:01.999Z</time></trkpt><trkpt lat="44.934505989749475" lon="7.274022227656456"><ele>1049.0</ele><time>2026-05-01T10:37:02.999Z</time></trkpt><trkpt lat="44.9343934743345" lon="7.274029801466306"><ele>1049.0</ele><time>2026-05-01T10:37:03.999Z</time></trkpt><trkpt lat="44.934293715249495" lon="7.274015095335968"><ele>1049.0</ele><time>2026-05-01T10:37:04.999Z</time></trkpt><trkpt lat="44.93419261773409" lon="7.274003614047743"><ele>1049.0</ele><time>2026-05-01T10:37:05.999Z</time></trkpt><trkpt lat="44.93408101536139" lon="7.274009469515317"><ele>1049.0</ele><time>2026-05-01T10:37:06.999Z</time></trkpt><trkpt lat="44.933982938570054" lon="7.274007220159189"><ele>1049.0</ele><time>2026-05-01T10:37:07.999Z</time></trkpt><trkpt lat="44.93390788371761" lon="7.274021767511874"><ele>1050.1666666666667</ele><time>2026-05-01T10:45:36.999Z</time></trkpt><trkpt lat="44.933863177198404" lon="7.274092332961393"><ele>1051.3333333333335</ele><time>2026-05-01T10:45:37.999Z</time></trkpt><trkpt lat="44.933805028206955" lon="7.274160793476913"><ele>1052.5</ele><time>2026-05-01T10:45:38.999Z</time></trkpt><trkpt lat="44.933725641791916" lon="7.27422838145855"><ele>1053.6666666666667</ele><time>2026-05-01T10:45:39.999Z</time></trkpt><trkpt lat="44.93363407778655" lon="7.274285933551644"><ele>1054.8333333333333</ele><time>2026-05-01T10:45:40.999Z</time></trkpt><trkpt lat="44.93355303846391" lon="7.274337241220649"><ele>1056.0</ele><time>2026-05-01T10:45:41.999Z</time></trkpt><trkpt lat="44.93344860752639" lon="7.2743166294611274"><ele>1057.0</ele><time>2026-05-01T10:45:42.999Z</time></trkpt><trkpt lat="44.93336324474171" lon="7.2743600778212745"><ele>1058.0</ele><time>2026-05-01T10:45:43.999Z</time></trkpt><trkpt lat="44.933276962287685" lon="7.2743889375754955"><ele>1059.0</ele><time>2026-05-01T10:45:44.999Z</time></trkpt><trkpt lat="44.93320551549654" lon="7.274403818722272"><ele>1060.0</ele><time>2026-05-01T10:45:45.999Z</time></trkpt><trkpt lat="44.93312526949881" lon="7.274419634983568"><ele>1061.0</ele><time>2026-05-01T10:45:46.999Z</time></trkpt><trkpt lat="44.93303892743469" lon="7.274434545248591"><ele>1062.0</ele><time>2026-05-01T10:45:47.999Z</time></trkpt><trkpt lat="44.932942011828224" lon="7.274453267650958"><ele>1062.0</ele><time>2026-05-01T10:45:48.999Z</time></trkpt><trkpt lat="44.932854363925095" lon="7.274483813429901"><ele>1062.0</ele><time>2026-05-01T10:45:49.999Z</time></trkpt><trkpt lat="44.93274706577116" lon="7.27441058238574"><ele>1062.0</ele><time>2026-05-01T10:45:51.998Z</time></trkpt><trkpt lat="44.93270758111206" lon="7.274324302497195"><ele>1062.0</ele><time>2026-05-01T10:45:52.998Z</time></trkpt><trkpt lat="44.93263946937938" lon="7.274201641462295"><ele>1062.0</ele><time>2026-05-01T10:45:53.998Z</time></trkpt><trkpt lat="44.932566669625004" lon="7.2740670933157965"><ele>1060.8333333333333</ele><time>2026-05-01T10:45:54.998Z</time></trkpt><trkpt lat="44.93250542311142" lon="7.273939994929175"><ele>1059.6666666666667</ele><time>2026-05-01T10:45:55.998Z</time></trkpt><trkpt lat="44.932454722231064" lon="7.273830953051702"><ele>1058.5</ele><time>2026-05-01T10:45:56.998Z</time></trkpt><trkpt lat="44.932397565476855" lon="7.273729585651176"><ele>1057.3333333333335</ele><time>2026-05-01T10:45:57.998Z</time></trkpt><trkpt lat="44.93234999713964" lon="7.273644985421085"><ele>1056.1666666666667</ele><time>2026-05-01T10:45:58.998Z</time></trkpt><trkpt lat="44.93229276786396" lon="7.273596362781522"><ele>1055.0</ele><time>2026-05-01T10:46:00.998Z</time></trkpt><trkpt lat="44.93222601597116" lon="7.273595153487416"><ele>1055.0</ele><time>2026-05-01T10:46:04.998Z</time></trkpt><trkpt lat="44.9322915144559" lon="7.273591134564943"><ele>1055.0</ele><time>2026-05-01T10:46:11.998Z</time></trkpt><trkpt lat="44.93234711882195" lon="7.273634095558896"><ele>1055.0</ele><time>2026-05-01T10:46:14.998Z</time></trkpt><trkpt lat="44.93241011041476" lon="7.273623389433924"><ele>1055.0</ele><time>2026-05-01T10:46:17.998Z</time></trkpt><trkpt lat="44.93247611624007" lon="7.273641509428637"><ele>1055.0</ele><time>2026-05-01T10:46:20.998Z</time></trkpt><trkpt lat="44.93253537516171" lon="7.273690541901032"><ele>1055.0</ele><time>2026-05-01T10:46:24.998Z</time></trkpt><trkpt lat="44.93263187546643" lon="7.273698647748358"><ele>1055.0</ele><time>2026-05-01T10:46:30Z</time></trkpt><trkpt lat="44.932711636701924" lon="7.27368577392106"><ele>1057.6666666666667</ele><time>2026-05-01T10:46:32Z</time></trkpt><trkpt lat="44.93280423306154" lon="7.273685962381071"><ele>1060.3333333333335</ele><time>2026-05-01T10:46:34Z</time></trkpt><trkpt lat="44.93288526373578" lon="7.273681896992682"><ele>1063.0</ele><time>2026-05-01T10:46:37Z</time></trkpt><trkpt lat="44.9329706958822" lon="7.273685399950012"><ele>1065.6666666666667</ele><time>2026-05-01T10:46:40Z</time></trkpt><trkpt lat="44.93305902495606" lon="7.273685429862255"><ele>1068.3333333333333</ele><time>2026-05-01T10:46:43Z</time></trkpt><trkpt lat="44.933108511617945" lon="7.273628813369812"><ele>1071.0</ele><time>2026-05-01T10:46:46Z</time></trkpt><trkpt lat="44.93311920065482" lon="7.273536791050305"><ele>1071.0</ele><time>2026-05-01T10:46:49Z</time></trkpt><trkpt lat="44.93364550522442" lon="7.273432726293851"><ele>1071.0</ele><time>2026-05-01T10:46:50Z</time></trkpt><trkpt lat="44.93368903827456" lon="7.273322437556916"><ele>1071.0</ele><time>2026-05-01T10:46:51Z</time></trkpt><trkpt lat="44.933744218386906" lon="7.2732219833349445"><ele>1071.0</ele><time>2026-05-01T10:46:52Z</time></trkpt><trkpt lat="44.933804007145085" lon="7.273134295652443"><ele>1071.0</ele><time>2026-05-01T10:46:53Z</time></trkpt><trkpt lat="44.933913536455364" lon="7.273083020022759"><ele>1071.0</ele><time>2026-05-01T10:46:55Z</time></trkpt><trkpt lat="44.93398127164549" lon="7.27306521125771"><ele>1071.0</ele><time>2026-05-01T10:46:56Z</time></trkpt><trkpt lat="44.93405648477437" lon="7.27304465211862"><ele>1071.0</ele><time>2026-05-01T10:46:57Z</time></trkpt><trkpt lat="44.9341563920647" lon="7.273001342194438"><ele>1071.0</ele><time>2026-05-01T10:46:58Z</time></trkpt><trkpt lat="44.93424373676578" lon="7.272976091596444"><ele>1071.0</ele><time>2026-05-01T10:46:59Z</time></trkpt><trkpt lat="44.93433069211493" lon="7.272950077606688"><ele>1071.0</ele><time>2026-05-01T10:47:00Z</time></trkpt><trkpt lat="44.93441093297246" lon="7.272941610190896"><ele>1071.0</ele><time>2026-05-01T10:47:01Z</time></trkpt><trkpt lat="44.934486094583825" lon="7.272928241086577"><ele>1072.8333333333333</ele><time>2026-05-01T10:47:02Z</time></trkpt><trkpt lat="44.93455847637798" lon="7.272905742774076"><ele>1074.6666666666667</ele><time>2026-05-01T10:47:03Z</time></trkpt><trkpt lat="44.934682905498676" lon="7.272866314406079"><ele>1076.5</ele><time>2026-05-01T10:47:05Z</time></trkpt><trkpt lat="44.93476306620799" lon="7.272837834367416"><ele>1078.3333333333335</ele><time>2026-05-01T10:47:06Z</time></trkpt><trkpt lat="44.934840969638486" lon="7.272814799738763"><ele>1080.1666666666667</ele><time>2026-05-01T10:47:06.999Z</time></trkpt><trkpt lat="44.934919161134296" lon="7.27280107296694"><ele>1082.0</ele><time>2026-05-01T10:47:07.999Z</time></trkpt><trkpt lat="44.9349911427709" lon="7.272788429708994"><ele>1084.0</ele><time>2026-05-01T10:47:08.999Z</time></trkpt><trkpt lat="44.935212825342916" lon="7.272718724390556"><ele>1086.0</ele><time>2026-05-01T10:47:09.999Z</time></trkpt><trkpt lat="44.93530303806006" lon="7.272690742460477"><ele>1088.0</ele><time>2026-05-01T10:47:11.999Z</time></trkpt><trkpt lat="44.93538562554263" lon="7.2726690306757735"><ele>1090.0</ele><time>2026-05-01T10:47:13.999Z</time></trkpt><trkpt lat="44.93545186511671" lon="7.2726585030561575"><ele>1090.0</ele><time>2026-05-01T10:47:16.999Z</time></trkpt><trkpt lat="44.93553070664298" lon="7.272589191621693"><ele>1090.0</ele><time>2026-05-01T10:47:32.999Z</time></trkpt><trkpt lat="44.93562096460444" lon="7.272524947855857"><ele>1090.0</ele><time>2026-05-01T10:47:34.999Z</time></trkpt><trkpt lat="44.93573906061874" lon="7.272461656546873"><ele>1090.0</ele><time>2026-05-01T10:47:36.999Z</time></trkpt><trkpt lat="44.935794561820025" lon="7.272405372895834"><ele>1090.0</ele><time>2026-05-01T10:47:37.999Z</time></trkpt><trkpt lat="44.93584020132535" lon="7.272330423592988"><ele>1091.6666666666665</ele><time>2026-05-01T10:47:38.999Z</time></trkpt><trkpt lat="44.93587617256647" lon="7.272211035420934"><ele>1093.3333333333333</ele><time>2026-05-01T10:47:39.999Z</time></trkpt><trkpt lat="44.93591493751584" lon="7.272092944481385"><ele>1095.0</ele><time>2026-05-01T10:47:40.999Z</time></trkpt><trkpt lat="44.935937330068874" lon="7.27200508457099"><ele>1096.6666666666667</ele><time>2026-05-01T10:47:41.999Z</time></trkpt><trkpt lat="44.9359797986707" lon="7.2719386414951925"><ele>1098.3333333333335</ele><time>2026-05-01T10:47:42.999Z</time></trkpt><trkpt lat="44.93607402186164" lon="7.271877871151396"><ele>1100.0</ele><time>2026-05-01T10:47:43.999Z</time></trkpt><trkpt lat="44.93614561302793" lon="7.271816838778824"><ele>1102.1666666666667</ele><time>2026-05-01T10:47:44.999Z</time></trkpt><trkpt lat="44.93619639809728" lon="7.271750495425792"><ele>1104.3333333333335</ele><time>2026-05-01T10:47:45.999Z</time></trkpt><trkpt lat="44.93625892823194" lon="7.271659873721608"><ele>1106.5</ele><time>2026-05-01T10:47:47.999Z</time></trkpt><trkpt lat="44.936199774149564" lon="7.271580441643786"><ele>1108.6666666666667</ele><time>2026-05-01T10:47:49.999Z</time></trkpt><trkpt lat="44.93614151237232" lon="7.271497608471558"><ele>1110.8333333333333</ele><time>2026-05-01T10:47:50.999Z</time></trkpt><trkpt lat="44.93605882209263" lon="7.2714228328088835"><ele>1113.0</ele><time>2026-05-01T10:47:51.999Z</time></trkpt><trkpt lat="44.935980835947184" lon="7.271346214285298"><ele>1112.6</ele><time>2026-05-01T10:47:52.999Z</time></trkpt><trkpt lat="44.935903242108076" lon="7.271276328002425"><ele>1112.1999999999998</ele><time>2026-05-01T10:47:53.999Z</time></trkpt><trkpt lat="44.93580723381161" lon="7.271235618408766"><ele>1111.8</ele><time>2026-05-01T10:47:54.999Z</time></trkpt><trkpt lat="44.935708752991914" lon="7.271186612192457"><ele>1111.3999999999999</ele><time>2026-05-01T10:47:55.998Z</time></trkpt><trkpt lat="44.93561492935665" lon="7.271120583829491"><ele>1111.0</ele><time>2026-05-01T10:47:56.998Z</time></trkpt><trkpt lat="44.935548135299435" lon="7.271030728897256"><ele>1111.0</ele><time>2026-05-01T10:47:57.998Z</time></trkpt><trkpt lat="44.93551244757636" lon="7.270918875925168"><ele>1111.0</ele><time>2026-05-01T10:47:58.998Z</time></trkpt><trkpt lat="44.9354674307322" lon="7.270813886456556"><ele>1111.0</ele><time>2026-05-01T10:47:59.998Z</time></trkpt><trkpt lat="44.9354704270125" lon="7.2707027405489"><ele>1111.0</ele><time>2026-05-01T10:48:00.998Z</time></trkpt><trkpt lat="44.93550481493022" lon="7.270602610808375"><ele>1111.0</ele><time>2026-05-01T10:48:01.998Z</time></trkpt><trkpt lat="44.93557650078072" lon="7.270508072098606"><ele>1111.0</ele><time>2026-05-01T10:48:02.998Z</time></trkpt><trkpt lat="44.93567232197586" lon="7.270410077508021"><ele>1111.2</ele><time>2026-05-01T10:48:03.998Z</time></trkpt><trkpt lat="44.93574486771281" lon="7.270345456900823"><ele>1111.3999999999999</ele><time>2026-05-01T10:48:04.998Z</time></trkpt><trkpt lat="44.93585830741146" lon="7.270310734813803"><ele>1111.6</ele><time>2026-05-01T10:48:05.998Z</time></trkpt><trkpt lat="44.93597775754617" lon="7.270292507971696"><ele>1111.8</ele><time>2026-05-01T10:48:06.998Z</time></trkpt><trkpt lat="44.936069760570085" lon="7.270241505772729"><ele>1112.0</ele><time>2026-05-01T10:48:07.998Z</time></trkpt><trkpt lat="44.936147153204494" lon="7.270134345361194"><ele>1115.5</ele><time>2026-05-01T10:48:08.998Z</time></trkpt><trkpt lat="44.9361996241612" lon="7.269978587708373"><ele>1119.0</ele><time>2026-05-01T10:48:09.998Z</time></trkpt><trkpt lat="44.93624586689908" lon="7.269808484171603"><ele>1122.5</ele><time>2026-05-01T10:48:10.998Z</time></trkpt><trkpt lat="44.93632481160323" lon="7.269663711042586"><ele>1126.0</ele><time>2026-05-01T10:48:11.998Z</time></trkpt><trkpt lat="44.936395915631024" lon="7.26952123902262"><ele>1126.0</ele><time>2026-05-01T10:48:12.998Z</time></trkpt><trkpt lat="44.936452593434744" lon="7.269380658140371"><ele>1126.0</ele><time>2026-05-01T10:48:13.998Z</time></trkpt><trkpt lat="44.93648919894879" lon="7.26928983289434"><ele>1126.0</ele><time>2026-05-01T10:48:14.998Z</time></trkpt><trkpt lat="44.93658384938633" lon="7.269266224113159"><ele>1126.0</ele><time>2026-05-01T10:48:16.998Z</time></trkpt><trkpt lat="44.936668744863574" lon="7.269344829131465"><ele>1126.0</ele><time>2026-05-01T10:48:17.998Z</time></trkpt><trkpt lat="44.93674350645906" lon="7.269417698028879"><ele>1130.2</ele><time>2026-05-01T10:48:18.998Z</time></trkpt><trkpt lat="44.93682013530957" lon="7.269484020725588"><ele>1134.3999999999999</ele><time>2026-05-01T10:48:19.998Z</time></trkpt><trkpt lat="44.93690534234217" lon="7.269556236695924"><ele>1138.6</ele><time>2026-05-01T10:48:20.998Z</time></trkpt><trkpt lat="44.93692964227423" lon="7.269711546849501"><ele>1142.8</ele><time>2026-05-01T10:48:21.998Z</time></trkpt><trkpt lat="44.93704004478721" lon="7.269787391362833"><ele>1147.0</ele><time>2026-05-01T10:48:22.998Z</time></trkpt><trkpt lat="44.93717011769625" lon="7.269863370163658"><ele>1147.0</ele><time>2026-05-01T10:48:23.998Z</time></trkpt><trkpt lat="44.93727584378676" lon="7.269885045750519"><ele>1147.0</ele><time>2026-05-01T10:48:24.998Z</time></trkpt><trkpt lat="44.93739829201602" lon="7.26988150505649"><ele>1147.0</ele><time>2026-05-01T10:48:25.998Z</time></trkpt><trkpt lat="44.93754755443947" lon="7.2698229634716585"><ele>1147.0</ele><time>2026-05-01T10:48:26.998Z</time></trkpt><trkpt lat="44.937678861573026" lon="7.269731309465929"><ele>1147.4</ele><time>2026-05-01T10:48:27.998Z</time></trkpt><trkpt lat="44.93776400477512" lon="7.269621992021677"><ele>1147.8000000000002</ele><time>2026-05-01T10:48:28.998Z</time></trkpt><trkpt lat="44.9378717308972" lon="7.2696170784419145"><ele>1148.2</ele><time>2026-05-01T10:48:30.998Z</time></trkpt><trkpt lat="44.93796696336949" lon="7.269698142775705"><ele>1148.6000000000001</ele><time>2026-05-01T10:48:31.998Z</time></trkpt><trkpt lat="44.93803986986219" lon="7.2697657038356756"><ele>1149.0</ele><time>2026-05-01T10:48:32.998Z</time></trkpt><trkpt lat="44.9380822746103" lon="7.269832542834242"><ele>1149.0</ele><time>2026-05-01T10:48:33.998Z</time></trkpt><trkpt lat="44.93811687012597" lon="7.270053570332318"><ele>1149.0</ele><time>2026-05-01T10:48:36Z</time></trkpt><trkpt lat="44.93815974214353" lon="7.270140715404059"><ele>1149.0</ele><time>2026-05-01T10:48:37Z</time></trkpt><trkpt lat="44.93816509371381" lon="7.270307924315261"><ele>1149.0</ele><time>2026-05-01T10:48:39Z</time></trkpt><trkpt lat="44.93817127497967" lon="7.270418869526768"><ele>1149.0</ele><time>2026-05-01T10:48:40Z</time></trkpt><trkpt lat="44.93823695669566" lon="7.270525025643286"><ele>1150.0</ele><time>2026-05-01T10:48:41Z</time></trkpt><trkpt lat="44.93832566610083" lon="7.27066846412082"><ele>1151.0</ele><time>2026-05-01T10:48:42Z</time></trkpt><trkpt lat="44.93841327420777" lon="7.270812273038462"><ele>1152.0</ele><time>2026-05-01T10:48:43Z</time></trkpt><trkpt lat="44.93848080881199" lon="7.270958847840712"><ele>1153.0</ele><time>2026-05-01T10:48:44Z</time></trkpt><trkpt lat="44.938542298942025" lon="7.271016731278256"><ele>1151.4</ele><time>2026-05-01T10:48:45Z</time></trkpt><trkpt lat="44.93864209404306" lon="7.271046335532863"><ele>1149.8</ele><time>2026-05-01T10:48:46Z</time></trkpt><trkpt lat="44.93872339086482" lon="7.2709290553317985"><ele>1148.2</ele><time>2026-05-01T10:48:49Z</time></trkpt><trkpt lat="44.938807672884465" lon="7.270856808885344"><ele>1146.6</ele><time>2026-05-01T10:48:50Z</time></trkpt><trkpt lat="44.938871786894836" lon="7.270833999431747"><ele>1145.0</ele><time>2026-05-01T10:48:51Z</time></trkpt><trkpt lat="44.93897400457714" lon="7.270804909460453"><ele>1145.0</ele><time>2026-05-01T10:48:53Z</time></trkpt><trkpt lat="44.939023802642346" lon="7.270744169716155"><ele>1145.0</ele><time>2026-05-01T10:48:54Z</time></trkpt><trkpt lat="44.9391310938335" lon="7.2706906560482025"><ele>1145.0</ele><time>2026-05-01T10:48:56Z</time></trkpt><trkpt lat="44.93925302710976" lon="7.27069527895629"><ele>1145.0</ele><time>2026-05-01T10:48:58Z</time></trkpt><trkpt lat="44.9393216866971" lon="7.270658421440732"><ele>1145.0</ele><time>2026-05-01T10:49:00Z</time></trkpt><trkpt lat="44.93936137529385" lon="7.270738177044583"><ele>1145.0</ele><time>2026-05-01T10:49:04Z</time></trkpt><trkpt lat="44.93941133039029" lon="7.270828018149032"><ele>1143.6666666666667</ele><time>2026-05-01T10:49:18.999Z</time></trkpt><trkpt lat="44.93946355175435" lon="7.270881501381748"><ele>1142.3333333333335</ele><time>2026-05-01T10:49:19.999Z</time></trkpt><trkpt lat="44.939532925387645" lon="7.270917290051081"><ele>1141.0</ele><time>2026-05-01T10:49:20.999Z</time></trkpt><trkpt lat="44.93959634199072" lon="7.270953038980861"><ele>1139.6666666666667</ele><time>2026-05-01T10:49:21.999Z</time></trkpt><trkpt lat="44.93967714180948" lon="7.27098419850671"><ele>1138.3333333333333</ele><time>2026-05-01T10:49:22.999Z</time></trkpt><trkpt lat="44.93977412820815" lon="7.270994735438378"><ele>1137.0</ele><time>2026-05-01T10:49:23.999Z</time></trkpt><trkpt lat="44.93987873377172" lon="7.271014156510037"><ele>1137.0</ele><time>2026-05-01T10:49:24.999Z</time></trkpt><trkpt lat="44.940005785722114" lon="7.271056502657257"><ele>1137.0</ele><time>2026-05-01T10:49:25.999Z</time></trkpt><trkpt lat="44.94012730160227" lon="7.27106784469045"><ele>1137.0</ele><time>2026-05-01T10:49:26.999Z</time></trkpt><trkpt lat="44.94026373086475" lon="7.2710742936292085"><ele>1137.0</ele><time>2026-05-01T10:49:27.999Z</time></trkpt><trkpt lat="44.940402008183355" lon="7.2710741552715215"><ele>1137.0</ele><time>2026-05-01T10:49:28.999Z</time></trkpt><trkpt lat="44.94055042969144" lon="7.271109081886863"><ele>1137.0</ele><time>2026-05-01T10:49:29.999Z</time></trkpt><trkpt lat="44.940666486430125" lon="7.271141700834641"><ele>1137.0</ele><time>2026-05-01T10:49:30.999Z</time></trkpt><trkpt lat="44.94077641543197" lon="7.27118692757075"><ele>1137.0</ele><time>2026-05-01T10:49:31.999Z</time></trkpt><trkpt lat="44.940875919369844" lon="7.271226738223535"><ele>1139.0</ele><time>2026-05-01T10:49:32.999Z</time></trkpt><trkpt lat="44.94095872418177" lon="7.271259229845753"><ele>1141.0</ele><time>2026-05-01T10:49:33.999Z</time></trkpt><trkpt lat="44.94101131295993" lon="7.27132011452269"><ele>1143.0</ele><time>2026-05-01T10:49:34.999Z</time></trkpt><trkpt lat="44.94103780793731" lon="7.271423262843623"><ele>1145.0</ele><time>2026-05-01T10:49:35.999Z</time></trkpt><trkpt lat="44.94105117694383" lon="7.271531895543427"><ele>1147.0</ele><time>2026-05-01T10:49:36.999Z</time></trkpt><trkpt lat="44.941070038047755" lon="7.27162877047946"><ele>1149.0</ele><time>2026-05-01T10:49:37.999Z</time></trkpt><trkpt lat="44.941120612135606" lon="7.271703702535555"><ele>1149.1666666666667</ele><time>2026-05-01T10:49:38.999Z</time></trkpt><trkpt lat="44.941189530395135" lon="7.271766195661145"><ele>1149.3333333333333</ele><time>2026-05-01T10:49:39.999Z</time></trkpt><trkpt lat="44.94126329612076" lon="7.271819828384137"><ele>1149.5</ele><time>2026-05-01T10:49:40.999Z</time></trkpt><trkpt lat="44.94133620134866" lon="7.271834691899769"><ele>1149.6666666666665</ele><time>2026-05-01T10:49:41.999Z</time></trkpt><trkpt lat="44.941427909617346" lon="7.271823905147337"><ele>1149.8333333333333</ele><time>2026-05-01T10:49:43.999Z</time></trkpt><trkpt lat="44.94149260495706" lon="7.271820072418705"><ele>1150.0</ele><time>2026-05-01T10:49:44.999Z</time></trkpt><trkpt lat="44.94161693027613" lon="7.271754677668178"><ele>1150.0</ele><time>2026-05-01T10:49:46.999Z</time></trkpt><trkpt lat="44.94168010511581" lon="7.271719631661481"><ele>1150.0</ele><time>2026-05-01T10:49:47.999Z</time></trkpt><trkpt lat="44.941739203966875" lon="7.271670021156626"><ele>1150.0</ele><time>2026-05-01T10:49:49.999Z</time></trkpt><trkpt lat="44.94179937404137" lon="7.271617354661792"><ele>1150.0</ele><time>2026-05-01T10:49:51.999Z</time></trkpt><trkpt lat="44.93936137529385" lon="7.270738177044583"><ele>1147.8333333333333</ele><time>2026-05-01T10:49:04Z</time></trkpt><trkpt lat="44.93941133039029" lon="7.270828018149032"><ele>1145.6666666666665</ele><time>2026-05-01T10:49:18.999Z</time></trkpt><trkpt lat="44.93946355175435" lon="7.270881501381748"><ele>1143.5</ele><time>2026-05-01T10:49:19.999Z</time></trkpt><trkpt lat="44.939532925387645" lon="7.270917290051081"><ele>1141.3333333333333</ele><time>2026-05-01T10:49:20.999Z</time></trkpt><trkpt lat="44.93959634199072" lon="7.270953038980861"><ele>1139.1666666666667</ele><time>2026-05-01T10:49:21.999Z</time></trkpt><trkpt lat="44.93967714180948" lon="7.27098419850671"><ele>1137.0</ele><time>2026-05-01T10:49:22.999Z</time></trkpt><trkpt lat="44.93977412820815" lon="7.270994735438378"><ele>1137.0</ele><time>2026-05-01T10:49:23.999Z</time></trkpt><trkpt lat="44.93987873377172" lon="7.271014156510037"><ele>1137.0</ele><time>2026-05-01T10:49:24.999Z</time></trkpt><trkpt lat="44.940005785722114" lon="7.271056502657257"><ele>1137.0</ele><time>2026-05-01T10:49:25.999Z</time></trkpt><trkpt lat="44.94012730160227" lon="7.27106784469045"><ele>1137.0</ele><time>2026-05-01T10:49:26.999Z</time></trkpt><trkpt lat="44.94026373086475" lon="7.2710742936292085"><ele>1137.0</ele><time>2026-05-01T10:49:27.999Z</time></trkpt><trkpt lat="44.940402008183355" lon="7.2710741552715215"><ele>1137.0</ele><time>2026-05-01T10:49:28.999Z</time></trkpt><trkpt lat="44.94055042969144" lon="7.271109081886863"><ele>1137.0</ele><time>2026-05-01T10:49:29.999Z</time></trkpt><trkpt lat="44.940666486430125" lon="7.271141700834641"><ele>1137.0</ele><time>2026-05-01T10:49:30.999Z</time></trkpt><trkpt lat="44.94077641543197" lon="7.27118692757075"><ele>1137.0</ele><time>2026-05-01T10:49:31.999Z</time></trkpt><trkpt lat="44.940875919369844" lon="7.271226738223535"><ele>1137.0</ele><time>2026-05-01T10:49:32.999Z</time></trkpt><trkpt lat="44.94095872418177" lon="7.271259229845753"><ele>1137.0</ele><time>2026-05-01T10:49:33.999Z</time></trkpt><trkpt lat="44.94101131295993" lon="7.27132011452269"><ele>1137.0</ele><time>2026-05-01T10:49:34.999Z</time></trkpt><trkpt lat="44.94103780793731" lon="7.271423262843623"><ele>1137.0</ele><time>2026-05-01T10:49:35.999Z</time></trkpt><trkpt lat="44.94105117694383" lon="7.271531895543427"><ele>1137.0</ele><time>2026-05-01T10:49:36.999Z</time></trkpt><trkpt lat="44.941070038047755" lon="7.27162877047946"><ele>1139.1666666666667</ele><time>2026-05-01T10:49:37.999Z</time></trkpt><trkpt lat="44.941120612135606" lon="7.271703702535555"><ele>1141.3333333333333</ele><time>2026-05-01T10:49:38.999Z</time></trkpt><trkpt lat="44.941189530395135" lon="7.271766195661145"><ele>1143.5</ele><time>2026-05-01T10:49:39.999Z</time></trkpt><trkpt lat="44.94126329612076" lon="7.271819828384137"><ele>1145.6666666666665</ele><time>2026-05-01T10:49:40.999Z</time></trkpt><trkpt lat="44.94133620134866" lon="7.271834691899769"><ele>1147.8333333333333</ele><time>2026-05-01T10:49:41.999Z</time></trkpt><trkpt lat="44.941427909617346" lon="7.271823905147337"><ele>1150.0</ele><time>2026-05-01T10:49:43.999Z</time></trkpt><trkpt lat="44.94149260495706" lon="7.271820072418705"><ele>1150.0</ele><time>2026-05-01T10:49:44.999Z</time></trkpt><trkpt lat="44.94161693027613" lon="7.271754677668178"><ele>1150.0</ele><time>2026-05-01T10:49:46.999Z</time></trkpt><trkpt lat="44.94168010511581" lon="7.271719631661481"><ele>1150.0</ele><time>2026-05-01T10:49:47.999Z</time></trkpt><trkpt lat="44.941739203966875" lon="7.271670021156626"><ele>1150.0</ele><time>2026-05-01T10:49:49.999Z</time></trkpt><trkpt lat="44.94179937404137" lon="7.271617354661792"><ele>1150.0</ele><time>2026-05-01T10:49:51.999Z</time></trkpt><trkpt lat="44.94186314250316" lon="7.271554207995647"><ele>1150.0</ele><time>2026-05-01T10:49:52.999Z</time></trkpt><trkpt lat="44.94198407989282" lon="7.271519133448944"><ele>1152.1666666666665</ele><time>2026-05-01T10:49:54.999Z</time></trkpt><trkpt lat="44.942062668242194" lon="7.271518462069819"><ele>1154.3333333333333</ele><time>2026-05-01T10:49:55.999Z</time></trkpt><trkpt lat="44.94215371906261" lon="7.271546592615936"><ele>1156.5</ele><time>2026-05-01T10:49:56.999Z</time></trkpt><trkpt lat="44.942228537712936" lon="7.271550928784515"><ele>1158.6666666666667</ele><time>2026-05-01T10:49:57.999Z</time></trkpt><trkpt lat="44.94231392035636" lon="7.271527885042601"><ele>1160.8333333333335</ele><time>2026-05-01T10:49:58.999Z</time></trkpt><trkpt lat="44.94239149925597" lon="7.271505095759278"><ele>1163.0</ele><time>2026-05-01T10:49:59.999Z</time></trkpt><trkpt lat="44.94242462329999" lon="7.271425909428304"><ele>1163.5714285714287</ele><time>2026-05-01T10:50:06.998Z</time></trkpt><trkpt lat="44.94244772695288" lon="7.271319733967167"><ele>1164.142857142857</ele><time>2026-05-01T10:50:11.998Z</time></trkpt><trkpt lat="44.94250288917654" lon="7.271246729569888"><ele>1164.7142857142858</ele><time>2026-05-01T10:50:13.998Z</time></trkpt><trkpt lat="44.94255939568856" lon="7.2711667586505975"><ele>1165.2857142857142</ele><time>2026-05-01T10:50:14.998Z</time></trkpt><trkpt lat="44.94260258676419" lon="7.271093973058341"><ele>1165.857142857143</ele><time>2026-05-01T10:50:15.998Z</time></trkpt><trkpt lat="44.94265430210529" lon="7.271027993187017"><ele>1166.4285714285716</ele><time>2026-05-01T10:50:17.998Z</time></trkpt><trkpt lat="44.94270975984549" lon="7.270979328748574"><ele>1167.0</ele><time>2026-05-01T10:50:19.998Z</time></trkpt><trkpt lat="44.94280243219552" lon="7.270901783965679"><ele>1169.5</ele><time>2026-05-01T10:50:21.998Z</time></trkpt><trkpt lat="44.94287679892578" lon="7.270853263688283"><ele>1172.0</ele><time>2026-05-01T10:50:22.998Z</time></trkpt><trkpt lat="44.942968269715735" lon="7.270782696942184"><ele>1174.5</ele><time>2026-05-01T10:50:23.998Z</time></trkpt><trkpt lat="44.94303414850893" lon="7.270702423932932"><ele>1177.0</ele><time>2026-05-01T10:50:24.998Z</time></trkpt><trkpt lat="44.94309007045866" lon="7.270655944538546"><ele>1179.5</ele><time>2026-05-01T10:50:25.998Z</time></trkpt><trkpt lat="44.943159041317664" lon="7.270623880393128"><ele>1182.0</ele><time>2026-05-01T10:50:26.998Z</time></trkpt><trkpt lat="44.943231343808385" lon="7.270602780698037"><ele>1182.0</ele><time>2026-05-01T10:50:27.998Z</time></trkpt><trkpt lat="44.94332199867564" lon="7.270553518617074"><ele>1182.0</ele><time>2026-05-01T10:50:29.998Z</time></trkpt><trkpt lat="44.94340791066969" lon="7.2705086947449145"><ele>1182.0</ele><time>2026-05-01T10:50:31.998Z</time></trkpt><trkpt lat="44.9434617258366" lon="7.270460674856497"><ele>1182.0</ele><time>2026-05-01T10:50:33.998Z</time></trkpt><trkpt lat="44.94353531279788" lon="7.270392675748216"><ele>1182.0</ele><time>2026-05-01T10:50:36.998Z</time></trkpt><trkpt lat="44.943591765574155" lon="7.270304420376397"><ele>1182.0</ele><time>2026-05-01T10:50:39.998Z</time></trkpt><trkpt lat="44.94364979485877" lon="7.2702330555128984"><ele>1188.2</ele><time>2026-05-01T10:50:43Z</time></trkpt><trkpt lat="44.94367573842559" lon="7.270106206582436"><ele>1194.4</ele><time>2026-05-01T10:50:45Z</time></trkpt><trkpt lat="44.94370489954651" lon="7.2699960652934825"><ele>1200.6</ele><time>2026-05-01T10:50:46Z</time></trkpt><trkpt lat="44.943703691018534" lon="7.269868235725323"><ele>1206.8</ele><time>2026-05-01T10:50:47Z</time></trkpt><trkpt lat="44.94371123945605" lon="7.269767470049473"><ele>1213.0</ele><time>2026-05-01T10:50:48Z</time></trkpt><trkpt lat="44.9437367069428" lon="7.2695957690052495"><ele>1213.0</ele><time>2026-05-01T10:50:50Z</time></trkpt><trkpt lat="44.94375324520162" lon="7.2694688793474525"><ele>1213.0</ele><time>2026-05-01T10:50:51Z</time></trkpt><trkpt lat="44.943763460083424" lon="7.269380295306615"><ele>1213.0</ele><time>2026-05-01T10:50:52Z</time></trkpt><trkpt lat="44.943817382545696" lon="7.269286207501817"><ele>1213.0</ele><time>2026-05-01T10:50:54Z</time></trkpt><trkpt lat="44.94389064103655" lon="7.269202789714054"><ele>1213.0</ele><time>2026-05-01T10:50:56Z</time></trkpt><trkpt lat="44.943949594800046" lon="7.269092263534421"><ele>1213.0</ele><time>2026-05-01T10:50:58Z</time></trkpt><trkpt lat="44.9439814393331" lon="7.268985081122824"><ele>1212.3333333333333</ele><time>2026-05-01T10:51:00Z</time></trkpt><trkpt lat="44.94403973746556" lon="7.268896967236871"><ele>1211.6666666666665</ele><time>2026-05-01T10:51:02Z</time></trkpt><trkpt lat="44.94408076460394" lon="7.268780548510948"><ele>1211.0</ele><time>2026-05-01T10:51:04Z</time></trkpt><trkpt lat="44.944118939765296" lon="7.268663285046603"><ele>1210.3333333333333</ele><time>2026-05-01T10:51:06Z</time></trkpt><trkpt lat="44.94418424257878" lon="7.26858609885155"><ele>1209.6666666666667</ele><time>2026-05-01T10:51:09Z</time></trkpt><trkpt lat="44.94422443040462" lon="7.268509954365136"><ele>1209.0</ele><time>2026-05-01T10:51:11Z</time></trkpt><trkpt lat="44.94425963691642" lon="7.268426399777193"><ele>1211.3333333333333</ele><time>2026-05-01T10:51:13Z</time></trkpt><trkpt lat="44.94430872957915" lon="7.268316308015188"><ele>1213.6666666666667</ele><time>2026-05-01T10:51:15.999Z</time></trkpt><trkpt lat="44.9443660683561" lon="7.268272348986518"><ele>1216.0</ele><time>2026-05-01T10:51:22.999Z</time></trkpt><trkpt lat="44.94442001028433" lon="7.268212096865886"><ele>1218.3333333333335</ele><time>2026-05-01T10:53:36.999Z</time></trkpt><trkpt lat="44.94450028088407" lon="7.26820876865807"><ele>1220.6666666666667</ele><time>2026-05-01T10:53:38.999Z</time></trkpt><trkpt lat="44.9445846334432" lon="7.268242492120204"><ele>1223.0</ele><time>2026-05-01T10:53:40.999Z</time></trkpt><trkpt lat="44.944662868621066" lon="7.268326628253663"><ele>1223.0</ele><time>2026-05-01T10:53:42.999Z</time></trkpt><trkpt lat="44.944709554224715" lon="7.26840499060605"><ele>1223.0</ele><time>2026-05-01T10:53:44.999Z</time></trkpt><trkpt lat="44.94478232061864" lon="7.268529645058589"><ele>1223.0</ele><time>2026-05-01T10:53:46.999Z</time></trkpt><trkpt lat="44.944848703215996" lon="7.26856946068671"><ele>1223.0</ele><time>2026-05-01T10:53:48.999Z</time></trkpt><trkpt lat="44.94491555528735" lon="7.268624774168173"><ele>1223.0</ele><time>2026-05-01T10:53:50.999Z</time></trkpt><trkpt lat="44.94494011500692" lon="7.268735532076937"><ele>1223.0</ele><time>2026-05-01T10:53:52.999Z</time></trkpt><trkpt lat="44.944989086935756" lon="7.268796259600144"><ele>1222.0</ele><time>2026-05-01T10:53:54.999Z</time></trkpt><trkpt lat="44.94506020450081" lon="7.268836143577039"><ele>1221.0</ele><time>2026-05-01T10:53:56.999Z</time></trkpt><trkpt lat="44.945119991445665" lon="7.268892212792239"><ele>1220.0</ele><time>2026-05-01T10:53:58.999Z</time></trkpt><trkpt lat="44.94508585526887" lon="7.268981932885764"><ele>1219.0</ele><time>2026-05-01T10:54:01.999Z</time></trkpt><trkpt lat="44.94510478769321" lon="7.269087196835201"><ele>1218.0</ele><time>2026-05-01T10:54:04.999Z</time></trkpt><trkpt lat="44.945186045517644" lon="7.269179390096935"><ele>1217.0</ele><time>2026-05-01T10:54:45.998Z</time></trkpt><trkpt lat="44.94533458900014" lon="7.269257333804427"><ele>1217.0</ele><time>2026-05-01T10:54:47.998Z</time></trkpt><trkpt lat="44.945413469098206" lon="7.269317678888759"><ele>1217.0</ele><time>2026-05-01T10:54:48.998Z</time></trkpt><trkpt lat="44.94548884136478" lon="7.269405247005398"><ele>1217.0</ele><time>2026-05-01T10:54:50.998Z</time></trkpt><trkpt lat="44.94557964690314" lon="7.269522202543207"><ele>1217.0</ele><time>2026-05-01T10:54:53Z</time></trkpt><trkpt lat="44.945639920235585" lon="7.269568161680028"><ele>1217.0</ele><time>2026-05-01T10:54:54Z</time></trkpt><trkpt lat="44.94575907249789" lon="7.269635660697927"><ele>1211.1666666666667</ele><time>2026-05-01T10:54:56Z</time></trkpt><trkpt lat="44.94588427602675" lon="7.269672076255112"><ele>1205.3333333333335</ele><time>2026-05-01T10:54:58Z</time></trkpt><trkpt lat="44.945978849662154" lon="7.269653531075239"><ele>1199.5</ele><time>2026-05-01T10:55:00Z</time></trkpt><trkpt lat="44.946031010257535" lon="7.269595829381886"><ele>1193.6666666666667</ele><time>2026-05-01T10:55:01Z</time></trkpt><trkpt lat="44.94610338513316" lon="7.26957238219356"><ele>1187.8333333333333</ele><time>2026-05-01T10:55:02Z</time></trkpt><trkpt lat="44.946187794343494" lon="7.26957457420295"><ele>1182.0</ele><time>2026-05-01T10:55:03Z</time></trkpt><trkpt lat="44.94631524801878" lon="7.269558811693958"><ele>1182.0</ele><time>2026-05-01T10:55:05Z</time></trkpt><trkpt lat="44.946414543044305" lon="7.26962148783668"><ele>1182.0</ele><time>2026-05-01T10:55:07Z</time></trkpt><trkpt lat="44.946469845191665" lon="7.269749921203085"><ele>1182.0</ele><time>2026-05-01T10:55:09Z</time></trkpt><trkpt lat="44.94652230772276" lon="7.26982876354075"><ele>1182.0</ele><time>2026-05-01T10:55:10Z</time></trkpt><trkpt lat="44.946576201452096" lon="7.269917766640438"><ele>1182.0</ele><time>2026-05-01T10:55:11Z</time></trkpt><trkpt lat="44.94660494994184" lon="7.270004959950638"><ele>1182.0</ele><time>2026-05-01T10:55:12Z</time></trkpt><trkpt lat="44.94665146981337" lon="7.270083264155689"><ele>1180.6666666666667</ele><time>2026-05-01T10:55:13Z</time></trkpt><trkpt lat="44.946703905245194" lon="7.270143495570153"><ele>1179.3333333333333</ele><time>2026-05-01T10:55:13.999Z</time></trkpt><trkpt lat="44.94675876059032" lon="7.270201087706601"><ele>1178.0</ele><time>2026-05-01T10:55:14.999Z</time></trkpt><trkpt lat="44.94684030030133" lon="7.270261899684432"><ele>1176.6666666666665</ele><time>2026-05-01T10:55:16.999Z</time></trkpt><trkpt lat="44.94690112565252" lon="7.270307269976885"><ele>1175.3333333333333</ele><time>2026-05-01T10:55:17.999Z</time></trkpt><trkpt lat="44.94696786381127" lon="7.27043132656423"><ele>1174.0</ele><time>2026-05-01T10:55:19.999Z</time></trkpt><trkpt lat="44.94695551830237" lon="7.2705350386676155"><ele>1170.0</ele><time>2026-05-01T10:55:20.999Z</time></trkpt><trkpt lat="44.946997247988826" lon="7.270671335410404"><ele>1166.0</ele><time>2026-05-01T10:55:22.999Z</time></trkpt><trkpt lat="44.94706146360306" lon="7.2707166916896435"><ele>1162.0</ele><time>2026-05-01T10:55:23.999Z</time></trkpt><trkpt lat="44.947163841842396" lon="7.270738212887361"><ele>1158.0</ele><time>2026-05-01T10:55:25.999Z</time></trkpt><trkpt lat="44.947229792604055" lon="7.270730662922886"><ele>1154.0</ele><time>2026-05-01T10:55:27.999Z</time></trkpt><trkpt lat="44.9472682463895" lon="7.270802684893174"><ele>1150.0</ele><time>2026-05-01T10:55:30.999Z</time></trkpt><trkpt lat="44.94733514068578" lon="7.270877167499832"><ele>1150.0</ele><time>2026-05-01T10:55:33.999Z</time></trkpt><trkpt lat="44.947397966034586" lon="7.271034558855688"><ele>1150.0</ele><time>2026-05-01T10:55:36.999Z</time></trkpt><trkpt lat="44.94744105914017" lon="7.271126630754263"><ele>1150.0</ele><time>2026-05-01T10:55:37.999Z</time></trkpt><trkpt lat="44.94751805343005" lon="7.271159192262065"><ele>1150.0</ele><time>2026-05-01T10:55:39.999Z</time></trkpt><trkpt lat="44.947609502038006" lon="7.271174691519757"><ele>1150.0</ele><time>2026-05-01T10:55:42.999Z</time></trkpt><trkpt lat="44.94783009422488" lon="7.271322429207185"><ele>1148.6666666666665</ele><time>2026-05-01T10:55:44.999Z</time></trkpt><trkpt lat="44.947885809850504" lon="7.271375380461954"><ele>1147.3333333333333</ele><time>2026-05-01T10:55:45.998Z</time></trkpt><trkpt lat="44.94796184915109" lon="7.271478517572828"><ele>1146.0</ele><time>2026-05-01T10:55:47.998Z</time></trkpt><trkpt lat="44.94800557246646" lon="7.271551807362046"><ele>1144.6666666666667</ele><time>2026-05-01T10:55:49.998Z</time></trkpt><trkpt lat="44.94801139774968" lon="7.271449995012308"><ele>1143.3333333333335</ele><time>2026-05-01T10:55:53.998Z</time></trkpt><trkpt lat="44.94796267057242" lon="7.271525414674274"><ele>1142.0</ele><time>2026-05-01T10:55:57.998Z</time></trkpt><trkpt lat="44.947948450285764" lon="7.271645013970546"><ele>1142.0</ele><time>2026-05-01T10:56:01.998Z</time></trkpt><trkpt lat="44.947934866593066" lon="7.271743143807547"><ele>1142.0</ele><time>2026-05-01T10:56:07.998Z</time></trkpt><trkpt lat="44.94794370073729" lon="7.271646711329703"><ele>1142.0</ele><time>2026-05-01T10:56:17.998Z</time></trkpt><trkpt lat="44.947876936033126" lon="7.271608084316402"><ele>1142.0</ele><time>2026-05-01T10:56:20.998Z</time></trkpt><trkpt lat="44.94779960426756" lon="7.27162309749236"><ele>1142.0</ele><time>2026-05-01T10:56:23.998Z</time></trkpt><trkpt lat="44.947754330970994" lon="7.271702950267858"><ele>1142.0</ele><time>2026-05-01T10:56:27.998Z</time></trkpt><trkpt lat="44.94780959370147" lon="7.2717565796155075"><ele>1142.0</ele><time>2026-05-01T10:56:32.997Z</time></trkpt><trkpt lat="44.94786025528214" lon="7.2716589917513055"><ele>1142.0</ele><time>2026-05-01T10:56:35.997Z</time></trkpt><trkpt lat="44.94787564078758" lon="7.27155999276325"><ele>1142.0</ele><time>2026-05-01T10:56:38.997Z</time></trkpt><trkpt lat="44.94798020546912" lon="7.271528129286755"><ele>1142.0</ele><time>2026-05-01T10:56:40.997Z</time></trkpt><trkpt lat="44.948035617790296" lon="7.27148476284682"><ele>1142.0</ele><time>2026-05-01T10:56:41.997Z</time></trkpt><trkpt lat="44.948095502833105" lon="7.2714115436504905"><ele>1142.0</ele><time>2026-05-01T10:56:42.997Z</time></trkpt><trkpt lat="44.94816404144569" lon="7.271338209831896"><ele>1142.0</ele><time>2026-05-01T10:56:43.997Z</time></trkpt><trkpt lat="44.948242632396095" lon="7.2712925909389465"><ele>1141.3333333333335</ele><time>2026-05-01T10:56:44.997Z</time></trkpt><trkpt lat="44.94832506758506" lon="7.271281038683457"><ele>1140.6666666666667</ele><time>2026-05-01T10:56:45.997Z</time></trkpt><trkpt lat="44.94839980457067" lon="7.2713063819749975"><ele>1140.0</ele><time>2026-05-01T10:56:46.997Z</time></trkpt><trkpt lat="44.94846348620534" lon="7.271368858362121"><ele>1139.3333333333333</ele><time>2026-05-01T10:56:47.997Z</time></trkpt><trkpt lat="44.948518104293036" lon="7.271425639747862"><ele>1138.6666666666665</ele><time>2026-05-01T10:56:48.997Z</time></trkpt><trkpt lat="44.94858682573566" lon="7.271498927118052"><ele>1138.0</ele><time>2026-05-01T10:56:49.997Z</time></trkpt><trkpt lat="44.94865595966968" lon="7.271597039139326"><ele>1137.0</ele><time>2026-05-01T10:56:50.997Z</time></trkpt><trkpt lat="44.94872666259331" lon="7.27171983011007"><ele>1136.0</ele><time>2026-05-01T10:56:51.997Z</time></trkpt><trkpt lat="44.948785477072036" lon="7.271831620749734"><ele>1135.0</ele><time>2026-05-01T10:56:52.997Z</time></trkpt><trkpt lat="44.94884923394348" lon="7.2719620355565"><ele>1134.0</ele><time>2026-05-01T10:56:53.997Z</time></trkpt><trkpt lat="44.94891286971896" lon="7.272095740090307"><ele>1133.0</ele><time>2026-05-01T10:56:54.997Z</time></trkpt><trkpt lat="44.94896983734012" lon="7.272228125957861"><ele>1133.2</ele><time>2026-05-01T10:56:55.997Z</time></trkpt><trkpt lat="44.949028888263314" lon="7.272337677393997"><ele>1133.4</ele><time>2026-05-01T10:56:56.997Z</time></trkpt><trkpt lat="44.9490973777755" lon="7.272431818996807"><ele>1133.6000000000001</ele><time>2026-05-01T10:56:57.999Z</time></trkpt><trkpt lat="44.94917971343807" lon="7.272508139029382"><ele>1133.8</ele><time>2026-05-01T10:56:58.999Z</time></trkpt><trkpt lat="44.94927747880722" lon="7.272577868654009"><ele>1134.0</ele><time>2026-05-01T10:56:59.999Z</time></trkpt><trkpt lat="44.94938392735809" lon="7.272625922081314"><ele>1132.75</ele><time>2026-05-01T10:57:00.999Z</time></trkpt><trkpt lat="44.949494578671526" lon="7.2726668824220715"><ele>1131.5</ele><time>2026-05-01T10:57:01.999Z</time></trkpt><trkpt lat="44.949619890580394" lon="7.2726655475013535"><ele>1130.25</ele><time>2026-05-01T10:57:02.999Z</time></trkpt><trkpt lat="44.949762529064664" lon="7.272646518743648"><ele>1129.0</ele><time>2026-05-01T10:57:03.999Z</time></trkpt><trkpt lat="44.94991885526891" lon="7.272610435783437"><ele>1126.3333333333333</ele><time>2026-05-01T10:57:04.999Z</time></trkpt><trkpt lat="44.95007476627289" lon="7.272568158383772"><ele>1123.6666666666667</ele><time>2026-05-01T10:57:05.999Z</time></trkpt><trkpt lat="44.95022933562473" lon="7.272544266794164"><ele>1121.0</ele><time>2026-05-01T10:57:06.999Z</time></trkpt><trkpt lat="44.95036659909932" lon="7.2725443266506264"><ele>1121.0</ele><time>2026-05-01T10:57:07.999Z</time></trkpt><trkpt lat="44.95049712890483" lon="7.2725596238689185"><ele>1121.0</ele><time>2026-05-01T10:57:08.999Z</time></trkpt><trkpt lat="44.95063568453253" lon="7.272580753519628"><ele>1121.0</ele><time>2026-05-01T10:57:10Z</time></trkpt><trkpt lat="44.950747610855935" lon="7.2726320279534"><ele>1121.0</ele><time>2026-05-01T10:57:11Z</time></trkpt><trkpt lat="44.95086124607262" lon="7.272732565817456"><ele>1122.25</ele><time>2026-05-01T10:57:12Z</time></trkpt><trkpt lat="44.951003359108725" lon="7.272880133318872"><ele>1123.5</ele><time>2026-05-01T10:57:13Z</time></trkpt><trkpt lat="44.95112797397975" lon="7.273014715713212"><ele>1124.75</ele><time>2026-05-01T10:57:14Z</time></trkpt><trkpt lat="44.9512108058568" lon="7.273101228841958"><ele>1126.0</ele><time>2026-05-01T10:57:15Z</time></trkpt><trkpt lat="44.951255568460155" lon="7.27317407186797"><ele>1126.6666666666665</ele><time>2026-05-01T10:57:16Z</time></trkpt><trkpt lat="44.95130762768375" lon="7.273249170031365"><ele>1127.3333333333333</ele><time>2026-05-01T10:57:19Z</time></trkpt><trkpt lat="44.95124275540327" lon="7.273309104168786"><ele>1128.0</ele><time>2026-05-01T10:58:51.998Z</time></trkpt><trkpt lat="44.95129183206038" lon="7.273400926429915"><ele>1128.6666666666667</ele><time>2026-05-01T10:59:08Z</time></trkpt><trkpt lat="44.95136344370599" lon="7.273536755779045"><ele>1129.3333333333335</ele><time>2026-05-01T10:59:10Z</time></trkpt><trkpt lat="44.95139853527423" lon="7.273619133975365"><ele>1130.0</ele><time>2026-05-01T10:59:11Z</time></trkpt><trkpt lat="44.95147444894087" lon="7.27375095714773"><ele>1130.0</ele><time>2026-05-01T10:59:13Z</time></trkpt><trkpt lat="44.95156829952995" lon="7.273905969586223"><ele>1130.0</ele><time>2026-05-01T10:59:15Z</time></trkpt><trkpt lat="44.95163829821585" lon="7.273999212727992"><ele>1130.0</ele><time>2026-05-01T10:59:16Z</time></trkpt><trkpt lat="44.951711892461304" lon="7.2740616701364065"><ele>1130.0</ele><time>2026-05-01T10:59:17Z</time></trkpt><trkpt lat="44.95179031848401" lon="7.27409310106591"><ele>1130.0</ele><time>2026-05-01T10:59:18Z</time></trkpt><trkpt lat="44.95187804983413" lon="7.274115202515215"><ele>1131.5</ele><time>2026-05-01T10:59:19Z</time></trkpt><trkpt lat="44.95197294479578" lon="7.27415518178494"><ele>1133.0</ele><time>2026-05-01T10:59:20Z</time></trkpt><trkpt lat="44.95205303242673" lon="7.274203122209671"><ele>1134.5</ele><time>2026-05-01T10:59:21Z</time></trkpt><trkpt lat="44.95211456098475" lon="7.2742566357754095"><ele>1136.0</ele><time>2026-05-01T10:59:22Z</time></trkpt><trkpt lat="44.95217880679648" lon="7.274299218409891"><ele>1137.5</ele><time>2026-05-01T10:59:23Z</time></trkpt><trkpt lat="44.952248000702944" lon="7.274327881193321"><ele>1139.0</ele><time>2026-05-01T10:59:24Z</time></trkpt><trkpt lat="44.952319741544784" lon="7.2743463573127976"><ele>1139.0</ele><time>2026-05-01T10:59:25Z</time></trkpt><trkpt lat="44.95243442338348" lon="7.274392609635116"><ele>1139.0</ele><time>2026-05-01T10:59:27Z</time></trkpt><trkpt lat="44.9525014273275" lon="7.274390203822095"><ele>1139.0</ele><time>2026-05-01T10:59:28Z</time></trkpt><trkpt lat="44.95258569537948" lon="7.274397228536336"><ele>1139.0</ele><time>2026-05-01T10:59:29Z</time></trkpt><trkpt lat="44.952641555309704" lon="7.274440084637718"><ele>1139.0</ele><time>2026-05-01T10:59:29.999Z</time></trkpt><trkpt lat="44.9526928636593" lon="7.274560439178682"><ele>1139.0</ele><time>2026-05-01T10:59:31.999Z</time></trkpt><trkpt lat="44.952724665552594" lon="7.274729184298357"><ele>1142.0</ele><time>2026-05-01T10:59:33.999Z</time></trkpt><trkpt lat="44.952785656111594" lon="7.27484488794879"><ele>1145.0</ele><time>2026-05-01T10:59:35.999Z</time></trkpt><trkpt lat="44.95283107855581" lon="7.274907309689093"><ele>1148.0</ele><time>2026-05-01T10:59:38.999Z</time></trkpt><trkpt lat="44.9528669803827" lon="7.274984432956671"><ele>1151.0</ele><time>2026-05-01T10:59:40.999Z</time></trkpt><trkpt lat="44.95292257831941" lon="7.275066679386275"><ele>1154.0</ele><time>2026-05-01T10:59:43.999Z</time></trkpt><trkpt lat="44.953064844871044" lon="7.275291627246306"><ele>1154.0</ele><time>2026-05-01T10:59:45.999Z</time></trkpt><trkpt lat="44.95316720704278" lon="7.27536978015873"><ele>1154.0</ele><time>2026-05-01T10:59:47.999Z</time></trkpt><trkpt lat="44.953247401451215" lon="7.275416190927083"><ele>1154.0</ele><time>2026-05-01T10:59:49.999Z</time></trkpt><trkpt lat="44.95332530140529" lon="7.275419245133598"><ele>1154.0</ele><time>2026-05-01T10:59:52.999Z</time></trkpt><trkpt lat="44.95339689760038" lon="7.275416708365829"><ele>1154.0</ele><time>2026-05-01T10:59:55.999Z</time></trkpt><trkpt lat="44.953444913834616" lon="7.27551622861453"><ele>1154.0</ele><time>2026-05-01T10:59:58.999Z</time></trkpt><trkpt lat="44.95347824552432" lon="7.275645023244613"><ele>1160.1666666666667</ele><time>2026-05-01T11:00:00.999Z</time></trkpt><trkpt lat="44.953513977598355" lon="7.275766470573405"><ele>1166.3333333333335</ele><time>2026-05-01T11:00:02.999Z</time></trkpt><trkpt lat="44.95348282309879" lon="7.2758581521371815"><ele>1172.5</ele><time>2026-05-01T11:00:05.999Z</time></trkpt><trkpt lat="44.953511318481226" lon="7.275938473461616"><ele>1178.6666666666667</ele><time>2026-05-01T11:00:07.999Z</time></trkpt><trkpt lat="44.95352745855011" lon="7.276036734378566"><ele>1184.8333333333333</ele><time>2026-05-01T11:00:11.999Z</time></trkpt><trkpt lat="44.9535511436928" lon="7.276136383102718"><ele>1191.0</ele><time>2026-05-01T11:00:13.999Z</time></trkpt><trkpt lat="44.953551558824664" lon="7.276249279784669"><ele>1191.0</ele><time>2026-05-01T11:00:15.999Z</time></trkpt><trkpt lat="44.95357239936434" lon="7.276394284728257"><ele>1191.0</ele><time>2026-05-01T11:00:17.999Z</time></trkpt><trkpt lat="44.95359523240532" lon="7.276503713536539"><ele>1191.0</ele><time>2026-05-01T11:00:19.998Z</time></trkpt><trkpt lat="44.95358347975967" lon="7.276598612639084"><ele>1191.0</ele><time>2026-05-01T11:00:21.998Z</time></trkpt><trkpt lat="44.95358364973431" lon="7.276701642504331"><ele>1191.0</ele><time>2026-05-01T11:00:23.998Z</time></trkpt><trkpt lat="44.95356789465962" lon="7.276823327694532"><ele>1191.0</ele><time>2026-05-01T11:00:25.998Z</time></trkpt><trkpt lat="44.95357503186899" lon="7.2769399257742995"><ele>1189.0</ele><time>2026-05-01T11:00:27.998Z</time></trkpt><trkpt lat="44.95359538826089" lon="7.277035971460251"><ele>1187.0</ele><time>2026-05-01T11:00:29.998Z</time></trkpt><trkpt lat="44.95366544733293" lon="7.277080866534859"><ele>1185.0</ele><time>2026-05-01T11:00:31.998Z</time></trkpt><trkpt lat="44.95373906706202" lon="7.27706194398983"><ele>1183.0</ele><time>2026-05-01T11:00:34.998Z</time></trkpt><trkpt lat="44.953952844067096" lon="7.277136716987121"><ele>1181.0</ele><time>2026-05-01T11:05:25Z</time></trkpt><trkpt lat="44.954051654384045" lon="7.277160966183861"><ele>1181.0</ele><time>2026-05-01T11:05:26Z</time></trkpt><trkpt lat="44.954139386524595" lon="7.277188381664586"><ele>1181.0</ele><time>2026-05-01T11:05:27Z</time></trkpt><trkpt lat="44.95419553993233" lon="7.2772682802599835"><ele>1181.0</ele><time>2026-05-01T11:05:29Z</time></trkpt><trkpt lat="44.95429390101404" lon="7.277387570277941"><ele>1181.0</ele><time>2026-05-01T11:05:32Z</time></trkpt><trkpt lat="44.95432182979463" lon="7.277472716020389"><ele>1181.0</ele><time>2026-05-01T11:05:33Z</time></trkpt><trkpt lat="44.9543416549465" lon="7.277561078272185"><ele>1181.0</ele><time>2026-05-01T11:05:34Z</time></trkpt><trkpt lat="44.95442900053348" lon="7.277672686401879"><ele>1181.6</ele><time>2026-05-01T11:05:36Z</time></trkpt><trkpt lat="44.95451401038785" lon="7.277772008524832"><ele>1182.1999999999998</ele><time>2026-05-01T11:05:38Z</time></trkpt><trkpt lat="44.954597331760105" lon="7.277841115351599"><ele>1182.8000000000002</ele><time>2026-05-01T11:05:40Z</time></trkpt><trkpt lat="44.95472851833244" lon="7.277845565006733"><ele>1183.4</ele><time>2026-05-01T11:05:41.999Z</time></trkpt><trkpt lat="44.95479294449592" lon="7.277850477819072"><ele>1184.0</ele><time>2026-05-01T11:05:42.999Z</time></trkpt><trkpt lat="44.9548968435251" lon="7.277886121974805"><ele>1184.0</ele><time>2026-05-01T11:05:44.999Z</time></trkpt><trkpt lat="44.95500625171014" lon="7.277939832649365"><ele>1184.0</ele><time>2026-05-01T11:05:46.999Z</time></trkpt><trkpt lat="44.95506717275911" lon="7.277972092448269"><ele>1184.0</ele><time>2026-05-01T11:05:47.999Z</time></trkpt><trkpt lat="44.95513716120914" lon="7.277996867560267"><ele>1184.0</ele><time>2026-05-01T11:05:48.999Z</time></trkpt><trkpt lat="44.95521174179819" lon="7.278017382616261"><ele>1184.0</ele><time>2026-05-01T11:05:50.999Z</time></trkpt><trkpt lat="44.95530517263894" lon="7.277957115491504"><ele>1184.0</ele><time>2026-05-01T11:05:53.999Z</time></trkpt><trkpt lat="44.95538058432367" lon="7.277889050304104"><ele>1182.6666666666667</ele><time>2026-05-01T11:05:55.999Z</time></trkpt><trkpt lat="44.95545240775307" lon="7.277861689597094"><ele>1181.3333333333335</ele><time>2026-05-01T11:05:57.999Z</time></trkpt><trkpt lat="44.955522557010774" lon="7.277836800490764"><ele>1180.0</ele><time>2026-05-01T11:06:00.999Z</time></trkpt><trkpt lat="44.95559728872765" lon="7.277869969022265"><ele>1178.6666666666667</ele><time>2026-05-01T11:06:02.999Z</time></trkpt><trkpt lat="44.95567634899708" lon="7.277953588127142"><ele>1177.3333333333333</ele><time>2026-05-01T11:06:06.999Z</time></trkpt><trkpt lat="44.95573129844784" lon="7.278027220764321"><ele>1176.0</ele><time>2026-05-01T11:06:10.999Z</time></trkpt><trkpt lat="44.955831575049274" lon="7.278121020964361"><ele>1173.1666666666667</ele><time>2026-05-01T11:06:13.999Z</time></trkpt><trkpt lat="44.955895423156775" lon="7.278193059293453"><ele>1170.3333333333333</ele><time>2026-05-01T11:06:15.999Z</time></trkpt><trkpt lat="44.95598842775221" lon="7.278265953214223"><ele>1167.5</ele><time>2026-05-01T11:06:18.999Z</time></trkpt><trkpt lat="44.95604606993946" lon="7.27831255408555"><ele>1164.6666666666665</ele><time>2026-05-01T11:06:20.999Z</time></trkpt><trkpt lat="44.95610140350873" lon="7.278365162112696"><ele>1161.8333333333333</ele><time>2026-05-01T11:06:22.999Z</time></trkpt><trkpt lat="44.95617109776358" lon="7.278403796624013"><ele>1159.0</ele><time>2026-05-01T11:06:24.999Z</time></trkpt><trkpt lat="44.95627995870015" lon="7.278469921376382"><ele>1159.0</ele><time>2026-05-01T11:06:26.999Z</time></trkpt><trkpt lat="44.95635965800106" lon="7.278500842662483"><ele>1159.0</ele><time>2026-05-01T11:06:30.999Z</time></trkpt><trkpt lat="44.956426920608365" lon="7.278509940769873"><ele>1159.0</ele><time>2026-05-01T11:06:32.998Z</time></trkpt><trkpt lat="44.956494193899836" lon="7.278516615365881"><ele>1159.0</ele><time>2026-05-01T11:06:35.998Z</time></trkpt><trkpt lat="44.956589304647125" lon="7.278551922970122"><ele>1159.0</ele><time>2026-05-01T11:07:01.998Z</time></trkpt><trkpt lat="44.95665195683448" lon="7.278528168753262"><ele>1159.0</ele><time>2026-05-01T11:07:02.998Z</time></trkpt><trkpt lat="44.95672334798122" lon="7.278503614595071"><ele>1157.2</ele><time>2026-05-01T11:07:03.998Z</time></trkpt><trkpt lat="44.95679087284233" lon="7.278476875078999"><ele>1155.4</ele><time>2026-05-01T11:07:04.998Z</time></trkpt><trkpt lat="44.956898868783156" lon="7.278438405228144"><ele>1153.6</ele><time>2026-05-01T11:07:06.998Z</time></trkpt><trkpt lat="44.956971161688585" lon="7.278398173137405"><ele>1151.8</ele><time>2026-05-01T11:07:08.998Z</time></trkpt><trkpt lat="44.95704430601051" lon="7.278310666585665"><ele>1150.0</ele><time>2026-05-01T11:07:10.998Z</time></trkpt><trkpt lat="44.95714332101018" lon="7.278233339845553"><ele>1150.0</ele><time>2026-05-01T11:07:12.998Z</time></trkpt><trkpt lat="44.95721067226554" lon="7.278183164458609"><ele>1150.0</ele><time>2026-05-01T11:07:13.998Z</time></trkpt><trkpt lat="44.957286473945985" lon="7.278138427708953"><ele>1150.0</ele><time>2026-05-01T11:07:14.998Z</time></trkpt><trkpt lat="44.9573797447008" lon="7.2780976306165055"><ele>1150.0</ele><time>2026-05-01T11:07:15.998Z</time></trkpt><trkpt lat="44.95750598621469" lon="7.278078413371372"><ele>1150.0</ele><time>2026-05-01T11:07:16.998Z</time></trkpt><trkpt lat="44.957634990199985" lon="7.278008315693976"><ele>1150.1666666666665</ele><time>2026-05-01T11:07:17.998Z</time></trkpt><trkpt lat="44.95770599831221" lon="7.277983985392302"><ele>1150.3333333333333</ele><time>2026-05-01T11:07:18.998Z</time></trkpt><trkpt lat="44.957778384161415" lon="7.277941858506432"><ele>1150.5</ele><time>2026-05-01T11:07:19.998Z</time></trkpt><trkpt lat="44.957851403508485" lon="7.277873278264527"><ele>1150.6666666666667</ele><time>2026-05-01T11:07:20.998Z</time></trkpt><trkpt lat="44.95792027610064" lon="7.277793210936649"><ele>1150.8333333333335</ele><time>2026-05-01T11:07:21.998Z</time></trkpt><trkpt lat="44.95797281056109" lon="7.277701760658788"><ele>1151.0</ele><time>2026-05-01T11:07:22.997Z</time></trkpt><trkpt lat="44.95801013167034" lon="7.2776071746707505"><ele>1151.0</ele><time>2026-05-01T11:07:23.997Z</time></trkpt><trkpt lat="44.95803919014446" lon="7.2775066618020325"><ele>1151.0</ele><time>2026-05-01T11:07:25Z</time></trkpt><trkpt lat="44.95805424184341" lon="7.277393690986868"><ele>1151.0</ele><time>2026-05-01T11:07:26Z</time></trkpt><trkpt lat="44.95805567754383" lon="7.277298170182671"><ele>1151.0</ele><time>2026-05-01T11:07:27Z</time></trkpt><trkpt lat="44.958064547023106" lon="7.277151086282203"><ele>1151.0</ele><time>2026-05-01T11:07:29Z</time></trkpt><trkpt lat="44.95812636114231" lon="7.277046475685885"><ele>1151.0</ele><time>2026-05-01T11:07:31Z</time></trkpt><trkpt lat="44.958208619531156" lon="7.277023053246545"><ele>1151.2</ele><time>2026-05-01T11:07:33Z</time></trkpt><trkpt lat="44.958274765651616" lon="7.27699018664923"><ele>1151.3999999999999</ele><time>2026-05-01T11:07:35Z</time></trkpt><trkpt lat="44.95839563710698" lon="7.2769428742061"><ele>1151.6</ele><time>2026-05-01T11:07:36Z</time></trkpt><trkpt lat="44.95847914570119" lon="7.276879252016098"><ele>1151.8</ele><time>2026-05-01T11:07:37Z</time></trkpt><trkpt lat="44.958558701508395" lon="7.2768124900637"><ele>1152.0</ele><time>2026-05-01T11:07:38Z</time></trkpt><trkpt lat="44.95866441516246" lon="7.2767291632227"><ele>1154.2</ele><time>2026-05-01T11:07:39Z</time></trkpt><trkpt lat="44.958773508388575" lon="7.276639057892667"><ele>1156.4</ele><time>2026-05-01T11:07:40Z</time></trkpt><trkpt lat="44.95885663968654" lon="7.276592522796783"><ele>1158.6</ele><time>2026-05-01T11:07:41Z</time></trkpt><trkpt lat="44.95894137237587" lon="7.276647744762278"><ele>1160.8</ele><time>2026-05-01T11:07:42Z</time></trkpt><trkpt lat="44.95901560445117" lon="7.276673448691197"><ele>1163.0</ele><time>2026-05-01T11:07:43Z</time></trkpt><trkpt lat="44.95908925482981" lon="7.276722835926779"><ele>1163.0</ele><time>2026-05-01T11:07:44Z</time></trkpt><trkpt lat="44.9591794518566" lon="7.276804498923487"><ele>1163.0</ele><time>2026-05-01T11:07:45Z</time></trkpt><trkpt lat="44.95928293336908" lon="7.2769140798860255"><ele>1163.0</ele><time>2026-05-01T11:07:46Z</time></trkpt><trkpt lat="44.95938970222475" lon="7.276999518228738"><ele>1163.0</ele><time>2026-05-01T11:07:47Z</time></trkpt><trkpt lat="44.95949129039378" lon="7.277057713123616"><ele>1164.0</ele><time>2026-05-01T11:07:47.999Z</time></trkpt><trkpt lat="44.95959363541333" lon="7.277110946675337"><ele>1165.0</ele><time>2026-05-01T11:07:48.999Z</time></trkpt><trkpt lat="44.959692162682394" lon="7.277161941078143"><ele>1166.0</ele><time>2026-05-01T11:07:49.999Z</time></trkpt><trkpt lat="44.95978737217799" lon="7.277218390914293"><ele>1167.0</ele><time>2026-05-01T11:07:50.999Z</time></trkpt><trkpt lat="44.95988235497673" lon="7.27727850362162"><ele>1168.0</ele><time>2026-05-01T11:07:51.999Z</time></trkpt><trkpt lat="44.95997468389655" lon="7.27731108248213"><ele>1167.4</ele><time>2026-05-01T11:07:52.999Z</time></trkpt><trkpt lat="44.96006019700979" lon="7.277310348782757"><ele>1166.8</ele><time>2026-05-01T11:07:53.999Z</time></trkpt><trkpt lat="44.960176707491485" lon="7.277323085654834"><ele>1166.2</ele><time>2026-05-01T11:07:54.999Z</time></trkpt><trkpt lat="44.960255654276345" lon="7.277310350992179"><ele>1165.6</ele><time>2026-05-01T11:07:55.999Z</time></trkpt><trkpt lat="44.96033861045628" lon="7.277305841455763"><ele>1165.0</ele><time>2026-05-01T11:07:56.999Z</time></trkpt><trkpt lat="44.960425424207784" lon="7.277308039225446"><ele>1165.0</ele><time>2026-05-01T11:07:57.999Z</time></trkpt><trkpt lat="44.96050858365813" lon="7.277306206324958"><ele>1165.0</ele><time>2026-05-01T11:07:58.999Z</time></trkpt><trkpt lat="44.960586281714164" lon="7.277341538898093"><ele>1165.0</ele><time>2026-05-01T11:07:59.999Z</time></trkpt><trkpt lat="44.960660862355965" lon="7.277366597929378"><ele>1165.0</ele><time>2026-05-01T11:08:00.999Z</time></trkpt><trkpt lat="44.96073004628655" lon="7.2774094388088"><ele>1165.0</ele><time>2026-05-01T11:08:01.999Z</time></trkpt><trkpt lat="44.9608053194918" lon="7.277441707981396"><ele>1165.0</ele><time>2026-05-01T11:08:02.999Z</time></trkpt><trkpt lat="44.96087562900008" lon="7.277486238494666"><ele>1162.8333333333333</ele><time>2026-05-01T11:08:03.999Z</time></trkpt><trkpt lat="44.96094475312122" lon="7.277516166848033"><ele>1160.6666666666665</ele><time>2026-05-01T11:08:04.999Z</time></trkpt><trkpt lat="44.96101917933282" lon="7.277544963862769"><ele>1158.5</ele><time>2026-05-01T11:08:05.999Z</time></trkpt><trkpt lat="44.961099235082045" lon="7.277571704992651"><ele>1156.3333333333333</ele><time>2026-05-01T11:08:06.999Z</time></trkpt><trkpt lat="44.96118014729437" lon="7.2776094296353975"><ele>1154.1666666666667</ele><time>2026-05-01T11:08:07.999Z</time></trkpt><trkpt lat="44.96125903268262" lon="7.277673319002941"><ele>1152.0</ele><time>2026-05-01T11:08:08.999Z</time></trkpt><trkpt lat="44.96130886210531" lon="7.277788902490384"><ele>1152.0</ele><time>2026-05-01T11:08:09.999Z</time></trkpt><trkpt lat="44.96132913841535" lon="7.277925321511653"><ele>1152.0</ele><time>2026-05-01T11:08:10.999Z</time></trkpt><trkpt lat="44.96136767793409" lon="7.278041245173457"><ele>1152.0</ele><time>2026-05-01T11:08:11.999Z</time></trkpt><trkpt lat="44.96141302348342" lon="7.278144816740539"><ele>1152.0</ele><time>2026-05-01T11:08:12.999Z</time></trkpt><trkpt lat="44.96143056614201" lon="7.2782624147569415"><ele>1152.0</ele><time>2026-05-01T11:08:13.999Z</time></trkpt><trkpt lat="44.961420941976186" lon="7.278369750144489"><ele>1152.0</ele><time>2026-05-01T11:08:14.999Z</time></trkpt><trkpt lat="44.96137318609391" lon="7.27844824663387"><ele>1153.0</ele><time>2026-05-01T11:08:15.999Z</time></trkpt><trkpt lat="44.96146996881829" lon="7.278644354250862"><ele>1154.0</ele><time>2026-05-01T11:08:17.999Z</time></trkpt><trkpt lat="44.96152762333922" lon="7.278735639034938"><ele>1155.0</ele><time>2026-05-01T11:08:18.999Z</time></trkpt><trkpt lat="44.96155309276107" lon="7.2788404960893045"><ele>1156.0</ele><time>2026-05-01T11:08:19.999Z</time></trkpt><trkpt lat="44.961587883444466" lon="7.278937294652911"><ele>1157.0</ele><time>2026-05-01T11:08:20.999Z</time></trkpt><trkpt lat="44.96162183103796" lon="7.279026719353382"><ele>1157.1666666666667</ele><time>2026-05-01T11:08:21.999Z</time></trkpt><trkpt lat="44.961668624060536" lon="7.279106544468558"><ele>1157.3333333333335</ele><time>2026-05-01T11:08:22.999Z</time></trkpt><trkpt lat="44.96170867676726" lon="7.2792045330367"><ele>1157.5</ele><time>2026-05-01T11:08:23.999Z</time></trkpt><trkpt lat="44.961736420933896" lon="7.279310652426097"><ele>1157.6666666666667</ele><time>2026-05-01T11:08:24.999Z</time></trkpt><trkpt lat="44.961774145630066" lon="7.279409912353843"><ele>1157.8333333333333</ele><time>2026-05-01T11:08:25.999Z</time></trkpt><trkpt lat="44.961810095365465" lon="7.279500066909565"><ele>1158.0</ele><time>2026-05-01T11:08:26.999Z</time></trkpt><trkpt lat="44.961882496616504" lon="7.279618074894506"><ele>1157.6</ele><time>2026-05-01T11:08:28.999Z</time></trkpt><trkpt lat="44.96198277194058" lon="7.279399955046227"><ele>1157.1999999999998</ele><time>2026-05-01T11:08:40.998Z</time></trkpt><trkpt lat="44.9619741652616" lon="7.27930381452009"><ele>1156.8</ele><time>2026-05-01T11:08:41.998Z</time></trkpt><trkpt lat="44.96196308139866" lon="7.279169624563125"><ele>1156.3999999999999</ele><time>2026-05-01T11:08:43.998Z</time></trkpt><trkpt lat="44.96202797481894" lon="7.279203785670689"><ele>1156.0</ele><time>2026-05-01T11:08:46.998Z</time></trkpt><trkpt lat="44.96206861364753" lon="7.279277365751039"><ele>1156.0</ele><time>2026-05-01T11:08:56.998Z</time></trkpt><trkpt lat="44.962000727023316" lon="7.279281499690755"><ele>1156.0</ele><time>2026-05-01T11:08:58.998Z</time></trkpt><trkpt lat="44.961947935994594" lon="7.279340266177625"><ele>1156.0</ele><time>2026-05-01T12:04:20Z</time></trkpt><trkpt lat="44.96198356175168" lon="7.279517722335093"><ele>1156.0</ele><time>2026-05-01T12:05:15.998Z</time></trkpt><trkpt lat="44.96183038122344" lon="7.279506204666331"><ele>1156.0</ele><time>2026-05-01T12:05:19.998Z</time></trkpt><trkpt lat="44.96180268527985" lon="7.279380278218138"><ele>1156.0</ele><time>2026-05-01T12:05:21.998Z</time></trkpt><trkpt lat="44.96177512697238" lon="7.279296255145464"><ele>1156.0</ele><time>2026-05-01T12:05:22.998Z</time></trkpt><trkpt lat="44.96172910871673" lon="7.279209650250166"><ele>1156.0</ele><time>2026-05-01T12:05:23.998Z</time></trkpt><trkpt lat="44.96168045341617" lon="7.279110449639431"><ele>1156.0</ele><time>2026-05-01T12:05:24.998Z</time></trkpt><trkpt lat="44.96163037496595" lon="7.2789963795383965"><ele>1156.0</ele><time>2026-05-01T12:05:25.998Z</time></trkpt><trkpt lat="44.961586829399856" lon="7.278866115718178"><ele>1156.0</ele><time>2026-05-01T12:05:26.998Z</time></trkpt><trkpt lat="44.96154829577166" lon="7.27874064358001"><ele>1156.1666666666665</ele><time>2026-05-01T12:05:27.998Z</time></trkpt><trkpt lat="44.961506458715675" lon="7.278633595449254"><ele>1156.3333333333333</ele><time>2026-05-01T12:05:28.998Z</time></trkpt><trkpt lat="44.96147122928242" lon="7.278549071913122"><ele>1156.5</ele><time>2026-05-01T12:05:29.998Z</time></trkpt><trkpt lat="44.96141802383541" lon="7.278447108854866"><ele>1156.6666666666667</ele><time>2026-05-01T12:05:31.998Z</time></trkpt><trkpt lat="44.96144690950362" lon="7.278346204329751"><ele>1156.8333333333335</ele><time>2026-05-01T12:05:32.998Z</time></trkpt><trkpt lat="44.961463467433504" lon="7.2782523077053005"><ele>1157.0</ele><time>2026-05-01T12:05:33.998Z</time></trkpt><trkpt lat="44.96145795558155" lon="7.278144850609369"><ele>1156.0</ele><time>2026-05-01T12:05:34.998Z</time></trkpt><trkpt lat="44.9614265999849" lon="7.278039553977896"><ele>1155.0</ele><time>2026-05-01T12:05:35.998Z</time></trkpt><trkpt lat="44.96137024010822" lon="7.277934176174134"><ele>1154.0</ele><time>2026-05-01T12:05:36.998Z</time></trkpt><trkpt lat="44.961316558930434" lon="7.277807051898764"><ele>1153.0</ele><time>2026-05-01T12:05:37.998Z</time></trkpt><trkpt lat="44.961267668436086" lon="7.277693397654862"><ele>1152.0</ele><time>2026-05-01T12:05:38.998Z</time></trkpt><trkpt lat="44.961212868903566" lon="7.277597445456697"><ele>1152.0</ele><time>2026-05-01T12:05:39.998Z</time></trkpt><trkpt lat="44.96113040279279" lon="7.277552475780482"><ele>1152.0</ele><time>2026-05-01T12:05:40.998Z</time></trkpt><trkpt lat="44.9610462179752" lon="7.2775322382530785"><ele>1152.0</ele><time>2026-05-01T12:05:41.998Z</time></trkpt><trkpt lat="44.960959556271874" lon="7.277478601344769"><ele>1152.0</ele><time>2026-05-01T12:05:42.998Z</time></trkpt><trkpt lat="44.96086161791196" lon="7.277432596909315"><ele>1152.0</ele><time>2026-05-01T12:05:43.998Z</time></trkpt><trkpt lat="44.96077545669904" lon="7.2773886332417055"><ele>1154.6</ele><time>2026-05-01T12:05:44.998Z</time></trkpt><trkpt lat="44.960692346990704" lon="7.277333513832127"><ele>1157.2</ele><time>2026-05-01T12:05:45.998Z</time></trkpt><trkpt lat="44.960575435256885" lon="7.277291441140885"><ele>1159.8</ele><time>2026-05-01T12:05:46.998Z</time></trkpt><trkpt lat="44.960471427038954" lon="7.277276861761154"><ele>1162.4</ele><time>2026-05-01T12:05:47.998Z</time></trkpt><trkpt lat="44.96036672273887" lon="7.277278158164003"><ele>1165.0</ele><time>2026-05-01T12:05:48.998Z</time></trkpt><trkpt lat="44.9602607918507" lon="7.277276176707216"><ele>1165.0</ele><time>2026-05-01T12:05:49.998Z</time></trkpt><trkpt lat="44.96016927974679" lon="7.2772715282567315"><ele>1165.0</ele><time>2026-05-01T12:05:50.998Z</time></trkpt><trkpt lat="44.960100417940055" lon="7.277266587529122"><ele>1165.0</ele><time>2026-05-01T12:05:51.998Z</time></trkpt><trkpt lat="44.960021875326014" lon="7.277259785075674"><ele>1165.0</ele><time>2026-05-01T12:05:52.998Z</time></trkpt><trkpt lat="44.95993131461877" lon="7.277247857413363"><ele>1165.0</ele><time>2026-05-01T12:05:53.998Z</time></trkpt><trkpt lat="44.959837326239075" lon="7.277203117591029"><ele>1165.0</ele><time>2026-05-01T12:05:54.998Z</time></trkpt><trkpt lat="44.95974619125631" lon="7.2771399553990515"><ele>1165.5</ele><time>2026-05-01T12:05:55.998Z</time></trkpt><trkpt lat="44.959662032127596" lon="7.277096397454676"><ele>1166.0</ele><time>2026-05-01T12:05:56.998Z</time></trkpt><trkpt lat="44.959583903152485" lon="7.277055960524293"><ele>1166.5</ele><time>2026-05-01T12:05:57.998Z</time></trkpt><trkpt lat="44.95950932174496" lon="7.277042247470837"><ele>1167.0</ele><time>2026-05-01T12:05:58.998Z</time></trkpt><trkpt lat="44.959448433425166" lon="7.276982704326985"><ele>1167.5</ele><time>2026-05-01T12:05:59.998Z</time></trkpt><trkpt lat="44.95938093856777" lon="7.276965048841247"><ele>1168.0</ele><time>2026-05-01T12:06:00.998Z</time></trkpt><trkpt lat="44.95931982757831" lon="7.2769173635173"><ele>1168.0</ele><time>2026-05-01T12:06:01.998Z</time></trkpt><trkpt lat="44.959259439186965" lon="7.27685713637013"><ele>1168.0</ele><time>2026-05-01T12:06:02.997Z</time></trkpt><trkpt lat="44.95919952696169" lon="7.276775208629557"><ele>1168.0</ele><time>2026-05-01T12:06:03.997Z</time></trkpt><trkpt lat="44.95912312571486" lon="7.276707124966874"><ele>1168.0</ele><time>2026-05-01T12:06:04.997Z</time></trkpt><trkpt lat="44.95903700228452" lon="7.276653167678599"><ele>1168.0</ele><time>2026-05-01T12:06:06Z</time></trkpt><trkpt lat="44.95894941090129" lon="7.276601023519831"><ele>1168.0</ele><time>2026-05-01T12:06:07Z</time></trkpt><trkpt lat="44.95884896006498" lon="7.276595458116091"><ele>1167.1666666666665</ele><time>2026-05-01T12:06:08Z</time></trkpt><trkpt lat="44.95875702671804" lon="7.2766012343106325"><ele>1166.3333333333333</ele><time>2026-05-01T12:06:09Z</time></trkpt><trkpt lat="44.95867046050772" lon="7.276628189732371"><ele>1165.5</ele><time>2026-05-01T12:06:10Z</time></trkpt><trkpt lat="44.95858750490779" lon="7.2766942823492835"><ele>1164.6666666666667</ele><time>2026-05-01T12:06:11Z</time></trkpt><trkpt lat="44.95851606719984" lon="7.276761549763205"><ele>1163.8333333333335</ele><time>2026-05-01T12:06:12Z</time></trkpt><trkpt lat="44.95845455127891" lon="7.276822222801541"><ele>1163.0</ele><time>2026-05-01T12:06:13Z</time></trkpt><trkpt lat="44.95833733402441" lon="7.276919570973161"><ele>1160.8</ele><time>2026-05-01T12:06:15Z</time></trkpt><trkpt lat="44.95825366486198" lon="7.276973024583687"><ele>1158.6</ele><time>2026-05-01T12:06:16Z</time></trkpt><trkpt lat="44.95815607491876" lon="7.277015867800815"><ele>1156.4</ele><time>2026-05-01T12:06:17Z</time></trkpt><trkpt lat="44.95805559605906" lon="7.277035804389749"><ele>1154.2</ele><time>2026-05-01T12:06:18Z</time></trkpt><trkpt lat="44.957948385421126" lon="7.277031358119074"><ele>1152.0</ele><time>2026-05-01T12:06:19Z</time></trkpt><trkpt lat="44.957857806535415" lon="7.276969998868247"><ele>1152.0</ele><time>2026-05-01T12:06:20Z</time></trkpt><trkpt lat="44.95778428572184" lon="7.276898333726522"><ele>1152.0</ele><time>2026-05-01T12:06:21Z</time></trkpt><trkpt lat="44.95771619073069" lon="7.2768010520657045"><ele>1152.0</ele><time>2026-05-01T12:06:22Z</time></trkpt><trkpt lat="44.95763462528729" lon="7.27664733145325"><ele>1152.0</ele><time>2026-05-01T12:06:23Z</time></trkpt><trkpt lat="44.95753820888221" lon="7.276452441248786"><ele>1153.0</ele><time>2026-05-01T12:06:24Z</time></trkpt><trkpt lat="44.957435750046976" lon="7.276321142840723"><ele>1154.0</ele><time>2026-05-01T12:06:25Z</time></trkpt><trkpt lat="44.957342415118596" lon="7.276227372480996"><ele>1155.0</ele><time>2026-05-01T12:06:26Z</time></trkpt><trkpt lat="44.95721634881076" lon="7.276100655856725"><ele>1156.0</ele><time>2026-05-01T12:06:27Z</time></trkpt><trkpt lat="44.95706084183212" lon="7.275983653842851"><ele>1156.0</ele><time>2026-05-01T12:06:28Z</time></trkpt><trkpt lat="44.95689639805836" lon="7.275869279465531"><ele>1156.0</ele><time>2026-05-01T12:06:29Z</time></trkpt><trkpt lat="44.95677510253651" lon="7.275742598769097"><ele>1156.0</ele><time>2026-05-01T12:06:29.999Z</time></trkpt><trkpt lat="44.956680876653465" lon="7.275638281703751"><ele>1159.0</ele><time>2026-05-01T12:06:30.999Z</time></trkpt><trkpt lat="44.95664911140649" lon="7.275478529519357"><ele>1162.0</ele><time>2026-05-01T12:06:31.999Z</time></trkpt><trkpt lat="44.95660729015842" lon="7.275318163844668"><ele>1165.0</ele><time>2026-05-01T12:06:32.999Z</time></trkpt><trkpt lat="44.956555173759796" lon="7.275130017942666"><ele>1168.0</ele><time>2026-05-01T12:06:33.999Z</time></trkpt><trkpt lat="44.956505903993694" lon="7.27490668639263"><ele>1167.6666666666665</ele><time>2026-05-01T12:06:34.999Z</time></trkpt><trkpt lat="44.956452258821514" lon="7.274652806978716"><ele>1167.3333333333333</ele><time>2026-05-01T12:06:35.999Z</time></trkpt><trkpt lat="44.95639655198259" lon="7.274421597902357"><ele>1167.0</ele><time>2026-05-01T12:06:36.999Z</time></trkpt><trkpt lat="44.95635637390841" lon="7.27421273459472"><ele>1167.0</ele><time>2026-05-01T12:06:37.999Z</time></trkpt><trkpt lat="44.956327546549055" lon="7.27403736327245"><ele>1167.0</ele><time>2026-05-01T12:06:38.999Z</time></trkpt><trkpt lat="44.956289086682055" lon="7.273883298220507"><ele>1167.0</ele><time>2026-05-01T12:06:39.999Z</time></trkpt><trkpt lat="44.956233662368675" lon="7.273725203037604"><ele>1167.0</ele><time>2026-05-01T12:06:40.999Z</time></trkpt><trkpt lat="44.956164351003096" lon="7.273628444561253"><ele>1167.3333333333333</ele><time>2026-05-01T12:06:41.999Z</time></trkpt><trkpt lat="44.95606894003667" lon="7.273608357563776"><ele>1167.6666666666667</ele><time>2026-05-01T12:06:42.999Z</time></trkpt><trkpt lat="44.95599809159707" lon="7.273601064443452"><ele>1168.0</ele><time>2026-05-01T12:06:43.999Z</time></trkpt><trkpt lat="44.955887442494195" lon="7.273591382958705"><ele>1168.3333333333335</ele><time>2026-05-01T12:06:45.999Z</time></trkpt><trkpt lat="44.955827884883774" lon="7.2735524377116585"><ele>1168.6666666666667</ele><time>2026-05-01T12:06:48.999Z</time></trkpt><trkpt lat="44.95581491902048" lon="7.273440092842908"><ele>1169.0</ele><time>2026-05-01T12:06:52.999Z</time></trkpt><trkpt lat="44.95587006474682" lon="7.273127018876706"><ele>1171.0</ele><time>2026-05-01T12:06:56.999Z</time></trkpt><trkpt lat="44.95581703471141" lon="7.272995031284447"><ele>1173.0</ele><time>2026-05-01T12:06:59.999Z</time></trkpt><trkpt lat="44.95577496414288" lon="7.272845330482338"><ele>1175.0</ele><time>2026-05-01T12:07:01.999Z</time></trkpt><trkpt lat="44.95575198051516" lon="7.272738942598969"><ele>1177.0</ele><time>2026-05-01T12:07:03.999Z</time></trkpt><trkpt lat="44.95571449305294" lon="7.2726598229590556"><ele>1179.0</ele><time>2026-05-01T12:07:05.999Z</time></trkpt><trkpt lat="44.95566697111197" lon="7.272589512040853"><ele>1181.0</ele><time>2026-05-01T12:07:07.999Z</time></trkpt><trkpt lat="44.95562638821357" lon="7.272520144923964"><ele>1181.0</ele><time>2026-05-01T12:07:09.999Z</time></trkpt><trkpt lat="44.955544002575046" lon="7.2723335337230886"><ele>1181.0</ele><time>2026-05-01T12:07:44.998Z</time></trkpt><trkpt lat="44.955531666599235" lon="7.2721935176012416"><ele>1181.0</ele><time>2026-05-01T12:07:46.998Z</time></trkpt><trkpt lat="44.95545470611287" lon="7.2721394486761035"><ele>1181.0</ele><time>2026-05-01T12:07:49.998Z</time></trkpt><trkpt lat="44.955412992826886" lon="7.272069647973246"><ele>1181.0</ele><time>2026-05-01T12:07:52.998Z</time></trkpt><trkpt lat="44.955362467910675" lon="7.271991497552955"><ele>1181.1666666666667</ele><time>2026-05-01T12:07:56.998Z</time></trkpt><trkpt lat="44.95529547138617" lon="7.271907509968351"><ele>1181.3333333333335</ele><time>2026-05-01T12:08:01.998Z</time></trkpt><trkpt lat="44.95522770086233" lon="7.27189096000833"><ele>1181.5</ele><time>2026-05-01T12:08:03.998Z</time></trkpt><trkpt lat="44.955152185179" lon="7.271865348291182"><ele>1181.6666666666667</ele><time>2026-05-01T12:08:05.998Z</time></trkpt><trkpt lat="44.955082494642966" lon="7.271822575764186"><ele>1181.8333333333333</ele><time>2026-05-01T12:08:09.997Z</time></trkpt><trkpt lat="44.95501795068873" lon="7.271777663853592"><ele>1182.0</ele><time>2026-05-01T12:08:12Z</time></trkpt><trkpt lat="44.95496905669277" lon="7.2716924369907465"><ele>1178.0</ele><time>2026-05-01T12:08:15Z</time></trkpt><trkpt lat="44.95493695057356" lon="7.271585210354308"><ele>1174.0</ele><time>2026-05-01T12:08:20Z</time></trkpt><trkpt lat="44.954854667172114" lon="7.271546540068454"><ele>1170.0</ele><time>2026-05-01T12:08:23Z</time></trkpt><trkpt lat="44.95478095859206" lon="7.271502414712494"><ele>1166.0</ele><time>2026-05-01T12:08:26Z</time></trkpt><trkpt lat="44.954747484530394" lon="7.271388779477905"><ele>1162.0</ele><time>2026-05-01T12:08:29Z</time></trkpt><trkpt lat="44.954720168239604" lon="7.271305826087933"><ele>1158.0</ele><time>2026-05-01T12:08:31Z</time></trkpt><trkpt lat="44.95466573971524" lon="7.271206471524919"><ele>1157.0</ele><time>2026-05-01T12:08:33Z</time></trkpt><trkpt lat="44.95462912548515" lon="7.271132773465531"><ele>1156.0</ele><time>2026-05-01T12:08:33.999Z</time></trkpt><trkpt lat="44.95452637985369" lon="7.271043459070065"><ele>1155.0</ele><time>2026-05-01T12:08:35.999Z</time></trkpt><trkpt lat="44.95448116504842" lon="7.270966148969906"><ele>1154.0</ele><time>2026-05-01T12:08:36.999Z</time></trkpt><trkpt lat="44.9544181379128" lon="7.270917327696289"><ele>1153.0</ele><time>2026-05-01T12:08:37.999Z</time></trkpt><trkpt lat="44.95439588940943" lon="7.270831395275309"><ele>1152.0</ele><time>2026-05-01T12:08:39.999Z</time></trkpt><trkpt lat="44.95432789564812" lon="7.270715638653954"><ele>1142.6666666666667</ele><time>2026-05-01T12:08:42.999Z</time></trkpt><trkpt lat="44.95416341459723" lon="7.270297640875974"><ele>1133.3333333333335</ele><time>2026-05-01T12:08:45.999Z</time></trkpt><trkpt lat="44.95411409393042" lon="7.270170884789039"><ele>1124.0</ele><time>2026-05-01T12:08:47.999Z</time></trkpt><trkpt lat="44.95404923619381" lon="7.270144757381318"><ele>1124.0</ele><time>2026-05-01T12:08:50.999Z</time></trkpt><trkpt lat="44.953978244528614" lon="7.270150004826469"><ele>1124.0</ele><time>2026-05-01T12:08:53.999Z</time></trkpt><trkpt lat="44.953929470280826" lon="7.270083578229925"><ele>1124.0</ele><time>2026-05-01T12:09:05.999Z</time></trkpt><trkpt lat="44.953852810079276" lon="7.270067080190896"><ele>1124.0</ele><time>2026-05-01T12:09:31.998Z</time></trkpt><trkpt lat="44.953789028383305" lon="7.269986979808454"><ele>1124.0</ele><time>2026-05-01T12:09:33.998Z</time></trkpt><trkpt lat="44.95371715858995" lon="7.269953653179457"><ele>1124.0</ele><time>2026-05-01T12:09:37.998Z</time></trkpt><trkpt lat="44.95360572034667" lon="7.269928496723421"><ele>1124.0</ele><time>2026-05-01T12:09:40.998Z</time></trkpt><trkpt lat="44.9535232016168" lon="7.269857788487065"><ele>1124.0</ele><time>2026-05-01T12:09:42.998Z</time></trkpt><trkpt lat="44.953433194780814" lon="7.269786666613507"><ele>1124.0</ele><time>2026-05-01T12:09:44.998Z</time></trkpt><trkpt lat="44.95334700186794" lon="7.269723378169011"><ele>1124.0</ele><time>2026-05-01T12:09:47.998Z</time></trkpt><trkpt lat="44.95326673469714" lon="7.269668496843219"><ele>1124.0</ele><time>2026-05-01T12:09:49.998Z</time></trkpt><trkpt lat="44.95320502926319" lon="7.26963177942772"><ele>1119.5</ele><time>2026-05-01T12:09:52.998Z</time></trkpt><trkpt lat="44.95314379760988" lon="7.269604068747163"><ele>1115.0</ele><time>2026-05-01T12:09:55.998Z</time></trkpt><trkpt lat="44.95310225709093" lon="7.269526054004221"><ele>1110.5</ele><time>2026-05-01T12:09:58.998Z</time></trkpt><trkpt lat="44.95306157365129" lon="7.269453367718349"><ele>1106.0</ele><time>2026-05-01T12:10:01.998Z</time></trkpt><trkpt lat="44.95302591596056" lon="7.2693629985373915"><ele>1101.5</ele><time>2026-05-01T12:10:04.998Z</time></trkpt><trkpt lat="44.95292723449201" lon="7.269250953061324"><ele>1097.0</ele><time>2026-05-01T12:10:07.998Z</time></trkpt><trkpt lat="44.9526851799425" lon="7.2690789616742055"><ele>1097.0</ele><time>2026-05-01T12:10:09.998Z</time></trkpt><trkpt lat="44.95257545752131" lon="7.26905674161849"><ele>1097.0</ele><time>2026-05-01T12:10:11.998Z</time></trkpt><trkpt lat="44.95250577420321" lon="7.269046397596096"><ele>1097.0</ele><time>2026-05-01T12:10:12.997Z</time></trkpt><trkpt lat="44.95244326756129" lon="7.2690285341784415"><ele>1097.0</ele><time>2026-05-01T12:10:13.997Z</time></trkpt><trkpt lat="44.95237857243788" lon="7.2690070632476"><ele>1097.0</ele><time>2026-05-01T12:10:14.997Z</time></trkpt><trkpt lat="44.952293701916446" lon="7.2690274626778315"><ele>1097.0</ele><time>2026-05-01T12:10:17Z</time></trkpt><trkpt lat="44.95224169345763" lon="7.269084653378303"><ele>1094.75</ele><time>2026-05-01T12:10:19Z</time></trkpt><trkpt lat="44.95224966040011" lon="7.269293491290042"><ele>1092.5</ele><time>2026-05-01T12:10:51.999Z</time></trkpt><trkpt lat="44.952231980299494" lon="7.269405701087759"><ele>1090.25</ele><time>2026-05-01T12:10:52.999Z</time></trkpt><trkpt lat="44.95218829277758" lon="7.269543103543366"><ele>1088.0</ele><time>2026-05-01T12:10:53.999Z</time></trkpt><trkpt lat="44.9521870959296" lon="7.26973418912211"><ele>1092.25</ele><time>2026-05-01T12:10:54.999Z</time></trkpt><trkpt lat="44.95220945583048" lon="7.2699101983926"><ele>1096.5</ele><time>2026-05-01T12:10:55.999Z</time></trkpt><trkpt lat="44.952176998865184" lon="7.270049236527299"><ele>1100.75</ele><time>2026-05-01T12:10:56.999Z</time></trkpt><trkpt lat="44.952166158609344" lon="7.270230894636893"><ele>1105.0</ele><time>2026-05-01T12:10:57.999Z</time></trkpt><trkpt lat="44.95214616574746" lon="7.270455946814162"><ele>1109.6666666666665</ele><time>2026-05-01T12:10:58.999Z</time></trkpt><trkpt lat="44.952124557841685" lon="7.270659489226266"><ele>1114.3333333333333</ele><time>2026-05-01T12:10:59.999Z</time></trkpt><trkpt lat="44.95203021749827" lon="7.27084911202117"><ele>1119.0</ele><time>2026-05-01T12:11:00.999Z</time></trkpt><trkpt lat="44.95196281104505" lon="7.271025616698913"><ele>1119.0</ele><time>2026-05-01T12:11:01.999Z</time></trkpt><trkpt lat="44.95186396408921" lon="7.271207342687702"><ele>1119.0</ele><time>2026-05-01T12:11:02.999Z</time></trkpt><trkpt lat="44.951771343670366" lon="7.271356802340056"><ele>1119.0</ele><time>2026-05-01T12:11:03.999Z</time></trkpt><trkpt lat="44.95162555507086" lon="7.271586439109347"><ele>1117.6666666666667</ele><time>2026-05-01T12:11:04.999Z</time></trkpt><trkpt lat="44.951542532475294" lon="7.271848252072168"><ele>1116.3333333333335</ele><time>2026-05-01T12:11:05.999Z</time></trkpt><trkpt lat="44.95149347498163" lon="7.272090602905138"><ele>1115.0</ele><time>2026-05-01T12:11:07.999Z</time></trkpt><trkpt lat="44.951476228210744" lon="7.272222654512616"><ele>1117.75</ele><time>2026-05-01T12:11:08.999Z</time></trkpt><trkpt lat="44.95149833343064" lon="7.272386619041078"><ele>1120.5</ele><time>2026-05-01T12:11:09.999Z</time></trkpt><trkpt lat="44.95148746408265" lon="7.27258051047848"><ele>1123.25</ele><time>2026-05-01T12:11:10.999Z</time></trkpt><trkpt lat="44.95147855990142" lon="7.272797479046559"><ele>1126.0</ele><time>2026-05-01T12:11:11.999Z</time></trkpt><trkpt lat="44.95141706594597" lon="7.272920566057717"><ele>1126.0</ele><time>2026-05-01T12:11:12.999Z</time></trkpt><trkpt lat="44.95134468364909" lon="7.273024503334754"><ele>1126.0</ele><time>2026-05-01T12:11:13.999Z</time></trkpt><trkpt lat="44.95127082693247" lon="7.273129579102713"><ele>1126.0</ele><time>2026-05-01T12:11:14.999Z</time></trkpt><trkpt lat="44.95121273610199" lon="7.2732122263602985"><ele>1126.0</ele><time>2026-05-01T12:11:15.999Z</time></trkpt><trkpt lat="44.95116494822022" lon="7.273280215500318"><ele>1126.0</ele><time>2026-05-01T12:11:16.999Z</time></trkpt><trkpt lat="44.95124259104271" lon="7.273439680080041"><ele>1126.8</ele><time>2026-05-01T12:11:17.999Z</time></trkpt><trkpt lat="44.95123252381664" lon="7.2735877912657125"><ele>1127.6</ele><time>2026-05-01T12:11:19.999Z</time></trkpt><trkpt lat="44.95120045042581" lon="7.273697710849651"><ele>1128.4</ele><time>2026-05-01T12:11:21.999Z</time></trkpt><trkpt lat="44.95109423846928" lon="7.273790070979458"><ele>1129.2</ele><time>2026-05-01T12:11:23.999Z</time></trkpt><trkpt lat="44.95102284390076" lon="7.273813504362624"><ele>1130.0</ele><time>2026-05-01T12:11:24.999Z</time></trkpt><trkpt lat="44.95095497662157" lon="7.273822341656848"><ele>1130.0</ele><time>2026-05-01T12:11:25.998Z</time></trkpt><trkpt lat="44.950880508516654" lon="7.273837880120448"><ele>1130.0</ele><time>2026-05-01T12:11:26.998Z</time></trkpt><trkpt lat="44.95070172052224" lon="7.273856848763151"><ele>1130.0</ele><time>2026-05-01T12:11:28.998Z</time></trkpt><trkpt lat="44.950623421868194" lon="7.273862076924564"><ele>1130.0</ele><time>2026-05-01T12:11:29.998Z</time></trkpt><trkpt lat="44.950542435836056" lon="7.273867005225272"><ele>1130.0</ele><time>2026-05-01T12:11:30.998Z</time></trkpt><trkpt lat="44.950461977973795" lon="7.273875642954266"><ele>1129.3333333333335</ele><time>2026-05-01T12:11:31.998Z</time></trkpt><trkpt lat="44.95039440299693" lon="7.273885203234184"><ele>1128.6666666666667</ele><time>2026-05-01T12:11:32.998Z</time></trkpt><trkpt lat="44.950302630241815" lon="7.273916297787891"><ele>1128.0</ele><time>2026-05-01T12:11:33.998Z</time></trkpt><trkpt lat="44.95022409733691" lon="7.273972344291817"><ele>1127.3333333333333</ele><time>2026-05-01T12:11:34.998Z</time></trkpt><trkpt lat="44.95017236314511" lon="7.274060988575535"><ele>1126.6666666666665</ele><time>2026-05-01T12:11:35.998Z</time></trkpt><trkpt lat="44.950127910380616" lon="7.274158978770058"><ele>1126.0</ele><time>2026-05-01T12:11:39.998Z</time></trkpt><trkpt lat="44.950130561497744" lon="7.274319709320044"><ele>1122.8</ele><time>2026-05-01T12:11:41.998Z</time></trkpt><trkpt lat="44.95012616300595" lon="7.274448540859856"><ele>1119.6</ele><time>2026-05-01T12:11:43.998Z</time></trkpt><trkpt lat="44.950122789419176" lon="7.274547353558669"><ele>1116.4</ele><time>2026-05-01T12:11:45.998Z</time></trkpt><trkpt lat="44.95023983035932" lon="7.274619541120701"><ele>1113.2</ele><time>2026-05-01T12:11:51.998Z</time></trkpt><trkpt lat="44.95035150670138" lon="7.274752187757635"><ele>1110.0</ele><time>2026-05-01T12:12:08.998Z</time></trkpt><trkpt lat="44.95040702441936" lon="7.274823576707984"><ele>1108.0000000000002</ele><time>2026-05-01T12:12:09.998Z</time></trkpt><trkpt lat="44.95045963211747" lon="7.274873125598068"><ele>1106.0</ele><time>2026-05-01T12:12:10.998Z</time></trkpt><trkpt lat="44.950470446292314" lon="7.275015477262357"><ele>1104.0</ele><time>2026-05-01T12:12:12.998Z</time></trkpt><trkpt lat="44.95044426800532" lon="7.275105154129497"><ele>1102.0</ele><time>2026-05-01T12:12:13.998Z</time></trkpt><trkpt lat="44.95043436284513" lon="7.275200382885549"><ele>1100.0</ele><time>2026-05-01T12:12:14.997Z</time></trkpt><trkpt lat="44.95043738019894" lon="7.275301306313092"><ele>1098.0000000000002</ele><time>2026-05-01T12:12:15.997Z</time></trkpt><trkpt lat="44.95045537161146" lon="7.275403966164087"><ele>1096.0</ele><time>2026-05-01T12:12:16.997Z</time></trkpt><trkpt lat="44.95050413357143" lon="7.275511475599502"><ele>1094.1666666666665</ele><time>2026-05-01T12:12:17.997Z</time></trkpt><trkpt lat="44.950555518399085" lon="7.27563690485085"><ele>1092.3333333333333</ele><time>2026-05-01T12:12:18.997Z</time></trkpt><trkpt lat="44.950626466767204" lon="7.2757223895853675"><ele>1090.5</ele><time>2026-05-01T12:12:19.997Z</time></trkpt><trkpt lat="44.950715672049924" lon="7.275764966974991"><ele>1088.6666666666667</ele><time>2026-05-01T12:12:20.997Z</time></trkpt><trkpt lat="44.95078751136438" lon="7.275822759408154"><ele>1086.8333333333335</ele><time>2026-05-01T12:12:22Z</time></trkpt><trkpt lat="44.950842195001854" lon="7.275898673818316"><ele>1085.0</ele><time>2026-05-01T12:12:23Z</time></trkpt><trkpt lat="44.950901646303834" lon="7.275987584848493"><ele>1084.7142857142858</ele><time>2026-05-01T12:12:24Z</time></trkpt><trkpt lat="44.95095251191146" lon="7.27607169970855"><ele>1084.4285714285716</ele><time>2026-05-01T12:12:25Z</time></trkpt><trkpt lat="44.95098100561708" lon="7.276153104628201"><ele>1084.142857142857</ele><time>2026-05-01T12:12:26Z</time></trkpt><trkpt lat="44.95098214216366" lon="7.276250998448053"><ele>1083.857142857143</ele><time>2026-05-01T12:12:27Z</time></trkpt><trkpt lat="44.950982751390605" lon="7.276356931094156"><ele>1083.5714285714287</ele><time>2026-05-01T12:12:28Z</time></trkpt><trkpt lat="44.95098638173556" lon="7.276466934577402"><ele>1083.2857142857142</ele><time>2026-05-01T12:12:29Z</time></trkpt><trkpt lat="44.950994696164024" lon="7.2765771825545364"><ele>1083.0</ele><time>2026-05-01T12:12:30Z</time></trkpt><trkpt lat="44.9509996486372" lon="7.2766877668727785"><ele>1081.3333333333333</ele><time>2026-05-01T12:12:31Z</time></trkpt><trkpt lat="44.950993422369145" lon="7.27679431029952"><ele>1079.6666666666667</ele><time>2026-05-01T12:12:32Z</time></trkpt><trkpt lat="44.95097877758081" lon="7.27688700135181"><ele>1078.0</ele><time>2026-05-01T12:12:33Z</time></trkpt><trkpt lat="44.950950472227014" lon="7.276973715877812"><ele>1076.3333333333335</ele><time>2026-05-01T12:12:34Z</time></trkpt><trkpt lat="44.950922377559465" lon="7.27705332533442"><ele>1074.6666666666667</ele><time>2026-05-01T12:12:35Z</time></trkpt><trkpt lat="44.95089087516319" lon="7.277204483993767"><ele>1073.0</ele><time>2026-05-01T12:12:37Z</time></trkpt><trkpt lat="44.9508643057676" lon="7.277360772621637"><ele>1068.6666666666667</ele><time>2026-05-01T12:12:39Z</time></trkpt><trkpt lat="44.95080809151531" lon="7.277446472926496"><ele>1064.3333333333335</ele><time>2026-05-01T12:12:40Z</time></trkpt><trkpt lat="44.95077253990423" lon="7.277540239995397"><ele>1060.0</ele><time>2026-05-01T12:12:40.999Z</time></trkpt><trkpt lat="44.95072694156915" lon="7.277630649563901"><ele>1055.6666666666667</ele><time>2026-05-01T12:12:41.999Z</time></trkpt><trkpt lat="44.95068273306298" lon="7.277727995849458"><ele>1051.3333333333333</ele><time>2026-05-01T12:12:42.999Z</time></trkpt><trkpt lat="44.95062759189525" lon="7.27781239627648"><ele>1047.0</ele><time>2026-05-01T12:12:43.999Z</time></trkpt><trkpt lat="44.950572735524325" lon="7.27787536961318"><ele>1047.0</ele><time>2026-05-01T12:12:44.999Z</time></trkpt><trkpt lat="44.95047705452579" lon="7.277924874637241"><ele>1047.0</ele><time>2026-05-01T12:12:46.999Z</time></trkpt><trkpt lat="44.950366979250674" lon="7.277918430448992"><ele>1047.0</ele><time>2026-05-01T12:12:48.999Z</time></trkpt><trkpt lat="44.95028701791153" lon="7.277945953476011"><ele>1047.0</ele><time>2026-05-01T12:12:49.999Z</time></trkpt><trkpt lat="44.950203510357994" lon="7.277978271024863"><ele>1047.0</ele><time>2026-05-01T12:12:50.999Z</time></trkpt><trkpt lat="44.950129268597244" lon="7.277968251253176"><ele>1047.0</ele><time>2026-05-01T12:12:51.999Z</time></trkpt><trkpt lat="44.95005421434888" lon="7.277979714872475"><ele>1047.0</ele><time>2026-05-01T12:12:52.999Z</time></trkpt><trkpt lat="44.949924410441426" lon="7.2779248166263795"><ele>1047.0</ele><time>2026-05-01T12:12:54.999Z</time></trkpt><trkpt lat="44.94985081809783" lon="7.277897742393779"><ele>1047.0</ele><time>2026-05-01T12:12:55.999Z</time></trkpt><trkpt lat="44.94978220244618" lon="7.277887456340497"><ele>1047.0</ele><time>2026-05-01T12:12:56.999Z</time></trkpt><trkpt lat="44.94969627335572" lon="7.27791776261734"><ele>1047.0</ele><time>2026-05-01T12:12:57.999Z</time></trkpt><trkpt lat="44.949637596741674" lon="7.277977583271707"><ele>1044.2</ele><time>2026-05-01T12:12:58.999Z</time></trkpt><trkpt lat="44.94954063393218" lon="7.278058036372786"><ele>1041.4</ele><time>2026-05-01T12:12:59.999Z</time></trkpt><trkpt lat="44.94942164651736" lon="7.2781146823752385"><ele>1038.6</ele><time>2026-05-01T12:13:00.999Z</time></trkpt><trkpt lat="44.949326326529125" lon="7.278143835330319"><ele>1035.8</ele><time>2026-05-01T12:13:01.999Z</time></trkpt><trkpt lat="44.94923914907559" lon="7.278189427799939"><ele>1033.0</ele><time>2026-05-01T12:13:02.999Z</time></trkpt><trkpt lat="44.949172149828556" lon="7.278236783329238"><ele>1033.0</ele><time>2026-05-01T12:13:03.999Z</time></trkpt><trkpt lat="44.949104410247074" lon="7.278266000165363"><ele>1033.0</ele><time>2026-05-01T12:13:04.999Z</time></trkpt><trkpt lat="44.94900492988486" lon="7.278292384072264"><ele>1033.0</ele><time>2026-05-01T12:13:06.999Z</time></trkpt><trkpt lat="44.94894203298966" lon="7.278326345061022"><ele>1033.0</ele><time>2026-05-01T12:13:11.999Z</time></trkpt><trkpt lat="44.94888940874301" lon="7.278269224322066"><ele>1033.0</ele><time>2026-05-01T12:15:50.998Z</time></trkpt><trkpt lat="44.94883985188135" lon="7.278138059839779"><ele>1033.0</ele><time>2026-05-01T12:15:52.998Z</time></trkpt><trkpt lat="44.948853856327425" lon="7.277995053414431"><ele>1036.8333333333333</ele><time>2026-05-01T12:15:54.998Z</time></trkpt><trkpt lat="44.94886966376144" lon="7.277901974906088"><ele>1040.6666666666665</ele><time>2026-05-01T12:15:56.998Z</time></trkpt><trkpt lat="44.94890100121" lon="7.277805083536269"><ele>1044.5</ele><time>2026-05-01T12:16:00.998Z</time></trkpt><trkpt lat="44.948915002671356" lon="7.277689442196688"><ele>1048.3333333333333</ele><time>2026-05-01T12:16:04.998Z</time></trkpt><trkpt lat="44.948907733834865" lon="7.277568780013044"><ele>1052.1666666666667</ele><time>2026-05-01T12:16:06.998Z</time></trkpt><trkpt lat="44.948924866017904" lon="7.277430279181005"><ele>1056.0</ele><time>2026-05-01T12:16:08.998Z</time></trkpt><trkpt lat="44.94891586277507" lon="7.277324963472514"><ele>1058.6666666666667</ele><time>2026-05-01T12:16:10.998Z</time></trkpt><trkpt lat="44.948885273930294" lon="7.277201920889587"><ele>1061.3333333333333</ele><time>2026-05-01T12:16:12.998Z</time></trkpt><trkpt lat="44.948881969716325" lon="7.277096125460091"><ele>1064.0</ele><time>2026-05-01T12:16:14.998Z</time></trkpt><trkpt lat="44.948909833762364" lon="7.276982960269961"><ele>1066.6666666666665</ele><time>2026-05-01T12:16:16.998Z</time></trkpt><trkpt lat="44.94894623792364" lon="7.276879118189351"><ele>1069.3333333333333</ele><time>2026-05-01T12:16:18.998Z</time></trkpt><trkpt lat="44.94897341584675" lon="7.276761934838204"><ele>1072.0</ele><time>2026-05-01T12:16:20.998Z</time></trkpt><trkpt lat="44.9490343500526" lon="7.276663181390176"><ele>1072.0</ele><time>2026-05-01T12:16:24.998Z</time></trkpt><trkpt lat="44.94907678599531" lon="7.276595706068344"><ele>1072.0</ele><time>2026-05-01T12:16:29.997Z</time></trkpt><trkpt lat="44.94910014216919" lon="7.276507738536628"><ele>1072.0</ele><time>2026-05-01T12:16:32.997Z</time></trkpt><trkpt lat="44.94915158422499" lon="7.276434264007076"><ele>1072.0</ele><time>2026-05-01T12:16:37Z</time></trkpt><trkpt lat="44.94918634343979" lon="7.276343301463026"><ele>1072.0</ele><time>2026-05-01T12:16:40Z</time></trkpt><trkpt lat="44.949240257575184" lon="7.276283768862837"><ele>1072.0</ele><time>2026-05-01T12:16:43Z</time></trkpt><trkpt lat="44.94923926573725" lon="7.276193948092282"><ele>1072.0</ele><time>2026-05-01T12:16:46Z</time></trkpt><trkpt lat="44.949247679548" lon="7.276087917206702"><ele>1076.5</ele><time>2026-05-01T12:16:50Z</time></trkpt><trkpt lat="44.94927763810464" lon="7.27599954041602"><ele>1081.0</ele><time>2026-05-01T12:17:24.999Z</time></trkpt><trkpt lat="44.94926741686682" lon="7.275850505761333"><ele>1085.5</ele><time>2026-05-01T12:17:26.999Z</time></trkpt><trkpt lat="44.94928013270877" lon="7.275758285937771"><ele>1090.0</ele><time>2026-05-01T12:17:27.999Z</time></trkpt><trkpt lat="44.949313543931645" lon="7.275657519497508"><ele>1094.5</ele><time>2026-05-01T12:17:28.999Z</time></trkpt><trkpt lat="44.94934521159775" lon="7.275563841679965"><ele>1099.0</ele><time>2026-05-01T12:17:30.999Z</time></trkpt><trkpt lat="44.9494181096098" lon="7.275487218053175"><ele>1099.1666666666665</ele><time>2026-05-01T12:17:34.999Z</time></trkpt><trkpt lat="44.94947586679887" lon="7.275417020054581"><ele>1099.3333333333333</ele><time>2026-05-01T12:17:36.999Z</time></trkpt><trkpt lat="44.94953009347576" lon="7.2753418990553405"><ele>1099.5</ele><time>2026-05-01T12:17:39.999Z</time></trkpt><trkpt lat="44.94954874900986" lon="7.275240706801489"><ele>1099.6666666666667</ele><time>2026-05-01T12:17:41.998Z</time></trkpt><trkpt lat="44.94958339823194" lon="7.275120497055471"><ele>1099.8333333333335</ele><time>2026-05-01T12:17:44.998Z</time></trkpt><trkpt lat="44.94960153227313" lon="7.275013180646641"><ele>1100.0</ele><time>2026-05-01T12:17:46.998Z</time></trkpt><trkpt lat="44.94959976897368" lon="7.274848480375682"><ele>1100.8333333333335</ele><time>2026-05-01T12:17:48.998Z</time></trkpt><trkpt lat="44.94961593239146" lon="7.274746852720118"><ele>1101.6666666666667</ele><time>2026-05-01T12:17:50.998Z</time></trkpt><trkpt lat="44.949687062048675" lon="7.2746962943966045"><ele>1102.5</ele><time>2026-05-01T12:17:52.998Z</time></trkpt><trkpt lat="44.94975369581703" lon="7.274683396994776"><ele>1103.3333333333333</ele><time>2026-05-01T12:17:54.998Z</time></trkpt><trkpt lat="44.949826817855126" lon="7.274648657511009"><ele>1104.1666666666665</ele><time>2026-05-01T12:17:58.998Z</time></trkpt><trkpt lat="44.9499111580884" lon="7.274664699579664"><ele>1105.0</ele><time>2026-05-01T12:19:04.999Z</time></trkpt><trkpt lat="44.949967730253945" lon="7.274606866622241"><ele>1105.0</ele><time>2026-05-01T12:19:07.999Z</time></trkpt><trkpt lat="44.95001407490946" lon="7.2745347412991155"><ele>1105.0</ele><time>2026-05-01T12:19:10.999Z</time></trkpt><trkpt lat="44.9501099484732" lon="7.274511354072808"><ele>1105.0</ele><time>2026-05-01T12:19:14.999Z</time></trkpt><trkpt lat="44.95008863775904" lon="7.274416736775941"><ele>1105.0</ele><time>2026-05-01T12:19:22.999Z</time></trkpt><trkpt lat="44.95005117035223" lon="7.274501018941364"><ele>1105.0</ele><time>2026-05-01T12:19:26.999Z</time></trkpt><trkpt lat="44.95000779352246" lon="7.274621783704444"><ele>1105.0</ele><time>2026-05-01T12:19:29.999Z</time></trkpt><trkpt lat="44.94995023727498" lon="7.274674723375488"><ele>1105.0</ele><time>2026-05-01T12:19:31.999Z</time></trkpt><trkpt lat="44.949875218090874" lon="7.274742587631686"><ele>1105.0</ele><time>2026-05-01T12:19:34.999Z</time></trkpt><trkpt lat="44.949769533938095" lon="7.274753102832617"><ele>1105.0</ele><time>2026-05-01T12:20:49.999Z</time></trkpt><trkpt lat="44.949709387886365" lon="7.274786301980128"><ele>1105.0</ele><time>2026-05-01T12:20:50.999Z</time></trkpt><trkpt lat="44.94960768516578" lon="7.274883610797678"><ele>1105.0</ele><time>2026-05-01T12:20:52.999Z</time></trkpt><trkpt lat="44.94958533417274" lon="7.274967539556521"><ele>1105.0</ele><time>2026-05-01T12:20:53.999Z</time></trkpt><trkpt lat="44.94960800590605" lon="7.275083195702428"><ele>1104.1666666666665</ele><time>2026-05-01T12:20:54.999Z</time></trkpt><trkpt lat="44.94963602739368" lon="7.275216312311408"><ele>1103.3333333333333</ele><time>2026-05-01T12:20:56.999Z</time></trkpt><trkpt lat="44.94958634385935" lon="7.275276986119837"><ele>1102.5</ele><time>2026-05-01T12:20:57.999Z</time></trkpt><trkpt lat="44.949552601054584" lon="7.275398018940873"><ele>1101.6666666666667</ele><time>2026-05-01T12:20:59.999Z</time></trkpt><trkpt lat="44.94950895895594" lon="7.275482074889248"><ele>1100.8333333333335</ele><time>2026-05-01T12:21:02.999Z</time></trkpt><trkpt lat="44.94945441811858" lon="7.275567791431277"><ele>1100.0</ele><time>2026-05-01T12:21:05.999Z</time></trkpt><trkpt lat="44.949431779050094" lon="7.275674564776883"><ele>1099.8333333333335</ele><time>2026-05-01T12:21:08.999Z</time></trkpt><trkpt lat="44.94938832761761" lon="7.2757990792854415"><ele>1099.6666666666667</ele><time>2026-05-01T12:21:11.999Z</time></trkpt><trkpt lat="44.949381986152055" lon="7.275909938923983"><ele>1099.5</ele><time>2026-05-01T12:21:13.999Z</time></trkpt><trkpt lat="44.94932910876529" lon="7.276005091352632"><ele>1099.3333333333333</ele><time>2026-05-01T12:21:17.999Z</time></trkpt><trkpt lat="44.9492981675991" lon="7.276105574866151"><ele>1099.1666666666665</ele><time>2026-05-01T12:21:19.999Z</time></trkpt><trkpt lat="44.94930819185505" lon="7.276204025254973"><ele>1099.0</ele><time>2026-05-01T12:21:21.999Z</time></trkpt><trkpt lat="44.94928969448634" lon="7.276298348907263"><ele>1099.0</ele><time>2026-05-01T12:21:23.999Z</time></trkpt><trkpt lat="44.949237981882334" lon="7.276362037393288"><ele>1099.0</ele><time>2026-05-01T12:21:25.999Z</time></trkpt><trkpt lat="44.949187365608665" lon="7.276427374999691"><ele>1099.0</ele><time>2026-05-01T12:21:27.999Z</time></trkpt><trkpt lat="44.94914331819483" lon="7.276526765446266"><ele>1099.0</ele><time>2026-05-01T12:21:29.999Z</time></trkpt><trkpt lat="44.94913060981192" lon="7.276650419961743"><ele>1099.0</ele><time>2026-05-01T12:21:31.999Z</time></trkpt><trkpt lat="44.94906561720717" lon="7.276701117084185"><ele>1099.0</ele><time>2026-05-01T12:21:34.999Z</time></trkpt><trkpt lat="44.949009945903136" lon="7.276797968708864"><ele>1094.5</ele><time>2026-05-01T12:21:36.999Z</time></trkpt><trkpt lat="44.948961402789905" lon="7.276874267357643"><ele>1090.0</ele><time>2026-05-01T12:21:38.999Z</time></trkpt><trkpt lat="44.9489293187798" lon="7.277019237860247"><ele>1085.5</ele><time>2026-05-01T12:21:40.999Z</time></trkpt><trkpt lat="44.94890520233212" lon="7.27710191762614"><ele>1081.0</ele><time>2026-05-01T12:21:41.999Z</time></trkpt><trkpt lat="44.94892635932381" lon="7.277287180780401"><ele>1076.5</ele><time>2026-05-01T12:21:43.999Z</time></trkpt><trkpt lat="44.94894870567515" lon="7.277378644015089"><ele>1072.0</ele><time>2026-05-01T12:21:44.999Z</time></trkpt><trkpt lat="44.948973949069696" lon="7.277513345026439"><ele>1069.3333333333333</ele><time>2026-05-01T12:21:45.999Z</time></trkpt><trkpt lat="44.94897322289415" lon="7.277609870046294"><ele>1066.6666666666665</ele><time>2026-05-01T12:21:46.999Z</time></trkpt><trkpt lat="44.94893096661224" lon="7.277691983224434"><ele>1064.0</ele><time>2026-05-01T12:21:48.998Z</time></trkpt><trkpt lat="44.948919654898994" lon="7.277824001269097"><ele>1061.3333333333333</ele><time>2026-05-01T12:21:50.998Z</time></trkpt><trkpt lat="44.948948718904674" lon="7.277916310195438"><ele>1058.6666666666667</ele><time>2026-05-01T12:21:52.998Z</time></trkpt><trkpt lat="44.9489092740151" lon="7.27804327450699"><ele>1056.0</ele><time>2026-05-01T12:21:54.998Z</time></trkpt><trkpt lat="44.94891951581176" lon="7.27816020658672"><ele>1056.0</ele><time>2026-05-01T12:21:56.998Z</time></trkpt><trkpt lat="44.94892697314149" lon="7.2782947693015645"><ele>1056.0</ele><time>2026-05-01T12:21:58.999Z</time></trkpt><trkpt lat="44.94885545802096" lon="7.2782592452877966"><ele>1056.0</ele><time>2026-05-01T12:22:01.999Z</time></trkpt><trkpt lat="44.94878351858954" lon="7.278243471653484"><ele>1056.0</ele><time>2026-05-01T12:22:27.999Z</time></trkpt><trkpt lat="44.948740015414934" lon="7.278167310169706"><ele>1056.0</ele><time>2026-05-01T12:22:28.999Z</time></trkpt><trkpt lat="44.94870476481588" lon="7.278072119183796"><ele>1056.0</ele><time>2026-05-01T12:22:29.999Z</time></trkpt><trkpt lat="44.94868158321226" lon="7.277988865877165"><ele>1056.0</ele><time>2026-05-01T12:22:30.999Z</time></trkpt><trkpt lat="44.94862352471619" lon="7.2778294504582846"><ele>1056.0</ele><time>2026-05-01T12:22:32.999Z</time></trkpt><trkpt lat="44.948592273693244" lon="7.277730102643526"><ele>1056.0</ele><time>2026-05-01T12:22:33.999Z</time></trkpt><trkpt lat="44.948544308592844" lon="7.277636123575456"><ele>1056.0</ele><time>2026-05-01T12:22:34.999Z</time></trkpt><trkpt lat="44.94848919061697" lon="7.277558426936678"><ele>1056.0</ele><time>2026-05-01T12:22:35.999Z</time></trkpt><trkpt lat="44.94842155815987" lon="7.277519995243963"><ele>1056.0</ele><time>2026-05-01T12:22:36.999Z</time></trkpt><trkpt lat="44.94836638708786" lon="7.27746229822097"><ele>1054.4285714285713</ele><time>2026-05-01T12:22:37.998Z</time></trkpt><trkpt lat="44.94830852575226" lon="7.277380665978794"><ele>1052.857142857143</ele><time>2026-05-01T12:22:38.998Z</time></trkpt><trkpt lat="44.948253078121546" lon="7.27731142852307"><ele>1051.2857142857142</ele><time>2026-05-01T12:22:39.998Z</time></trkpt><trkpt lat="44.94820467571813" lon="7.277242569671033"><ele>1049.7142857142858</ele><time>2026-05-01T12:22:40.998Z</time></trkpt><trkpt lat="44.948164288148476" lon="7.27716634824191"><ele>1048.142857142857</ele><time>2026-05-01T12:22:41.998Z</time></trkpt><trkpt lat="44.94812955754177" lon="7.277075196286805"><ele>1046.5714285714284</ele><time>2026-05-01T12:22:42.998Z</time></trkpt><trkpt lat="44.94809493353695" lon="7.276982401877548"><ele>1045.0</ele><time>2026-05-01T12:22:43.998Z</time></trkpt><trkpt lat="44.948007500451766" lon="7.2768455696903755"><ele>1045.0</ele><time>2026-05-01T12:22:45.998Z</time></trkpt><trkpt lat="44.94795433817062" lon="7.276767266100215"><ele>1045.0</ele><time>2026-05-01T12:22:46.998Z</time></trkpt><trkpt lat="44.94785733478771" lon="7.276790232684163"><ele>1045.0</ele><time>2026-05-01T12:22:48.998Z</time></trkpt><trkpt lat="44.94779033650324" lon="7.276819366664657"><ele>1045.0</ele><time>2026-05-01T12:22:49.998Z</time></trkpt><trkpt lat="44.9476467622324" lon="7.276951003470477"><ele>1045.0</ele><time>2026-05-01T12:22:52Z</time></trkpt><trkpt lat="44.947553791173085" lon="7.2770193164252355"><ele>1043.1666666666665</ele><time>2026-05-01T12:22:53Z</time></trkpt><trkpt lat="44.94747606558411" lon="7.277050505736744"><ele>1041.3333333333333</ele><time>2026-05-01T12:22:54Z</time></trkpt><trkpt lat="44.947443375155146" lon="7.277165175368373"><ele>1039.5</ele><time>2026-05-01T12:22:56Z</time></trkpt><trkpt lat="44.94734823809105" lon="7.277251109737109"><ele>1037.6666666666667</ele><time>2026-05-01T12:22:58Z</time></trkpt><trkpt lat="44.947325485351044" lon="7.27736565772781"><ele>1035.8333333333335</ele><time>2026-05-01T12:23:00Z</time></trkpt><trkpt lat="44.94735738265593" lon="7.277472757321046"><ele>1034.0</ele><time>2026-05-01T12:23:02Z</time></trkpt><trkpt lat="44.94735664356721" lon="7.277592520307165"><ele>1030.2</ele><time>2026-05-01T12:23:04Z</time></trkpt><trkpt lat="44.947341175477135" lon="7.277726128442703"><ele>1026.4</ele><time>2026-05-01T12:23:06Z</time></trkpt><trkpt lat="44.94731835614625" lon="7.277845675308571"><ele>1022.6</ele><time>2026-05-01T12:23:08Z</time></trkpt><trkpt lat="44.947301947371265" lon="7.278055928407041"><ele>1018.8</ele><time>2026-05-01T12:23:09Z</time></trkpt><trkpt lat="44.947283941971484" lon="7.2781413112127415"><ele>1015.0</ele><time>2026-05-01T12:23:10Z</time></trkpt><trkpt lat="44.947236974752094" lon="7.278297731834012"><ele>1012.6666666666666</ele><time>2026-05-01T12:23:12Z</time></trkpt><trkpt lat="44.947216032369056" lon="7.278383156046361"><ele>1010.3333333333333</ele><time>2026-05-01T12:23:13Z</time></trkpt><trkpt lat="44.94719306453587" lon="7.2784921233232645"><ele>1008.0</ele><time>2026-05-01T12:23:14Z</time></trkpt><trkpt lat="44.94716570564338" lon="7.278596434380926"><ele>1005.6666666666667</ele><time>2026-05-01T12:23:15Z</time></trkpt><trkpt lat="44.947136080707324" lon="7.278695790745829"><ele>1003.3333333333334</ele><time>2026-05-01T12:23:16Z</time></trkpt><trkpt lat="44.9471156791353" lon="7.278797939155268"><ele>1001.0</ele><time>2026-05-01T12:23:17Z</time></trkpt><trkpt lat="44.947095481325775" lon="7.27890640060032"><ele>998.5000000000001</ele><time>2026-05-01T12:23:18Z</time></trkpt><trkpt lat="44.94707731254803" lon="7.279009071057051"><ele>996.0</ele><time>2026-05-01T12:23:19Z</time></trkpt><trkpt lat="44.947047776165675" lon="7.279125733057502"><ele>993.5</ele><time>2026-05-01T12:23:20Z</time></trkpt><trkpt lat="44.94702627600346" lon="7.2792439691562345"><ele>991.0</ele><time>2026-05-01T12:23:21Z</time></trkpt><trkpt lat="44.947019246922714" lon="7.279362550013347"><ele>988.5000000000001</ele><time>2026-05-01T12:23:22Z</time></trkpt><trkpt lat="44.94701493972669" lon="7.27946834720131"><ele>986.0</ele><time>2026-05-01T12:23:23Z</time></trkpt><trkpt lat="44.94701514544193" lon="7.279579974703743"><ele>986.0000000000001</ele><time>2026-05-01T12:23:24Z</time></trkpt><trkpt lat="44.94703032529908" lon="7.2796889991791645"><ele>986.0</ele><time>2026-05-01T12:23:25Z</time></trkpt><trkpt lat="44.94704425527954" lon="7.27979851477225"><ele>986.0</ele><time>2026-05-01T12:23:26Z</time></trkpt><trkpt lat="44.94705005572648" lon="7.279933962629023"><ele>986.0</ele><time>2026-05-01T12:23:27Z</time></trkpt><trkpt lat="44.94700101454598" lon="7.280051336492684"><ele>986.0000000000001</ele><time>2026-05-01T12:23:28Z</time></trkpt><trkpt lat="44.94696818423473" lon="7.280177111306489"><ele>986.0</ele><time>2026-05-01T12:23:29Z</time></trkpt><trkpt lat="44.94689178599131" lon="7.28030725925558"><ele>984.0</ele><time>2026-05-01T12:23:30Z</time></trkpt><trkpt lat="44.946867310617456" lon="7.280432669396782"><ele>981.9999999999999</ele><time>2026-05-01T12:23:31Z</time></trkpt><trkpt lat="44.94690750307135" lon="7.2805331691603925"><ele>979.9999999999999</ele><time>2026-05-01T12:23:32Z</time></trkpt><trkpt lat="44.946968603829376" lon="7.280662791836166"><ele>978.0</ele><time>2026-05-01T12:23:33Z</time></trkpt><trkpt lat="44.94700018979384" lon="7.280790661555882"><ele>976.0</ele><time>2026-05-01T12:23:34Z</time></trkpt><trkpt lat="44.94695576507252" lon="7.280949153335228"><ele>975.9999999999999</ele><time>2026-05-01T12:23:36Z</time></trkpt><trkpt lat="44.946894228938035" lon="7.281042342728098"><ele>976.0</ele><time>2026-05-01T12:23:37Z</time></trkpt><trkpt lat="44.94685119120345" lon="7.281148140800429"><ele>976.0</ele><time>2026-05-01T12:23:38Z</time></trkpt><trkpt lat="44.946826641691544" lon="7.281252814526649"><ele>976.0</ele><time>2026-05-01T12:23:39Z</time></trkpt><trkpt lat="44.946813574247244" lon="7.281359745267307"><ele>975.9999999999999</ele><time>2026-05-01T12:23:40Z</time></trkpt><trkpt lat="44.94679146293985" lon="7.281464476049484"><ele>976.0</ele><time>2026-05-01T12:23:41Z</time></trkpt><trkpt lat="44.946744958081474" lon="7.281569938777157"><ele>978.0</ele><time>2026-05-01T12:23:42Z</time></trkpt><trkpt lat="44.94668899490422" lon="7.281670612552153"><ele>979.9999999999999</ele><time>2026-05-01T12:23:43Z</time></trkpt><trkpt lat="44.94666323805718" lon="7.281758636713797"><ele>981.9999999999999</ele><time>2026-05-01T12:23:44Z</time></trkpt><trkpt lat="44.946650486125336" lon="7.281942758236697"><ele>984.0</ele><time>2026-05-01T12:23:46Z</time></trkpt><trkpt lat="44.94666219371037" lon="7.282072549098731"><ele>986.0</ele><time>2026-05-01T12:23:47Z</time></trkpt><trkpt lat="44.94668872182289" lon="7.2822087998352805"><ele>981.4</ele><time>2026-05-01T12:23:48Z</time></trkpt><trkpt lat="44.94672740960087" lon="7.282345678548054"><ele>976.8</ele><time>2026-05-01T12:23:49Z</time></trkpt><trkpt lat="44.94676941030964" lon="7.282472104695871"><ele>972.1999999999999</ele><time>2026-05-01T12:23:50Z</time></trkpt><trkpt lat="44.94680678076631" lon="7.282578964922215"><ele>967.5999999999999</ele><time>2026-05-01T12:23:51Z</time></trkpt><trkpt lat="44.946853008958044" lon="7.2826948013794395"><ele>963.0</ele><time>2026-05-01T12:23:52Z</time></trkpt><trkpt lat="44.94689367020954" lon="7.2828046820160255"><ele>963.0</ele><time>2026-05-01T12:23:53Z</time></trkpt><trkpt lat="44.94694639672433" lon="7.2828673097625245"><ele>963.0</ele><time>2026-05-01T12:23:54Z</time></trkpt><trkpt lat="44.94701604250781" lon="7.28290971717719"><ele>963.0</ele><time>2026-05-01T12:23:54.999Z</time></trkpt><trkpt lat="44.947092567499446" lon="7.283035344530742"><ele>963.0</ele><time>2026-05-01T12:23:56.999Z</time></trkpt><trkpt lat="44.947075779236876" lon="7.28312701494842"><ele>963.0</ele><time>2026-05-01T12:23:58.999Z</time></trkpt><trkpt lat="44.94699502643606" lon="7.2832494672386545"><ele>963.0</ele><time>2026-05-01T12:24:00.999Z</time></trkpt><trkpt lat="44.946903400797446" lon="7.283296937212017"><ele>956.0</ele><time>2026-05-01T12:24:02.999Z</time></trkpt><trkpt lat="44.94692073450822" lon="7.283406006706854"><ele>949.0</ele><time>2026-05-01T12:24:05.999Z</time></trkpt><trkpt lat="44.94698650803654" lon="7.283809487713924"><ele>942.0</ele><time>2026-05-01T12:24:09.999Z</time></trkpt><trkpt lat="44.94699702612733" lon="7.283908033891603"><ele>935.0</ele><time>2026-05-01T12:24:10.999Z</time></trkpt><trkpt lat="44.94699679534427" lon="7.284021194863338"><ele>932.0000000000001</ele><time>2026-05-01T12:24:12.999Z</time></trkpt><trkpt lat="44.946956436252485" lon="7.284095877595675"><ele>929.0</ele><time>2026-05-01T12:24:38.999Z</time></trkpt><trkpt lat="44.94692354657644" lon="7.284174923265421"><ele>926.0</ele><time>2026-05-01T12:24:40.999Z</time></trkpt><trkpt lat="44.946903758735765" lon="7.284332256636018"><ele>923.0</ele><time>2026-05-01T12:24:42.999Z</time></trkpt><trkpt lat="44.94687854105795" lon="7.2844354052962"><ele>920.0000000000001</ele><time>2026-05-01T12:24:43.999Z</time></trkpt><trkpt lat="44.94680045904084" lon="7.284512198837671"><ele>917.0</ele><time>2026-05-01T12:24:44.998Z</time></trkpt><trkpt lat="44.94676353564251" lon="7.284626112719998"><ele>917.0000000000001</ele><time>2026-05-01T12:24:45.998Z</time></trkpt><trkpt lat="44.946718813737085" lon="7.2847461362170725"><ele>917.0</ele><time>2026-05-01T12:24:46.998Z</time></trkpt><trkpt lat="44.946661828584176" lon="7.284870937410284"><ele>917.0</ele><time>2026-05-01T12:24:47.998Z</time></trkpt><trkpt lat="44.94660696405623" lon="7.2849719948369"><ele>917.0</ele><time>2026-05-01T12:24:48.998Z</time></trkpt><trkpt lat="44.94656434113829" lon="7.2850562950015725"><ele>917.0000000000001</ele><time>2026-05-01T12:24:49.998Z</time></trkpt><trkpt lat="44.94652497245169" lon="7.285148665560783"><ele>917.0</ele><time>2026-05-01T12:24:50.998Z</time></trkpt><trkpt lat="44.946489004311566" lon="7.285239284012973"><ele>916.5000000000001</ele><time>2026-05-01T12:24:51.998Z</time></trkpt><trkpt lat="44.94644831306735" lon="7.285342495365242"><ele>916.0</ele><time>2026-05-01T12:24:52.998Z</time></trkpt><trkpt lat="44.946403462871935" lon="7.285458599072539"><ele>915.5</ele><time>2026-05-01T12:24:53.998Z</time></trkpt><trkpt lat="44.94636330573264" lon="7.285541175563073"><ele>915.0</ele><time>2026-05-01T12:24:54.998Z</time></trkpt><trkpt lat="44.946316978740626" lon="7.285605033739536"><ele>914.5000000000001</ele><time>2026-05-01T12:24:55.998Z</time></trkpt><trkpt lat="44.946255901470785" lon="7.285682367049673"><ele>914.0</ele><time>2026-05-01T12:24:56.998Z</time></trkpt><trkpt lat="44.94618621458233" lon="7.285764746023832"><ele>911.0000000000001</ele><time>2026-05-01T12:24:58Z</time></trkpt><trkpt lat="44.94613306404669" lon="7.285836370958594"><ele>908.0</ele><time>2026-05-01T12:24:59Z</time></trkpt><trkpt lat="44.94608872557084" lon="7.285923435132329"><ele>905.0</ele><time>2026-05-01T12:25:00Z</time></trkpt><trkpt lat="44.9460558248601" lon="7.286036387366453"><ele>902.0</ele><time>2026-05-01T12:25:01Z</time></trkpt><trkpt lat="44.9460243296414" lon="7.28615382339905"><ele>899.0000000000001</ele><time>2026-05-01T12:25:02Z</time></trkpt><trkpt lat="44.94599413902315" lon="7.286260723250088"><ele>896.0</ele><time>2026-05-01T12:25:03Z</time></trkpt><trkpt lat="44.945962504589716" lon="7.28636093284397"><ele>896.0000000000001</ele><time>2026-05-01T12:25:04Z</time></trkpt><trkpt lat="44.945892966880386" lon="7.286415949754994"><ele>896.0</ele><time>2026-05-01T12:25:05Z</time></trkpt><trkpt lat="44.945856312326804" lon="7.28649761940457"><ele>896.0</ele><time>2026-05-01T12:25:06Z</time></trkpt><trkpt lat="44.94585989644803" lon="7.28662799996148"><ele>896.0</ele><time>2026-05-01T12:25:07Z</time></trkpt><trkpt lat="44.945929479782045" lon="7.286742492767685"><ele>896.0000000000001</ele><time>2026-05-01T12:25:08Z</time></trkpt><trkpt lat="44.94600559407811" lon="7.286804963580628"><ele>896.0</ele><time>2026-05-01T12:25:09Z</time></trkpt><trkpt lat="44.94608699376433" lon="7.286803943014775"><ele>896.0</ele><time>2026-05-01T12:25:11Z</time></trkpt><trkpt lat="44.946147903114195" lon="7.2867290013308805"><ele>895.9999999999999</ele><time>2026-05-01T12:25:13Z</time></trkpt><trkpt lat="44.946294883475844" lon="7.286556016977919"><ele>895.9999999999999</ele><time>2026-05-01T12:25:17Z</time></trkpt><trkpt lat="44.946350564800056" lon="7.286472361793105"><ele>896.0</ele><time>2026-05-01T12:25:18Z</time></trkpt><trkpt lat="44.94641690063637" lon="7.286384159619314"><ele>896.0</ele><time>2026-05-01T12:25:19Z</time></trkpt><trkpt lat="44.946478114078275" lon="7.286316876002371"><ele>896.0</ele><time>2026-05-01T12:25:20Z</time></trkpt><trkpt lat="44.946544130167965" lon="7.286242956871964"><ele>895.9999999999999</ele><time>2026-05-01T12:25:21Z</time></trkpt><trkpt lat="44.94663192836373" lon="7.286187614717039"><ele>895.9999999999999</ele><time>2026-05-01T12:25:22Z</time></trkpt><trkpt lat="44.94670389602704" lon="7.286102756369843"><ele>896.0</ele><time>2026-05-01T12:25:23Z</time></trkpt><trkpt lat="44.946787689417285" lon="7.286049399982053"><ele>896.0</ele><time>2026-05-01T12:25:24Z</time></trkpt><trkpt lat="44.94687676915159" lon="7.286018620776253"><ele>892.6666666666667</ele><time>2026-05-01T12:25:25Z</time></trkpt><trkpt lat="44.94695399646564" lon="7.286010828794232"><ele>889.3333333333334</ele><time>2026-05-01T12:25:26Z</time></trkpt><trkpt lat="44.94702633025661" lon="7.286028402879764"><ele>886.0</ele><time>2026-05-01T12:25:27Z</time></trkpt><trkpt lat="44.94709323606367" lon="7.286084711156574"><ele>882.6666666666667</ele><time>2026-05-01T12:25:28Z</time></trkpt><trkpt lat="44.94714513803567" lon="7.2861783980016455"><ele>879.3333333333334</ele><time>2026-05-01T12:25:29Z</time></trkpt><trkpt lat="44.947200328999905" lon="7.28626152302875"><ele>876.0</ele><time>2026-05-01T12:25:30Z</time></trkpt><trkpt lat="44.94724670869679" lon="7.2863702491405835"><ele>871.4</ele><time>2026-05-01T12:25:31Z</time></trkpt><trkpt lat="44.947301153201195" lon="7.286484392710519"><ele>866.8</ele><time>2026-05-01T12:25:32Z</time></trkpt><trkpt lat="44.94736026276719" lon="7.286591963864825"><ele>862.1999999999999</ele><time>2026-05-01T12:25:33Z</time></trkpt><trkpt lat="44.947416606473176" lon="7.286690088649438"><ele>857.5999999999999</ele><time>2026-05-01T12:25:34Z</time></trkpt><trkpt lat="44.94741025417227" lon="7.286881388045283"><ele>853.0</ele><time>2026-05-01T12:25:35Z</time></trkpt><trkpt lat="44.947460979593124" lon="7.286971149696926"><ele>853.0</ele><time>2026-05-01T12:25:36Z</time></trkpt><trkpt lat="44.947542523474894" lon="7.287016805877401"><ele>853.0</ele><time>2026-05-01T12:25:38Z</time></trkpt><trkpt lat="44.94766959053275" lon="7.287006287749902"><ele>853.0</ele><time>2026-05-01T12:25:40Z</time></trkpt><trkpt lat="44.94774454248295" lon="7.286945082311413"><ele>853.0</ele><time>2026-05-01T12:25:41Z</time></trkpt><trkpt lat="44.94765824129834" lon="7.287239528065101"><ele>844.0</ele><time>2026-05-01T12:25:42Z</time></trkpt><trkpt lat="44.947664079485335" lon="7.287360380690589"><ele>835.0</ele><time>2026-05-01T12:25:43Z</time></trkpt><trkpt lat="44.947681974015886" lon="7.287500520334428"><ele>826.0</ele><time>2026-05-01T12:25:44Z</time></trkpt><trkpt lat="44.94770845680802" lon="7.287632010262563"><ele>817.0</ele><time>2026-05-01T12:25:45Z</time></trkpt><trkpt lat="44.94773197746606" lon="7.287765503707102"><ele>808.0</ele><time>2026-05-01T12:25:46Z</time></trkpt><trkpt lat="44.94773856299084" lon="7.287895928094325"><ele>808.0</ele><time>2026-05-01T12:25:47Z</time></trkpt><trkpt lat="44.9477324628778" lon="7.288017840603001"><ele>808.0</ele><time>2026-05-01T12:25:48Z</time></trkpt><trkpt lat="44.94772495116417" lon="7.28813557264041"><ele>808.0</ele><time>2026-05-01T12:25:49Z</time></trkpt><trkpt lat="44.94772434738523" lon="7.288271729738497"><ele>808.0</ele><time>2026-05-01T12:25:50Z</time></trkpt><trkpt lat="44.94772675949117" lon="7.288409496969223"><ele>808.0</ele><time>2026-05-01T12:25:51Z</time></trkpt><trkpt lat="44.94772412389147" lon="7.2885417071860745"><ele>806.1666666666666</ele><time>2026-05-01T12:25:52Z</time></trkpt><trkpt lat="44.94770090851417" lon="7.2886490905206776"><ele>804.3333333333333</ele><time>2026-05-01T12:25:53Z</time></trkpt><trkpt lat="44.947655061868026" lon="7.28873765265939"><ele>802.5</ele><time>2026-05-01T12:25:54Z</time></trkpt><trkpt lat="44.947595361094216" lon="7.288780215859223"><ele>800.6666666666667</ele><time>2026-05-01T12:25:55Z</time></trkpt><trkpt lat="44.94750898441741" lon="7.288786855853063"><ele>798.8333333333334</ele><time>2026-05-01T12:25:57Z</time></trkpt><trkpt lat="44.94751809629258" lon="7.288893803644162"><ele>797.0</ele><time>2026-05-01T12:25:58.999Z</time></trkpt><trkpt lat="44.947613547465146" lon="7.2888905826043215"><ele>797.0000000000001</ele><time>2026-05-01T12:26:00.999Z</time></trkpt><trkpt lat="44.94768373202312" lon="7.288900339633153"><ele>797.0</ele><time>2026-05-01T12:26:02.999Z</time></trkpt><trkpt lat="44.947621405661714" lon="7.289006728367978"><ele>797.0</ele><time>2026-05-01T12:26:05.999Z</time></trkpt><trkpt lat="44.94753303532883" lon="7.28900895855438"><ele>797.0</ele><time>2026-05-01T12:26:18.999Z</time></trkpt><trkpt lat="44.947467914680615" lon="7.288996429248767"><ele>797.0000000000001</ele><time>2026-05-01T12:26:20.999Z</time></trkpt><trkpt lat="44.94754676128381" lon="7.28902649176851"><ele>797.0</ele><time>2026-05-01T12:26:27.999Z</time></trkpt><trkpt lat="44.947645717684786" lon="7.288969873264836"><ele>797.0000000000001</ele><time>2026-05-01T12:26:30.999Z</time></trkpt><trkpt lat="44.9476550713082" lon="7.288854786512415"><ele>797.0</ele><time>2026-05-01T12:26:32.999Z</time></trkpt><trkpt lat="44.9475342944409" lon="7.288849317662039"><ele>797.0</ele><time>2026-05-01T12:26:34.999Z</time></trkpt><trkpt lat="44.947469600989166" lon="7.288823712186789"><ele>797.0</ele><time>2026-05-01T12:26:36.999Z</time></trkpt><trkpt lat="44.94751887961387" lon="7.288745534417536"><ele>797.0000000000001</ele><time>2026-05-01T12:26:57.998Z</time></trkpt><trkpt lat="44.94745168797526" lon="7.288710569237881"><ele>797.0</ele><time>2026-05-01T12:27:04Z</time></trkpt><trkpt lat="44.94749117818596" lon="7.288798188128183"><ele>797.0</ele><time>2026-05-01T12:28:03Z</time></trkpt><trkpt lat="44.947430551750685" lon="7.288766237621573"><ele>797.0</ele><time>2026-05-01T12:42:03Z</time></trkpt><trkpt lat="44.9474989881366" lon="7.288831448603307"><ele>797.0</ele><time>2026-05-01T12:42:38.999Z</time></trkpt><trkpt lat="44.94755575487969" lon="7.288872091246953"><ele>797.0</ele><time>2026-05-01T12:42:40.999Z</time></trkpt><trkpt lat="44.94762265049986" lon="7.288893674395034"><ele>797.0</ele><time>2026-05-01T12:42:42.999Z</time></trkpt><trkpt lat="44.94766369691921" lon="7.288967968364306"><ele>797.0</ele><time>2026-05-01T12:42:47.999Z</time></trkpt><trkpt lat="44.9475933863391" lon="7.289027529986414"><ele>797.0</ele><time>2026-05-01T12:42:51.999Z</time></trkpt><trkpt lat="44.94750772708277" lon="7.289046620560797"><ele>797.8</ele><time>2026-05-01T12:42:53.999Z</time></trkpt><trkpt lat="44.94744170639405" lon="7.289137221552953"><ele>798.6</ele><time>2026-05-01T12:42:55.999Z</time></trkpt><trkpt lat="44.94746800987212" lon="7.2892678705235765"><ele>799.4</ele><time>2026-05-01T12:42:57.999Z</time></trkpt><trkpt lat="44.94746852838845" lon="7.289428289629976"><ele>800.1999999999999</ele><time>2026-05-01T12:42:59.999Z</time></trkpt><trkpt lat="44.94748784974278" lon="7.2895203844870355"><ele>801.0</ele><time>2026-05-01T12:43:00.999Z</time></trkpt><trkpt lat="44.94757073813025" lon="7.289626759056271"><ele>798.1666666666666</ele><time>2026-05-01T12:43:02.999Z</time></trkpt><trkpt lat="44.94763614629689" lon="7.289588233462849"><ele>795.3333333333333</ele><time>2026-05-01T12:43:03.999Z</time></trkpt><trkpt lat="44.947708776733705" lon="7.289497739345253"><ele>792.5</ele><time>2026-05-01T12:43:04.999Z</time></trkpt><trkpt lat="44.947749639826114" lon="7.289429399157087"><ele>789.6666666666666</ele><time>2026-05-01T12:43:05.999Z</time></trkpt><trkpt lat="44.9478077001625" lon="7.289346587924824"><ele>786.8333333333333</ele><time>2026-05-01T12:43:06.999Z</time></trkpt><trkpt lat="44.9478665090191" lon="7.2892591703848035"><ele>784.0</ele><time>2026-05-01T12:43:07.999Z</time></trkpt><trkpt lat="44.94792501732185" lon="7.289167431138125"><ele>783.9999999999999</ele><time>2026-05-01T12:43:08.999Z</time></trkpt><trkpt lat="44.947988057214076" lon="7.289072118999958"><ele>784.0</ele><time>2026-05-01T12:43:09.999Z</time></trkpt><trkpt lat="44.9480490692022" lon="7.289002659346217"><ele>784.0</ele><time>2026-05-01T12:43:10.999Z</time></trkpt><trkpt lat="44.94810958159063" lon="7.288949022729856"><ele>784.0</ele><time>2026-05-01T12:43:11.999Z</time></trkpt><trkpt lat="44.948180435540564" lon="7.288889192782255"><ele>783.9999999999999</ele><time>2026-05-01T12:43:12.999Z</time></trkpt><trkpt lat="44.94825689531957" lon="7.2887995162732535"><ele>784.0</ele><time>2026-05-01T12:43:14.999Z</time></trkpt><trkpt lat="44.94832234705879" lon="7.2888466285689"><ele>783.9999999999999</ele><time>2026-05-01T12:43:17.999Z</time></trkpt><trkpt lat="44.948346184803654" lon="7.288952936294434"><ele>784.0</ele><time>2026-05-01T12:43:18.998Z</time></trkpt><trkpt lat="44.94837474293756" lon="7.289049489894068"><ele>784.0</ele><time>2026-05-01T12:43:19.998Z</time></trkpt><trkpt lat="44.94837967436792" lon="7.289159015828716"><ele>784.0</ele><time>2026-05-01T12:43:20.998Z</time></trkpt><trkpt lat="44.94835819168005" lon="7.289268180257621"><ele>783.9999999999999</ele><time>2026-05-01T12:43:21.998Z</time></trkpt><trkpt lat="44.94833701179609" lon="7.289369517648273"><ele>784.0</ele><time>2026-05-01T12:43:22.998Z</time></trkpt><trkpt lat="44.94834329820354" lon="7.289461435465321"><ele>783.8333333333333</ele><time>2026-05-01T12:43:23.998Z</time></trkpt><trkpt lat="44.948382754338716" lon="7.289543463180003"><ele>783.6666666666666</ele><time>2026-05-01T12:43:24.998Z</time></trkpt><trkpt lat="44.948441059567514" lon="7.289590967335818"><ele>783.5</ele><time>2026-05-01T12:43:25.998Z</time></trkpt><trkpt lat="44.948533723352874" lon="7.289613236191509"><ele>783.3333333333333</ele><time>2026-05-01T12:43:26.998Z</time></trkpt><trkpt lat="44.94860973969991" lon="7.289620742070802"><ele>783.1666666666666</ele><time>2026-05-01T12:43:27.998Z</time></trkpt><trkpt lat="44.94863255616991" lon="7.2897521571227255"><ele>783.0</ele><time>2026-05-01T12:43:29.998Z</time></trkpt><trkpt lat="44.948548717897715" lon="7.289849120642435"><ele>783.0</ele><time>2026-05-01T12:43:31.998Z</time></trkpt><trkpt lat="44.9484754894102" lon="7.289907181887576"><ele>783.0</ele><time>2026-05-01T12:43:33.998Z</time></trkpt><trkpt lat="44.94842384162599" lon="7.29000194121942"><ele>783.0</ele><time>2026-05-01T12:43:35.998Z</time></trkpt><trkpt lat="44.94840643500589" lon="7.2901502501643165"><ele>783.0</ele><time>2026-05-01T12:43:37.998Z</time></trkpt><trkpt lat="44.94843780204464" lon="7.290227669960494"><ele>783.0</ele><time>2026-05-01T12:43:38.998Z</time></trkpt><trkpt lat="44.94851529553192" lon="7.290356230164425"><ele>783.0</ele><time>2026-05-01T12:43:40.998Z</time></trkpt><trkpt lat="44.94855079118222" lon="7.29043086854322"><ele>783.0</ele><time>2026-05-01T12:43:41.998Z</time></trkpt><trkpt lat="44.94859038271408" lon="7.290523745695453"><ele>783.0</ele><time>2026-05-01T12:43:43.998Z</time></trkpt><trkpt lat="44.94854061399888" lon="7.290645463129062"><ele>783.0</ele><time>2026-05-01T12:43:45.998Z</time></trkpt><trkpt lat="44.948487423542616" lon="7.290703201670938"><ele>783.0</ele><time>2026-05-01T12:43:46.998Z</time></trkpt><trkpt lat="44.9484166666241" lon="7.290804501768837"><ele>783.0</ele><time>2026-05-01T12:43:48.998Z</time></trkpt><trkpt lat="44.94836084747909" lon="7.290928466634657"><ele>782.0</ele><time>2026-05-01T12:43:51Z</time></trkpt><trkpt lat="44.94829984789921" lon="7.291059064077787"><ele>781.0</ele><time>2026-05-01T12:43:53Z</time></trkpt><trkpt lat="44.94823817967584" lon="7.291176766720153"><ele>780.0</ele><time>2026-05-01T12:43:55Z</time></trkpt><trkpt lat="44.948160050371165" lon="7.291304133937017"><ele>779.0</ele><time>2026-05-01T12:43:57Z</time></trkpt><trkpt lat="44.94811269478344" lon="7.2913699690735605"><ele>778.0</ele><time>2026-05-01T12:43:58Z</time></trkpt><trkpt lat="44.94805792792687" lon="7.291432223724814"><ele>777.9999999999999</ele><time>2026-05-01T12:43:59Z</time></trkpt><trkpt lat="44.947995663725294" lon="7.291486078664812"><ele>778.0</ele><time>2026-05-01T12:44:00Z</time></trkpt><trkpt lat="44.94792698455724" lon="7.291537685916512"><ele>778.0</ele><time>2026-05-01T12:44:01Z</time></trkpt><trkpt lat="44.94785170879021" lon="7.2915912707291195"><ele>778.0</ele><time>2026-05-01T12:44:02Z</time></trkpt><trkpt lat="44.94777362142953" lon="7.291643361363519"><ele>777.9999999999999</ele><time>2026-05-01T12:44:03Z</time></trkpt><trkpt lat="44.947688603448086" lon="7.291693822353539"><ele>778.0</ele><time>2026-05-01T12:44:04Z</time></trkpt><trkpt lat="44.94760063654136" lon="7.291743375136973"><ele>773.5999999999999</ele><time>2026-05-01T12:44:05Z</time></trkpt><trkpt lat="44.94751085664343" lon="7.2917882379566805"><ele>769.1999999999999</ele><time>2026-05-01T12:44:06Z</time></trkpt><trkpt lat="44.94741916386534" lon="7.291826025896285"><ele>764.8</ele><time>2026-05-01T12:44:07Z</time></trkpt><trkpt lat="44.94732461956263" lon="7.291861197101518"><ele>760.4</ele><time>2026-05-01T12:44:08Z</time></trkpt><trkpt lat="44.94723422448012" lon="7.291873687541968"><ele>756.0</ele><time>2026-05-01T12:44:09Z</time></trkpt><trkpt lat="44.94714402629118" lon="7.291886029709474"><ele>756.0</ele><time>2026-05-01T12:44:10Z</time></trkpt><trkpt lat="44.94706154954484" lon="7.291916046991892"><ele>756.0</ele><time>2026-05-01T12:44:11Z</time></trkpt><trkpt lat="44.94697870966858" lon="7.291955269421567"><ele>756.0</ele><time>2026-05-01T12:44:12Z</time></trkpt><trkpt lat="44.94690453884257" lon="7.29200472037035"><ele>756.0</ele><time>2026-05-01T12:44:13Z</time></trkpt><trkpt lat="44.94683378518205" lon="7.292059022274258"><ele>756.0</ele><time>2026-05-01T12:44:14Z</time></trkpt><trkpt lat="44.94676362135508" lon="7.292103941702612"><ele>756.0</ele><time>2026-05-01T12:44:15Z</time></trkpt><trkpt lat="44.94668152349332" lon="7.292131794917748"><ele>755.0</ele><time>2026-05-01T12:44:16Z</time></trkpt><trkpt lat="44.946601568776885" lon="7.292138573032948"><ele>754.0</ele><time>2026-05-01T12:44:17Z</time></trkpt><trkpt lat="44.946527929526944" lon="7.292111629879265"><ele>753.0</ele><time>2026-05-01T12:44:18Z</time></trkpt><trkpt lat="44.9464506756489" lon="7.292072912208883"><ele>752.0</ele><time>2026-05-01T12:44:19Z</time></trkpt><trkpt lat="44.94636624619659" lon="7.292042255659737"><ele>751.0</ele><time>2026-05-01T12:44:20Z</time></trkpt><trkpt lat="44.94628236665566" lon="7.29202014821941"><ele>750.0</ele><time>2026-05-01T12:44:21Z</time></trkpt><trkpt lat="44.94619482704274" lon="7.2920271973404835"><ele>750.0</ele><time>2026-05-01T12:44:22Z</time></trkpt><trkpt lat="44.94610857088693" lon="7.292051540441099"><ele>750.0</ele><time>2026-05-01T12:44:23Z</time></trkpt><trkpt lat="44.94602937025903" lon="7.292071505295272"><ele>750.0</ele><time>2026-05-01T12:44:24Z</time></trkpt><trkpt lat="44.94594518786882" lon="7.292037627864099"><ele>750.0</ele><time>2026-05-01T12:44:25Z</time></trkpt><trkpt lat="44.94585699387778" lon="7.291991919883746"><ele>750.0</ele><time>2026-05-01T12:44:26Z</time></trkpt><trkpt lat="44.94577191314139" lon="7.291938686268523"><ele>750.0</ele><time>2026-05-01T12:44:27Z</time></trkpt><trkpt lat="44.94568547923803" lon="7.2918892755412"><ele>748.8</ele><time>2026-05-01T12:44:28Z</time></trkpt><trkpt lat="44.94560021874733" lon="7.291837019728121"><ele>747.6</ele><time>2026-05-01T12:44:29Z</time></trkpt><trkpt lat="44.94552047466577" lon="7.291775018697001"><ele>746.4000000000001</ele><time>2026-05-01T12:44:30Z</time></trkpt><trkpt lat="44.945449831389254" lon="7.2917006584524415"><ele>745.2</ele><time>2026-05-01T12:44:31Z</time></trkpt><trkpt lat="44.94537467630037" lon="7.291613446330595"><ele>744.0</ele><time>2026-05-01T12:44:32Z</time></trkpt><trkpt lat="44.94530151286265" lon="7.291514639517688"><ele>743.0</ele><time>2026-05-01T12:44:33Z</time></trkpt><trkpt lat="44.945232454830204" lon="7.29141208893359"><ele>742.0</ele><time>2026-05-01T12:44:33.999Z</time></trkpt><trkpt lat="44.94515337446343" lon="7.291306285584926"><ele>741.0</ele><time>2026-05-01T12:44:34.999Z</time></trkpt><trkpt lat="44.945091722458734" lon="7.29118634206352"><ele>740.0</ele><time>2026-05-01T12:44:35.999Z</time></trkpt><trkpt lat="44.94501080999942" lon="7.291066947476758"><ele>739.0</ele><time>2026-05-01T12:44:36.999Z</time></trkpt><trkpt lat="44.94490228500751" lon="7.290980653147721"><ele>739.0</ele><time>2026-05-01T12:44:37.999Z</time></trkpt><trkpt lat="44.94480619578527" lon="7.29089799834613"><ele>739.0</ele><time>2026-05-01T12:44:38.999Z</time></trkpt><trkpt lat="44.944713533191376" lon="7.290810210350525"><ele>739.0</ele><time>2026-05-01T12:44:39.999Z</time></trkpt><trkpt lat="44.94460541042411" lon="7.290770837872981"><ele>739.0</ele><time>2026-05-01T12:44:40.999Z</time></trkpt><trkpt lat="44.944499851849315" lon="7.290765688047395"><ele>739.0</ele><time>2026-05-01T12:44:41.999Z</time></trkpt><trkpt lat="44.94439641271081" lon="7.290768071992236"><ele>739.0</ele><time>2026-05-01T12:44:42.999Z</time></trkpt><trkpt lat="44.94428226884639" lon="7.290796280944009"><ele>739.0</ele><time>2026-05-01T12:44:43.999Z</time></trkpt><trkpt lat="44.94417510393869" lon="7.290791732299444"><ele>739.0</ele><time>2026-05-01T12:44:44.999Z</time></trkpt><trkpt lat="44.94407241449111" lon="7.290732856803694"><ele>739.0</ele><time>2026-05-01T12:44:45.999Z</time></trkpt><trkpt lat="44.943973974512595" lon="7.290673254011433"><ele>739.0</ele><time>2026-05-01T12:44:46.999Z</time></trkpt><trkpt lat="44.94387913199012" lon="7.2905942095581615"><ele>739.2</ele><time>2026-05-01T12:44:47.999Z</time></trkpt><trkpt lat="44.943794465856165" lon="7.2904983754806425"><ele>739.4000000000001</ele><time>2026-05-01T12:44:48.999Z</time></trkpt><trkpt lat="44.943725781334564" lon="7.290398962177446"><ele>739.6</ele><time>2026-05-01T12:44:49.999Z</time></trkpt><trkpt lat="44.943648961598235" lon="7.29031900717762"><ele>739.8</ele><time>2026-05-01T12:44:50.999Z</time></trkpt><trkpt lat="44.94358181967747" lon="7.290240349006646"><ele>740.0</ele><time>2026-05-01T12:44:51.999Z</time></trkpt><trkpt lat="44.94353041892226" lon="7.290147972924528"><ele>740.0</ele><time>2026-05-01T12:44:52.999Z</time></trkpt><trkpt lat="44.94348799674497" lon="7.29005820707621"><ele>740.0</ele><time>2026-05-01T12:44:53.999Z</time></trkpt><trkpt lat="44.94343578934094" lon="7.289991407272298"><ele>740.0</ele><time>2026-05-01T12:44:54.999Z</time></trkpt><trkpt lat="44.94337122145336" lon="7.289957818588319"><ele>740.0</ele><time>2026-05-01T12:44:55.999Z</time></trkpt><trkpt lat="44.943245675952454" lon="7.2899474970533245"><ele>740.0</ele><time>2026-05-01T12:44:57.999Z</time></trkpt><trkpt lat="44.94312614198779" lon="7.289947572698098"><ele>741.5</ele><time>2026-05-01T12:44:59.999Z</time></trkpt><trkpt lat="44.943011204256855" lon="7.289933676724142"><ele>743.0</ele><time>2026-05-01T12:45:01.999Z</time></trkpt><trkpt lat="44.94291317922118" lon="7.289866250589719"><ele>744.5</ele><time>2026-05-01T12:45:03.999Z</time></trkpt><trkpt lat="44.94285738025299" lon="7.289823691769318"><ele>746.0</ele><time>2026-05-01T12:45:05.999Z</time></trkpt><trkpt lat="44.94282504666841" lon="7.289718324367676"><ele>747.5</ele><time>2026-05-01T12:45:23.998Z</time></trkpt><trkpt lat="44.94282843795619" lon="7.2896171701651165"><ele>749.0</ele><time>2026-05-01T12:45:25.998Z</time></trkpt><trkpt lat="44.942840337141746" lon="7.289488518625276"><ele>749.0</ele><time>2026-05-01T12:45:27.998Z</time></trkpt><trkpt lat="44.942822835803334" lon="7.289365925521436"><ele>749.0</ele><time>2026-05-01T12:45:29.998Z</time></trkpt><trkpt lat="44.94279659494944" lon="7.289278772244924"><ele>749.0</ele><time>2026-05-01T12:45:31.998Z</time></trkpt><trkpt lat="44.942759650955445" lon="7.289173175087954"><ele>749.0</ele><time>2026-05-01T12:45:34.998Z</time></trkpt><trkpt lat="44.9427647090861" lon="7.289050396392297"><ele>749.0</ele><time>2026-05-01T12:46:00Z</time></trkpt><trkpt lat="44.94275377199618" lon="7.288958459289726"><ele>749.0</ele><time>2026-05-01T12:46:06Z</time></trkpt><trkpt lat="44.942742166858075" lon="7.288869963783514"><ele>751.8333333333333</ele><time>2026-05-01T12:46:09Z</time></trkpt><trkpt lat="44.94271207429149" lon="7.28877420201944"><ele>754.6666666666666</ele><time>2026-05-01T12:46:12Z</time></trkpt><trkpt lat="44.942698922502146" lon="7.288677539269642"><ele>757.5</ele><time>2026-05-01T12:46:15Z</time></trkpt><trkpt lat="44.94268689183191" lon="7.288570445675343"><ele>760.3333333333334</ele><time>2026-05-01T12:46:18Z</time></trkpt><trkpt lat="44.942669247854525" lon="7.288434231541531"><ele>763.1666666666667</ele><time>2026-05-01T12:46:34Z</time></trkpt><trkpt lat="44.9426452220844" lon="7.288579106691787"><ele>766.0</ele><time>2026-05-01T12:46:37Z</time></trkpt><trkpt lat="44.94260197831667" lon="7.28871678855281"><ele>766.0</ele><time>2026-05-01T12:46:38.999Z</time></trkpt><trkpt lat="44.94257371009293" lon="7.2888269676238435"><ele>766.0</ele><time>2026-05-01T12:46:40.999Z</time></trkpt><trkpt lat="44.942507399528026" lon="7.288923754549405"><ele>766.0</ele><time>2026-05-01T12:46:42.999Z</time></trkpt><trkpt lat="44.94242472320177" lon="7.289084517637457"><ele>766.0</ele><time>2026-05-01T12:46:44.999Z</time></trkpt><trkpt lat="44.94238538789125" lon="7.289154434054472"><ele>766.0</ele><time>2026-05-01T12:46:45.999Z</time></trkpt><trkpt lat="44.94228991528015" lon="7.289212142823468"><ele>761.6666666666667</ele><time>2026-05-01T12:46:47.999Z</time></trkpt><trkpt lat="44.94222314740765" lon="7.289204901079115"><ele>757.3333333333334</ele><time>2026-05-01T12:46:48.999Z</time></trkpt><trkpt lat="44.94215079811283" lon="7.289211713555584"><ele>753.0</ele><time>2026-05-01T12:46:49.999Z</time></trkpt><trkpt lat="44.94208629611427" lon="7.289229375801911"><ele>748.6666666666666</ele><time>2026-05-01T12:46:50.999Z</time></trkpt><trkpt lat="44.94201532192949" lon="7.289233046975388"><ele>744.3333333333333</ele><time>2026-05-01T12:46:51.999Z</time></trkpt><trkpt lat="44.94191021125877" lon="7.289219683767882"><ele>740.0</ele><time>2026-05-01T12:46:53.999Z</time></trkpt><trkpt lat="44.94177033531556" lon="7.28925485096965"><ele>745.1666666666666</ele><time>2026-05-01T12:46:55.999Z</time></trkpt><trkpt lat="44.94169152157146" lon="7.289295123611254"><ele>750.3333333333333</ele><time>2026-05-01T12:46:56.999Z</time></trkpt><trkpt lat="44.941607783394694" lon="7.289326073777729"><ele>755.5</ele><time>2026-05-01T12:46:57.999Z</time></trkpt><trkpt lat="44.941517468813316" lon="7.289331197038493"><ele>760.6666666666666</ele><time>2026-05-01T12:46:58.999Z</time></trkpt><trkpt lat="44.94143374849384" lon="7.289335755599849"><ele>765.8333333333334</ele><time>2026-05-01T12:46:59.999Z</time></trkpt><trkpt lat="44.941369672809245" lon="7.28933453868842"><ele>771.0</ele><time>2026-05-01T12:47:00.999Z</time></trkpt><trkpt lat="44.94131038765559" lon="7.289281479765654"><ele>771.0</ele><time>2026-05-01T12:47:02.999Z</time></trkpt><trkpt lat="44.94124791214321" lon="7.289179536242721"><ele>771.0</ele><time>2026-05-01T12:47:04.999Z</time></trkpt><trkpt lat="44.94116897501826" lon="7.28907049012765"><ele>771.0</ele><time>2026-05-01T12:47:06.999Z</time></trkpt><trkpt lat="44.94110213125833" lon="7.288989913049545"><ele>771.0</ele><time>2026-05-01T12:47:08.999Z</time></trkpt><trkpt lat="44.94104302293375" lon="7.288955534222496"><ele>771.0</ele><time>2026-05-01T12:47:11.999Z</time></trkpt><trkpt lat="44.94096828273732" lon="7.288913635495507"><ele>771.0</ele><time>2026-05-01T12:47:15.999Z</time></trkpt><trkpt lat="44.94089304541591" lon="7.288871308144401"><ele>777.3333333333334</ele><time>2026-05-01T12:47:18.999Z</time></trkpt><trkpt lat="44.94082383415877" lon="7.2888060163224315"><ele>783.6666666666667</ele><time>2026-05-01T12:47:20.999Z</time></trkpt><trkpt lat="44.94076984866517" lon="7.2887560458198895"><ele>790.0</ele><time>2026-05-01T12:47:22.999Z</time></trkpt><trkpt lat="44.94071894252793" lon="7.288680099334327"><ele>796.3333333333334</ele><time>2026-05-01T12:47:24.999Z</time></trkpt><trkpt lat="44.940672520343604" lon="7.288560952374803"><ele>802.6666666666667</ele><time>2026-05-01T12:47:26.998Z</time></trkpt><trkpt lat="44.94061108191689" lon="7.288494113984245"><ele>809.0</ele><time>2026-05-01T12:47:28.998Z</time></trkpt><trkpt lat="44.94054128033419" lon="7.2884263523091075"><ele>809.0</ele><time>2026-05-01T12:47:30.998Z</time></trkpt><trkpt lat="44.94023594703536" lon="7.288221889353436"><ele>809.0</ele><time>2026-05-01T12:47:32.998Z</time></trkpt><trkpt lat="44.94017204486233" lon="7.28817465186748"><ele>809.0</ele><time>2026-05-01T12:47:33.998Z</time></trkpt><trkpt lat="44.94010345248421" lon="7.288120528589312"><ele>813.6</ele><time>2026-05-01T12:47:34.998Z</time></trkpt><trkpt lat="44.93999850003438" lon="7.288037962009268"><ele>818.2</ele><time>2026-05-01T12:47:36.998Z</time></trkpt><trkpt lat="44.93992525807352" lon="7.288000049041245"><ele>822.8000000000001</ele><time>2026-05-01T12:47:37.998Z</time></trkpt><trkpt lat="44.939857451607025" lon="7.287970756886937"><ele>827.4000000000001</ele><time>2026-05-01T12:47:38.998Z</time></trkpt><trkpt lat="44.93975766871026" lon="7.2878921649574755"><ele>832.0</ele><time>2026-05-01T12:47:40.998Z</time></trkpt><trkpt lat="44.939686770717486" lon="7.2878279925001745"><ele>832.0</ele><time>2026-05-01T12:47:42.998Z</time></trkpt><trkpt lat="44.939627582394586" lon="7.287754784935781"><ele>832.0</ele><time>2026-05-01T12:47:44.998Z</time></trkpt><trkpt lat="44.93954126642414" lon="7.287682060501485"><ele>832.0</ele><time>2026-05-01T12:47:46.998Z</time></trkpt><trkpt lat="44.939483434584204" lon="7.287621123676048"><ele>832.0</ele><time>2026-05-01T12:47:47.998Z</time></trkpt><trkpt lat="44.93935740886136" lon="7.287577760033906"><ele>832.0</ele><time>2026-05-01T12:47:49.998Z</time></trkpt><trkpt lat="44.939234156302014" lon="7.28757726972635"><ele>831.9999999999999</ele><time>2026-05-01T12:47:51.998Z</time></trkpt><trkpt lat="44.93917305438477" lon="7.287524986583924"><ele>832.0</ele><time>2026-05-01T12:47:52.998Z</time></trkpt><trkpt lat="44.93922220525894" lon="7.2874454684754575"><ele>832.0</ele><time>2026-05-01T12:47:53.998Z</time></trkpt><trkpt lat="44.939174829638524" lon="7.287319428366568"><ele>832.0</ele><time>2026-05-01T12:47:56.998Z</time></trkpt><trkpt lat="44.93921333520587" lon="7.287238438961706"><ele>831.9999999999999</ele><time>2026-05-01T12:48:13Z</time></trkpt><trkpt lat="44.93928121766713" lon="7.287179928927556"><ele>832.0</ele><time>2026-05-01T12:48:15Z</time></trkpt><trkpt lat="44.939360319649595" lon="7.287061272640087"><ele>833.5714285714286</ele><time>2026-05-01T12:48:17Z</time></trkpt><trkpt lat="44.939401709972365" lon="7.286991589214652"><ele>835.1428571428572</ele><time>2026-05-01T12:48:18Z</time></trkpt><trkpt lat="44.939446374325115" lon="7.286917318511142"><ele>836.7142857142858</ele><time>2026-05-01T12:48:19Z</time></trkpt><trkpt lat="44.9395008893481" lon="7.286839142297416"><ele>838.2857142857142</ele><time>2026-05-01T12:48:20Z</time></trkpt><trkpt lat="44.939575995543706" lon="7.286813523823309"><ele>839.8571428571429</ele><time>2026-05-01T12:48:21Z</time></trkpt><trkpt lat="44.939647975122284" lon="7.286843774445757"><ele>841.4285714285714</ele><time>2026-05-01T12:48:22Z</time></trkpt><trkpt lat="44.93971653317348" lon="7.2868392256849"><ele>843.0</ele><time>2026-05-01T12:48:23Z</time></trkpt><trkpt lat="44.939790520161196" lon="7.286805034933078"><ele>843.0</ele><time>2026-05-01T12:48:24Z</time></trkpt><trkpt lat="44.93987929315432" lon="7.286771419506249"><ele>843.0</ele><time>2026-05-01T12:48:25Z</time></trkpt><trkpt lat="44.93999338551629" lon="7.286759667174756"><ele>843.0</ele><time>2026-05-01T12:48:26Z</time></trkpt><trkpt lat="44.94007927973891" lon="7.286763525449141"><ele>843.0</ele><time>2026-05-01T12:48:27Z</time></trkpt><trkpt lat="44.94016303226592" lon="7.286760050582877"><ele>843.0</ele><time>2026-05-01T12:48:28Z</time></trkpt><trkpt lat="44.94024281867481" lon="7.286807161236993"><ele>845.6666666666666</ele><time>2026-05-01T12:48:29Z</time></trkpt><trkpt lat="44.940311106307064" lon="7.286844935505122"><ele>848.3333333333333</ele><time>2026-05-01T12:48:30Z</time></trkpt><trkpt lat="44.94042286659795" lon="7.286877978934816"><ele>851.0</ele><time>2026-05-01T12:48:32Z</time></trkpt><trkpt lat="44.9404874473946" lon="7.28688141964304"><ele>853.6666666666666</ele><time>2026-05-01T12:48:33Z</time></trkpt><trkpt lat="44.940571624352934" lon="7.286865176683348"><ele>856.3333333333333</ele><time>2026-05-01T12:48:34Z</time></trkpt><trkpt lat="44.94065739279066" lon="7.286837844381075"><ele>859.0</ele><time>2026-05-01T12:48:36Z</time></trkpt><trkpt lat="44.94073376633699" lon="7.286778651740511"><ele>859.0</ele><time>2026-05-01T12:48:38Z</time></trkpt><trkpt lat="44.940782431355586" lon="7.286697678902762"><ele>859.0000000000001</ele><time>2026-05-01T12:48:40Z</time></trkpt><trkpt lat="44.94080177285438" lon="7.286540841537938"><ele>859.0000000000001</ele><time>2026-05-01T12:48:42Z</time></trkpt><trkpt lat="44.94077465011555" lon="7.28643436066035"><ele>859.0</ele><time>2026-05-01T12:48:43Z</time></trkpt><trkpt lat="44.94082568655874" lon="7.286261549960773"><ele>859.0</ele><time>2026-05-01T12:48:44.999Z</time></trkpt><trkpt lat="44.94086090729629" lon="7.286163624204561"><ele>859.3333333333333</ele><time>2026-05-01T12:48:45.999Z</time></trkpt><trkpt lat="44.940939279491374" lon="7.286040932739704"><ele>859.6666666666666</ele><time>2026-05-01T12:48:47.999Z</time></trkpt><trkpt lat="44.940989432084734" lon="7.285980725543409"><ele>860.0</ele><time>2026-05-01T12:48:48.999Z</time></trkpt><trkpt lat="44.9410290210999" lon="7.285847373014235"><ele>860.3333333333333</ele><time>2026-05-01T12:48:50.999Z</time></trkpt><trkpt lat="44.940988298013174" lon="7.285756331705569"><ele>860.6666666666666</ele><time>2026-05-01T12:48:51.999Z</time></trkpt><trkpt lat="44.94094219758122" lon="7.285653371859707"><ele>861.0</ele><time>2026-05-01T12:48:52.999Z</time></trkpt><trkpt lat="44.9409119814318" lon="7.285544031999964"><ele>861.0</ele><time>2026-05-01T12:48:53.999Z</time></trkpt><trkpt lat="44.94093274966978" lon="7.285439926852184"><ele>860.9999999999999</ele><time>2026-05-01T12:48:54.999Z</time></trkpt><trkpt lat="44.94100972149365" lon="7.285271147770979"><ele>860.9999999999999</ele><time>2026-05-01T12:48:56.999Z</time></trkpt><trkpt lat="44.94104660373232" lon="7.285155424181519"><ele>861.0</ele><time>2026-05-01T12:48:57.999Z</time></trkpt><trkpt lat="44.94107952781617" lon="7.285001165373538"><ele>861.0</ele><time>2026-05-01T12:48:58.999Z</time></trkpt><trkpt lat="44.94112431696443" lon="7.2848633448405335"><ele>861.0</ele><time>2026-05-01T12:48:59.999Z</time></trkpt><trkpt lat="44.94114811367241" lon="7.284768821240295"><ele>860.9999999999999</ele><time>2026-05-01T12:49:00.999Z</time></trkpt><trkpt lat="44.94123597716765" lon="7.284687824302163"><ele>860.9999999999999</ele><time>2026-05-01T12:49:02.999Z</time></trkpt><trkpt lat="44.94131059755483" lon="7.284616513557873"><ele>861.0</ele><time>2026-05-01T12:49:03.999Z</time></trkpt><trkpt lat="44.94141277221737" lon="7.2845273490371305"><ele>861.0</ele><time>2026-05-01T12:49:04.999Z</time></trkpt><trkpt lat="44.94149257095263" lon="7.284430089251404"><ele>862.1666666666666</ele><time>2026-05-01T12:49:05.999Z</time></trkpt><trkpt lat="44.94153965463416" lon="7.284353721088711"><ele>863.3333333333333</ele><time>2026-05-01T12:49:06.999Z</time></trkpt><trkpt lat="44.941576807372954" lon="7.284270980685737"><ele>864.5</ele><time>2026-05-01T12:49:07.999Z</time></trkpt><trkpt lat="44.941627963541315" lon="7.28415091948779"><ele>865.6666666666666</ele><time>2026-05-01T12:49:09.999Z</time></trkpt><trkpt lat="44.9416864898314" lon="7.284116394357374"><ele>866.8333333333333</ele><time>2026-05-01T12:49:11.999Z</time></trkpt><trkpt lat="44.94176321488991" lon="7.2840808752345865"><ele>868.0</ele><time>2026-05-01T12:50:09Z</time></trkpt><trkpt lat="44.94183278164944" lon="7.284030553951521"><ele>873.8</ele><time>2026-05-01T12:50:12Z</time></trkpt><trkpt lat="44.941900842103166" lon="7.283875371927997"><ele>879.5999999999999</ele><time>2026-05-01T12:50:22Z</time></trkpt><trkpt lat="44.941969129448" lon="7.283760301362593"><ele>885.4000000000001</ele><time>2026-05-01T12:50:24Z</time></trkpt><trkpt lat="44.94197677145339" lon="7.283647715274333"><ele>891.2</ele><time>2026-05-01T12:50:26Z</time></trkpt><trkpt lat="44.94198440213736" lon="7.283537689050872"><ele>897.0</ele><time>2026-05-01T12:50:28Z</time></trkpt><trkpt lat="44.94198588428978" lon="7.283433624024491"><ele>897.0</ele><time>2026-05-01T12:50:31Z</time></trkpt><trkpt lat="44.94200544526649" lon="7.283338167762732"><ele>897.0</ele><time>2026-05-01T12:50:36Z</time></trkpt><trkpt lat="44.94200108721991" lon="7.283237725333667"><ele>897.0</ele><time>2026-05-01T12:51:44.998Z</time></trkpt><trkpt lat="44.94200293261422" lon="7.283140276719627"><ele>897.0</ele><time>2026-05-01T12:53:44.998Z</time></trkpt><trkpt lat="44.941996565012744" lon="7.2830214676004745"><ele>897.0</ele><time>2026-05-01T12:54:20Z</time></trkpt><trkpt lat="44.942002806256035" lon="7.2829292655005355"><ele>897.0</ele><time>2026-05-01T12:55:54.998Z</time></trkpt><trkpt lat="44.94203277341012" lon="7.282812054581765"><ele>897.0</ele><time>2026-05-01T12:55:57.998Z</time></trkpt><trkpt lat="44.94209598918368" lon="7.28275055571206"><ele>899.8</ele><time>2026-05-01T12:55:59.998Z</time></trkpt><trkpt lat="44.94210213828948" lon="7.282635928790417"><ele>902.6</ele><time>2026-05-01T12:56:01.998Z</time></trkpt><trkpt lat="44.94215461101121" lon="7.28249636708217"><ele>905.3999999999999</ele><time>2026-05-01T12:56:03.998Z</time></trkpt><trkpt lat="44.94225082283266" lon="7.282433325050431"><ele>908.1999999999999</ele><time>2026-05-01T12:56:05.998Z</time></trkpt><trkpt lat="44.94237059050087" lon="7.282374089601349"><ele>911.0</ele><time>2026-05-01T12:56:07.998Z</time></trkpt><trkpt lat="44.942440227104846" lon="7.282275147936956"><ele>912.5000000000001</ele><time>2026-05-01T12:56:09.998Z</time></trkpt><trkpt lat="44.94251142548416" lon="7.282233299523849"><ele>914.0</ele><time>2026-05-01T12:56:11.998Z</time></trkpt><trkpt lat="44.94261419936846" lon="7.282153758336765"><ele>915.5</ele><time>2026-05-01T12:56:15.998Z</time></trkpt><trkpt lat="44.94269865846325" lon="7.282106210921443"><ele>917.0</ele><time>2026-05-01T12:56:16.998Z</time></trkpt><trkpt lat="44.94276704079541" lon="7.282028902094539"><ele>918.5000000000001</ele><time>2026-05-01T12:56:18.998Z</time></trkpt><trkpt lat="44.94280641921789" lon="7.2819470640799935"><ele>920.0</ele><time>2026-05-01T12:56:20.998Z</time></trkpt><trkpt lat="44.94287201957031" lon="7.281881723305656"><ele>926.3333333333334</ele><time>2026-05-01T12:56:25Z</time></trkpt><trkpt lat="44.94297746300082" lon="7.281841740493531"><ele>932.6666666666667</ele><time>2026-05-01T12:57:18.999Z</time></trkpt><trkpt lat="44.943030773926395" lon="7.281895317899267"><ele>939.0</ele><time>2026-05-01T12:57:26.999Z</time></trkpt><trkpt lat="44.94311476274718" lon="7.281945438535346"><ele>945.3333333333333</ele><time>2026-05-01T12:57:33.999Z</time></trkpt><trkpt lat="44.943175919195724" lon="7.281983395565625"><ele>951.6666666666666</ele><time>2026-05-01T12:57:36.999Z</time></trkpt><trkpt lat="44.943265733269016" lon="7.282037771668133"><ele>958.0</ele><time>2026-05-01T12:58:29.998Z</time></trkpt><trkpt lat="44.94332502218218" lon="7.282074298817436"><ele>959.9999999999999</ele><time>2026-05-01T13:01:53.999Z</time></trkpt><trkpt lat="44.94340643619055" lon="7.282056173883872"><ele>962.0</ele><time>2026-05-01T13:09:32.999Z</time></trkpt><trkpt lat="44.94349610808027" lon="7.282054722542839"><ele>964.0</ele><time>2026-05-01T13:11:37.999Z</time></trkpt><trkpt lat="44.94357501497178" lon="7.2820662302307975"><ele>966.0</ele><time>2026-05-01T13:11:39.999Z</time></trkpt><trkpt lat="44.943649472152586" lon="7.282102482589855"><ele>967.9999999999999</ele><time>2026-05-01T13:12:04.999Z</time></trkpt><trkpt lat="44.94369321385121" lon="7.282003050602839"><ele>970.0</ele><time>2026-05-01T13:16:18.999Z</time></trkpt><trkpt lat="44.94372872920736" lon="7.281882143444363"><ele>969.9999999999999</ele><time>2026-05-01T13:16:21.999Z</time></trkpt><trkpt lat="44.94378224067617" lon="7.281769589321155"><ele>970.0</ele><time>2026-05-01T13:16:23.999Z</time></trkpt><trkpt lat="44.94381894659397" lon="7.281686128751559"><ele>970.0</ele><time>2026-05-01T13:16:24.999Z</time></trkpt><trkpt lat="44.943864802370335" lon="7.281608853654074"><ele>970.0</ele><time>2026-05-01T13:16:25.999Z</time></trkpt><trkpt lat="44.94391976879493" lon="7.281538440314652"><ele>969.9999999999999</ele><time>2026-05-01T13:16:26.999Z</time></trkpt><trkpt lat="44.94398920914451" lon="7.281475370775704"><ele>970.0</ele><time>2026-05-01T13:16:27.998Z</time></trkpt><trkpt lat="44.94409107938475" lon="7.281397631417516"><ele>975.1666666666666</ele><time>2026-05-01T13:16:29.998Z</time></trkpt><trkpt lat="44.944150898529294" lon="7.281369091990123"><ele>980.3333333333333</ele><time>2026-05-01T13:16:31.998Z</time></trkpt><trkpt lat="44.94421869631736" lon="7.281354142828569"><ele>985.5</ele><time>2026-05-01T13:16:33.998Z</time></trkpt><trkpt lat="44.944318894917295" lon="7.281356826484442"><ele>990.6666666666667</ele><time>2026-05-01T13:16:35.998Z</time></trkpt><trkpt lat="44.944385300355506" lon="7.281358649416595"><ele>995.8333333333334</ele><time>2026-05-01T13:16:36.998Z</time></trkpt><trkpt lat="44.9444937817025" lon="7.281356292698306"><ele>1001.0</ele><time>2026-05-01T13:16:38.998Z</time></trkpt><trkpt lat="44.94456858648685" lon="7.281338659978475"><ele>1001.4</ele><time>2026-05-01T13:16:40.998Z</time></trkpt><trkpt lat="44.944683384810816" lon="7.281311410758951"><ele>1001.8</ele><time>2026-05-01T13:16:42.998Z</time></trkpt><trkpt lat="44.94476969975089" lon="7.2814270109822745"><ele>1002.1999999999999</ele><time>2026-05-01T13:16:45.998Z</time></trkpt><trkpt lat="44.94482668750488" lon="7.281512849470591"><ele>1002.5999999999999</ele><time>2026-05-01T13:16:46.998Z</time></trkpt><trkpt lat="44.94489493324501" lon="7.2815293103447445"><ele>1003.0</ele><time>2026-05-01T13:16:47.998Z</time></trkpt><trkpt lat="44.944975083587344" lon="7.281606635575805"><ele>996.5999999999999</ele><time>2026-05-01T13:16:49.998Z</time></trkpt><trkpt lat="44.94504634766094" lon="7.281586890500677"><ele>990.1999999999999</ele><time>2026-05-01T13:16:51.998Z</time></trkpt><trkpt lat="44.94512956250505" lon="7.281580807257696"><ele>983.8</ele><time>2026-05-01T13:16:53.998Z</time></trkpt><trkpt lat="44.94521153106541" lon="7.281550259708702"><ele>977.4</ele><time>2026-05-01T13:16:56.998Z</time></trkpt><trkpt lat="44.94536692068131" lon="7.281572188074908"><ele>971.0</ele><time>2026-05-01T13:16:57.998Z</time></trkpt><trkpt lat="44.945444750711694" lon="7.281463673827207"><ele>975.4</ele><time>2026-05-01T13:16:58.998Z</time></trkpt><trkpt lat="44.945525940159285" lon="7.281323874661665"><ele>979.8</ele><time>2026-05-01T13:16:59.998Z</time></trkpt><trkpt lat="44.945570728975724" lon="7.281223094471253"><ele>984.1999999999999</ele><time>2026-05-01T13:17:00.998Z</time></trkpt><trkpt lat="44.94561818958301" lon="7.281133278822554"><ele>988.5999999999999</ele><time>2026-05-01T13:17:01.998Z</time></trkpt><trkpt lat="44.94566721774056" lon="7.281076991519867"><ele>993.0</ele><time>2026-05-01T13:17:02.998Z</time></trkpt><trkpt lat="44.944150898529294" lon="7.281369091990123"><ele>994.6666666666666</ele><time>2026-05-01T13:16:31.998Z</time></trkpt><trkpt lat="44.94421869631736" lon="7.281354142828569"><ele>996.3333333333333</ele><time>2026-05-01T13:16:33.998Z</time></trkpt><trkpt lat="44.944318894917295" lon="7.281356826484442"><ele>998.0</ele><time>2026-05-01T13:16:35.998Z</time></trkpt><trkpt lat="44.944385300355506" lon="7.281358649416595"><ele>999.6666666666666</ele><time>2026-05-01T13:16:36.998Z</time></trkpt><trkpt lat="44.9444937817025" lon="7.281356292698306"><ele>1001.3333333333333</ele><time>2026-05-01T13:16:38.998Z</time></trkpt><trkpt lat="44.94456858648685" lon="7.281338659978475"><ele>1003.0</ele><time>2026-05-01T13:16:40.998Z</time></trkpt><trkpt lat="44.944683384810816" lon="7.281311410758951"><ele>1002.9999999999999</ele><time>2026-05-01T13:16:42.998Z</time></trkpt><trkpt lat="44.94476969975089" lon="7.2814270109822745"><ele>1003.0</ele><time>2026-05-01T13:16:45.998Z</time></trkpt><trkpt lat="44.94482668750488" lon="7.281512849470591"><ele>1003.0</ele><time>2026-05-01T13:16:46.998Z</time></trkpt><trkpt lat="44.94489493324501" lon="7.2815293103447445"><ele>1003.0</ele><time>2026-05-01T13:16:47.998Z</time></trkpt><trkpt lat="44.944975083587344" lon="7.281606635575805"><ele>1002.9999999999999</ele><time>2026-05-01T13:16:49.998Z</time></trkpt><trkpt lat="44.94504634766094" lon="7.281586890500677"><ele>1003.0</ele><time>2026-05-01T13:16:51.998Z</time></trkpt><trkpt lat="44.94512956250505" lon="7.281580807257696"><ele>1000.5</ele><time>2026-05-01T13:16:53.998Z</time></trkpt><trkpt lat="44.94521153106541" lon="7.281550259708702"><ele>998.0</ele><time>2026-05-01T13:16:56.998Z</time></trkpt><trkpt lat="44.94536692068131" lon="7.281572188074908"><ele>995.5</ele><time>2026-05-01T13:16:57.998Z</time></trkpt><trkpt lat="44.945444750711694" lon="7.281463673827207"><ele>993.0</ele><time>2026-05-01T13:16:58.998Z</time></trkpt><trkpt lat="44.945525940159285" lon="7.281323874661665"><ele>993.0</ele><time>2026-05-01T13:16:59.998Z</time></trkpt><trkpt lat="44.945570728975724" lon="7.281223094471253"><ele>993.0</ele><time>2026-05-01T13:17:00.998Z</time></trkpt><trkpt lat="44.94561818958301" lon="7.281133278822554"><ele>993.0</ele><time>2026-05-01T13:17:01.998Z</time></trkpt><trkpt lat="44.94566721774056" lon="7.281076991519867"><ele>993.0</ele><time>2026-05-01T13:17:02.998Z</time></trkpt><trkpt lat="44.94576657816322" lon="7.281116932922909"><ele>993.0</ele><time>2026-05-01T13:17:12.998Z</time></trkpt><trkpt lat="44.94583545395418" lon="7.281184358059583"><ele>993.0</ele><time>2026-05-01T13:17:13.998Z</time></trkpt><trkpt lat="44.9459101879081" lon="7.281255891735902"><ele>993.1428571428571</ele><time>2026-05-01T13:17:15.998Z</time></trkpt><trkpt lat="44.94593089448791" lon="7.281168009046455"><ele>993.2857142857143</ele><time>2026-05-01T13:17:19.997Z</time></trkpt><trkpt lat="44.94599681030608" lon="7.281148928776211"><ele>993.4285714285714</ele><time>2026-05-01T13:17:20.997Z</time></trkpt><trkpt lat="44.946077391045755" lon="7.281151288611924"><ele>993.5714285714286</ele><time>2026-05-01T13:17:21.997Z</time></trkpt><trkpt lat="44.94612872966119" lon="7.281218928729846"><ele>993.7142857142858</ele><time>2026-05-01T13:17:22.997Z</time></trkpt><trkpt lat="44.94616651972377" lon="7.2813132543244725"><ele>993.8571428571429</ele><time>2026-05-01T13:17:24Z</time></trkpt><trkpt lat="44.946205313486544" lon="7.281419536464827"><ele>994.0</ele><time>2026-05-01T13:17:25Z</time></trkpt><trkpt lat="44.94624263642694" lon="7.28152457144847"><ele>992.4000000000001</ele><time>2026-05-01T13:17:26Z</time></trkpt><trkpt lat="44.94627053557511" lon="7.281657917668745"><ele>990.8000000000001</ele><time>2026-05-01T13:17:27Z</time></trkpt><trkpt lat="44.94627777374061" lon="7.281769811128794"><ele>989.1999999999999</ele><time>2026-05-01T13:17:28Z</time></trkpt><trkpt lat="44.94627874820548" lon="7.281900177944621"><ele>987.5999999999999</ele><time>2026-05-01T13:17:29Z</time></trkpt><trkpt lat="44.94629499751629" lon="7.282005952984495"><ele>986.0</ele><time>2026-05-01T13:17:30Z</time></trkpt><trkpt lat="44.94637823078847" lon="7.282153133992067"><ele>986.0000000000001</ele><time>2026-05-01T13:17:32Z</time></trkpt><trkpt lat="44.94643995115912" lon="7.2822416960367775"><ele>986.0</ele><time>2026-05-01T13:17:33Z</time></trkpt><trkpt lat="44.94649798161801" lon="7.282320954908313"><ele>986.0</ele><time>2026-05-01T13:17:34Z</time></trkpt><trkpt lat="44.94656143990477" lon="7.282474588867698"><ele>986.0</ele><time>2026-05-01T13:17:36Z</time></trkpt><trkpt lat="44.94658571850741" lon="7.28255782048112"><ele>986.0000000000001</ele><time>2026-05-01T13:17:37Z</time></trkpt><trkpt lat="44.94661155868446" lon="7.282655605952371"><ele>986.0</ele><time>2026-05-01T13:17:38Z</time></trkpt><trkpt lat="44.94665097758904" lon="7.282748395287934"><ele>982.5000000000001</ele><time>2026-05-01T13:17:39Z</time></trkpt><trkpt lat="44.94670796280528" lon="7.282837047569405"><ele>979.0</ele><time>2026-05-01T13:17:40Z</time></trkpt><trkpt lat="44.946762469654885" lon="7.28290006324767"><ele>975.5</ele><time>2026-05-01T13:17:41Z</time></trkpt><trkpt lat="44.94682589514608" lon="7.283004080389482"><ele>972.0</ele><time>2026-05-01T13:17:43Z</time></trkpt><trkpt lat="44.946857852401514" lon="7.2831062105276025"><ele>968.5000000000001</ele><time>2026-05-01T13:17:47.999Z</time></trkpt><trkpt lat="44.94689269941386" lon="7.283194373972235"><ele>965.0</ele><time>2026-05-01T13:17:50.999Z</time></trkpt><trkpt lat="44.9469719837773" lon="7.283180429246474"><ele>964.6</ele><time>2026-05-01T13:18:20.999Z</time></trkpt><trkpt lat="44.947037282398156" lon="7.283078446829622"><ele>964.2</ele><time>2026-05-01T13:18:22.999Z</time></trkpt><trkpt lat="44.94708402453564" lon="7.282950468161843"><ele>963.8</ele><time>2026-05-01T13:18:24.999Z</time></trkpt><trkpt lat="44.94701505601442" lon="7.2828374809432805"><ele>963.4</ele><time>2026-05-01T13:18:26.999Z</time></trkpt><trkpt lat="44.94692121447768" lon="7.282770345974562"><ele>963.0</ele><time>2026-05-01T13:18:27.999Z</time></trkpt><trkpt lat="44.946830167631816" lon="7.282716312565871"><ele>963.0</ele><time>2026-05-01T13:18:28.999Z</time></trkpt><trkpt lat="44.9467862965143" lon="7.282563881929624"><ele>963.0</ele><time>2026-05-01T13:18:30.999Z</time></trkpt><trkpt lat="44.946760549313865" lon="7.2824687268165444"><ele>963.0</ele><time>2026-05-01T13:18:31.999Z</time></trkpt><trkpt lat="44.946741892186445" lon="7.282352160063017"><ele>963.0</ele><time>2026-05-01T13:18:32.998Z</time></trkpt><trkpt lat="44.946715887371134" lon="7.282231520417155"><ele>963.0</ele><time>2026-05-01T13:18:33.998Z</time></trkpt><trkpt lat="44.94667919659018" lon="7.282132183427415"><ele>963.0</ele><time>2026-05-01T13:18:34.998Z</time></trkpt><trkpt lat="44.94664424481226" lon="7.282030986542065"><ele>965.1666666666666</ele><time>2026-05-01T13:18:35.998Z</time></trkpt><trkpt lat="44.94663801858976" lon="7.281909137667329"><ele>967.3333333333333</ele><time>2026-05-01T13:18:36.998Z</time></trkpt><trkpt lat="44.94664607537061" lon="7.281791274423081"><ele>969.5</ele><time>2026-05-01T13:18:37.998Z</time></trkpt><trkpt lat="44.946665219250434" lon="7.2816830862046835"><ele>971.6666666666666</ele><time>2026-05-01T13:18:38.998Z</time></trkpt><trkpt lat="44.94669163696109" lon="7.281579227261481"><ele>973.8333333333333</ele><time>2026-05-01T13:18:39.998Z</time></trkpt><trkpt lat="44.946775542638626" lon="7.2814594779696495"><ele>976.0</ele><time>2026-05-01T13:18:41.998Z</time></trkpt><trkpt lat="44.94681803767764" lon="7.281364724430522"><ele>975.9999999999999</ele><time>2026-05-01T13:18:42.998Z</time></trkpt><trkpt lat="44.94684446349923" lon="7.281266615871607"><ele>976.0</ele><time>2026-05-01T13:18:43.998Z</time></trkpt><trkpt lat="44.94686904662408" lon="7.281172297016154"><ele>976.0</ele><time>2026-05-01T13:18:44.998Z</time></trkpt><trkpt lat="44.94690903306693" lon="7.281008955948958"><ele>976.0</ele><time>2026-05-01T13:18:46.998Z</time></trkpt><trkpt lat="44.946923340573136" lon="7.280911923957632"><ele>975.9999999999999</ele><time>2026-05-01T13:18:47.998Z</time></trkpt><trkpt lat="44.9469471770657" lon="7.280812384605048"><ele>976.0</ele><time>2026-05-01T13:18:48.998Z</time></trkpt><trkpt lat="44.94697725114923" lon="7.280732719843235"><ele>975.8</ele><time>2026-05-01T13:18:49.998Z</time></trkpt><trkpt lat="44.94698837608653" lon="7.280592221879515"><ele>975.5999999999999</ele><time>2026-05-01T13:18:51.998Z</time></trkpt><trkpt lat="44.94693661962929" lon="7.2804759558619345"><ele>975.4</ele><time>2026-05-01T13:18:52.998Z</time></trkpt><trkpt lat="44.94689381403165" lon="7.280335574813863"><ele>975.2</ele><time>2026-05-01T13:18:53.998Z</time></trkpt><trkpt lat="44.946889410272036" lon="7.280194986551306"><ele>975.0</ele><time>2026-05-01T13:18:54.998Z</time></trkpt><trkpt lat="44.94691088093581" lon="7.280067340990604"><ele>975.0</ele><time>2026-05-01T13:18:55.998Z</time></trkpt><trkpt lat="44.94699619813472" lon="7.2799093089371825"><ele>975.0</ele><time>2026-05-01T13:18:56.998Z</time></trkpt><trkpt lat="44.947037530360205" lon="7.27975574251564"><ele>975.0</ele><time>2026-05-01T13:18:57.998Z</time></trkpt><trkpt lat="44.9470397940165" lon="7.279636384888382"><ele>975.0</ele><time>2026-05-01T13:18:58.998Z</time></trkpt><trkpt lat="44.94702485833582" lon="7.279484371492602"><ele>977.75</ele><time>2026-05-01T13:18:59.998Z</time></trkpt><trkpt lat="44.94701468978526" lon="7.2792877495986685"><ele>980.5</ele><time>2026-05-01T13:19:00.998Z</time></trkpt><trkpt lat="44.94699678954375" lon="7.279096696950715"><ele>983.25</ele><time>2026-05-01T13:19:01.998Z</time></trkpt><trkpt lat="44.94701446724274" lon="7.278917219039978"><ele>986.0</ele><time>2026-05-01T13:19:02.998Z</time></trkpt><trkpt lat="44.94704791621766" lon="7.278769582778273"><ele>989.0</ele><time>2026-05-01T13:19:03.998Z</time></trkpt><trkpt lat="44.947092407412896" lon="7.278614571622848"><ele>991.9999999999999</ele><time>2026-05-01T13:19:04.998Z</time></trkpt><trkpt lat="44.94712677310108" lon="7.278452876520228"><ele>994.9999999999999</ele><time>2026-05-01T13:19:05.998Z</time></trkpt><trkpt lat="44.9471493872708" lon="7.278321036297731"><ele>998.0</ele><time>2026-05-01T13:19:06.998Z</time></trkpt><trkpt lat="44.94717782910618" lon="7.278206683101607"><ele>1001.0</ele><time>2026-05-01T13:19:07.998Z</time></trkpt><trkpt lat="44.94720106243387" lon="7.278096508718435"><ele>1003.3333333333334</ele><time>2026-05-01T13:19:08.998Z</time></trkpt><trkpt lat="44.94722610854786" lon="7.277985286828643"><ele>1005.6666666666667</ele><time>2026-05-01T13:19:09.998Z</time></trkpt><trkpt lat="44.94727434072533" lon="7.27791036924162"><ele>1008.0</ele><time>2026-05-01T13:19:10.998Z</time></trkpt><trkpt lat="44.94731860402283" lon="7.277791794261963"><ele>1010.3333333333333</ele><time>2026-05-01T13:19:12.998Z</time></trkpt><trkpt lat="44.9473312024162" lon="7.277615665909235"><ele>1012.6666666666666</ele><time>2026-05-01T13:19:14.998Z</time></trkpt><trkpt lat="44.94735646735625" lon="7.277522197465294"><ele>1015.0</ele><time>2026-05-01T13:19:15.998Z</time></trkpt><trkpt lat="44.947377324627816" lon="7.277406275966295"><ele>1015.0</ele><time>2026-05-01T13:19:17.998Z</time></trkpt><trkpt lat="44.94733824924594" lon="7.277292725039491"><ele>1015.0</ele><time>2026-05-01T13:19:20.998Z</time></trkpt><trkpt lat="44.947403807311005" lon="7.277151574815642"><ele>1015.0</ele><time>2026-05-01T13:19:23.997Z</time></trkpt><trkpt lat="44.94746973166374" lon="7.277047100427444"><ele>1015.0</ele><time>2026-05-01T13:19:25.997Z</time></trkpt><trkpt lat="44.947570680885306" lon="7.276984715985401"><ele>1015.0</ele><time>2026-05-01T13:19:27.997Z</time></trkpt><trkpt lat="44.94764584901237" lon="7.276951987063543"><ele>1019.9999999999999</ele><time>2026-05-01T13:19:28.997Z</time></trkpt><trkpt lat="44.94772984690296" lon="7.276860800517824"><ele>1025.0</ele><time>2026-05-01T13:19:30Z</time></trkpt><trkpt lat="44.947789027712915" lon="7.276766306676978"><ele>1030.0</ele><time>2026-05-01T13:19:31Z</time></trkpt><trkpt lat="44.94783882512039" lon="7.276700740593139"><ele>1035.0</ele><time>2026-05-01T13:19:32Z</time></trkpt><trkpt lat="44.94791918274311" lon="7.276764818735888"><ele>1040.0</ele><time>2026-05-01T13:19:35Z</time></trkpt><trkpt lat="44.94798609393929" lon="7.276841405885988"><ele>1045.0</ele><time>2026-05-01T13:19:37Z</time></trkpt><trkpt lat="44.94803981279005" lon="7.276932387481729"><ele>1045.0</ele><time>2026-05-01T13:19:39Z</time></trkpt><trkpt lat="44.948097909093285" lon="7.27704576863022"><ele>1045.0</ele><time>2026-05-01T13:19:41Z</time></trkpt><trkpt lat="44.94817244009745" lon="7.277163598736977"><ele>1045.0</ele><time>2026-05-01T13:19:43Z</time></trkpt><trkpt lat="44.94828316405643" lon="7.2772838044174755"><ele>1045.0</ele><time>2026-05-01T13:19:45Z</time></trkpt><trkpt lat="44.948378653436045" lon="7.277413047617546"><ele>1047.2</ele><time>2026-05-01T13:19:46Z</time></trkpt><trkpt lat="44.94848040821904" lon="7.277502508715601"><ele>1049.4</ele><time>2026-05-01T13:19:47Z</time></trkpt><trkpt lat="44.948533133096205" lon="7.277569630035396"><ele>1051.6</ele><time>2026-05-01T13:19:48Z</time></trkpt><trkpt lat="44.948554939155166" lon="7.2776731908567385"><ele>1053.8</ele><time>2026-05-01T13:19:48.999Z</time></trkpt><trkpt lat="44.94857233554672" lon="7.277798671874741"><ele>1056.0</ele><time>2026-05-01T13:19:49.999Z</time></trkpt><trkpt lat="44.94860415081948" lon="7.2779309934140235"><ele>1056.0</ele><time>2026-05-01T13:19:50.999Z</time></trkpt><trkpt lat="44.9486537921498" lon="7.27807334353301"><ele>1056.0</ele><time>2026-05-01T13:19:51.999Z</time></trkpt><trkpt lat="44.94871425492763" lon="7.278213485109797"><ele>1056.0</ele><time>2026-05-01T13:19:52.999Z</time></trkpt><trkpt lat="44.94876336608835" lon="7.278306153521221"><ele>1056.0</ele><time>2026-05-01T13:19:53.999Z</time></trkpt><trkpt lat="44.94885362219726" lon="7.278293896068765"><ele>1056.0</ele><time>2026-05-01T13:19:55.999Z</time></trkpt><trkpt lat="44.94885939056344" lon="7.278196946405099"><ele>1056.0</ele><time>2026-05-01T13:20:08.999Z</time></trkpt><trkpt lat="44.94883702421352" lon="7.278063251038731"><ele>1056.0</ele><time>2026-05-01T13:20:10.999Z</time></trkpt><trkpt lat="44.94883408916746" lon="7.277956603638303"><ele>1056.0</ele><time>2026-05-01T13:20:12.999Z</time></trkpt><trkpt lat="44.948912465330764" lon="7.277875475293017"><ele>1056.0</ele><time>2026-05-01T13:20:14.999Z</time></trkpt><trkpt lat="44.94887827988371" lon="7.27777609132745"><ele>1056.0</ele><time>2026-05-01T13:20:16.999Z</time></trkpt><trkpt lat="44.9488636477664" lon="7.277675244352991"><ele>1056.0</ele><time>2026-05-01T13:20:19.999Z</time></trkpt><trkpt lat="44.948911758952406" lon="7.277555392552142"><ele>1056.0</ele><time>2026-05-01T13:20:21.999Z</time></trkpt><trkpt lat="44.948915144195865" lon="7.2773988879439955"><ele>1056.0</ele><time>2026-05-01T13:20:22.999Z</time></trkpt><trkpt lat="44.9488927946597" lon="7.277281511246863"><ele>1056.0</ele><time>2026-05-01T13:20:23.999Z</time></trkpt><trkpt lat="44.948837242033356" lon="7.277207868938854"><ele>1056.0</ele><time>2026-05-01T13:20:24.999Z</time></trkpt><trkpt lat="44.94879771752365" lon="7.277112457657688"><ele>1056.0</ele><time>2026-05-01T13:20:25.999Z</time></trkpt><trkpt lat="44.948854452145504" lon="7.27692312825258"><ele>1058.6666666666667</ele><time>2026-05-01T13:20:27.999Z</time></trkpt><trkpt lat="44.94889462858428" lon="7.276833714419947"><ele>1061.3333333333333</ele><time>2026-05-01T13:20:28.999Z</time></trkpt><trkpt lat="44.94891602853749" lon="7.276743948136925"><ele>1064.0</ele><time>2026-05-01T13:20:29.999Z</time></trkpt><trkpt lat="44.94897572303949" lon="7.276667100120716"><ele>1066.6666666666665</ele><time>2026-05-01T13:20:31.999Z</time></trkpt><trkpt lat="44.94904555028203" lon="7.27660939763614"><ele>1069.3333333333333</ele><time>2026-05-01T13:20:34.999Z</time></trkpt><trkpt lat="44.94907912184494" lon="7.276507074117047"><ele>1072.0</ele><time>2026-05-01T13:20:37.998Z</time></trkpt><trkpt lat="44.94913069747593" lon="7.276410074399546"><ele>1074.3333333333333</ele><time>2026-05-01T13:20:39.998Z</time></trkpt><trkpt lat="44.9491871683808" lon="7.276328884027549"><ele>1076.6666666666665</ele><time>2026-05-01T13:20:41.998Z</time></trkpt><trkpt lat="44.94924014418324" lon="7.276250089873384"><ele>1079.0</ele><time>2026-05-01T13:20:44.998Z</time></trkpt><trkpt lat="44.94921533817664" lon="7.276158345000723"><ele>1081.3333333333333</ele><time>2026-05-01T13:20:48.998Z</time></trkpt><trkpt lat="44.94924492678582" lon="7.276050011893142"><ele>1083.6666666666667</ele><time>2026-05-01T13:20:51.998Z</time></trkpt><trkpt lat="44.94928489430043" lon="7.275921477738058"><ele>1086.0</ele><time>2026-05-01T13:20:54.998Z</time></trkpt><trkpt lat="44.94932876060104" lon="7.275802342917475"><ele>1088.6</ele><time>2026-05-01T13:20:55.998Z</time></trkpt><trkpt lat="44.949421632776335" lon="7.275755894458245"><ele>1091.1999999999998</ele><time>2026-05-01T13:20:57.998Z</time></trkpt><trkpt lat="44.94944575682125" lon="7.275668631729699"><ele>1093.8000000000002</ele><time>2026-05-01T13:20:59.998Z</time></trkpt><trkpt lat="44.949483796439075" lon="7.27557659574924"><ele>1096.4</ele><time>2026-05-01T13:21:01.998Z</time></trkpt><trkpt lat="44.94949559132411" lon="7.275484922158196"><ele>1099.0</ele><time>2026-05-01T13:21:03.998Z</time></trkpt><trkpt lat="44.949593235549145" lon="7.275193372744397"><ele>1099.1666666666665</ele><time>2026-05-01T13:21:05.998Z</time></trkpt><trkpt lat="44.949613535675994" lon="7.275097339443556"><ele>1099.3333333333333</ele><time>2026-05-01T13:21:06.998Z</time></trkpt><trkpt lat="44.949624045935494" lon="7.275002065641064"><ele>1099.5</ele><time>2026-05-01T13:21:07.998Z</time></trkpt><trkpt lat="44.94962906871637" lon="7.27489543257831"><ele>1099.6666666666667</ele><time>2026-05-01T13:21:08.998Z</time></trkpt><trkpt lat="44.94964387557714" lon="7.274796498997222"><ele>1099.8333333333335</ele><time>2026-05-01T13:21:09.998Z</time></trkpt><trkpt lat="44.94967448357674" lon="7.27470994183221"><ele>1100.0</ele><time>2026-05-01T13:21:10.998Z</time></trkpt><trkpt lat="44.949769655527405" lon="7.274646390479881"><ele>1101.0</ele><time>2026-05-01T13:21:12.998Z</time></trkpt><trkpt lat="44.94986915209961" lon="7.2745720326454455"><ele>1102.0</ele><time>2026-05-01T13:21:14.998Z</time></trkpt><trkpt lat="44.94996151659588" lon="7.274555836657372"><ele>1103.0</ele><time>2026-05-01T13:21:16.998Z</time></trkpt><trkpt lat="44.950039609407966" lon="7.274529284574089"><ele>1104.0</ele><time>2026-05-01T13:21:38Z</time></trkpt><trkpt lat="44.95006312105708" lon="7.274424186058615"><ele>1105.0</ele><time>2026-05-01T13:21:41Z</time></trkpt><trkpt lat="44.9500388606426" lon="7.274304634819033"><ele>1105.0</ele><time>2026-05-01T13:21:43Z</time></trkpt><trkpt lat="44.950035127245975" lon="7.274171059878088"><ele>1105.0</ele><time>2026-05-01T13:21:45Z</time></trkpt><trkpt lat="44.95005732380084" lon="7.2740775652599865"><ele>1105.0</ele><time>2026-05-01T13:21:47Z</time></trkpt><trkpt lat="44.95012477036005" lon="7.274062078437469"><ele>1105.0</ele><time>2026-05-01T13:21:50Z</time></trkpt><trkpt lat="44.95018637371095" lon="7.274035812953373"><ele>1105.0</ele><time>2026-05-01T13:21:53Z</time></trkpt><trkpt lat="44.950265484477775" lon="7.2739366819356555"><ele>1105.0</ele><time>2026-05-01T13:21:53.999Z</time></trkpt><trkpt lat="44.95047763060983" lon="7.273878911252281"><ele>1109.2</ele><time>2026-05-01T13:21:55.999Z</time></trkpt><trkpt lat="44.950578147061854" lon="7.27385037157251"><ele>1113.4</ele><time>2026-05-01T13:21:57.999Z</time></trkpt><trkpt lat="44.950695199305294" lon="7.273835594239977"><ele>1117.6</ele><time>2026-05-01T13:21:59.999Z</time></trkpt><trkpt lat="44.950795817043264" lon="7.273818464461062"><ele>1121.8</ele><time>2026-05-01T13:22:00.999Z</time></trkpt><trkpt lat="44.95088302255912" lon="7.2738094591211935"><ele>1126.0</ele><time>2026-05-01T13:22:01.999Z</time></trkpt><trkpt lat="44.95095815405715" lon="7.273803780238291"><ele>1126.6666666666665</ele><time>2026-05-01T13:22:02.999Z</time></trkpt><trkpt lat="44.95103159341937" lon="7.273851866373868"><ele>1127.3333333333333</ele><time>2026-05-01T13:22:03.999Z</time></trkpt><trkpt lat="44.95111072410804" lon="7.273822718840563"><ele>1128.0</ele><time>2026-05-01T13:22:04.999Z</time></trkpt><trkpt lat="44.95120493025897" lon="7.273754136779839"><ele>1128.6666666666667</ele><time>2026-05-01T13:22:05.999Z</time></trkpt><trkpt lat="44.95127203768873" lon="7.273684562511815"><ele>1129.3333333333335</ele><time>2026-05-01T13:22:06.999Z</time></trkpt><trkpt lat="44.95131304428269" lon="7.273609699008862"><ele>1130.0</ele><time>2026-05-01T13:22:07.999Z</time></trkpt><trkpt lat="44.95129043702778" lon="7.273508504430169"><ele>1130.0</ele><time>2026-05-01T13:22:08.999Z</time></trkpt><trkpt lat="44.951262491811114" lon="7.273370367346376"><ele>1130.0</ele><time>2026-05-01T13:22:11.999Z</time></trkpt><trkpt lat="44.951280597960164" lon="7.273252812994453"><ele>1130.0</ele><time>2026-05-01T13:22:12.999Z</time></trkpt><trkpt lat="44.9512997404016" lon="7.273076552194595"><ele>1130.0</ele><time>2026-05-01T13:22:14.999Z</time></trkpt><trkpt lat="44.95128534376662" lon="7.2729596100763185"><ele>1130.0</ele><time>2026-05-01T13:22:15.999Z</time></trkpt><trkpt lat="44.95109393528481" lon="7.272894542861405"><ele>1129.0</ele><time>2026-05-01T13:22:16.999Z</time></trkpt><trkpt lat="44.950991926057355" lon="7.2728056808699195"><ele>1128.0</ele><time>2026-05-01T13:22:17.999Z</time></trkpt><trkpt lat="44.95088800470413" lon="7.272710688787254"><ele>1127.0</ele><time>2026-05-01T13:22:18.999Z</time></trkpt><trkpt lat="44.950770083531516" lon="7.272595609187667"><ele>1126.0</ele><time>2026-05-01T13:22:19.999Z</time></trkpt><trkpt lat="44.950669339524936" lon="7.272540910049016"><ele>1124.75</ele><time>2026-05-01T13:22:20.999Z</time></trkpt><trkpt lat="44.95055274856069" lon="7.272495015886508"><ele>1123.5</ele><time>2026-05-01T13:22:21.999Z</time></trkpt><trkpt lat="44.95042159641629" lon="7.272486787036271"><ele>1122.25</ele><time>2026-05-01T13:22:22.999Z</time></trkpt><trkpt lat="44.95022795307965" lon="7.272511727443484"><ele>1121.0</ele><time>2026-05-01T13:22:23.999Z</time></trkpt><trkpt lat="44.95008123203198" lon="7.272499273203567"><ele>1123.6666666666667</ele><time>2026-05-01T13:22:24.999Z</time></trkpt><trkpt lat="44.949939180504614" lon="7.272518058691107"><ele>1126.3333333333333</ele><time>2026-05-01T13:22:25.999Z</time></trkpt><trkpt lat="44.94979815943629" lon="7.272541158937431"><ele>1129.0</ele><time>2026-05-01T13:22:26.999Z</time></trkpt><trkpt lat="44.94962782185678" lon="7.2725600544724065"><ele>1129.0</ele><time>2026-05-01T13:22:27.999Z</time></trkpt><trkpt lat="44.949476698203405" lon="7.272566703970087"><ele>1129.0</ele><time>2026-05-01T13:22:28.999Z</time></trkpt><trkpt lat="44.949356421412816" lon="7.272545119053216"><ele>1129.0</ele><time>2026-05-01T13:22:29.999Z</time></trkpt><trkpt lat="44.94925050559581" lon="7.272490069798413"><ele>1129.0</ele><time>2026-05-01T13:22:30.999Z</time></trkpt><trkpt lat="44.94913883761223" lon="7.272431989433605"><ele>1130.0</ele><time>2026-05-01T13:22:31.999Z</time></trkpt><trkpt lat="44.94903635504227" lon="7.272312373393306"><ele>1131.0</ele><time>2026-05-01T13:22:32.999Z</time></trkpt><trkpt lat="44.94895555491508" lon="7.272180479282371"><ele>1132.0</ele><time>2026-05-01T13:22:33.999Z</time></trkpt><trkpt lat="44.948879834963876" lon="7.2720151908254955"><ele>1133.0</ele><time>2026-05-01T13:22:34.999Z</time></trkpt><trkpt lat="44.94879410498692" lon="7.271832657593222"><ele>1133.0</ele><time>2026-05-01T13:22:35.999Z</time></trkpt><trkpt lat="44.94869594823491" lon="7.271623218677891"><ele>1133.0</ele><time>2026-05-01T13:22:36.999Z</time></trkpt><trkpt lat="44.948582560919675" lon="7.271450826670142"><ele>1133.0</ele><time>2026-05-01T13:22:37.999Z</time></trkpt><trkpt lat="44.94848633778438" lon="7.271347057799409"><ele>1134.0</ele><time>2026-05-01T13:22:38.999Z</time></trkpt><trkpt lat="44.94838781172001" lon="7.2712637309017"><ele>1135.0</ele><time>2026-05-01T13:22:39.999Z</time></trkpt><trkpt lat="44.94828720663951" lon="7.27124028220294"><ele>1136.0</ele><time>2026-05-01T13:22:40.999Z</time></trkpt><trkpt lat="44.94818816449672" lon="7.271278794844885"><ele>1137.0</ele><time>2026-05-01T13:22:41.999Z</time></trkpt><trkpt lat="44.948084540239996" lon="7.271370711165876"><ele>1138.0</ele><time>2026-05-01T13:22:42.998Z</time></trkpt><trkpt lat="44.94795914654009" lon="7.271491134252615"><ele>1139.0</ele><time>2026-05-01T13:22:43.998Z</time></trkpt><trkpt lat="44.947813904176456" lon="7.27157956382971"><ele>1140.0</ele><time>2026-05-01T13:22:44.998Z</time></trkpt><trkpt lat="44.94767099875992" lon="7.271613161145724"><ele>1141.0</ele><time>2026-05-01T13:22:45.998Z</time></trkpt><trkpt lat="44.94755814415874" lon="7.271641580226287"><ele>1142.0</ele><time>2026-05-01T13:22:46.998Z</time></trkpt><trkpt lat="44.94740333600766" lon="7.271674585538369"><ele>1142.3333333333335</ele><time>2026-05-01T13:22:47.998Z</time></trkpt><trkpt lat="44.947260840001874" lon="7.271682460804671"><ele>1142.6666666666667</ele><time>2026-05-01T13:22:48.998Z</time></trkpt><trkpt lat="44.9471022012537" lon="7.271661528694437"><ele>1143.0</ele><time>2026-05-01T13:22:49.998Z</time></trkpt><trkpt lat="44.94695295281231" lon="7.2717029833635864"><ele>1143.0</ele><time>2026-05-01T13:22:50.998Z</time></trkpt><trkpt lat="44.94681654928915" lon="7.27185640306452"><ele>1143.0</ele><time>2026-05-01T13:22:51.998Z</time></trkpt><trkpt lat="44.94666631068954" lon="7.272039303144578"><ele>1143.0</ele><time>2026-05-01T13:22:52.998Z</time></trkpt><trkpt lat="44.94649452273671" lon="7.272274687910056"><ele>1142.25</ele><time>2026-05-01T13:22:53.998Z</time></trkpt><trkpt lat="44.94636167621792" lon="7.272505009534638"><ele>1141.5</ele><time>2026-05-01T13:22:54.998Z</time></trkpt><trkpt lat="44.946277027264934" lon="7.272648504633488"><ele>1140.75</ele><time>2026-05-01T13:22:55.998Z</time></trkpt><trkpt lat="44.94620008440829" lon="7.2727483787195615"><ele>1140.0</ele><time>2026-05-01T13:22:56.998Z</time></trkpt><trkpt lat="44.94611735718924" lon="7.272849406361664"><ele>1140.0</ele><time>2026-05-01T13:22:57.998Z</time></trkpt><trkpt lat="44.9460024498717" lon="7.2729247558548185"><ele>1140.0</ele><time>2026-05-01T13:22:58.998Z</time></trkpt><trkpt lat="44.94585294065837" lon="7.2730044377564065"><ele>1140.0</ele><time>2026-05-01T13:22:59.998Z</time></trkpt><trkpt lat="44.94572104278566" lon="7.2730843457810845"><ele>1140.0</ele><time>2026-05-01T13:23:00.998Z</time></trkpt><trkpt lat="44.945616959456586" lon="7.273124490125636"><ele>1143.0</ele><time>2026-05-01T13:23:01.998Z</time></trkpt><trkpt lat="44.94554109104953" lon="7.2730166295498755"><ele>1146.0</ele><time>2026-05-01T13:23:03.998Z</time></trkpt><trkpt lat="44.9454759999981" lon="7.272975670986083"><ele>1149.0</ele><time>2026-05-01T13:23:04.998Z</time></trkpt><trkpt lat="44.94540714984555" lon="7.272953144395183"><ele>1152.0</ele><time>2026-05-01T13:23:05.998Z</time></trkpt><trkpt lat="44.94534924745215" lon="7.27287868475452"><ele>1155.0</ele><time>2026-05-01T13:23:06.998Z</time></trkpt><trkpt lat="44.94525022149826" lon="7.272816698137812"><ele>1158.0</ele><time>2026-05-01T13:23:07.998Z</time></trkpt><trkpt lat="44.945131085755996" lon="7.272767468323425"><ele>1158.5</ele><time>2026-05-01T13:23:08.998Z</time></trkpt><trkpt lat="44.94500924333781" lon="7.272696089754033"><ele>1159.0</ele><time>2026-05-01T13:23:09.998Z</time></trkpt><trkpt lat="44.944906770606764" lon="7.272608670291836"><ele>1159.5</ele><time>2026-05-01T13:23:10.998Z</time></trkpt><trkpt lat="44.94481299084585" lon="7.272488018839456"><ele>1160.0</ele><time>2026-05-01T13:23:11.998Z</time></trkpt><trkpt lat="44.94470069624446" lon="7.272394163899532"><ele>1160.0</ele><time>2026-05-01T13:23:12.998Z</time></trkpt><trkpt lat="44.944593500596916" lon="7.272356530968068"><ele>1160.0</ele><time>2026-05-01T13:23:13.998Z</time></trkpt><trkpt lat="44.9444883041874" lon="7.272372373704387"><ele>1160.0</ele><time>2026-05-01T13:23:14.998Z</time></trkpt><trkpt lat="44.94436893511896" lon="7.272365455792719"><ele>1160.0</ele><time>2026-05-01T13:23:15.998Z</time></trkpt><trkpt lat="44.94426231343494" lon="7.272433909228293"><ele>1160.5</ele><time>2026-05-01T13:23:16.998Z</time></trkpt><trkpt lat="44.94411732285551" lon="7.272504677538624"><ele>1161.0</ele><time>2026-05-01T13:23:17.998Z</time></trkpt><trkpt lat="44.943968725097854" lon="7.272559350049902"><ele>1161.5</ele><time>2026-05-01T13:23:18.998Z</time></trkpt><trkpt lat="44.94384362313158" lon="7.272629599499297"><ele>1162.0</ele><time>2026-05-01T13:23:19.998Z</time></trkpt><trkpt lat="44.9437243772665" lon="7.272687823482536"><ele>1162.0</ele><time>2026-05-01T13:23:20.998Z</time></trkpt><trkpt lat="44.943604212931206" lon="7.272704127975996"><ele>1162.0</ele><time>2026-05-01T13:23:21.998Z</time></trkpt><trkpt lat="44.94349212798567" lon="7.272686228005325"><ele>1162.0</ele><time>2026-05-01T13:23:22.998Z</time></trkpt><trkpt lat="44.94339531381629" lon="7.272646635870573"><ele>1162.0</ele><time>2026-05-01T13:23:23.998Z</time></trkpt><trkpt lat="44.943298688391636" lon="7.272603103394354"><ele>1162.0</ele><time>2026-05-01T13:23:24.998Z</time></trkpt><trkpt lat="44.943231134647455" lon="7.272509552347267"><ele>1160.8333333333333</ele><time>2026-05-01T13:23:25.998Z</time></trkpt><trkpt lat="44.94315001565305" lon="7.272429747987913"><ele>1159.6666666666665</ele><time>2026-05-01T13:23:26.998Z</time></trkpt><trkpt lat="44.94307939941809" lon="7.272367451705308"><ele>1158.5</ele><time>2026-05-01T13:23:27.998Z</time></trkpt><trkpt lat="44.943019233743016" lon="7.272315314597707"><ele>1157.3333333333333</ele><time>2026-05-01T13:23:28.998Z</time></trkpt><trkpt lat="44.94295579339914" lon="7.272261680482338"><ele>1156.1666666666667</ele><time>2026-05-01T13:23:29.998Z</time></trkpt><trkpt lat="44.94288208294098" lon="7.272216941049012"><ele>1155.0</ele><time>2026-05-01T13:23:30.997Z</time></trkpt><trkpt lat="44.94280469491064" lon="7.27220190988845"><ele>1156.3333333333333</ele><time>2026-05-01T13:23:31.997Z</time></trkpt><trkpt lat="44.942729469818595" lon="7.272205068772951"><ele>1157.6666666666667</ele><time>2026-05-01T13:23:32.997Z</time></trkpt><trkpt lat="44.942649407156665" lon="7.2722166865639934"><ele>1159.0</ele><time>2026-05-01T13:23:33.997Z</time></trkpt><trkpt lat="44.942573178673676" lon="7.272230509789317"><ele>1160.3333333333335</ele><time>2026-05-01T13:23:34.997Z</time></trkpt><trkpt lat="44.94250778121991" lon="7.272242580348727"><ele>1161.6666666666667</ele><time>2026-05-01T13:23:35.997Z</time></trkpt><trkpt lat="44.94241305592509" lon="7.272259863675418"><ele>1163.0</ele><time>2026-05-01T13:23:36.997Z</time></trkpt><trkpt lat="44.94231008376872" lon="7.272274040636174"><ele>1159.4</ele><time>2026-05-01T13:23:37.997Z</time></trkpt><trkpt lat="44.94220686763079" lon="7.272288073128238"><ele>1155.8</ele><time>2026-05-01T13:23:38.997Z</time></trkpt><trkpt lat="44.94209931692694" lon="7.272299970671496"><ele>1152.2</ele><time>2026-05-01T13:23:39.997Z</time></trkpt><trkpt lat="44.94198626440827" lon="7.272311086768267"><ele>1148.6</ele><time>2026-05-01T13:23:40.997Z</time></trkpt><trkpt lat="44.9418755426251" lon="7.272324441580926"><ele>1145.0</ele><time>2026-05-01T13:23:42Z</time></trkpt><trkpt lat="44.941778275842154" lon="7.272309007055514"><ele>1146.0</ele><time>2026-05-01T13:23:43Z</time></trkpt><trkpt lat="44.94171516389" lon="7.2722632673083965"><ele>1147.0</ele><time>2026-05-01T13:23:44Z</time></trkpt><trkpt lat="44.941664119689925" lon="7.272196256032857"><ele>1148.0</ele><time>2026-05-01T13:23:45Z</time></trkpt><trkpt lat="44.94159049822069" lon="7.272105084216799"><ele>1149.0</ele><time>2026-05-01T13:23:46Z</time></trkpt><trkpt lat="44.94150197919085" lon="7.27199501686584"><ele>1150.0</ele><time>2026-05-01T13:23:47Z</time></trkpt><trkpt lat="44.94139735981993" lon="7.271850898904739"><ele>1150.0</ele><time>2026-05-01T13:23:48Z</time></trkpt><trkpt lat="44.94126971421983" lon="7.271817056779136"><ele>1150.0</ele><time>2026-05-01T13:23:49Z</time></trkpt><trkpt lat="44.941170816298325" lon="7.271754481334622"><ele>1150.0</ele><time>2026-05-01T13:23:50Z</time></trkpt><trkpt lat="44.94111005183967" lon="7.271691291579037"><ele>1150.0</ele><time>2026-05-01T13:23:51Z</time></trkpt><trkpt lat="44.94107571920199" lon="7.271601650732008"><ele>1150.0</ele><time>2026-05-01T13:23:52Z</time></trkpt><trkpt lat="44.94103494735369" lon="7.271477924580243"><ele>1149.8</ele><time>2026-05-01T13:23:53Z</time></trkpt><trkpt lat="44.9409879539241" lon="7.2713422731262245"><ele>1149.6</ele><time>2026-05-01T13:23:54Z</time></trkpt><trkpt lat="44.94091526003247" lon="7.27124440938228"><ele>1149.4</ele><time>2026-05-01T13:23:55Z</time></trkpt><trkpt lat="44.94082277137411" lon="7.271143052414886"><ele>1149.2</ele><time>2026-05-01T13:23:56Z</time></trkpt><trkpt lat="44.9407364108442" lon="7.271089119879862"><ele>1149.0</ele><time>2026-05-01T13:23:57Z</time></trkpt><trkpt lat="44.9406273099401" lon="7.271062133777301"><ele>1146.6000000000001</ele><time>2026-05-01T13:23:58Z</time></trkpt><trkpt lat="44.94053479832002" lon="7.271054302326123"><ele>1144.2</ele><time>2026-05-01T13:23:58.999Z</time></trkpt><trkpt lat="44.940464039492305" lon="7.271049369101382"><ele>1141.8000000000002</ele><time>2026-05-01T13:23:59.999Z</time></trkpt><trkpt lat="44.94036148698471" lon="7.271034154340128"><ele>1139.4</ele><time>2026-05-01T13:24:01.999Z</time></trkpt><trkpt lat="44.94021411371136" lon="7.271012289959119"><ele>1137.0</ele><time>2026-05-01T13:24:15.999Z</time></trkpt><trkpt lat="44.940128196755005" lon="7.270997679204731"><ele>1137.0</ele><time>2026-05-01T13:24:16.999Z</time></trkpt><trkpt lat="44.9400438295696" lon="7.270983276242966"><ele>1137.0</ele><time>2026-05-01T13:24:17.999Z</time></trkpt><trkpt lat="44.939959262282166" lon="7.270965090019771"><ele>1137.0</ele><time>2026-05-01T13:24:18.999Z</time></trkpt><trkpt lat="44.939890239760416" lon="7.270950068413861"><ele>1137.0</ele><time>2026-05-01T13:24:19.999Z</time></trkpt><trkpt lat="44.939805042720884" lon="7.270930496954124"><ele>1137.0</ele><time>2026-05-01T13:24:20.999Z</time></trkpt><trkpt lat="44.93972197503826" lon="7.270906960663733"><ele>1137.0</ele><time>2026-05-01T13:24:21.999Z</time></trkpt><trkpt lat="44.939623849790785" lon="7.270887689277665"><ele>1137.0</ele><time>2026-05-01T13:24:22.999Z</time></trkpt><trkpt lat="44.939528212647005" lon="7.270830260350757"><ele>1137.0</ele><time>2026-05-01T13:24:23.999Z</time></trkpt><trkpt lat="44.93945473920585" lon="7.270757886379561"><ele>1137.0</ele><time>2026-05-01T13:24:24.999Z</time></trkpt><trkpt lat="44.93938954535231" lon="7.270679924830585"><ele>1137.0</ele><time>2026-05-01T13:24:25.999Z</time></trkpt><trkpt lat="44.95006312105708" lon="7.274424186058615"><ele>1135.1666666666667</ele><time>2026-05-01T13:21:41Z</time></trkpt><trkpt lat="44.9500388606426" lon="7.274304634819033"><ele>1133.3333333333333</ele><time>2026-05-01T13:21:43Z</time></trkpt><trkpt lat="44.950035127245975" lon="7.274171059878088"><ele>1131.5</ele><time>2026-05-01T13:21:45Z</time></trkpt><trkpt lat="44.95005732380084" lon="7.2740775652599865"><ele>1129.6666666666665</ele><time>2026-05-01T13:21:47Z</time></trkpt><trkpt lat="44.95012477036005" lon="7.274062078437469"><ele>1127.8333333333333</ele><time>2026-05-01T13:21:50Z</time></trkpt><trkpt lat="44.95018637371095" lon="7.274035812953373"><ele>1126.0</ele><time>2026-05-01T13:21:53Z</time></trkpt><trkpt lat="44.950265484477775" lon="7.2739366819356555"><ele>1126.0</ele><time>2026-05-01T13:21:53.999Z</time></trkpt><trkpt lat="44.95047763060983" lon="7.273878911252281"><ele>1126.0</ele><time>2026-05-01T13:21:55.999Z</time></trkpt><trkpt lat="44.950578147061854" lon="7.27385037157251"><ele>1126.0</ele><time>2026-05-01T13:21:57.999Z</time></trkpt><trkpt lat="44.950695199305294" lon="7.273835594239977"><ele>1126.0</ele><time>2026-05-01T13:21:59.999Z</time></trkpt><trkpt lat="44.950795817043264" lon="7.273818464461062"><ele>1126.6666666666665</ele><time>2026-05-01T13:22:00.999Z</time></trkpt><trkpt lat="44.95088302255912" lon="7.2738094591211935"><ele>1127.3333333333333</ele><time>2026-05-01T13:22:01.999Z</time></trkpt><trkpt lat="44.95095815405715" lon="7.273803780238291"><ele>1128.0</ele><time>2026-05-01T13:22:02.999Z</time></trkpt><trkpt lat="44.95103159341937" lon="7.273851866373868"><ele>1128.6666666666667</ele><time>2026-05-01T13:22:03.999Z</time></trkpt><trkpt lat="44.95111072410804" lon="7.273822718840563"><ele>1129.3333333333335</ele><time>2026-05-01T13:22:04.999Z</time></trkpt><trkpt lat="44.95120493025897" lon="7.273754136779839"><ele>1130.0</ele><time>2026-05-01T13:22:05.999Z</time></trkpt><trkpt lat="44.95127203768873" lon="7.273684562511815"><ele>1130.0</ele><time>2026-05-01T13:22:06.999Z</time></trkpt><trkpt lat="44.95131304428269" lon="7.273609699008862"><ele>1130.0</ele><time>2026-05-01T13:22:07.999Z</time></trkpt><trkpt lat="44.95129043702778" lon="7.273508504430169"><ele>1130.0</ele><time>2026-05-01T13:22:08.999Z</time></trkpt><trkpt lat="44.951262491811114" lon="7.273370367346376"><ele>1130.0</ele><time>2026-05-01T13:22:11.999Z</time></trkpt><trkpt lat="44.951280597960164" lon="7.273252812994453"><ele>1130.0</ele><time>2026-05-01T13:22:12.999Z</time></trkpt><trkpt lat="44.9512997404016" lon="7.273076552194595"><ele>1129.0</ele><time>2026-05-01T13:22:14.999Z</time></trkpt><trkpt lat="44.95128534376662" lon="7.2729596100763185"><ele>1128.0</ele><time>2026-05-01T13:22:15.999Z</time></trkpt><trkpt lat="44.95109393528481" lon="7.272894542861405"><ele>1127.0</ele><time>2026-05-01T13:22:16.999Z</time></trkpt><trkpt lat="44.950991926057355" lon="7.2728056808699195"><ele>1126.0</ele><time>2026-05-01T13:22:17.999Z</time></trkpt><trkpt lat="44.95088800470413" lon="7.272710688787254"><ele>1124.75</ele><time>2026-05-01T13:22:18.999Z</time></trkpt><trkpt lat="44.950770083531516" lon="7.272595609187667"><ele>1123.5</ele><time>2026-05-01T13:22:19.999Z</time></trkpt><trkpt lat="44.950669339524936" lon="7.272540910049016"><ele>1122.25</ele><time>2026-05-01T13:22:20.999Z</time></trkpt><trkpt lat="44.95055274856069" lon="7.272495015886508"><ele>1121.0</ele><time>2026-05-01T13:22:21.999Z</time></trkpt><trkpt lat="44.95042159641629" lon="7.272486787036271"><ele>1121.0</ele><time>2026-05-01T13:22:22.999Z</time></trkpt><trkpt lat="44.95022795307965" lon="7.272511727443484"><ele>1121.0</ele><time>2026-05-01T13:22:23.999Z</time></trkpt><trkpt lat="44.95008123203198" lon="7.272499273203567"><ele>1121.0</ele><time>2026-05-01T13:22:24.999Z</time></trkpt><trkpt lat="44.949939180504614" lon="7.272518058691107"><ele>1123.6666666666667</ele><time>2026-05-01T13:22:25.999Z</time></trkpt><trkpt lat="44.94979815943629" lon="7.272541158937431"><ele>1126.3333333333333</ele><time>2026-05-01T13:22:26.999Z</time></trkpt><trkpt lat="44.94962782185678" lon="7.2725600544724065"><ele>1129.0</ele><time>2026-05-01T13:22:27.999Z</time></trkpt><trkpt lat="44.949476698203405" lon="7.272566703970087"><ele>1129.0</ele><time>2026-05-01T13:22:28.999Z</time></trkpt><trkpt lat="44.949356421412816" lon="7.272545119053216"><ele>1129.0</ele><time>2026-05-01T13:22:29.999Z</time></trkpt><trkpt lat="44.94925050559581" lon="7.272490069798413"><ele>1129.0</ele><time>2026-05-01T13:22:30.999Z</time></trkpt><trkpt lat="44.94913883761223" lon="7.272431989433605"><ele>1129.0</ele><time>2026-05-01T13:22:31.999Z</time></trkpt><trkpt lat="44.94903635504227" lon="7.272312373393306"><ele>1130.0</ele><time>2026-05-01T13:22:32.999Z</time></trkpt><trkpt lat="44.94895555491508" lon="7.272180479282371"><ele>1131.0</ele><time>2026-05-01T13:22:33.999Z</time></trkpt><trkpt lat="44.948879834963876" lon="7.2720151908254955"><ele>1132.0</ele><time>2026-05-01T13:22:34.999Z</time></trkpt><trkpt lat="44.94879410498692" lon="7.271832657593222"><ele>1133.0</ele><time>2026-05-01T13:22:35.999Z</time></trkpt><trkpt lat="44.94869594823491" lon="7.271623218677891"><ele>1133.0</ele><time>2026-05-01T13:22:36.999Z</time></trkpt><trkpt lat="44.948582560919675" lon="7.271450826670142"><ele>1133.0</ele><time>2026-05-01T13:22:37.999Z</time></trkpt><trkpt lat="44.94848633778438" lon="7.271347057799409"><ele>1133.0</ele><time>2026-05-01T13:22:38.999Z</time></trkpt><trkpt lat="44.94838781172001" lon="7.2712637309017"><ele>1133.0</ele><time>2026-05-01T13:22:39.999Z</time></trkpt><trkpt lat="44.94828720663951" lon="7.27124028220294"><ele>1134.25</ele><time>2026-05-01T13:22:40.999Z</time></trkpt><trkpt lat="44.94818816449672" lon="7.271278794844885"><ele>1135.5</ele><time>2026-05-01T13:22:41.999Z</time></trkpt><trkpt lat="44.948084540239996" lon="7.271370711165876"><ele>1136.75</ele><time>2026-05-01T13:22:42.998Z</time></trkpt><trkpt lat="44.94795914654009" lon="7.271491134252615"><ele>1138.0</ele><time>2026-05-01T13:22:43.998Z</time></trkpt><trkpt lat="44.947813904176456" lon="7.27157956382971"><ele>1139.0</ele><time>2026-05-01T13:22:44.998Z</time></trkpt><trkpt lat="44.94767099875992" lon="7.271613161145724"><ele>1140.0</ele><time>2026-05-01T13:22:45.998Z</time></trkpt><trkpt lat="44.94755814415874" lon="7.271641580226287"><ele>1141.0</ele><time>2026-05-01T13:22:46.998Z</time></trkpt><trkpt lat="44.94740333600766" lon="7.271674585538369"><ele>1142.0</ele><time>2026-05-01T13:22:47.998Z</time></trkpt><trkpt lat="44.947260840001874" lon="7.271682460804671"><ele>1142.3333333333335</ele><time>2026-05-01T13:22:48.998Z</time></trkpt><trkpt lat="44.9471022012537" lon="7.271661528694437"><ele>1142.6666666666667</ele><time>2026-05-01T13:22:49.998Z</time></trkpt><trkpt lat="44.94695295281231" lon="7.2717029833635864"><ele>1143.0</ele><time>2026-05-01T13:22:50.998Z</time></trkpt><trkpt lat="44.94681654928915" lon="7.27185640306452"><ele>1142.0</ele><time>2026-05-01T13:22:51.998Z</time></trkpt><trkpt lat="44.94666631068954" lon="7.272039303144578"><ele>1141.0</ele><time>2026-05-01T13:22:52.998Z</time></trkpt><trkpt lat="44.94649452273671" lon="7.272274687910056"><ele>1140.0</ele><time>2026-05-01T13:22:53.998Z</time></trkpt><trkpt lat="44.94636167621792" lon="7.272505009534638"><ele>1140.0</ele><time>2026-05-01T13:22:54.998Z</time></trkpt><trkpt lat="44.946277027264934" lon="7.272648504633488"><ele>1140.0</ele><time>2026-05-01T13:22:55.998Z</time></trkpt><trkpt lat="44.94620008440829" lon="7.2727483787195615"><ele>1140.0</ele><time>2026-05-01T13:22:56.998Z</time></trkpt><trkpt lat="44.94611735718924" lon="7.272849406361664"><ele>1140.0</ele><time>2026-05-01T13:22:57.998Z</time></trkpt><trkpt lat="44.9460024498717" lon="7.2729247558548185"><ele>1142.25</ele><time>2026-05-01T13:22:58.998Z</time></trkpt><trkpt lat="44.94585294065837" lon="7.2730044377564065"><ele>1144.5</ele><time>2026-05-01T13:22:59.998Z</time></trkpt><trkpt lat="44.94572104278566" lon="7.2730843457810845"><ele>1146.75</ele><time>2026-05-01T13:23:00.998Z</time></trkpt><trkpt lat="44.945616959456586" lon="7.273124490125636"><ele>1149.0</ele><time>2026-05-01T13:23:01.998Z</time></trkpt><trkpt lat="44.94554109104953" lon="7.2730166295498755"><ele>1150.8</ele><time>2026-05-01T13:23:03.998Z</time></trkpt><trkpt lat="44.9454759999981" lon="7.272975670986083"><ele>1152.6000000000001</ele><time>2026-05-01T13:23:04.998Z</time></trkpt><trkpt lat="44.94540714984555" lon="7.272953144395183"><ele>1154.4</ele><time>2026-05-01T13:23:05.998Z</time></trkpt><trkpt lat="44.94534924745215" lon="7.27287868475452"><ele>1156.2</ele><time>2026-05-01T13:23:06.998Z</time></trkpt><trkpt lat="44.94525022149826" lon="7.272816698137812"><ele>1158.0</ele><time>2026-05-01T13:23:07.998Z</time></trkpt><trkpt lat="44.945131085755996" lon="7.272767468323425"><ele>1158.5</ele><time>2026-05-01T13:23:08.998Z</time></trkpt><trkpt lat="44.94500924333781" lon="7.272696089754033"><ele>1159.0</ele><time>2026-05-01T13:23:09.998Z</time></trkpt><trkpt lat="44.944906770606764" lon="7.272608670291836"><ele>1159.5</ele><time>2026-05-01T13:23:10.998Z</time></trkpt><trkpt lat="44.94481299084585" lon="7.272488018839456"><ele>1160.0</ele><time>2026-05-01T13:23:11.998Z</time></trkpt><trkpt lat="44.94470069624446" lon="7.272394163899532"><ele>1160.0</ele><time>2026-05-01T13:23:12.998Z</time></trkpt><trkpt lat="44.944593500596916" lon="7.272356530968068"><ele>1160.0</ele><time>2026-05-01T13:23:13.998Z</time></trkpt><trkpt lat="44.9444883041874" lon="7.272372373704387"><ele>1160.0</ele><time>2026-05-01T13:23:14.998Z</time></trkpt><trkpt lat="44.94436893511896" lon="7.272365455792719"><ele>1160.0</ele><time>2026-05-01T13:23:15.998Z</time></trkpt><trkpt lat="44.94426231343494" lon="7.272433909228293"><ele>1160.5</ele><time>2026-05-01T13:23:16.998Z</time></trkpt><trkpt lat="44.94411732285551" lon="7.272504677538624"><ele>1161.0</ele><time>2026-05-01T13:23:17.998Z</time></trkpt><trkpt lat="44.943968725097854" lon="7.272559350049902"><ele>1161.5</ele><time>2026-05-01T13:23:18.998Z</time></trkpt><trkpt lat="44.94384362313158" lon="7.272629599499297"><ele>1162.0</ele><time>2026-05-01T13:23:19.998Z</time></trkpt><trkpt lat="44.9437243772665" lon="7.272687823482536"><ele>1162.0</ele><time>2026-05-01T13:23:20.998Z</time></trkpt><trkpt lat="44.943604212931206" lon="7.272704127975996"><ele>1162.0</ele><time>2026-05-01T13:23:21.998Z</time></trkpt><trkpt lat="44.94349212798567" lon="7.272686228005325"><ele>1162.0</ele><time>2026-05-01T13:23:22.998Z</time></trkpt><trkpt lat="44.94339531381629" lon="7.272646635870573"><ele>1162.0</ele><time>2026-05-01T13:23:23.998Z</time></trkpt><trkpt lat="44.943298688391636" lon="7.272603103394354"><ele>1162.0</ele><time>2026-05-01T13:23:24.998Z</time></trkpt><trkpt lat="44.943231134647455" lon="7.272509552347267"><ele>1160.8333333333333</ele><time>2026-05-01T13:23:25.998Z</time></trkpt><trkpt lat="44.94315001565305" lon="7.272429747987913"><ele>1159.6666666666665</ele><time>2026-05-01T13:23:26.998Z</time></trkpt><trkpt lat="44.94307939941809" lon="7.272367451705308"><ele>1158.5</ele><time>2026-05-01T13:23:27.998Z</time></trkpt><trkpt lat="44.943019233743016" lon="7.272315314597707"><ele>1157.3333333333333</ele><time>2026-05-01T13:23:28.998Z</time></trkpt><trkpt lat="44.94295579339914" lon="7.272261680482338"><ele>1156.1666666666667</ele><time>2026-05-01T13:23:29.998Z</time></trkpt><trkpt lat="44.94288208294098" lon="7.272216941049012"><ele>1155.0</ele><time>2026-05-01T13:23:30.997Z</time></trkpt><trkpt lat="44.94280469491064" lon="7.27220190988845"><ele>1156.3333333333333</ele><time>2026-05-01T13:23:31.997Z</time></trkpt><trkpt lat="44.942729469818595" lon="7.272205068772951"><ele>1157.6666666666667</ele><time>2026-05-01T13:23:32.997Z</time></trkpt><trkpt lat="44.942649407156665" lon="7.2722166865639934"><ele>1159.0</ele><time>2026-05-01T13:23:33.997Z</time></trkpt><trkpt lat="44.942573178673676" lon="7.272230509789317"><ele>1160.3333333333335</ele><time>2026-05-01T13:23:34.997Z</time></trkpt><trkpt lat="44.94250778121991" lon="7.272242580348727"><ele>1161.6666666666667</ele><time>2026-05-01T13:23:35.997Z</time></trkpt><trkpt lat="44.94241305592509" lon="7.272259863675418"><ele>1163.0</ele><time>2026-05-01T13:23:36.997Z</time></trkpt><trkpt lat="44.94231008376872" lon="7.272274040636174"><ele>1159.4</ele><time>2026-05-01T13:23:37.997Z</time></trkpt><trkpt lat="44.94220686763079" lon="7.272288073128238"><ele>1155.8</ele><time>2026-05-01T13:23:38.997Z</time></trkpt><trkpt lat="44.94209931692694" lon="7.272299970671496"><ele>1152.2</ele><time>2026-05-01T13:23:39.997Z</time></trkpt><trkpt lat="44.94198626440827" lon="7.272311086768267"><ele>1148.6</ele><time>2026-05-01T13:23:40.997Z</time></trkpt><trkpt lat="44.9418755426251" lon="7.272324441580926"><ele>1145.0</ele><time>2026-05-01T13:23:42Z</time></trkpt><trkpt lat="44.941778275842154" lon="7.272309007055514"><ele>1146.0</ele><time>2026-05-01T13:23:43Z</time></trkpt><trkpt lat="44.94171516389" lon="7.2722632673083965"><ele>1147.0</ele><time>2026-05-01T13:23:44Z</time></trkpt><trkpt lat="44.941664119689925" lon="7.272196256032857"><ele>1148.0</ele><time>2026-05-01T13:23:45Z</time></trkpt><trkpt lat="44.94159049822069" lon="7.272105084216799"><ele>1149.0</ele><time>2026-05-01T13:23:46Z</time></trkpt><trkpt lat="44.94150197919085" lon="7.27199501686584"><ele>1150.0</ele><time>2026-05-01T13:23:47Z</time></trkpt><trkpt lat="44.94139735981993" lon="7.271850898904739"><ele>1150.0</ele><time>2026-05-01T13:23:48Z</time></trkpt><trkpt lat="44.94126971421983" lon="7.271817056779136"><ele>1150.0</ele><time>2026-05-01T13:23:49Z</time></trkpt><trkpt lat="44.941170816298325" lon="7.271754481334622"><ele>1150.0</ele><time>2026-05-01T13:23:50Z</time></trkpt><trkpt lat="44.94111005183967" lon="7.271691291579037"><ele>1150.0</ele><time>2026-05-01T13:23:51Z</time></trkpt><trkpt lat="44.94107571920199" lon="7.271601650732008"><ele>1150.0</ele><time>2026-05-01T13:23:52Z</time></trkpt><trkpt lat="44.94103494735369" lon="7.271477924580243"><ele>1149.8</ele><time>2026-05-01T13:23:53Z</time></trkpt><trkpt lat="44.9409879539241" lon="7.2713422731262245"><ele>1149.6</ele><time>2026-05-01T13:23:54Z</time></trkpt><trkpt lat="44.94091526003247" lon="7.27124440938228"><ele>1149.4</ele><time>2026-05-01T13:23:55Z</time></trkpt><trkpt lat="44.94082277137411" lon="7.271143052414886"><ele>1149.2</ele><time>2026-05-01T13:23:56Z</time></trkpt><trkpt lat="44.9407364108442" lon="7.271089119879862"><ele>1149.0</ele><time>2026-05-01T13:23:57Z</time></trkpt><trkpt lat="44.9406273099401" lon="7.271062133777301"><ele>1146.6000000000001</ele><time>2026-05-01T13:23:58Z</time></trkpt><trkpt lat="44.94053479832002" lon="7.271054302326123"><ele>1144.2</ele><time>2026-05-01T13:23:58.999Z</time></trkpt><trkpt lat="44.940464039492305" lon="7.271049369101382"><ele>1141.8000000000002</ele><time>2026-05-01T13:23:59.999Z</time></trkpt><trkpt lat="44.94036148698471" lon="7.271034154340128"><ele>1139.4</ele><time>2026-05-01T13:24:01.999Z</time></trkpt><trkpt lat="44.94021411371136" lon="7.271012289959119"><ele>1137.0</ele><time>2026-05-01T13:24:15.999Z</time></trkpt><trkpt lat="44.940128196755005" lon="7.270997679204731"><ele>1137.0</ele><time>2026-05-01T13:24:16.999Z</time></trkpt><trkpt lat="44.9400438295696" lon="7.270983276242966"><ele>1137.0</ele><time>2026-05-01T13:24:17.999Z</time></trkpt><trkpt lat="44.939959262282166" lon="7.270965090019771"><ele>1137.0</ele><time>2026-05-01T13:24:18.999Z</time></trkpt><trkpt lat="44.939890239760416" lon="7.270950068413861"><ele>1137.0</ele><time>2026-05-01T13:24:19.999Z</time></trkpt><trkpt lat="44.939805042720884" lon="7.270930496954124"><ele>1137.0</ele><time>2026-05-01T13:24:20.999Z</time></trkpt><trkpt lat="44.93972197503826" lon="7.270906960663733"><ele>1137.0</ele><time>2026-05-01T13:24:21.999Z</time></trkpt><trkpt lat="44.939623849790785" lon="7.270887689277665"><ele>1137.0</ele><time>2026-05-01T13:24:22.999Z</time></trkpt><trkpt lat="44.939528212647005" lon="7.270830260350757"><ele>1137.0</ele><time>2026-05-01T13:24:23.999Z</time></trkpt><trkpt lat="44.93945473920585" lon="7.270757886379561"><ele>1137.0</ele><time>2026-05-01T13:24:24.999Z</time></trkpt><trkpt lat="44.93938954535231" lon="7.270679924830585"><ele>1137.0</ele><time>2026-05-01T13:24:25.999Z</time></trkpt><trkpt lat="44.93932137845129" lon="7.2706087290000205"><ele>1137.0</ele><time>2026-05-01T13:24:27.999Z</time></trkpt><trkpt lat="44.93925230046152" lon="7.270561211555607"><ele>1137.0</ele><time>2026-05-01T13:24:30.999Z</time></trkpt><trkpt lat="44.939205112801616" lon="7.27048775755178"><ele>1139.0</ele><time>2026-05-01T13:24:32.999Z</time></trkpt><trkpt lat="44.93906259780449" lon="7.270710565066869"><ele>1141.0</ele><time>2026-05-01T13:24:33.999Z</time></trkpt><trkpt lat="44.93901345323932" lon="7.270772775071358"><ele>1143.0</ele><time>2026-05-01T13:24:34.999Z</time></trkpt><trkpt lat="44.93894085641357" lon="7.270806705926894"><ele>1145.0</ele><time>2026-05-01T13:24:35.999Z</time></trkpt><trkpt lat="44.938774312438966" lon="7.270851293427574"><ele>1145.0</ele><time>2026-05-01T13:24:37.999Z</time></trkpt><trkpt lat="44.938699594841694" lon="7.270933045721047"><ele>1145.0</ele><time>2026-05-01T13:24:38.999Z</time></trkpt><trkpt lat="44.93859888656164" lon="7.270928048749441"><ele>1145.0</ele><time>2026-05-01T13:24:41Z</time></trkpt><trkpt lat="44.93852349922327" lon="7.270874921628217"><ele>1145.0</ele><time>2026-05-01T13:24:42Z</time></trkpt><trkpt lat="44.938438295168346" lon="7.270779753247094"><ele>1145.0</ele><time>2026-05-01T13:24:43Z</time></trkpt><trkpt lat="44.93838180886741" lon="7.27064890126555"><ele>1145.8</ele><time>2026-05-01T13:24:44Z</time></trkpt><trkpt lat="44.93833562049094" lon="7.270489114094172"><ele>1146.6</ele><time>2026-05-01T13:24:45Z</time></trkpt><trkpt lat="44.938283003071085" lon="7.270374511693672"><ele>1147.4</ele><time>2026-05-01T13:24:46Z</time></trkpt><trkpt lat="44.9382272252346" lon="7.270296431660065"><ele>1148.2</ele><time>2026-05-01T13:24:46.999Z</time></trkpt><trkpt lat="44.93819418747647" lon="7.270139709085685"><ele>1149.0</ele><time>2026-05-01T13:24:48.999Z</time></trkpt><trkpt lat="44.938166692364874" lon="7.270027374440668"><ele>1149.0</ele><time>2026-05-01T13:24:49.999Z</time></trkpt><trkpt lat="44.93813861152534" lon="7.269937573815651"><ele>1149.0</ele><time>2026-05-01T13:24:50.999Z</time></trkpt><trkpt lat="44.93807533271368" lon="7.269858753671649"><ele>1149.0</ele><time>2026-05-01T13:24:51.999Z</time></trkpt><trkpt lat="44.938028383331265" lon="7.2697722825845785"><ele>1149.0</ele><time>2026-05-01T13:24:52.999Z</time></trkpt><trkpt lat="44.9379394440799" lon="7.269668277958494"><ele>1149.0</ele><time>2026-05-01T13:24:54.999Z</time></trkpt><trkpt lat="44.937860565701115" lon="7.26961634128265"><ele>1149.0</ele><time>2026-05-01T13:24:55.999Z</time></trkpt><trkpt lat="44.937771370551566" lon="7.2695446917842625"><ele>1149.0</ele><time>2026-05-01T13:24:56.999Z</time></trkpt><trkpt lat="44.937677129708064" lon="7.269517660524209"><ele>1149.0</ele><time>2026-05-01T13:24:57.999Z</time></trkpt><trkpt lat="44.93761477299517" lon="7.269571954811508"><ele>1149.0</ele><time>2026-05-01T13:24:59.999Z</time></trkpt><trkpt lat="44.93754243984372" lon="7.269640851975711"><ele>1149.0</ele><time>2026-05-01T13:25:01.999Z</time></trkpt><trkpt lat="44.93747041162687" lon="7.269647750652973"><ele>1149.0</ele><time>2026-05-01T13:25:02.999Z</time></trkpt><trkpt lat="44.937359192203715" lon="7.269653789558169"><ele>1149.0</ele><time>2026-05-01T13:25:03.999Z</time></trkpt><trkpt lat="44.93726221125187" lon="7.269666498941428"><ele>1149.0</ele><time>2026-05-01T13:25:04.999Z</time></trkpt><trkpt lat="44.93717636531736" lon="7.269648494027673"><ele>1149.0</ele><time>2026-05-01T13:25:05.999Z</time></trkpt><trkpt lat="44.93709449096144" lon="7.269595795227123"><ele>1149.0</ele><time>2026-05-01T13:25:06.999Z</time></trkpt><trkpt lat="44.93701862084573" lon="7.269527115895149"><ele>1149.0</ele><time>2026-05-01T13:25:07.999Z</time></trkpt><trkpt lat="44.936928693332284" lon="7.269486855753627"><ele>1149.0</ele><time>2026-05-01T13:25:08.999Z</time></trkpt><trkpt lat="44.9368276442462" lon="7.269464477801136"><ele>1149.0</ele><time>2026-05-01T13:25:09.999Z</time></trkpt><trkpt lat="44.93674196106184" lon="7.269431684172907"><ele>1149.0</ele><time>2026-05-01T13:25:10.999Z</time></trkpt><trkpt lat="44.9366724277514" lon="7.269370135655252"><ele>1149.0</ele><time>2026-05-01T13:25:11.999Z</time></trkpt><trkpt lat="44.936613351280386" lon="7.269317032692835"><ele>1149.0</ele><time>2026-05-01T13:25:12.999Z</time></trkpt><trkpt lat="44.93653490404275" lon="7.269322424281937"><ele>1149.0</ele><time>2026-05-01T13:25:35.998Z</time></trkpt><trkpt lat="44.93644223558019" lon="7.2693657290259175"><ele>1149.0</ele><time>2026-05-01T13:25:37.998Z</time></trkpt><trkpt lat="44.93636543326293" lon="7.269487619831007"><ele>1145.0</ele><time>2026-05-01T13:25:39.998Z</time></trkpt><trkpt lat="44.93633381406998" lon="7.269582424097762"><ele>1141.0</ele><time>2026-05-01T13:25:40.998Z</time></trkpt><trkpt lat="44.93629577702633" lon="7.269714614093433"><ele>1137.0</ele><time>2026-05-01T13:25:41.998Z</time></trkpt><trkpt lat="44.936245441639095" lon="7.269864112623994"><ele>1133.0</ele><time>2026-05-01T13:25:42.998Z</time></trkpt><trkpt lat="44.93617880423418" lon="7.270035159260211"><ele>1129.0</ele><time>2026-05-01T13:25:43.998Z</time></trkpt><trkpt lat="44.93612281236059" lon="7.270173052893172"><ele>1129.0</ele><time>2026-05-01T13:25:44.998Z</time></trkpt><trkpt lat="44.93606169944327" lon="7.270291194060017"><ele>1129.0</ele><time>2026-05-01T13:25:45.998Z</time></trkpt><trkpt lat="44.93595385156196" lon="7.2703426175309165"><ele>1129.0</ele><time>2026-05-01T13:25:47.001Z</time></trkpt><trkpt lat="44.935835916306004" lon="7.270339085391959"><ele>1129.0</ele><time>2026-05-01T13:25:48.001Z</time></trkpt><trkpt lat="44.935709014069936" lon="7.270352414904805"><ele>1125.6000000000001</ele><time>2026-05-01T13:25:49.001Z</time></trkpt><trkpt lat="44.935613536922965" lon="7.2704243410417115"><ele>1122.2</ele><time>2026-05-01T13:25:50.001Z</time></trkpt><trkpt lat="44.93554619455587" lon="7.270550951203556"><ele>1118.8000000000002</ele><time>2026-05-01T13:25:51.001Z</time></trkpt><trkpt lat="44.93549819708448" lon="7.270686559923835"><ele>1115.4</ele><time>2026-05-01T13:25:52.001Z</time></trkpt><trkpt lat="44.93548438613672" lon="7.270815836950452"><ele>1112.0</ele><time>2026-05-01T13:25:53.001Z</time></trkpt><trkpt lat="44.935498643329524" lon="7.270927628922108"><ele>1111.8</ele><time>2026-05-01T13:25:54.001Z</time></trkpt><trkpt lat="44.935553613598934" lon="7.271025973656421"><ele>1111.6</ele><time>2026-05-01T13:25:55.001Z</time></trkpt><trkpt lat="44.93563006895824" lon="7.271103423987443"><ele>1111.3999999999999</ele><time>2026-05-01T13:25:56.001Z</time></trkpt><trkpt lat="44.93571087132462" lon="7.271194736783825"><ele>1111.2</ele><time>2026-05-01T13:25:57.001Z</time></trkpt><trkpt lat="44.93579138773904" lon="7.271260992055132"><ele>1111.0</ele><time>2026-05-01T13:25:58Z</time></trkpt><trkpt lat="44.93587368838114" lon="7.271308271710931"><ele>1111.3333333333333</ele><time>2026-05-01T13:25:59.001Z</time></trkpt><trkpt lat="44.935961350587775" lon="7.271328590014931"><ele>1111.6666666666665</ele><time>2026-05-01T13:26:00.001Z</time></trkpt><trkpt lat="44.93604362313894" lon="7.271357407869162"><ele>1112.0</ele><time>2026-05-01T13:26:01Z</time></trkpt><trkpt lat="44.93611848831164" lon="7.271420058706381"><ele>1112.3333333333333</ele><time>2026-05-01T13:26:02Z</time></trkpt><trkpt lat="44.93617633886247" lon="7.271525671003284"><ele>1112.6666666666667</ele><time>2026-05-01T13:26:03Z</time></trkpt><trkpt lat="44.93622709301555" lon="7.27159805645676"><ele>1113.0</ele><time>2026-05-01T13:26:04Z</time></trkpt><trkpt lat="44.936268279252914" lon="7.271695842332983"><ele>1113.0</ele><time>2026-05-01T13:26:05Z</time></trkpt><trkpt lat="44.93631084827927" lon="7.271834641816469"><ele>1113.0</ele><time>2026-05-01T13:26:07Z</time></trkpt><trkpt lat="44.93620342043496" lon="7.2718959858923204"><ele>1113.0</ele><time>2026-05-01T13:26:10Z</time></trkpt><trkpt lat="44.93609290983312" lon="7.271978372955924"><ele>1113.0</ele><time>2026-05-01T13:26:12Z</time></trkpt><trkpt lat="44.93603675772696" lon="7.2720790259910535"><ele>1113.0</ele><time>2026-05-01T13:26:13Z</time></trkpt><trkpt lat="44.93592841051348" lon="7.272092481488805"><ele>1110.8333333333333</ele><time>2026-05-01T13:26:14Z</time></trkpt><trkpt lat="44.935870773662785" lon="7.27221058027557"><ele>1108.6666666666667</ele><time>2026-05-01T13:26:15Z</time></trkpt><trkpt lat="44.935838046841916" lon="7.272296782499693"><ele>1106.5</ele><time>2026-05-01T13:26:16Z</time></trkpt><trkpt lat="44.93585958476983" lon="7.272433384870889"><ele>1104.3333333333335</ele><time>2026-05-01T13:26:17Z</time></trkpt><trkpt lat="44.93580199789155" lon="7.272496103440427"><ele>1102.1666666666667</ele><time>2026-05-01T13:26:18Z</time></trkpt><trkpt lat="44.935727630791014" lon="7.272542674075596"><ele>1100.0</ele><time>2026-05-01T13:26:19Z</time></trkpt><trkpt lat="44.93564190972896" lon="7.272585925975875"><ele>1098.0</ele><time>2026-05-01T13:26:20Z</time></trkpt><trkpt lat="44.93555085489427" lon="7.272617229430365"><ele>1096.0</ele><time>2026-05-01T13:26:21Z</time></trkpt><trkpt lat="44.9354771628197" lon="7.2726647297241875"><ele>1094.0</ele><time>2026-05-01T13:26:22Z</time></trkpt><trkpt lat="44.93538027365062" lon="7.272714711172797"><ele>1092.0</ele><time>2026-05-01T13:26:23Z</time></trkpt><trkpt lat="44.935289605466714" lon="7.27276802897746"><ele>1090.0</ele><time>2026-05-01T13:26:24Z</time></trkpt><trkpt lat="44.93520298374247" lon="7.272803478510349"><ele>1090.0</ele><time>2026-05-01T13:26:25Z</time></trkpt><trkpt lat="44.935097256520784" lon="7.272824494401984"><ele>1090.0</ele><time>2026-05-01T13:26:26Z</time></trkpt><trkpt lat="44.934986883656464" lon="7.2728350610254875"><ele>1090.0</ele><time>2026-05-01T13:26:27Z</time></trkpt><trkpt lat="44.93489363778818" lon="7.272845482266084"><ele>1090.0</ele><time>2026-05-01T13:26:28Z</time></trkpt><trkpt lat="44.93479146243715" lon="7.27286612609224"><ele>1090.0</ele><time>2026-05-01T13:26:29Z</time></trkpt><trkpt lat="44.93471173917536" lon="7.272905079207225"><ele>1088.6666666666665</ele><time>2026-05-01T13:26:30Z</time></trkpt><trkpt lat="44.93458892855677" lon="7.272898951006492"><ele>1087.3333333333333</ele><time>2026-05-01T13:26:32Z</time></trkpt><trkpt lat="44.93451173682676" lon="7.27291093277965"><ele>1086.0</ele><time>2026-05-01T13:26:33Z</time></trkpt><trkpt lat="44.934432433463336" lon="7.272967969030998"><ele>1084.6666666666667</ele><time>2026-05-01T13:26:34Z</time></trkpt><trkpt lat="44.9343635191045" lon="7.272979951856251"><ele>1083.3333333333335</ele><time>2026-05-01T13:26:35Z</time></trkpt><trkpt lat="44.93429715116422" lon="7.272989624473577"><ele>1082.0</ele><time>2026-05-01T13:26:36Z</time></trkpt><trkpt lat="44.934215009818494" lon="7.273009056903407"><ele>1079.8</ele><time>2026-05-01T13:26:37Z</time></trkpt><trkpt lat="44.93412170425695" lon="7.273019555142739"><ele>1077.6</ele><time>2026-05-01T13:26:38Z</time></trkpt><trkpt lat="44.93403333321887" lon="7.273011885341056"><ele>1075.3999999999999</ele><time>2026-05-01T13:26:39Z</time></trkpt><trkpt lat="44.933953759865176" lon="7.273052235026734"><ele>1073.2</ele><time>2026-05-01T13:26:40Z</time></trkpt><trkpt lat="44.933883498826354" lon="7.273140798327209"><ele>1071.0</ele><time>2026-05-01T13:26:41Z</time></trkpt><trkpt lat="44.933829913229545" lon="7.273246779579262"><ele>1071.0</ele><time>2026-05-01T13:26:42Z</time></trkpt><trkpt lat="44.93378158827983" lon="7.273351623702182"><ele>1071.0</ele><time>2026-05-01T13:26:43Z</time></trkpt><trkpt lat="44.93372621281843" lon="7.273466992369399"><ele>1071.0</ele><time>2026-05-01T13:26:44Z</time></trkpt><trkpt lat="44.93362891193998" lon="7.27351521366964"><ele>1071.0</ele><time>2026-05-01T13:26:45Z</time></trkpt><trkpt lat="44.933535376613584" lon="7.273573395315549"><ele>1071.0</ele><time>2026-05-01T13:26:46Z</time></trkpt><trkpt lat="44.93344504468196" lon="7.273636558396293"><ele>1071.0</ele><time>2026-05-01T13:26:47Z</time></trkpt><trkpt lat="44.93337267522781" lon="7.273694286646528"><ele>1071.0</ele><time>2026-05-01T13:26:48Z</time></trkpt><trkpt lat="44.933309620194535" lon="7.273734255312317"><ele>1071.0</ele><time>2026-05-01T13:26:49Z</time></trkpt><trkpt lat="44.93326232881797" lon="7.273793356145275"><ele>1071.0</ele><time>2026-05-01T13:26:49.999Z</time></trkpt><trkpt lat="44.93318353830448" lon="7.2738263471473985"><ele>1071.0</ele><time>2026-05-01T13:26:51.999Z</time></trkpt><trkpt lat="44.93310634695857" lon="7.273812561572455"><ele>1071.0</ele><time>2026-05-01T13:26:53.999Z</time></trkpt><trkpt lat="44.93305047834757" lon="7.2737713250436995"><ele>1071.0</ele><time>2026-05-01T13:26:54.999Z</time></trkpt><trkpt lat="44.93293990108421" lon="7.273724387769571"><ele>1071.0</ele><time>2026-05-01T13:26:59.999Z</time></trkpt><trkpt lat="44.93285482096472" lon="7.2737252563558314"><ele>1071.0</ele><time>2026-05-01T13:27:02.999Z</time></trkpt><trkpt lat="44.932786527853104" lon="7.27370324650883"><ele>1071.0</ele><time>2026-05-01T13:27:05.999Z</time></trkpt><trkpt lat="44.93272338160803" lon="7.273675452837972"><ele>1071.0</ele><time>2026-05-01T13:27:08.999Z</time></trkpt><trkpt lat="44.9326485045288" lon="7.273700820357701"><ele>1071.0</ele><time>2026-05-01T13:27:11.999Z</time></trkpt><trkpt lat="44.93259517230258" lon="7.2737839835471245"><ele>1071.0</ele><time>2026-05-01T13:27:14.999Z</time></trkpt><trkpt lat="44.93194650595344" lon="7.274050262782619"><ele>1066.8</ele><time>2026-05-01T13:27:17.999Z</time></trkpt><trkpt lat="44.931857709565946" lon="7.274128270120015"><ele>1062.6</ele><time>2026-05-01T13:27:18.999Z</time></trkpt><trkpt lat="44.93178151798013" lon="7.274191598097185"><ele>1058.4</ele><time>2026-05-01T13:27:19.999Z</time></trkpt><trkpt lat="44.93170391282244" lon="7.27426610683093"><ele>1054.2</ele><time>2026-05-01T13:27:20.999Z</time></trkpt><trkpt lat="44.93163483147368" lon="7.274339036416396"><ele>1050.0</ele><time>2026-05-01T13:27:21.999Z</time></trkpt><trkpt lat="44.93157010572521" lon="7.274416458545681"><ele>1047.4</ele><time>2026-05-01T13:27:22.999Z</time></trkpt><trkpt lat="44.93150179455592" lon="7.274498042409966"><ele>1044.8</ele><time>2026-05-01T13:27:23.999Z</time></trkpt><trkpt lat="44.93143997019094" lon="7.274614417171767"><ele>1042.2</ele><time>2026-05-01T13:27:24.999Z</time></trkpt><trkpt lat="44.93138272914465" lon="7.2747377607367865"><ele>1039.6</ele><time>2026-05-01T13:27:25.999Z</time></trkpt><trkpt lat="44.93131330806929" lon="7.274828789648124"><ele>1037.0</ele><time>2026-05-01T13:27:26.999Z</time></trkpt><trkpt lat="44.931237819050665" lon="7.274869150781243"><ele>1037.0</ele><time>2026-05-01T13:27:27.999Z</time></trkpt><trkpt lat="44.93116353203976" lon="7.2748545957623"><ele>1037.0</ele><time>2026-05-01T13:27:28.999Z</time></trkpt><trkpt lat="44.93108829743305" lon="7.274816830194192"><ele>1037.0</ele><time>2026-05-01T13:27:29.999Z</time></trkpt><trkpt lat="44.931020140149734" lon="7.274788431169609"><ele>1037.0</ele><time>2026-05-01T13:27:30.999Z</time></trkpt><trkpt lat="44.93095529220963" lon="7.274753248799822"><ele>1037.0</ele><time>2026-05-01T13:27:31.999Z</time></trkpt><trkpt lat="44.930849664686086" lon="7.274723539293557"><ele>1037.0</ele><time>2026-05-01T13:27:33.999Z</time></trkpt><trkpt lat="44.93073627504709" lon="7.274780099566144"><ele>1034.0</ele><time>2026-05-01T13:27:35.999Z</time></trkpt><trkpt lat="44.93066821951567" lon="7.274813009899321"><ele>1031.0</ele><time>2026-05-01T13:27:36.999Z</time></trkpt><trkpt lat="44.93057961787894" lon="7.274807106530589"><ele>1028.0</ele><time>2026-05-01T13:27:37.998Z</time></trkpt><trkpt lat="44.930506210110394" lon="7.274823097882955"><ele>1025.0</ele><time>2026-05-01T13:27:38.998Z</time></trkpt><trkpt lat="44.93043756816404" lon="7.274831062088261"><ele>1022.0000000000001</ele><time>2026-05-01T13:27:39.998Z</time></trkpt><trkpt lat="44.930358539642896" lon="7.274861321488937"><ele>1019.0</ele><time>2026-05-01T13:27:40.998Z</time></trkpt><trkpt lat="44.93027737511226" lon="7.27487937556184"><ele>1019.0</ele><time>2026-05-01T13:27:41.998Z</time></trkpt><trkpt lat="44.93018606877791" lon="7.27491722338643"><ele>1019.0000000000001</ele><time>2026-05-01T13:27:42.998Z</time></trkpt><trkpt lat="44.930074772897285" lon="7.27496302221569"><ele>1019.0000000000001</ele><time>2026-05-01T13:27:43.998Z</time></trkpt><trkpt lat="44.929978974558914" lon="7.27498452311822"><ele>1019.0</ele><time>2026-05-01T13:27:44.998Z</time></trkpt><trkpt lat="44.92991083325021" lon="7.274916880793319"><ele>1019.0</ele><time>2026-05-01T13:27:46.998Z</time></trkpt><trkpt lat="44.92989555864091" lon="7.275086749106702"><ele>1018.75</ele><time>2026-05-01T13:27:48.998Z</time></trkpt><trkpt lat="44.92990725125064" lon="7.275298368589306"><ele>1018.5</ele><time>2026-05-01T13:27:50.998Z</time></trkpt><trkpt lat="44.92989442398252" lon="7.275429797765391"><ele>1018.25</ele><time>2026-05-01T13:27:51.998Z</time></trkpt><trkpt lat="44.9298543866974" lon="7.2755720061615445"><ele>1018.0</ele><time>2026-05-01T13:27:53Z</time></trkpt><trkpt lat="44.92981187177553" lon="7.275729735390847"><ele>1017.8</ele><time>2026-05-01T13:27:54Z</time></trkpt><trkpt lat="44.92979127622343" lon="7.275854635308579"><ele>1017.5999999999999</ele><time>2026-05-01T13:27:55Z</time></trkpt><trkpt lat="44.929760528316805" lon="7.275985020728905"><ele>1017.4000000000001</ele><time>2026-05-01T13:27:56Z</time></trkpt><trkpt lat="44.929707965419354" lon="7.276134705631869"><ele>1017.2</ele><time>2026-05-01T13:27:57Z</time></trkpt><trkpt lat="44.92967059107573" lon="7.276236333546434"><ele>1017.0</ele><time>2026-05-01T13:27:58Z</time></trkpt><trkpt lat="44.929608421699704" lon="7.276413759848363"><ele>1013.2</ele><time>2026-05-01T13:28:00Z</time></trkpt><trkpt lat="44.92955671021443" lon="7.276522328385228"><ele>1009.4000000000001</ele><time>2026-05-01T13:28:01Z</time></trkpt><trkpt lat="44.92949840857775" lon="7.27664117293447"><ele>1005.5999999999999</ele><time>2026-05-01T13:28:02Z</time></trkpt><trkpt lat="44.929423436743384" lon="7.276748239269847"><ele>1001.8</ele><time>2026-05-01T13:28:03Z</time></trkpt><trkpt lat="44.9293600596873" lon="7.2768229731510425"><ele>998.0</ele><time>2026-05-01T13:28:04Z</time></trkpt><trkpt lat="44.92930042653452" lon="7.276885415442063"><ele>998.0000000000001</ele><time>2026-05-01T13:28:05Z</time></trkpt><trkpt lat="44.92924757433693" lon="7.276939299620489"><ele>998.0</ele><time>2026-05-01T13:28:06Z</time></trkpt><trkpt lat="44.92920018856853" lon="7.277013887637804"><ele>998.0</ele><time>2026-05-01T13:28:07Z</time></trkpt><trkpt lat="44.92914865401555" lon="7.277079773736212"><ele>998.0</ele><time>2026-05-01T13:28:08Z</time></trkpt><trkpt lat="44.92910508009529" lon="7.277166410275321"><ele>998.0000000000001</ele><time>2026-05-01T13:28:09Z</time></trkpt><trkpt lat="44.92904190197852" lon="7.277259787043852"><ele>998.0</ele><time>2026-05-01T13:28:10Z</time></trkpt><trkpt lat="44.92896932113327" lon="7.2773336860686655"><ele>999.5000000000001</ele><time>2026-05-01T13:28:11Z</time></trkpt><trkpt lat="44.92888327311131" lon="7.277410098280158"><ele>1001.0</ele><time>2026-05-01T13:28:12Z</time></trkpt><trkpt lat="44.92881298719042" lon="7.277482005036864"><ele>1002.5</ele><time>2026-05-01T13:28:13Z</time></trkpt><trkpt lat="44.92873746311202" lon="7.277552182379514"><ele>1004.0</ele><time>2026-05-01T13:28:14Z</time></trkpt><trkpt lat="44.92867198382485" lon="7.27762867047779"><ele>1005.5000000000001</ele><time>2026-05-01T13:28:15Z</time></trkpt><trkpt lat="44.92861258758637" lon="7.277687751857441"><ele>1007.0</ele><time>2026-05-01T13:28:16Z</time></trkpt><trkpt lat="44.92853943858035" lon="7.277731598277233"><ele>1007.0</ele><time>2026-05-01T13:28:17Z</time></trkpt><trkpt lat="44.928448185918455" lon="7.2777714650611705"><ele>1007.0</ele><time>2026-05-01T13:28:18Z</time></trkpt><trkpt lat="44.928351762920855" lon="7.277791991866362"><ele>1007.0</ele><time>2026-05-01T13:28:19Z</time></trkpt><trkpt lat="44.928247424341016" lon="7.277772881001762"><ele>1007.0</ele><time>2026-05-01T13:28:20Z</time></trkpt><trkpt lat="44.92813918980314" lon="7.27774454571004"><ele>1007.0</ele><time>2026-05-01T13:28:21Z</time></trkpt><trkpt lat="44.92807410863183" lon="7.277725066904273"><ele>1010.25</ele><time>2026-05-01T13:28:22Z</time></trkpt><trkpt lat="44.92798108455034" lon="7.277713110478806"><ele>1013.5</ele><time>2026-05-01T13:28:23Z</time></trkpt><trkpt lat="44.92784068428556" lon="7.2777549177410235"><ele>1016.75</ele><time>2026-05-01T13:28:25Z</time></trkpt><trkpt lat="44.9277395886228" lon="7.277775427031306"><ele>1020.0</ele><time>2026-05-01T13:28:26Z</time></trkpt><trkpt lat="44.9276280072545" lon="7.277763077014101"><ele>1018.4</ele><time>2026-05-01T13:28:27Z</time></trkpt><trkpt lat="44.92753073719354" lon="7.27775824659143"><ele>1016.8</ele><time>2026-05-01T13:28:28Z</time></trkpt><trkpt lat="44.9274539666957" lon="7.277751404039282"><ele>1015.2</ele><time>2026-05-01T13:28:29Z</time></trkpt><trkpt lat="44.92738364113299" lon="7.277712165941523"><ele>1013.6</ele><time>2026-05-01T13:28:30Z</time></trkpt><trkpt lat="44.92730195417889" lon="7.277678521225592"><ele>1012.0</ele><time>2026-05-01T13:28:31Z</time></trkpt><trkpt lat="44.92718513545581" lon="7.277662641026975"><ele>1011.9999999999999</ele><time>2026-05-01T13:28:33Z</time></trkpt><trkpt lat="44.927098831316464" lon="7.277645278563399"><ele>1012.0</ele><time>2026-05-01T13:28:35Z</time></trkpt><trkpt lat="44.92702976357894" lon="7.277676890443459"><ele>1012.0</ele><time>2026-05-01T13:28:37Z</time></trkpt><trkpt lat="44.92695965319419" lon="7.2777135478550745"><ele>1012.0</ele><time>2026-05-01T13:28:40Z</time></trkpt><trkpt lat="44.92688771611315" lon="7.277736415462126"><ele>1011.9999999999999</ele><time>2026-05-01T13:28:42Z</time></trkpt><trkpt lat="44.926809551494955" lon="7.2777515090774285"><ele>1012.0</ele><time>2026-05-01T13:28:44Z</time></trkpt><trkpt lat="44.92674311800767" lon="7.277771140860383"><ele>1008.75</ele><time>2026-05-01T13:28:46Z</time></trkpt><trkpt lat="44.92665101041496" lon="7.277808438498387"><ele>1005.5</ele><time>2026-05-01T13:28:49Z</time></trkpt><trkpt lat="44.92654932292627" lon="7.277869948170104"><ele>1002.25</ele><time>2026-05-01T13:28:51Z</time></trkpt><trkpt lat="44.92641080896636" lon="7.27790673645458"><ele>999.0</ele><time>2026-05-01T13:28:52.999Z</time></trkpt><trkpt lat="44.926268856823626" lon="7.277909157805642"><ele>999.0</ele><time>2026-05-01T13:28:54.999Z</time></trkpt><trkpt lat="44.925933278263514" lon="7.278037161742297"><ele>999.0</ele><time>2026-05-01T13:28:56.999Z</time></trkpt><trkpt lat="44.92586177019085" lon="7.278057711523534"><ele>999.0</ele><time>2026-05-01T13:28:57.999Z</time></trkpt><trkpt lat="44.92579032077909" lon="7.27810150455458"><ele>995.6</ele><time>2026-05-01T13:28:58.999Z</time></trkpt><trkpt lat="44.925725309049824" lon="7.2781545745793395"><ele>992.2</ele><time>2026-05-01T13:28:59.999Z</time></trkpt><trkpt lat="44.92566558425772" lon="7.278206765687093"><ele>988.8000000000001</ele><time>2026-05-01T13:29:00.999Z</time></trkpt><trkpt lat="44.92560757539307" lon="7.278259756230165"><ele>985.4000000000001</ele><time>2026-05-01T13:29:01.999Z</time></trkpt><trkpt lat="44.925493921529146" lon="7.278379725579227"><ele>982.0</ele><time>2026-05-01T13:29:03.999Z</time></trkpt><trkpt lat="44.92541395731669" lon="7.27846453640018"><ele>981.9999999999999</ele><time>2026-05-01T13:29:04.999Z</time></trkpt><trkpt lat="44.92533357790657" lon="7.2785336955022855"><ele>982.0</ele><time>2026-05-01T13:29:05.999Z</time></trkpt><trkpt lat="44.92525025099727" lon="7.2785833935621715"><ele>982.0</ele><time>2026-05-01T13:29:06.999Z</time></trkpt><trkpt lat="44.925185409103946" lon="7.278580422335439"><ele>982.0</ele><time>2026-05-01T13:29:07.999Z</time></trkpt><trkpt lat="44.92512074637162" lon="7.278531856683422"><ele>981.9999999999999</ele><time>2026-05-01T13:29:08.999Z</time></trkpt><trkpt lat="44.92503944276944" lon="7.278498919527672"><ele>982.0</ele><time>2026-05-01T13:29:09.999Z</time></trkpt><trkpt lat="44.924963687337396" lon="7.278481798498319"><ele>979.9999999999999</ele><time>2026-05-01T13:29:10.999Z</time></trkpt><trkpt lat="44.92489090493068" lon="7.278456818394576"><ele>978.0</ele><time>2026-05-01T13:29:11.999Z</time></trkpt><trkpt lat="44.92482194219882" lon="7.278422523332852"><ele>976.0</ele><time>2026-05-01T13:29:12.999Z</time></trkpt><trkpt lat="44.92474075225155" lon="7.2783714932620525"><ele>974.0</ele><time>2026-05-01T13:29:13.999Z</time></trkpt><trkpt lat="44.92470619371718" lon="7.278265482169271"><ele>971.9999999999999</ele><time>2026-05-01T13:29:14.999Z</time></trkpt><trkpt lat="44.92462257799561" lon="7.278227289164453"><ele>970.0</ele><time>2026-05-01T13:29:15.999Z</time></trkpt><trkpt lat="44.92455571347821" lon="7.278173453914246"><ele>968.6</ele><time>2026-05-01T13:29:16.999Z</time></trkpt><trkpt lat="44.924494574228696" lon="7.278084400596877"><ele>967.2</ele><time>2026-05-01T13:29:17.999Z</time></trkpt><trkpt lat="44.92442850175927" lon="7.277996327391876"><ele>965.8</ele><time>2026-05-01T13:29:18.999Z</time></trkpt><trkpt lat="44.92436990074325" lon="7.277900192142775"><ele>964.4</ele><time>2026-05-01T13:29:19.999Z</time></trkpt><trkpt lat="44.92429925070348" lon="7.277811876126136"><ele>963.0</ele><time>2026-05-01T13:29:20.999Z</time></trkpt><trkpt lat="44.92420989685509" lon="7.277764476161921"><ele>962.0</ele><time>2026-05-01T13:29:21.999Z</time></trkpt><trkpt lat="44.924128312026184" lon="7.277736510374324"><ele>961.0</ele><time>2026-05-01T13:29:22.999Z</time></trkpt><trkpt lat="44.924014229969075" lon="7.277755200365655"><ele>960.0</ele><time>2026-05-01T13:29:24.999Z</time></trkpt><trkpt lat="44.92394314372882" lon="7.277729077909574"><ele>959.0</ele><time>2026-05-01T13:29:25.999Z</time></trkpt><trkpt lat="44.923878274045535" lon="7.277669916106881"><ele>958.0</ele><time>2026-05-01T13:29:26.999Z</time></trkpt><trkpt lat="44.92381107363802" lon="7.2776047742336765"><ele>957.0</ele><time>2026-05-01T13:29:27.999Z</time></trkpt><trkpt lat="44.92374248240746" lon="7.277580144161765"><ele>957.0</ele><time>2026-05-01T13:29:28.999Z</time></trkpt><trkpt lat="44.92367719181349" lon="7.277607692754396"><ele>957.0</ele><time>2026-05-01T13:29:29.999Z</time></trkpt><trkpt lat="44.92361314272258" lon="7.2776390190420175"><ele>957.0</ele><time>2026-05-01T13:29:30.999Z</time></trkpt><trkpt lat="44.92355548448173" lon="7.2776844991468685"><ele>957.0</ele><time>2026-05-01T13:29:36.999Z</time></trkpt><trkpt lat="44.923592239719" lon="7.27759620611421"><ele>957.0</ele><time>2026-05-01T13:29:45.998Z</time></trkpt><trkpt lat="44.92359721394961" lon="7.277489224959987"><ele>957.0</ele><time>2026-05-01T13:29:46.998Z</time></trkpt><trkpt lat="44.92368764086942" lon="7.27731210079991"><ele>955.0</ele><time>2026-05-01T13:29:48.998Z</time></trkpt><trkpt lat="44.92374165112993" lon="7.2771743342867605"><ele>953.0</ele><time>2026-05-01T13:29:49.998Z</time></trkpt><trkpt lat="44.92382248907453" lon="7.277048782600101"><ele>951.0</ele><time>2026-05-01T13:29:50.998Z</time></trkpt><trkpt lat="44.923908833443875" lon="7.276941157611151"><ele>949.0</ele><time>2026-05-01T13:29:51.998Z</time></trkpt><trkpt lat="44.92402872823303" lon="7.2768832181607435"><ele>949.0</ele><time>2026-05-01T13:29:52.998Z</time></trkpt><trkpt lat="44.92412327235861" lon="7.276846022260566"><ele>949.0000000000001</ele><time>2026-05-01T13:29:53.998Z</time></trkpt><trkpt lat="44.92422167570771" lon="7.276837999093394"><ele>949.0000000000001</ele><time>2026-05-01T13:29:54.998Z</time></trkpt><trkpt lat="44.92432569481544" lon="7.276879495662451"><ele>949.0</ele><time>2026-05-01T13:29:55.998Z</time></trkpt><trkpt lat="44.92445563612084" lon="7.276945096242275"><ele>949.0</ele><time>2026-05-01T13:29:56.998Z</time></trkpt><trkpt lat="44.92459724546258" lon="7.276995939677454"><ele>948.8000000000001</ele><time>2026-05-01T13:29:57.998Z</time></trkpt><trkpt lat="44.924716569585314" lon="7.277059225083618"><ele>948.6000000000001</ele><time>2026-05-01T13:29:59Z</time></trkpt><trkpt lat="44.924817686579956" lon="7.277109307258336"><ele>948.4</ele><time>2026-05-01T13:30:00Z</time></trkpt><trkpt lat="44.92491976873174" lon="7.2771403548638025"><ele>948.2</ele><time>2026-05-01T13:30:01Z</time></trkpt><trkpt lat="44.92501795218389" lon="7.277172013345437"><ele>948.0</ele><time>2026-05-01T13:30:02Z</time></trkpt><trkpt lat="44.92513831206224" lon="7.2771266960811865"><ele>952.25</ele><time>2026-05-01T13:30:03Z</time></trkpt><trkpt lat="44.92527473892183" lon="7.277064130330383"><ele>956.5</ele><time>2026-05-01T13:30:04Z</time></trkpt><trkpt lat="44.92541278620808" lon="7.276991932195631"><ele>960.75</ele><time>2026-05-01T13:30:05Z</time></trkpt><trkpt lat="44.92554858582197" lon="7.276899754715205"><ele>965.0</ele><time>2026-05-01T13:30:06Z</time></trkpt><trkpt lat="44.92567907555356" lon="7.276802610109897"><ele>965.0</ele><time>2026-05-01T13:30:07Z</time></trkpt><trkpt lat="44.92580399088421" lon="7.276708779068496"><ele>965.0</ele><time>2026-05-01T13:30:08Z</time></trkpt><trkpt lat="44.925900215029095" lon="7.276634358594159"><ele>965.0</ele><time>2026-05-01T13:30:09Z</time></trkpt><trkpt lat="44.92601536422337" lon="7.276543996296885"><ele>965.0</ele><time>2026-05-01T13:30:10Z</time></trkpt><trkpt lat="44.9261317141247" lon="7.27645180766266"><ele>971.0</ele><time>2026-05-01T13:30:11Z</time></trkpt><trkpt lat="44.92624992428528" lon="7.276364294997541"><ele>977.0</ele><time>2026-05-01T13:30:12Z</time></trkpt><trkpt lat="44.92635366824243" lon="7.276309750059377"><ele>983.0</ele><time>2026-05-01T13:30:13Z</time></trkpt><trkpt lat="44.926470798928534" lon="7.276228726269377"><ele>989.0</ele><time>2026-05-01T13:30:14Z</time></trkpt><trkpt lat="44.926523622597244" lon="7.276147485664391"><ele>989.0000000000001</ele><time>2026-05-01T13:30:15Z</time></trkpt><trkpt lat="44.92649056001881" lon="7.275995691451184"><ele>989.0</ele><time>2026-05-01T13:30:17Z</time></trkpt><trkpt lat="44.926465652888425" lon="7.2758782649106575"><ele>989.0</ele><time>2026-05-01T13:30:19Z</time></trkpt><trkpt lat="44.92646893585314" lon="7.275786859547646"><ele>989.0</ele><time>2026-05-01T13:30:24Z</time></trkpt><trkpt lat="44.92643628916632" lon="7.2758730629486355"><ele>989.0000000000001</ele><time>2026-05-01T13:30:31Z</time></trkpt><trkpt lat="44.92647905606892" lon="7.275794370619875"><ele>989.0</ele><time>2026-05-01T13:30:49Z</time></trkpt><trkpt lat="44.92653187031131" lon="7.275740519963797"><ele>989.0000000000001</ele><time>2026-05-01T13:31:03.999Z</time></trkpt><trkpt lat="44.92657752420063" lon="7.275673009694338"><ele>989.0</ele><time>2026-05-01T13:32:27Z</time></trkpt><trkpt lat="44.92663610646067" lon="7.275630082806931"><ele>989.0</ele><time>2026-05-01T13:32:29Z</time></trkpt><trkpt lat="44.92667390537322" lon="7.275537277583873"><ele>989.0</ele><time>2026-05-01T13:32:33Z</time></trkpt><trkpt lat="44.92667194905688" lon="7.275438924838429"><ele>989.0000000000001</ele><time>2026-05-01T13:32:36Z</time></trkpt><trkpt lat="44.92672524920017" lon="7.2753283040000705"><ele>989.0</ele><time>2026-05-01T13:32:38Z</time></trkpt><trkpt lat="44.92678923216597" lon="7.27523827947544"><ele>995.1666666666667</ele><time>2026-05-01T13:32:42Z</time></trkpt><trkpt lat="44.926825211011774" lon="7.275157161635124"><ele>1001.3333333333334</ele><time>2026-05-01T13:32:45Z</time></trkpt><trkpt lat="44.92687365083306" lon="7.275097493711907"><ele>1007.5</ele><time>2026-05-01T13:32:51Z</time></trkpt><trkpt lat="44.926912061716365" lon="7.275025014182239"><ele>1013.6666666666667</ele><time>2026-05-01T13:36:02.998Z</time></trkpt><trkpt lat="44.926837118166475" lon="7.275063051303483"><ele>1019.8333333333334</ele><time>2026-05-01T13:36:41Z</time></trkpt><trkpt lat="44.926786840678965" lon="7.2752364907491875"><ele>1026.0</ele><time>2026-05-01T13:36:44Z</time></trkpt><trkpt lat="44.92677160776502" lon="7.275333948888181"><ele>1026.0</ele><time>2026-05-01T13:36:45Z</time></trkpt><trkpt lat="44.926759241783785" lon="7.275471475138446"><ele>1026.0</ele><time>2026-05-01T13:36:47Z</time></trkpt><trkpt lat="44.926730171294096" lon="7.275588970906658"><ele>1026.0</ele><time>2026-05-01T13:36:49Z</time></trkpt><trkpt lat="44.92667248773965" lon="7.275674442636981"><ele>1026.0</ele><time>2026-05-01T13:36:51Z</time></trkpt><trkpt lat="44.926594499906635" lon="7.275708878130623"><ele>1026.0</ele><time>2026-05-01T13:36:53Z</time></trkpt><trkpt lat="44.926665503307" lon="7.275718263340204"><ele>1026.0</ele><time>2026-05-01T13:37:30.999Z</time></trkpt><trkpt lat="44.92668279942549" lon="7.275606679703187"><ele>1026.0</ele><time>2026-05-01T13:37:34.999Z</time></trkpt><trkpt lat="44.92669884969286" lon="7.275484925078266"><ele>1026.0</ele><time>2026-05-01T13:37:36.999Z</time></trkpt><trkpt lat="44.926738294042714" lon="7.2753223106100915"><ele>1026.0</ele><time>2026-05-01T13:37:38.999Z</time></trkpt><trkpt lat="44.92678592998063" lon="7.27522591075441"><ele>1026.0</ele><time>2026-05-01T13:37:40.999Z</time></trkpt><trkpt lat="44.92683130180765" lon="7.275126356388516"><ele>1026.0</ele><time>2026-05-01T13:37:45.999Z</time></trkpt><trkpt lat="44.92684441112693" lon="7.275037396479903"><ele>1026.0</ele><time>2026-05-01T13:37:50.999Z</time></trkpt><trkpt lat="44.9268518536464" lon="7.275142919146741"><ele>1026.0</ele><time>2026-05-01T13:38:33Z</time></trkpt><trkpt lat="44.926808460898734" lon="7.275220851372475"><ele>1026.0</ele><time>2026-05-01T13:38:35Z</time></trkpt><trkpt lat="44.92676589911223" lon="7.275363314067804"><ele>1026.0</ele><time>2026-05-01T13:38:37Z</time></trkpt><trkpt lat="44.92676987410766" lon="7.275466058243545"><ele>1026.0</ele><time>2026-05-01T13:38:39Z</time></trkpt><trkpt lat="44.92676893055295" lon="7.275555230299439"><ele>1026.0</ele><time>2026-05-01T13:38:41Z</time></trkpt><trkpt lat="44.92672448647623" lon="7.275660451527669"><ele>1026.0</ele><time>2026-05-01T13:38:44Z</time></trkpt><trkpt lat="44.926670894120065" lon="7.2757125394456255"><ele>1026.0000000000002</ele><time>2026-05-01T13:38:46Z</time></trkpt><trkpt lat="44.92672862555257" lon="7.275634347388216"><ele>1026.0</ele><time>2026-05-01T13:39:23.999Z</time></trkpt><trkpt lat="44.92671171457978" lon="7.275547487206223"><ele>1026.0</ele><time>2026-05-01T13:39:25.999Z</time></trkpt><trkpt lat="44.926723895314524" lon="7.275458042584814"><ele>1026.0</ele><time>2026-05-01T13:39:27.999Z</time></trkpt><trkpt lat="44.926772893354006" lon="7.275356404719002"><ele>1026.0</ele><time>2026-05-01T13:39:29.999Z</time></trkpt><trkpt lat="44.926795928662585" lon="7.275252358084613"><ele>1026.0000000000002</ele><time>2026-05-01T13:39:32.999Z</time></trkpt><trkpt lat="44.926831825152085" lon="7.2751763644119745"><ele>1026.0</ele><time>2026-05-01T13:39:35.999Z</time></trkpt><trkpt lat="44.92685591480515" lon="7.275079970445836"><ele>1026.0</ele><time>2026-05-01T13:39:38.999Z</time></trkpt><trkpt lat="44.92684124899772" lon="7.275169649323811"><ele>1026.0</ele><time>2026-05-01T13:40:25.998Z</time></trkpt><trkpt lat="44.92680835819548" lon="7.275302011989111"><ele>1026.0</ele><time>2026-05-01T13:40:28Z</time></trkpt><trkpt lat="44.92678841877576" lon="7.275404075065034"><ele>1026.0</ele><time>2026-05-01T13:40:30Z</time></trkpt><trkpt lat="44.92678631297439" lon="7.275520124285598"><ele>1026.0</ele><time>2026-05-01T13:40:32Z</time></trkpt><trkpt lat="44.926757494017735" lon="7.275650965763084"><ele>1026.0</ele><time>2026-05-01T13:40:34Z</time></trkpt><trkpt lat="44.92670188001136" lon="7.2757294386887805"><ele>1026.0000000000002</ele><time>2026-05-01T13:40:36Z</time></trkpt><trkpt lat="44.92664872848762" lon="7.275782446924087"><ele>1026.0</ele><time>2026-05-01T13:40:39Z</time></trkpt><trkpt lat="44.92670663659401" lon="7.275723276302112"><ele>1026.0</ele><time>2026-05-01T13:41:02Z</time></trkpt><trkpt lat="44.92673127217629" lon="7.2756386275860825"><ele>1026.0</ele><time>2026-05-01T13:41:05Z</time></trkpt><trkpt lat="44.92673098625459" lon="7.27553949087072"><ele>1026.0</ele><time>2026-05-01T13:41:13Z</time></trkpt><trkpt lat="44.92675874205963" lon="7.275440906602161"><ele>1026.0000000000002</ele><time>2026-05-01T13:41:17.999Z</time></trkpt><trkpt lat="44.926781199938" lon="7.275332675577011"><ele>1026.0</ele><time>2026-05-01T13:41:29.999Z</time></trkpt><trkpt lat="44.926747508120535" lon="7.275447411661605"><ele>1026.0</ele><time>2026-05-01T13:42:05.998Z</time></trkpt><trkpt lat="44.92673542873182" lon="7.275545451419579"><ele>1026.0</ele><time>2026-05-01T13:42:07.998Z</time></trkpt><trkpt lat="44.92669759285531" lon="7.275650117926519"><ele>1026.0</ele><time>2026-05-01T13:42:09.998Z</time></trkpt><trkpt lat="44.92662498204109" lon="7.275742036544938"><ele>1026.0</ele><time>2026-05-01T13:42:11.998Z</time></trkpt><trkpt lat="44.92655139241784" lon="7.27580813619928"><ele>1026.0</ele><time>2026-05-01T13:42:13.998Z</time></trkpt><trkpt lat="44.92647050371413" lon="7.275772151891465"><ele>1026.0</ele><time>2026-05-01T13:44:43Z</time></trkpt><trkpt lat="44.92648363140091" lon="7.275919874796285"><ele>1019.8333333333334</ele><time>2026-05-01T13:44:46Z</time></trkpt><trkpt lat="44.926514530205694" lon="7.276009855591544"><ele>1013.6666666666667</ele><time>2026-05-01T13:44:48Z</time></trkpt><trkpt lat="44.926516147174816" lon="7.276118033902973"><ele>1007.5</ele><time>2026-05-01T13:45:00Z</time></trkpt><trkpt lat="44.92649733966871" lon="7.276242331371262"><ele>1001.3333333333334</ele><time>2026-05-01T13:45:02Z</time></trkpt><trkpt lat="44.92651382633895" lon="7.2764034567515266"><ele>995.1666666666667</ele><time>2026-05-01T13:45:04Z</time></trkpt><trkpt lat="44.926561095972566" lon="7.276473666206381"><ele>989.0</ele><time>2026-05-01T13:45:07Z</time></trkpt><trkpt lat="44.926595890187585" lon="7.276562498376272"><ele>988.2</ele><time>2026-05-01T13:45:09Z</time></trkpt><trkpt lat="44.926677004603825" lon="7.27662343611261"><ele>987.4000000000001</ele><time>2026-05-01T13:45:12Z</time></trkpt><trkpt lat="44.92673651942995" lon="7.276675007018012"><ele>986.6</ele><time>2026-05-01T13:45:14Z</time></trkpt><trkpt lat="44.92683400114595" lon="7.276678696406355"><ele>985.8</ele><time>2026-05-01T13:45:22Z</time></trkpt><trkpt lat="44.9269373044462" lon="7.276689574214971"><ele>985.0</ele><time>2026-05-01T13:45:23.999Z</time></trkpt><trkpt lat="44.92704783134223" lon="7.27667381442675"><ele>989.1666666666666</ele><time>2026-05-01T13:45:25.999Z</time></trkpt><trkpt lat="44.927123982437784" lon="7.27669025034118"><ele>993.3333333333333</ele><time>2026-05-01T13:45:27.999Z</time></trkpt><trkpt lat="44.927180050967245" lon="7.276733031614154"><ele>997.5</ele><time>2026-05-01T13:45:29.999Z</time></trkpt><trkpt lat="44.92727522650941" lon="7.276747050580732"><ele>1001.6666666666667</ele><time>2026-05-01T13:45:56.999Z</time></trkpt><trkpt lat="44.92733768954267" lon="7.276642267551606"><ele>1005.8333333333334</ele><time>2026-05-01T13:45:59.999Z</time></trkpt><trkpt lat="44.92740062184116" lon="7.276592149539236"><ele>1010.0</ele><time>2026-05-01T13:46:01.999Z</time></trkpt><trkpt lat="44.927460171015326" lon="7.276533488315802"><ele>1010.0</ele><time>2026-05-01T13:46:03.999Z</time></trkpt><trkpt lat="44.92753437462441" lon="7.276484354882013"><ele>1010.0</ele><time>2026-05-01T13:46:05.999Z</time></trkpt><trkpt lat="44.92762460959706" lon="7.276402306334856"><ele>1010.0</ele><time>2026-05-01T13:46:07.999Z</time></trkpt><trkpt lat="44.92773638503707" lon="7.276299468937686"><ele>1010.0</ele><time>2026-05-01T13:46:09.999Z</time></trkpt><trkpt lat="44.92783823195901" lon="7.276260183379532"><ele>1010.0</ele><time>2026-05-01T13:46:11.998Z</time></trkpt><trkpt lat="44.92789737333502" lon="7.2761880314228895"><ele>1015.1666666666667</ele><time>2026-05-01T13:46:14.998Z</time></trkpt><trkpt lat="44.92794950576984" lon="7.276121678610484"><ele>1020.3333333333334</ele><time>2026-05-01T13:46:23.998Z</time></trkpt><trkpt lat="44.927973572422104" lon="7.276021736059904"><ele>1025.5</ele><time>2026-05-01T13:46:27.998Z</time></trkpt><trkpt lat="44.928021522818035" lon="7.275956948207139"><ele>1030.6666666666667</ele><time>2026-05-01T13:46:33.998Z</time></trkpt><trkpt lat="44.928110261036906" lon="7.275966261778286"><ele>1035.8333333333333</ele><time>2026-05-01T13:46:37.998Z</time></trkpt><trkpt lat="44.92818750868079" lon="7.275996235319131"><ele>1041.0</ele><time>2026-05-01T13:48:11.996Z</time></trkpt><trkpt lat="44.92822083764393" lon="7.276093719124647"><ele>1041.0</ele><time>2026-05-01T13:48:28.996Z</time></trkpt><trkpt lat="44.92829419615866" lon="7.276089486436654"><ele>1041.0</ele><time>2026-05-01T13:48:32.996Z</time></trkpt><trkpt lat="44.928371952752" lon="7.2761158988778565"><ele>1041.0</ele><time>2026-05-01T13:48:44.996Z</time></trkpt><trkpt lat="44.928432323510975" lon="7.276164533978018"><ele>1041.0</ele><time>2026-05-01T13:48:50.998Z</time></trkpt><trkpt lat="44.92845900014238" lon="7.276284841509071"><ele>1041.0</ele><time>2026-05-01T13:49:11.999Z</time></trkpt><trkpt lat="44.92853473688924" lon="7.276381955965815"><ele>1041.0</ele><time>2026-05-01T13:49:13.999Z</time></trkpt><trkpt lat="44.92861093993054" lon="7.276426352412574"><ele>1038.8333333333333</ele><time>2026-05-01T13:49:16.999Z</time></trkpt><trkpt lat="44.92871744889854" lon="7.276467421702915"><ele>1036.6666666666667</ele><time>2026-05-01T13:49:18.999Z</time></trkpt><trkpt lat="44.9287880283862" lon="7.276556028462323"><ele>1034.5</ele><time>2026-05-01T13:49:20.999Z</time></trkpt><trkpt lat="44.92880363587079" lon="7.2766859912807265"><ele>1032.3333333333335</ele><time>2026-05-01T13:49:22.999Z</time></trkpt><trkpt lat="44.92883496537031" lon="7.276783979442514"><ele>1030.1666666666667</ele><time>2026-05-01T13:49:25.999Z</time></trkpt><trkpt lat="44.928870508147135" lon="7.276857697665822"><ele>1028.0</ele><time>2026-05-01T13:49:28.999Z</time></trkpt><trkpt lat="44.92896026866983" lon="7.276879667229651"><ele>1028.0</ele><time>2026-05-01T13:49:31.999Z</time></trkpt><trkpt lat="44.929024484659685" lon="7.276927790144207"><ele>1028.0</ele><time>2026-05-01T13:49:35.999Z</time></trkpt><trkpt lat="44.92901816198384" lon="7.2770341866244825"><ele>1028.0</ele><time>2026-05-01T13:49:42.999Z</time></trkpt><trkpt lat="44.92894632513459" lon="7.277181092728767"><ele>1028.0</ele><time>2026-05-01T13:49:44.999Z</time></trkpt><trkpt lat="44.92889339538388" lon="7.277246476335361"><ele>1028.0</ele><time>2026-05-01T13:49:45.999Z</time></trkpt><trkpt lat="44.92882960086784" lon="7.277318028810092"><ele>1028.0</ele><time>2026-05-01T13:49:46.999Z</time></trkpt><trkpt lat="44.92877385862181" lon="7.277397749830937"><ele>1026.6666666666667</ele><time>2026-05-01T13:49:47.999Z</time></trkpt><trkpt lat="44.9287116216201" lon="7.277480632329423"><ele>1025.3333333333335</ele><time>2026-05-01T13:49:48.999Z</time></trkpt><trkpt lat="44.928669587520424" lon="7.277553960740648"><ele>1024.0</ele><time>2026-05-01T13:49:49.999Z</time></trkpt><trkpt lat="44.92861636495886" lon="7.277621969203697"><ele>1022.6666666666667</ele><time>2026-05-01T13:49:50.999Z</time></trkpt><trkpt lat="44.928517721102494" lon="7.27765877416433"><ele>1021.3333333333334</ele><time>2026-05-01T13:49:51.999Z</time></trkpt><trkpt lat="44.92844597407278" lon="7.277691071733801"><ele>1020.0</ele><time>2026-05-01T13:49:52.999Z</time></trkpt><trkpt lat="44.92835692951597" lon="7.277718858990373"><ele>1020.0</ele><time>2026-05-01T13:49:53.999Z</time></trkpt><trkpt lat="44.92825670893941" lon="7.277716116395896"><ele>1020.0</ele><time>2026-05-01T13:49:54.999Z</time></trkpt><trkpt lat="44.92817256362434" lon="7.277706574784155"><ele>1020.0</ele><time>2026-05-01T13:49:55.999Z</time></trkpt><trkpt lat="44.92805407318848" lon="7.2777109161447235"><ele>1020.0</ele><time>2026-05-01T13:49:57.999Z</time></trkpt><trkpt lat="44.927987304029706" lon="7.277725434202674"><ele>1020.0</ele><time>2026-05-01T13:49:58.999Z</time></trkpt><trkpt lat="44.92789715078993" lon="7.277745289688761"><ele>1020.0</ele><time>2026-05-01T13:49:59.999Z</time></trkpt><trkpt lat="44.92780178955413" lon="7.277762102932978"><ele>1020.0</ele><time>2026-05-01T13:50:00.999Z</time></trkpt><trkpt lat="44.92770068985079" lon="7.277753545449091"><ele>1020.0</ele><time>2026-05-01T13:50:01.999Z</time></trkpt><trkpt lat="44.92760214744794" lon="7.277772509872287"><ele>1020.0</ele><time>2026-05-01T13:50:02.999Z</time></trkpt><trkpt lat="44.92751757777295" lon="7.277761615651883"><ele>1020.0</ele><time>2026-05-01T13:50:03.999Z</time></trkpt><trkpt lat="44.927444232234315" lon="7.277723286145281"><ele>1018.6666666666666</ele><time>2026-05-01T13:50:04.999Z</time></trkpt><trkpt lat="44.92738050418276" lon="7.2776902608039755"><ele>1017.3333333333333</ele><time>2026-05-01T13:50:05.999Z</time></trkpt><trkpt lat="44.9272849282987" lon="7.277671810798499"><ele>1016.0</ele><time>2026-05-01T13:50:07.999Z</time></trkpt><trkpt lat="44.92717682283447" lon="7.27766119962045"><ele>1014.6666666666666</ele><time>2026-05-01T13:50:09.999Z</time></trkpt><trkpt lat="44.92710468898028" lon="7.277683625675211"><ele>1013.3333333333333</ele><time>2026-05-01T13:50:10.999Z</time></trkpt><trkpt lat="44.92701712180549" lon="7.277711681522359"><ele>1012.0</ele><time>2026-05-01T13:50:12.999Z</time></trkpt><trkpt lat="44.92692431056612" lon="7.277725113402122"><ele>1012.0</ele><time>2026-05-01T13:50:14.999Z</time></trkpt><trkpt lat="44.92681700249351" lon="7.277745298794915"><ele>1012.0</ele><time>2026-05-01T13:50:16.999Z</time></trkpt><trkpt lat="44.926716728420644" lon="7.277769286751625"><ele>1012.0</ele><time>2026-05-01T13:50:18.999Z</time></trkpt><trkpt lat="44.92660870691523" lon="7.277784129009106"><ele>1012.0</ele><time>2026-05-01T13:50:20.998Z</time></trkpt><trkpt lat="44.9265638834367" lon="7.2778638501620545"><ele>1012.0</ele><time>2026-05-01T13:50:23.998Z</time></trkpt><trkpt lat="44.92628804561082" lon="7.277963175133091"><ele>1009.8333333333333</ele><time>2026-05-01T13:50:25.998Z</time></trkpt><trkpt lat="44.926169309111856" lon="7.277971084212066"><ele>1007.6666666666666</ele><time>2026-05-01T13:50:27.998Z</time></trkpt><trkpt lat="44.926100772977534" lon="7.277982947987048"><ele>1005.5</ele><time>2026-05-01T13:50:28.998Z</time></trkpt><trkpt lat="44.92603821374161" lon="7.277995656181558"><ele>1003.3333333333333</ele><time>2026-05-01T13:50:29.998Z</time></trkpt><trkpt lat="44.925921738040195" lon="7.278045315659965"><ele>1001.1666666666666</ele><time>2026-05-01T13:50:31.998Z</time></trkpt><trkpt lat="44.92585473244347" lon="7.27808439762083"><ele>999.0</ele><time>2026-05-01T13:50:32.998Z</time></trkpt><trkpt lat="44.9257813218503" lon="7.27812690922946"><ele>996.1666666666666</ele><time>2026-05-01T13:50:33.998Z</time></trkpt><trkpt lat="44.92570811969798" lon="7.278164810391038"><ele>993.3333333333333</ele><time>2026-05-01T13:50:34.998Z</time></trkpt><trkpt lat="44.92564398537823" lon="7.278219055758102"><ele>990.5</ele><time>2026-05-01T13:50:35.998Z</time></trkpt><trkpt lat="44.92559227061657" lon="7.278277875168457"><ele>987.6666666666666</ele><time>2026-05-01T13:50:36.998Z</time></trkpt><trkpt lat="44.925531608671896" lon="7.278354338447336"><ele>984.8333333333333</ele><time>2026-05-01T13:50:37.998Z</time></trkpt><trkpt lat="44.9254450264981" lon="7.278444972694079"><ele>982.0</ele><time>2026-05-01T13:50:38.998Z</time></trkpt><trkpt lat="44.925374561193955" lon="7.278505775910611"><ele>982.0</ele><time>2026-05-01T13:50:39.998Z</time></trkpt><trkpt lat="44.9252959699315" lon="7.278574771375781"><ele>982.0</ele><time>2026-05-01T13:50:40.998Z</time></trkpt><trkpt lat="44.92522249653662" lon="7.278607089696837"><ele>982.0</ele><time>2026-05-01T13:50:41.998Z</time></trkpt><trkpt lat="44.9251063835619" lon="7.278568982453763"><ele>982.0</ele><time>2026-05-01T13:50:43.998Z</time></trkpt><trkpt lat="44.92503590696735" lon="7.278557159871466"><ele>982.0</ele><time>2026-05-01T13:50:44.998Z</time></trkpt><trkpt lat="44.92494739331702" lon="7.278531262953035"><ele>979.6</ele><time>2026-05-01T13:50:45.998Z</time></trkpt><trkpt lat="44.92486704367389" lon="7.278495169136366"><ele>977.2</ele><time>2026-05-01T13:50:46.998Z</time></trkpt><trkpt lat="44.924782451347994" lon="7.278443620395186"><ele>974.8</ele><time>2026-05-01T13:50:47.998Z</time></trkpt><trkpt lat="44.92470311458349" lon="7.2783793408454684"><ele>972.4</ele><time>2026-05-01T13:50:48.998Z</time></trkpt><trkpt lat="44.92462107619482" lon="7.278313242716341"><ele>970.0</ele><time>2026-05-01T13:50:49.998Z</time></trkpt><trkpt lat="44.92453064580225" lon="7.2782350856412865"><ele>970.0</ele><time>2026-05-01T13:50:50.998Z</time></trkpt><trkpt lat="44.92446139340529" lon="7.27815618880376"><ele>970.0</ele><time>2026-05-01T13:50:51.998Z</time></trkpt><trkpt lat="44.924370048998306" lon="7.278029748233291"><ele>970.0</ele><time>2026-05-01T13:50:52.998Z</time></trkpt><trkpt lat="44.9242692782936" lon="7.277893906964671"><ele>970.0</ele><time>2026-05-01T13:50:54Z</time></trkpt><trkpt lat="44.92416823100652" lon="7.277795953841329"><ele>967.8333333333333</ele><time>2026-05-01T13:50:55Z</time></trkpt><trkpt lat="44.924078743109945" lon="7.277759005145402"><ele>965.6666666666666</ele><time>2026-05-01T13:50:56Z</time></trkpt><trkpt lat="44.924008893001115" lon="7.2777699452517055"><ele>963.5</ele><time>2026-05-01T13:50:57Z</time></trkpt><trkpt lat="44.92392836954316" lon="7.277770354026984"><ele>961.3333333333333</ele><time>2026-05-01T13:50:58Z</time></trkpt><trkpt lat="44.923850432373065" lon="7.277729280927126"><ele>959.1666666666666</ele><time>2026-05-01T13:50:59Z</time></trkpt><trkpt lat="44.92378068162236" lon="7.277665849833931"><ele>957.0</ele><time>2026-05-01T13:51:00Z</time></trkpt><trkpt lat="44.92371651104385" lon="7.277615585736749"><ele>957.0</ele><time>2026-05-01T13:51:01Z</time></trkpt><trkpt lat="44.92365224279075" lon="7.277614991090834"><ele>957.0</ele><time>2026-05-01T13:51:02Z</time></trkpt><trkpt lat="44.923578140082505" lon="7.277648548523338"><ele>957.0</ele><time>2026-05-01T13:51:03Z</time></trkpt><trkpt lat="44.92350609785926" lon="7.277697410861267"><ele>957.0</ele><time>2026-05-01T13:51:04Z</time></trkpt><trkpt lat="44.9234365842858" lon="7.2777568818387826"><ele>957.0</ele><time>2026-05-01T13:51:05Z</time></trkpt><trkpt lat="44.92331472814258" lon="7.277692033178887"><ele>957.0</ele><time>2026-05-01T13:51:06Z</time></trkpt><trkpt lat="44.9232700133839" lon="7.277759662937775"><ele>954.8</ele><time>2026-05-01T13:51:07Z</time></trkpt><trkpt lat="44.923242643105056" lon="7.277858176498447"><ele>952.6</ele><time>2026-05-01T13:51:21Z</time></trkpt><trkpt lat="44.92312412263788" lon="7.277982327086573"><ele>950.3999999999999</ele><time>2026-05-01T13:51:23Z</time></trkpt><trkpt lat="44.92303366169164" lon="7.278010851784125"><ele>948.1999999999999</ele><time>2026-05-01T13:51:24Z</time></trkpt><trkpt lat="44.92293913380758" lon="7.277994654416359"><ele>946.0</ele><time>2026-05-01T13:51:25Z</time></trkpt><trkpt lat="44.92286356654495" lon="7.278090012233122"><ele>945.1999999999999</ele><time>2026-05-01T13:51:27Z</time></trkpt><trkpt lat="44.92290834106456" lon="7.27826288353344"><ele>944.3999999999999</ele><time>2026-05-01T13:51:30Z</time></trkpt><trkpt lat="44.92295490499383" lon="7.278369858138296"><ele>943.6</ele><time>2026-05-01T13:51:31Z</time></trkpt><trkpt lat="44.92299677669526" lon="7.278473391951077"><ele>942.8</ele><time>2026-05-01T13:51:32Z</time></trkpt><trkpt lat="44.92303918330086" lon="7.278559380320052"><ele>942.0</ele><time>2026-05-01T13:51:33Z</time></trkpt><trkpt lat="44.92309483542168" lon="7.278660264201601"><ele>942.0</ele><time>2026-05-01T13:51:34Z</time></trkpt><trkpt lat="44.923154075873335" lon="7.2787460670487985"><ele>942.0</ele><time>2026-05-01T13:51:34.999Z</time></trkpt><trkpt lat="44.92323525297249" lon="7.278806852601862"><ele>942.0</ele><time>2026-05-01T13:51:35.999Z</time></trkpt><trkpt lat="44.923327238427134" lon="7.278864390542804"><ele>942.0</ele><time>2026-05-01T13:51:36.999Z</time></trkpt><trkpt lat="44.92342355233509" lon="7.2789325186138925"><ele>942.0</ele><time>2026-05-01T13:51:37.999Z</time></trkpt><trkpt lat="44.92352044170381" lon="7.279025656942743"><ele>943.0</ele><time>2026-05-01T13:51:38.999Z</time></trkpt><trkpt lat="44.923601897134986" lon="7.279098022891293"><ele>944.0</ele><time>2026-05-01T13:51:39.999Z</time></trkpt><trkpt lat="44.92367016858938" lon="7.279187669035731"><ele>945.0</ele><time>2026-05-01T13:51:40.999Z</time></trkpt><trkpt lat="44.923727052057714" lon="7.279305561620201"><ele>946.0</ele><time>2026-05-01T13:51:41.999Z</time></trkpt><trkpt lat="44.92378757094645" lon="7.27941081586976"><ele>947.0</ele><time>2026-05-01T13:51:42.999Z</time></trkpt><trkpt lat="44.92385514885704" lon="7.279531762849207"><ele>947.0</ele><time>2026-05-01T13:51:43.999Z</time></trkpt><trkpt lat="44.92392195214595" lon="7.279655532204372"><ele>947.0</ele><time>2026-05-01T13:51:44.999Z</time></trkpt><trkpt lat="44.92402280100075" lon="7.27978511310561"><ele>947.0</ele><time>2026-05-01T13:51:45.999Z</time></trkpt><trkpt lat="44.92413211656193" lon="7.279909847189431"><ele>947.0</ele><time>2026-05-01T13:51:46.999Z</time></trkpt><trkpt lat="44.92420574803697" lon="7.2800329334871465"><ele>947.2</ele><time>2026-05-01T13:51:47.999Z</time></trkpt><trkpt lat="44.92427601087045" lon="7.280153952231274"><ele>947.4000000000001</ele><time>2026-05-01T13:51:48.999Z</time></trkpt><trkpt lat="44.92433691989114" lon="7.280267601320547"><ele>947.5999999999999</ele><time>2026-05-01T13:51:49.999Z</time></trkpt><trkpt lat="44.924418384424726" lon="7.280363093982342"><ele>947.8</ele><time>2026-05-01T13:51:50.999Z</time></trkpt><trkpt lat="44.92449962088434" lon="7.280434711933764"><ele>948.0</ele><time>2026-05-01T13:51:51.999Z</time></trkpt><trkpt lat="44.924593597173306" lon="7.280487840983072"><ele>948.0</ele><time>2026-05-01T13:51:52.999Z</time></trkpt><trkpt lat="44.92467907763431" lon="7.280526727397007"><ele>948.0</ele><time>2026-05-01T13:51:53.999Z</time></trkpt><trkpt lat="44.92476409088282" lon="7.280526190279831"><ele>948.0</ele><time>2026-05-01T13:51:54.999Z</time></trkpt><trkpt lat="44.924833160778746" lon="7.280512150494114"><ele>948.0</ele><time>2026-05-01T13:51:55.999Z</time></trkpt><trkpt lat="44.92490899964309" lon="7.280460032426911"><ele>948.0</ele><time>2026-05-01T13:51:56.999Z</time></trkpt><trkpt lat="44.92503660939089" lon="7.280529167755646"><ele>948.4</ele><time>2026-05-01T13:51:58.999Z</time></trkpt><trkpt lat="44.92512966686239" lon="7.280597743847228"><ele>948.8</ele><time>2026-05-01T13:51:59.999Z</time></trkpt><trkpt lat="44.925219073273595" lon="7.280644691635016"><ele>949.2</ele><time>2026-05-01T13:52:00.999Z</time></trkpt><trkpt lat="44.925321560617874" lon="7.280655959780578"><ele>949.6</ele><time>2026-05-01T13:52:01.999Z</time></trkpt><trkpt lat="44.92541073434073" lon="7.280649266175364"><ele>950.0</ele><time>2026-05-01T13:52:02.999Z</time></trkpt><trkpt lat="44.925474916451705" lon="7.280615131454802"><ele>941.5</ele><time>2026-05-01T13:52:03.999Z</time></trkpt><trkpt lat="44.92557735098678" lon="7.280617154694304"><ele>933.0</ele><time>2026-05-01T13:52:05.999Z</time></trkpt><trkpt lat="44.925638575617505" lon="7.280737438227384"><ele>924.5</ele><time>2026-05-01T13:52:06.999Z</time></trkpt><trkpt lat="44.925685031253394" lon="7.280903380308275"><ele>916.0</ele><time>2026-05-01T13:52:07.999Z</time></trkpt><trkpt lat="44.92577829542168" lon="7.281006419646535"><ele>916.0</ele><time>2026-05-01T13:52:08.999Z</time></trkpt><trkpt lat="44.92587963796927" lon="7.2811242235772085"><ele>916.0</ele><time>2026-05-01T13:52:09.999Z</time></trkpt><trkpt lat="44.925982933895135" lon="7.281218805399659"><ele>916.0</ele><time>2026-05-01T13:52:10.999Z</time></trkpt><trkpt lat="44.92609155398339" lon="7.281340852363005"><ele>916.0</ele><time>2026-05-01T13:52:11.999Z</time></trkpt><trkpt lat="44.926191428123296" lon="7.281455780489384"><ele>917.5</ele><time>2026-05-01T13:52:12.999Z</time></trkpt><trkpt lat="44.926313027243594" lon="7.281588746684193"><ele>919.0</ele><time>2026-05-01T13:52:13.999Z</time></trkpt><trkpt lat="44.926405691543145" lon="7.281710748806023"><ele>920.5</ele><time>2026-05-01T13:52:14.999Z</time></trkpt><trkpt lat="44.92649747992071" lon="7.281814172758948"><ele>922.0</ele><time>2026-05-01T13:52:15.999Z</time></trkpt><trkpt lat="44.92661458540452" lon="7.281918567624071"><ele>923.5</ele><time>2026-05-01T13:52:16.999Z</time></trkpt><trkpt lat="44.92673803382307" lon="7.282035049844829"><ele>925.0</ele><time>2026-05-01T13:52:17.999Z</time></trkpt><trkpt lat="44.92686439190413" lon="7.282146377476585"><ele>926.5</ele><time>2026-05-01T13:52:18.999Z</time></trkpt><trkpt lat="44.92698077950879" lon="7.282248530950364"><ele>928.0</ele><time>2026-05-01T13:52:19.999Z</time></trkpt><trkpt lat="44.927071408242604" lon="7.28235285369231"><ele>924.5</ele><time>2026-05-01T13:52:20.999Z</time></trkpt><trkpt lat="44.92716728580013" lon="7.282422798457454"><ele>921.0</ele><time>2026-05-01T13:52:21.999Z</time></trkpt><trkpt lat="44.9272945458247" lon="7.282489109337848"><ele>917.5</ele><time>2026-05-01T13:52:22.998Z</time></trkpt><trkpt lat="44.92740034479352" lon="7.282526317215903"><ele>914.0</ele><time>2026-05-01T13:52:23.998Z</time></trkpt><trkpt lat="44.927513300508096" lon="7.282566869155283"><ele>910.2</ele><time>2026-05-01T13:52:24.998Z</time></trkpt><trkpt lat="44.92760860826533" lon="7.282581301614242"><ele>906.4000000000001</ele><time>2026-05-01T13:52:25.998Z</time></trkpt><trkpt lat="44.92770987612038" lon="7.282586165892885"><ele>902.6</ele><time>2026-05-01T13:52:26.998Z</time></trkpt><trkpt lat="44.92778758337569" lon="7.282554027852637"><ele>898.8</ele><time>2026-05-01T13:52:27.998Z</time></trkpt><trkpt lat="44.92786421509168" lon="7.28247782259515"><ele>895.0</ele><time>2026-05-01T13:52:28.998Z</time></trkpt><trkpt lat="44.92796005443945" lon="7.28241631453563"><ele>895.0</ele><time>2026-05-01T13:52:29.998Z</time></trkpt><trkpt lat="44.9280424197516" lon="7.282362377185836"><ele>895.0</ele><time>2026-05-01T13:52:30.998Z</time></trkpt><trkpt lat="44.928118319414395" lon="7.282249116283026"><ele>895.0</ele><time>2026-05-01T13:52:31.998Z</time></trkpt><trkpt lat="44.92816329275511" lon="7.282101602741529"><ele>895.0</ele><time>2026-05-01T13:52:32.998Z</time></trkpt><trkpt lat="44.92821503137678" lon="7.281947531836302"><ele>895.0</ele><time>2026-05-01T13:52:33.998Z</time></trkpt><trkpt lat="44.928270220132895" lon="7.28180522121144"><ele>895.0</ele><time>2026-05-01T13:52:34.998Z</time></trkpt><trkpt lat="44.92832448858794" lon="7.2817245005886875"><ele>895.0</ele><time>2026-05-01T13:52:35.998Z</time></trkpt><trkpt lat="44.92840808639976" lon="7.281672960328947"><ele>895.0</ele><time>2026-05-01T13:52:36.998Z</time></trkpt><trkpt lat="44.92852697536284" lon="7.281701108742267"><ele>895.0</ele><time>2026-05-01T13:52:37.998Z</time></trkpt><trkpt lat="44.92861685517008" lon="7.2816927611078945"><ele>895.0</ele><time>2026-05-01T13:52:38.998Z</time></trkpt><trkpt lat="44.92870434967569" lon="7.281669993777867"><ele>895.0</ele><time>2026-05-01T13:52:39.998Z</time></trkpt><trkpt lat="44.92879032732167" lon="7.2816193369931295"><ele>895.0</ele><time>2026-05-01T13:52:40.998Z</time></trkpt><trkpt lat="44.9289073350903" lon="7.281588967771626"><ele>895.0</ele><time>2026-05-01T13:52:41.998Z</time></trkpt><trkpt lat="44.92900607948647" lon="7.281550897768225"><ele>895.0</ele><time>2026-05-01T13:52:42.998Z</time></trkpt><trkpt lat="44.92908651182405" lon="7.281568463984259"><ele>895.0</ele><time>2026-05-01T13:52:43.998Z</time></trkpt><trkpt lat="44.9291731394275" lon="7.281608892964151"><ele>894.2</ele><time>2026-05-01T13:52:44.998Z</time></trkpt><trkpt lat="44.92925935395591" lon="7.281601270444335"><ele>893.4</ele><time>2026-05-01T13:52:45.998Z</time></trkpt><trkpt lat="44.92933555486369" lon="7.281620267153001"><ele>892.5999999999999</ele><time>2026-05-01T13:52:46.998Z</time></trkpt><trkpt lat="44.92942153837287" lon="7.281636136843568"><ele>891.8</ele><time>2026-05-01T13:52:47.998Z</time></trkpt><trkpt lat="44.92952990550373" lon="7.281616245998552"><ele>891.0</ele><time>2026-05-01T13:52:48.998Z</time></trkpt><trkpt lat="44.92964142345699" lon="7.281579853290667"><ele>891.0</ele><time>2026-05-01T13:52:49.998Z</time></trkpt><trkpt lat="44.92975137762442" lon="7.28153218530754"><ele>891.0</ele><time>2026-05-01T13:52:50.998Z</time></trkpt><trkpt lat="44.92984822051024" lon="7.2814372487625345"><ele>891.0</ele><time>2026-05-01T13:52:51.998Z</time></trkpt><trkpt lat="44.92995831048135" lon="7.28138861518988"><ele>891.0</ele><time>2026-05-01T13:52:52.998Z</time></trkpt><trkpt lat="44.930063468177906" lon="7.281330255466822"><ele>891.75</ele><time>2026-05-01T13:52:53.998Z</time></trkpt><trkpt lat="44.93018330466995" lon="7.281276197503256"><ele>892.5</ele><time>2026-05-01T13:52:54.998Z</time></trkpt><trkpt lat="44.93031243333495" lon="7.281224015046497"><ele>893.25</ele><time>2026-05-01T13:52:55.998Z</time></trkpt><trkpt lat="44.930425233201184" lon="7.2811245475777255"><ele>894.0</ele><time>2026-05-01T13:52:56.998Z</time></trkpt><trkpt lat="44.93050470215365" lon="7.281028265657878"><ele>894.0</ele><time>2026-05-01T13:52:57.998Z</time></trkpt><trkpt lat="44.930552916262506" lon="7.28092345031251"><ele>894.0</ele><time>2026-05-01T13:52:58.998Z</time></trkpt><trkpt lat="44.93061284816954" lon="7.280824733913411"><ele>894.0</ele><time>2026-05-01T13:53:00Z</time></trkpt><trkpt lat="44.9306639072948" lon="7.280755302631447"><ele>894.0</ele><time>2026-05-01T13:53:01Z</time></trkpt><trkpt lat="44.93070419636622" lon="7.280658546482162"><ele>894.0</ele><time>2026-05-01T13:53:03Z</time></trkpt><trkpt lat="44.93072913436398" lon="7.28055109483039"><ele>894.0</ele><time>2026-05-01T13:53:14Z</time></trkpt><trkpt lat="44.93073940091353" lon="7.280434112579541"><ele>898.2</ele><time>2026-05-01T13:53:16Z</time></trkpt><trkpt lat="44.930746771923744" lon="7.280315183772871"><ele>902.4000000000001</ele><time>2026-05-01T13:53:18Z</time></trkpt><trkpt lat="44.9307247798649" lon="7.280214662879759"><ele>906.6</ele><time>2026-05-01T13:53:22Z</time></trkpt><trkpt lat="44.9305966630481" lon="7.280105550082856"><ele>910.8</ele><time>2026-05-01T13:53:24Z</time></trkpt><trkpt lat="44.93054810546066" lon="7.2800431102349545"><ele>915.0</ele><time>2026-05-01T13:53:25Z</time></trkpt><trkpt lat="44.930487039399985" lon="7.279865076569038"><ele>915.0</ele><time>2026-05-01T13:53:27Z</time></trkpt><trkpt lat="44.93039752440312" lon="7.279808989323791"><ele>915.0</ele><time>2026-05-01T13:53:29Z</time></trkpt><trkpt lat="44.93029703103339" lon="7.2797494281910735"><ele>915.0</ele><time>2026-05-01T13:53:31Z</time></trkpt><trkpt lat="44.93019887902428" lon="7.2796127364931085"><ele>915.0</ele><time>2026-05-01T13:53:33Z</time></trkpt><trkpt lat="44.93013806630263" lon="7.279561150514205"><ele>915.0</ele><time>2026-05-01T13:53:34Z</time></trkpt><trkpt lat="44.93015617243921" lon="7.279462058492964"><ele>917.0</ele><time>2026-05-01T13:53:38.999Z</time></trkpt><trkpt lat="44.930181034691046" lon="7.279379593267752"><ele>919.0</ele><time>2026-05-01T13:53:45.999Z</time></trkpt><trkpt lat="44.93021813924901" lon="7.279300336184678"><ele>921.0</ele><time>2026-05-01T13:53:54.999Z</time></trkpt><trkpt lat="44.93014211728448" lon="7.279310340248653"><ele>923.0</ele><time>2026-05-01T13:54:00.999Z</time></trkpt><trkpt lat="44.930066333055585" lon="7.279398615207231"><ele>925.0</ele><time>2026-05-01T13:54:37.998Z</time></trkpt><trkpt lat="44.930160628867256" lon="7.279365848172999"><ele>927.0</ele><time>2026-05-01T13:54:48.998Z</time></trkpt><trkpt lat="44.93022331309958" lon="7.2793328263435795"><ele>927.0</ele><time>2026-05-01T13:54:49.998Z</time></trkpt><trkpt lat="44.93032767744624" lon="7.2792749423284455"><ele>927.0</ele><time>2026-05-01T13:54:51.998Z</time></trkpt><trkpt lat="44.9303702920948" lon="7.27919202187"><ele>927.0</ele><time>2026-05-01T13:54:53.998Z</time></trkpt><trkpt lat="44.93035302220312" lon="7.27908632366585"><ele>927.0</ele><time>2026-05-01T13:54:57.998Z</time></trkpt><trkpt lat="44.93031621856795" lon="7.278981186011774"><ele>927.0</ele><time>2026-05-01T13:56:26.999Z</time></trkpt><trkpt lat="44.930316155672955" lon="7.278889227971406"><ele>927.0</ele><time>2026-05-01T13:56:29.999Z</time></trkpt><trkpt lat="44.930240552912984" lon="7.278900389046148"><ele>929.3333333333334</ele><time>2026-05-01T13:57:35Z</time></trkpt><trkpt lat="44.93019871152005" lon="7.278819286741376"><ele>931.6666666666667</ele><time>2026-05-01T13:57:46Z</time></trkpt><trkpt lat="44.930164746584644" lon="7.278737341486726"><ele>934.0</ele><time>2026-05-01T13:57:51.999Z</time></trkpt><trkpt lat="44.93013521472282" lon="7.278553421131817"><ele>936.3333333333334</ele><time>2026-05-01T13:58:41.998Z</time></trkpt><trkpt lat="44.93007569241504" lon="7.2784967378733665"><ele>938.6666666666667</ele><time>2026-05-01T14:00:55.998Z</time></trkpt><trkpt lat="44.930030148554714" lon="7.2784327832874425"><ele>941.0</ele><time>2026-05-01T14:00:58.998Z</time></trkpt><trkpt lat="44.92997042851483" lon="7.27839586876026"><ele>940.9999999999999</ele><time>2026-05-01T14:01:04.998Z</time></trkpt><trkpt lat="44.93003469632579" lon="7.278417723718855"><ele>941.0</ele><time>2026-05-01T14:02:31.999Z</time></trkpt><trkpt lat="44.93009694935532" lon="7.278465097043387"><ele>940.9999999999999</ele><time>2026-05-01T14:03:13.998Z</time></trkpt><trkpt lat="44.93010412161662" lon="7.278555294815559"><ele>940.9999999999999</ele><time>2026-05-01T14:03:25.998Z</time></trkpt><trkpt lat="44.93013529167103" lon="7.278642612968232"><ele>941.0</ele><time>2026-05-01T14:03:29Z</time></trkpt><trkpt lat="44.930179357104535" lon="7.278709841390195"><ele>940.9999999999999</ele><time>2026-05-01T14:03:31Z</time></trkpt><trkpt lat="44.930248599703475" lon="7.27873545261623"><ele>940.9999999999999</ele><time>2026-05-01T14:03:36Z</time></trkpt><trkpt lat="44.93022553740566" lon="7.278651163165653"><ele>940.9999999999999</ele><time>2026-05-01T14:03:46Z</time></trkpt><trkpt lat="44.93020738654854" lon="7.278745791254986"><ele>941.0</ele><time>2026-05-01T14:03:59.999Z</time></trkpt><trkpt lat="44.93020185545828" lon="7.2786526266098175"><ele>940.9999999999999</ele><time>2026-05-01T14:05:47Z</time></trkpt><trkpt lat="44.9302246185964" lon="7.278553128504103"><ele>940.9999999999999</ele><time>2026-05-01T14:06:00Z</time></trkpt><trkpt lat="44.930182725896046" lon="7.2784683020989815"><ele>941.0</ele><time>2026-05-01T14:06:02Z</time></trkpt><trkpt lat="44.93014346891612" lon="7.278393779226228"><ele>940.9999999999999</ele><time>2026-05-01T14:06:05.999Z</time></trkpt><trkpt lat="44.93006492114006" lon="7.27839128337886"><ele>940.9999999999999</ele><time>2026-05-01T14:06:06.999Z</time></trkpt><trkpt lat="44.929999554942476" lon="7.278369131867271"><ele>941.0000000000001</ele><time>2026-05-01T14:06:10.999Z</time></trkpt><trkpt lat="44.92996774248301" lon="7.27827502967471"><ele>941.0</ele><time>2026-05-01T14:06:43.999Z</time></trkpt><trkpt lat="44.93001368854408" lon="7.278342240842093"><ele>941.0</ele><time>2026-05-01T14:07:23.998Z</time></trkpt><trkpt lat="44.93006195300633" lon="7.278400844656364"><ele>941.0</ele><time>2026-05-01T14:08:13.999Z</time></trkpt><trkpt lat="44.93010100933345" lon="7.278537638019102"><ele>941.0000000000001</ele><time>2026-05-01T14:08:34.999Z</time></trkpt><trkpt lat="44.930111251519655" lon="7.278650973101579"><ele>941.0</ele><time>2026-05-01T14:08:50.999Z</time></trkpt><trkpt lat="44.9301542488524" lon="7.278746446616731"><ele>940.9999999999999</ele><time>2026-05-01T14:08:52.999Z</time></trkpt><trkpt lat="44.93022145509686" lon="7.278793687431699"><ele>941.0</ele><time>2026-05-01T14:08:55.998Z</time></trkpt><trkpt lat="44.93019382743413" lon="7.2787091339469985"><ele>940.9999999999999</ele><time>2026-05-01T14:09:11.998Z</time></trkpt><trkpt lat="44.93016941788516" lon="7.278617081492347"><ele>940.9999999999999</ele><time>2026-05-01T14:11:40.998Z</time></trkpt><trkpt lat="44.93018214636055" lon="7.278515473241404"><ele>941.0</ele><time>2026-05-01T14:11:57Z</time></trkpt><trkpt lat="44.93012763499547" lon="7.2784416641358165"><ele>940.9999999999999</ele><time>2026-05-01T14:12:08Z</time></trkpt><trkpt lat="44.93006201827812" lon="7.2784334316279615"><ele>940.9999999999999</ele><time>2026-05-01T14:12:23.999Z</time></trkpt><trkpt lat="44.93016202632165" lon="7.278373312992677"><ele>941.0</ele><time>2026-05-01T14:17:52.998Z</time></trkpt><trkpt lat="44.93009116011669" lon="7.278401474773673"><ele>940.9999999999999</ele><time>2026-05-01T14:19:59.998Z</time></trkpt><trkpt lat="44.930090388317446" lon="7.278555952116083"><ele>940.9999999999999</ele><time>2026-05-01T14:21:00.999Z</time></trkpt><trkpt lat="44.93008409198842" lon="7.278690204619039"><ele>941.0</ele><time>2026-05-01T14:24:23.997Z</time></trkpt><trkpt lat="44.930141249478204" lon="7.278776902836657"><ele>941.0</ele><time>2026-05-01T14:24:26.997Z</time></trkpt><trkpt lat="44.930214369441764" lon="7.278882190725194"><ele>938.6666666666667</ele><time>2026-05-01T14:24:29Z</time></trkpt><trkpt lat="44.93024326574962" lon="7.278983981507887"><ele>936.3333333333334</ele><time>2026-05-01T14:24:33Z</time></trkpt><trkpt lat="44.93031931481051" lon="7.279022803148905"><ele>934.0</ele><time>2026-05-01T14:24:35Z</time></trkpt><trkpt lat="44.93038425936009" lon="7.279006564038722"><ele>931.6666666666667</ele><time>2026-05-01T14:24:37Z</time></trkpt><trkpt lat="44.93047179732013" lon="7.279005921938461"><ele>929.3333333333334</ele><time>2026-05-01T14:24:39Z</time></trkpt><trkpt lat="44.93052389220458" lon="7.279097110449882"><ele>927.0</ele><time>2026-05-01T14:24:42.001Z</time></trkpt><trkpt lat="44.93058368545207" lon="7.279210225636157"><ele>926.9999999999999</ele><time>2026-05-01T14:24:46Z</time></trkpt><trkpt lat="44.93065796665133" lon="7.279295991916612"><ele>927.0</ele><time>2026-05-01T14:24:48Z</time></trkpt><trkpt lat="44.93073173934857" lon="7.279297501597334"><ele>926.9999999999999</ele><time>2026-05-01T14:24:51Z</time></trkpt><trkpt lat="44.930796534075796" lon="7.279343462326546"><ele>926.9999999999999</ele><time>2026-05-01T14:25:04Z</time></trkpt><trkpt lat="44.930861182763664" lon="7.279368716436856"><ele>927.0</ele><time>2026-05-01T14:25:08Z</time></trkpt><trkpt lat="44.9309194584043" lon="7.279419343690072"><ele>926.9999999999999</ele><time>2026-05-01T14:25:11Z</time></trkpt><trkpt lat="44.93098702718591" lon="7.279433034548533"><ele>926.9999999999999</ele><time>2026-05-01T14:25:14Z</time></trkpt><trkpt lat="44.93106880555701" lon="7.279434900572453"><ele>926.9999999999999</ele><time>2026-05-01T14:25:16Z</time></trkpt><trkpt lat="44.93100052780177" lon="7.279470050133392"><ele>927.0</ele><time>2026-05-01T14:25:37.999Z</time></trkpt><trkpt lat="44.93092934023429" lon="7.279430807947392"><ele>926.9999999999999</ele><time>2026-05-01T14:25:40.999Z</time></trkpt><trkpt lat="44.930861282709124" lon="7.279413901691209"><ele>926.9999999999999</ele><time>2026-05-01T14:25:44.999Z</time></trkpt><trkpt lat="44.93078670038406" lon="7.279375818621215"><ele>927.0</ele><time>2026-05-01T14:25:47.999Z</time></trkpt><trkpt lat="44.930767808266786" lon="7.279287726839322"><ele>926.9999999999999</ele><time>2026-05-01T14:25:49.999Z</time></trkpt><trkpt lat="44.930699342923624" lon="7.279253526877002"><ele>926.9999999999999</ele><time>2026-05-01T14:25:54.999Z</time></trkpt><trkpt lat="44.93065948152457" lon="7.27917917895875"><ele>927.0</ele><time>2026-05-01T14:25:56.999Z</time></trkpt><trkpt lat="44.93059081841984" lon="7.279172075470029"><ele>927.0</ele><time>2026-05-01T14:25:58.999Z</time></trkpt><trkpt lat="44.93049825727513" lon="7.279199237979932"><ele>927.0</ele><time>2026-05-01T14:26:00.999Z</time></trkpt><trkpt lat="44.930430239152926" lon="7.2791266625525255"><ele>927.0</ele><time>2026-05-01T14:26:04.999Z</time></trkpt><trkpt lat="44.93040907600567" lon="7.279018952808638"><ele>927.0</ele><time>2026-05-01T14:26:07.999Z</time></trkpt><trkpt lat="44.93033612244162" lon="7.279018174718227"><ele>927.0</ele><time>2026-05-01T14:26:11.999Z</time></trkpt><trkpt lat="44.93037154170043" lon="7.27909492673629"><ele>927.0</ele><time>2026-05-01T14:26:14.999Z</time></trkpt><trkpt lat="44.93047737983518" lon="7.279117220928631"><ele>927.0</ele><time>2026-05-01T14:26:32.998Z</time></trkpt><trkpt lat="44.93058063976514" lon="7.279068140821804"><ele>927.0</ele><time>2026-05-01T14:26:35.001Z</time></trkpt><trkpt lat="44.93066239760517" lon="7.279074712454539"><ele>927.0</ele><time>2026-05-01T14:26:37.001Z</time></trkpt><trkpt lat="44.930673148198935" lon="7.279191520706052"><ele>927.0</ele><time>2026-05-01T14:26:39.001Z</time></trkpt><trkpt lat="44.930709168169884" lon="7.2792732497927"><ele>927.0</ele><time>2026-05-01T14:26:42.001Z</time></trkpt><trkpt lat="44.9307688660047" lon="7.279333615615361"><ele>927.0</ele><time>2026-05-01T14:26:43.001Z</time></trkpt><trkpt lat="44.930858563356274" lon="7.279357694292628"><ele>927.0</ele><time>2026-05-01T14:26:45.001Z</time></trkpt><trkpt lat="44.93093650242498" lon="7.2793652998728104"><ele>927.0</ele><time>2026-05-01T14:26:48.001Z</time></trkpt><trkpt lat="44.93100985414193" lon="7.279404644712549"><ele>927.0</ele><time>2026-05-01T14:26:53Z</time></trkpt><trkpt lat="44.93110383780305" lon="7.279457181776453"><ele>927.0</ele><time>2026-05-01T14:26:55Z</time></trkpt><trkpt lat="44.93103797804194" lon="7.279401130406148"><ele>927.0</ele><time>2026-05-01T14:27:02Z</time></trkpt><trkpt lat="44.930980887061764" lon="7.279362631765709"><ele>926.9999999999999</ele><time>2026-05-01T14:27:04Z</time></trkpt><trkpt lat="44.93092273027508" lon="7.279321361854895"><ele>927.0</ele><time>2026-05-01T14:27:06Z</time></trkpt><trkpt lat="44.93084916233304" lon="7.279297122241439"><ele>926.9999999999999</ele><time>2026-05-01T14:27:09Z</time></trkpt><trkpt lat="44.93078691675966" lon="7.279281214885883"><ele>926.9999999999999</ele><time>2026-05-01T14:27:11Z</time></trkpt><trkpt lat="44.93073204260793" lon="7.2791735884048325"><ele>927.0</ele><time>2026-05-01T14:27:13Z</time></trkpt><trkpt lat="44.93068244921257" lon="7.279112489527915"><ele>926.9999999999999</ele><time>2026-05-01T14:27:16Z</time></trkpt><trkpt lat="44.930605983809265" lon="7.27907811715377"><ele>926.9999999999999</ele><time>2026-05-01T14:27:22Z</time></trkpt><trkpt lat="44.93052945896059" lon="7.279044456515719"><ele>926.9999999999999</ele><time>2026-05-01T14:27:25Z</time></trkpt><trkpt lat="44.930492320004056" lon="7.278929744782755"><ele>927.0</ele><time>2026-05-01T14:27:28Z</time></trkpt><trkpt lat="44.93043130637314" lon="7.278880508986388"><ele>926.9999999999999</ele><time>2026-05-01T14:27:31Z</time></trkpt><trkpt lat="44.93041331687867" lon="7.278974971652453"><ele>926.9999999999999</ele><time>2026-05-01T14:27:39.999Z</time></trkpt><trkpt lat="44.93047391296703" lon="7.279025621509608"><ele>927.0</ele><time>2026-05-01T14:27:45.999Z</time></trkpt><trkpt lat="44.93051641673905" lon="7.279100930677959"><ele>926.9999999999999</ele><time>2026-05-01T14:27:47.999Z</time></trkpt><trkpt lat="44.93054420543073" lon="7.279200647170536"><ele>926.9999999999999</ele><time>2026-05-01T14:27:50.999Z</time></trkpt><trkpt lat="44.930607544826024" lon="7.279263004120034"><ele>927.0</ele><time>2026-05-01T14:27:54.999Z</time></trkpt><trkpt lat="44.93066144118547" lon="7.279313043883401"><ele>927.0</ele><time>2026-05-01T14:27:57.999Z</time></trkpt><trkpt lat="44.93069848564433" lon="7.279397146635828"><ele>927.0</ele><time>2026-05-01T14:28:01.999Z</time></trkpt><trkpt lat="44.930766953459575" lon="7.279464654244445"><ele>927.0</ele><time>2026-05-01T14:28:04.999Z</time></trkpt><trkpt lat="44.930896293631264" lon="7.2794385256964045"><ele>927.0</ele><time>2026-05-01T14:28:13.999Z</time></trkpt><trkpt lat="44.93082269120867" lon="7.279378529879542"><ele>927.0</ele><time>2026-05-01T14:28:20.999Z</time></trkpt><trkpt lat="44.930721527200795" lon="7.279333745842625"><ele>927.0</ele><time>2026-05-01T14:28:22.998Z</time></trkpt><trkpt lat="44.930610425445664" lon="7.279296567532342"><ele>927.0</ele><time>2026-05-01T14:28:24.998Z</time></trkpt><trkpt lat="44.93054035888595" lon="7.2792073000148205"><ele>927.0</ele><time>2026-05-01T14:28:26.998Z</time></trkpt><trkpt lat="44.930555173776646" lon="7.279063717618557"><ele>927.0</ele><time>2026-05-01T14:28:30.998Z</time></trkpt><trkpt lat="44.93048865654637" lon="7.279041019622801"><ele>927.0</ele><time>2026-05-01T14:28:32.998Z</time></trkpt><trkpt lat="44.930409233352194" lon="7.27904161282561"><ele>927.0</ele><time>2026-05-01T14:28:33.998Z</time></trkpt><trkpt lat="44.93034229418411" lon="7.279030104658675"><ele>927.0</ele><time>2026-05-01T14:28:35.998Z</time></trkpt><trkpt lat="44.930271058803626" lon="7.278946470333573"><ele>927.0</ele><time>2026-05-01T14:28:38.998Z</time></trkpt><trkpt lat="44.93021312133909" lon="7.278872452357601"><ele>927.0</ele><time>2026-05-01T14:28:43Z</time></trkpt><trkpt lat="44.930283583114964" lon="7.278907283233114"><ele>927.0</ele><time>2026-05-01T14:28:51Z</time></trkpt><trkpt lat="44.9303478642244" lon="7.278854096025911"><ele>927.0</ele><time>2026-05-01T14:29:05Z</time></trkpt><trkpt lat="44.93039424047159" lon="7.278918654204674"><ele>927.0</ele><time>2026-05-01T14:29:08Z</time></trkpt><trkpt lat="44.930450412433615" lon="7.279010903946388"><ele>927.0</ele><time>2026-05-01T14:29:10Z</time></trkpt><trkpt lat="44.93053451423634" lon="7.278969413444404"><ele>927.0</ele><time>2026-05-01T14:29:12Z</time></trkpt><trkpt lat="44.930627918594574" lon="7.279048050851257"><ele>927.0</ele><time>2026-05-01T14:29:14Z</time></trkpt><trkpt lat="44.93067318985462" lon="7.279143203326982"><ele>927.0</ele><time>2026-05-01T14:29:16Z</time></trkpt><trkpt lat="44.93069948909302" lon="7.279240807001323"><ele>927.0</ele><time>2026-05-01T14:29:18Z</time></trkpt><trkpt lat="44.930776349476346" lon="7.279325142347657"><ele>927.0</ele><time>2026-05-01T14:29:20Z</time></trkpt><trkpt lat="44.930845026252484" lon="7.279319378958584"><ele>927.0</ele><time>2026-05-01T14:29:22Z</time></trkpt><trkpt lat="44.93090926180797" lon="7.279331211089326"><ele>927.0</ele><time>2026-05-01T14:29:24Z</time></trkpt><trkpt lat="44.93100989771723" lon="7.279410138521479"><ele>927.0</ele><time>2026-05-01T14:29:28Z</time></trkpt><trkpt lat="44.93111505737176" lon="7.279446727114738"><ele>927.0</ele><time>2026-05-01T14:29:30Z</time></trkpt><trkpt lat="44.93104627538619" lon="7.279388198465608"><ele>927.0</ele><time>2026-05-01T14:29:39.999Z</time></trkpt><trkpt lat="44.93095109001882" lon="7.279388287690917"><ele>927.0</ele><time>2026-05-01T14:29:42.999Z</time></trkpt><trkpt lat="44.93087934971544" lon="7.279331896453913"><ele>927.0</ele><time>2026-05-01T14:29:45.999Z</time></trkpt><trkpt lat="44.93078623194678" lon="7.279304319118841"><ele>927.0</ele><time>2026-05-01T14:29:47.999Z</time></trkpt><trkpt lat="44.930699392987236" lon="7.279218841432453"><ele>927.0</ele><time>2026-05-01T14:29:49.999Z</time></trkpt><trkpt lat="44.93064812025901" lon="7.279155547234541"><ele>927.0</ele><time>2026-05-01T14:29:51.999Z</time></trkpt><trkpt lat="44.930612252077" lon="7.279076735045135"><ele>927.0</ele><time>2026-05-01T14:29:54.999Z</time></trkpt><trkpt lat="44.930549777914706" lon="7.279045320853311"><ele>927.0</ele><time>2026-05-01T14:29:56.999Z</time></trkpt><trkpt lat="44.93044769539981" lon="7.279058898320502"><ele>927.0</ele><time>2026-05-01T14:29:58.999Z</time></trkpt><trkpt lat="44.93037197208479" lon="7.27900870069218"><ele>927.0</ele><time>2026-05-01T14:30:00.999Z</time></trkpt><trkpt lat="44.9303091184777" lon="7.2789671220871766"><ele>927.0</ele><time>2026-05-01T14:30:05.999Z</time></trkpt><trkpt lat="44.93026261888337" lon="7.278873775072247"><ele>927.0</ele><time>2026-05-01T14:30:31.998Z</time></trkpt><trkpt lat="44.930270073572316" lon="7.27877851554509"><ele>927.0</ele><time>2026-05-01T14:31:01Z</time></trkpt><trkpt lat="44.93033523603005" lon="7.27879049647093"><ele>927.0</ele><time>2026-05-01T14:31:13Z</time></trkpt><trkpt lat="44.93036893157002" lon="7.2788740372202385"><ele>927.0</ele><time>2026-05-01T14:31:26Z</time></trkpt><trkpt lat="44.93033146195959" lon="7.278787171061363"><ele>927.0</ele><time>2026-05-01T14:31:40.999Z</time></trkpt><trkpt lat="44.93033358489333" lon="7.278877107064153"><ele>927.0</ele><time>2026-05-01T14:32:20.999Z</time></trkpt><trkpt lat="44.930256570223555" lon="7.278957153813962"><ele>927.0</ele><time>2026-05-01T14:33:41Z</time></trkpt><trkpt lat="44.930252934603224" lon="7.27886604247798"><ele>927.0</ele><time>2026-05-01T14:34:04.999Z</time></trkpt><trkpt lat="44.930218536451825" lon="7.278711128736208"><ele>927.0</ele><time>2026-05-01T14:34:57.998Z</time></trkpt><trkpt lat="44.93019424366513" lon="7.278823216046568"><ele>927.0</ele><time>2026-05-01T14:37:58.999Z</time></trkpt><trkpt lat="44.930214262536246" lon="7.278922195490319"><ele>927.0</ele><time>2026-05-01T14:38:33.999Z</time></trkpt><trkpt lat="44.930297936988154" lon="7.278970239025495"><ele>927.0</ele><time>2026-05-01T14:38:35.999Z</time></trkpt><trkpt lat="44.93036958984741" lon="7.278890638446035"><ele>927.0</ele><time>2026-05-01T14:38:39.999Z</time></trkpt><trkpt lat="44.93034929235185" lon="7.27878388977094"><ele>927.0</ele><time>2026-05-01T14:38:41.998Z</time></trkpt><trkpt lat="44.930282639833045" lon="7.27878255132596"><ele>929.3333333333334</ele><time>2026-05-01T14:38:44.998Z</time></trkpt><trkpt lat="44.93019702165778" lon="7.278721763473555"><ele>931.6666666666667</ele><time>2026-05-01T14:38:47.998Z</time></trkpt><trkpt lat="44.9301442362263" lon="7.2786599792678315"><ele>934.0</ele><time>2026-05-01T14:38:49.998Z</time></trkpt><trkpt lat="44.930138096469626" lon="7.278521047105724"><ele>936.3333333333334</ele><time>2026-05-01T14:38:51.998Z</time></trkpt><trkpt lat="44.93011003474118" lon="7.278434504976703"><ele>938.6666666666667</ele><time>2026-05-01T14:38:53.998Z</time></trkpt><trkpt lat="44.93010477657748" lon="7.278329628229391"><ele>941.0</ele><time>2026-05-01T14:38:55.998Z</time></trkpt><trkpt lat="44.93010787088022" lon="7.278178467433904"><ele>948.8</ele><time>2026-05-01T14:38:57.998Z</time></trkpt><trkpt lat="44.930052519363294" lon="7.278032774590872"><ele>956.5999999999999</ele><time>2026-05-01T14:38:59.998Z</time></trkpt><trkpt lat="44.930035993159336" lon="7.277843437748563"><ele>964.4</ele><time>2026-05-01T14:39:01.998Z</time></trkpt><trkpt lat="44.930013403020105" lon="7.277727805391713"><ele>972.2</ele><time>2026-05-01T14:39:02.998Z</time></trkpt><trkpt lat="44.93001008990758" lon="7.277590296610122"><ele>980.0</ele><time>2026-05-01T14:39:03.998Z</time></trkpt><trkpt lat="44.93000010910383" lon="7.277426403691595"><ele>980.0000000000001</ele><time>2026-05-01T14:39:04.998Z</time></trkpt><trkpt lat="44.929987865038164" lon="7.277282547920221"><ele>980.0</ele><time>2026-05-01T14:39:05.998Z</time></trkpt><trkpt lat="44.92995185237367" lon="7.277147526581961"><ele>980.0</ele><time>2026-05-01T14:39:06.998Z</time></trkpt><trkpt lat="44.929886753782874" lon="7.277167422937265"><ele>980.0</ele><time>2026-05-01T14:39:13Z</time></trkpt><trkpt lat="44.92985326563106" lon="7.277262053574613"><ele>980.0000000000001</ele><time>2026-05-01T14:39:18Z</time></trkpt><trkpt lat="44.92979776615853" lon="7.27732176496339"><ele>980.0</ele><time>2026-05-01T14:39:24Z</time></trkpt><trkpt lat="44.9298303234704" lon="7.2774507899900716"><ele>980.0</ele><time>2026-05-01T14:40:31.999Z</time></trkpt><trkpt lat="44.92988825254093" lon="7.277492989748778"><ele>980.0</ele><time>2026-05-01T14:40:34.999Z</time></trkpt><trkpt lat="44.92990398805275" lon="7.277580591761719"><ele>980.0</ele><time>2026-05-01T14:40:40.999Z</time></trkpt><trkpt lat="44.92988967991784" lon="7.27767446772435"><ele>980.0</ele><time>2026-05-01T14:40:49.998Z</time></trkpt><trkpt lat="44.92982855638339" lon="7.277608724265645"><ele>980.0</ele><time>2026-05-01T14:40:55.998Z</time></trkpt><trkpt lat="44.929779500099066" lon="7.27752058516683"><ele>980.0</ele><time>2026-05-01T14:41:03.998Z</time></trkpt><trkpt lat="44.929761179142396" lon="7.277422305605202"><ele>980.0</ele><time>2026-05-01T14:41:34Z</time></trkpt><trkpt lat="44.929808107882" lon="7.277330524322282"><ele>983.0000000000001</ele><time>2026-05-01T14:41:36Z</time></trkpt><trkpt lat="44.9298583448231" lon="7.277216276128325"><ele>986.0</ele><time>2026-05-01T14:41:38Z</time></trkpt><trkpt lat="44.92991029486058" lon="7.277153426198321"><ele>989.0</ele><time>2026-05-01T14:41:41Z</time></trkpt><trkpt lat="44.929898134234236" lon="7.2770355529066"><ele>992.0</ele><time>2026-05-01T14:41:45Z</time></trkpt><trkpt lat="44.92989906364338" lon="7.27691232402051"><ele>995.0000000000001</ele><time>2026-05-01T14:41:49Z</time></trkpt><trkpt lat="44.929879944072134" lon="7.276807079218857"><ele>998.0</ele><time>2026-05-01T14:41:52Z</time></trkpt><trkpt lat="44.929852993572936" lon="7.2767194972958125"><ele>998.0000000000001</ele><time>2026-05-01T14:41:55Z</time></trkpt><trkpt lat="44.92983392579059" lon="7.276624963929048"><ele>998.0</ele><time>2026-05-01T14:44:01Z</time></trkpt><trkpt lat="44.92987643153996" lon="7.276549857461585"><ele>998.0000000000001</ele><time>2026-05-01T14:44:09.999Z</time></trkpt><trkpt lat="44.92992937446214" lon="7.276481552850169"><ele>998.0000000000001</ele><time>2026-05-01T14:44:12.999Z</time></trkpt><trkpt lat="44.92997118394067" lon="7.276399757059476"><ele>998.0</ele><time>2026-05-01T14:44:18.999Z</time></trkpt><trkpt lat="44.93000194210515" lon="7.276301077223052"><ele>998.0000000000001</ele><time>2026-05-01T14:44:21.999Z</time></trkpt><trkpt lat="44.93003793000833" lon="7.276198961393255"><ele>998.0000000000001</ele><time>2026-05-01T14:44:24.999Z</time></trkpt><trkpt lat="44.9300414690343" lon="7.276104748575386"><ele>1001.1666666666667</ele><time>2026-05-01T14:44:26.999Z</time></trkpt><trkpt lat="44.93001600895407" lon="7.276012249701598"><ele>1004.3333333333334</ele><time>2026-05-01T14:44:29.999Z</time></trkpt><trkpt lat="44.93003444335861" lon="7.27588689774015"><ele>1007.5</ele><time>2026-05-01T14:44:32.999Z</time></trkpt><trkpt lat="44.930002367527244" lon="7.275809769133208"><ele>1010.6666666666667</ele><time>2026-05-01T14:44:33.999Z</time></trkpt><trkpt lat="44.929977612554026" lon="7.275676220247385"><ele>1013.8333333333334</ele><time>2026-05-01T14:44:35.999Z</time></trkpt><trkpt lat="44.92997085283717" lon="7.275583539357375"><ele>1017.0</ele><time>2026-05-01T14:44:37.999Z</time></trkpt><trkpt lat="44.9299243410387" lon="7.275518809518596"><ele>1017.1428571428571</ele><time>2026-05-01T14:44:39.999Z</time></trkpt><trkpt lat="44.92987895872663" lon="7.275455101077668"><ele>1017.2857142857142</ele><time>2026-05-01T14:44:41.999Z</time></trkpt><trkpt lat="44.929892551843835" lon="7.27534160675721"><ele>1017.4285714285713</ele><time>2026-05-01T14:44:43.999Z</time></trkpt><trkpt lat="44.92988465580464" lon="7.275250315576895"><ele>1017.5714285714284</ele><time>2026-05-01T14:44:52.998Z</time></trkpt><trkpt lat="44.92988175096494" lon="7.275160417425575"><ele>1017.7142857142857</ele><time>2026-05-01T14:44:54.998Z</time></trkpt><trkpt lat="44.92985755499026" lon="7.275035804818294"><ele>1017.8571428571427</ele><time>2026-05-01T14:44:56.998Z</time></trkpt><trkpt lat="44.92984922133886" lon="7.274941676189627"><ele>1017.9999999999999</ele><time>2026-05-01T14:44:57.998Z</time></trkpt><trkpt lat="44.929830856332224" lon="7.274854328289994"><ele>1018.1666666666666</ele><time>2026-05-01T14:44:58.998Z</time></trkpt><trkpt lat="44.92981057905057" lon="7.274753018114336"><ele>1018.3333333333333</ele><time>2026-05-01T14:44:59.998Z</time></trkpt><trkpt lat="44.92980369069822" lon="7.2746069839466445"><ele>1018.5</ele><time>2026-05-01T14:45:01.998Z</time></trkpt><trkpt lat="44.929868891095815" lon="7.274515991045118"><ele>1018.6666666666667</ele><time>2026-05-01T14:48:34.999Z</time></trkpt><trkpt lat="44.9298533955768" lon="7.27442255384062"><ele>1018.8333333333334</ele><time>2026-05-01T14:48:40.999Z</time></trkpt><trkpt lat="44.92981044591546" lon="7.27433213184581"><ele>1019.0</ele><time>2026-05-01T14:49:10.998Z</time></trkpt><trkpt lat="44.92981085098734" lon="7.27423718199685"><ele>1019.0000000000001</ele><time>2026-05-01T14:49:13.998Z</time></trkpt><trkpt lat="44.92985225153007" lon="7.274149011700007"><ele>1019.0</ele><time>2026-05-01T14:49:15.998Z</time></trkpt><trkpt lat="44.92991000602824" lon="7.274092520399969"><ele>1019.0</ele><time>2026-05-01T14:49:17.998Z</time></trkpt><trkpt lat="44.93000141600234" lon="7.274137660214844"><ele>1019.0</ele><time>2026-05-01T14:49:19.998Z</time></trkpt><trkpt lat="44.93000551725771" lon="7.274258044025948"><ele>1019.0000000000001</ele><time>2026-05-01T14:49:21.998Z</time></trkpt><trkpt lat="44.92999514934654" lon="7.274380355768232"><ele>1019.0</ele><time>2026-05-01T14:49:23.998Z</time></trkpt><trkpt lat="44.93007666759659" lon="7.2744357008190565"><ele>1019.0000000000001</ele><time>2026-05-01T14:49:25.998Z</time></trkpt><trkpt lat="44.930114445501694" lon="7.274356587795147"><ele>1019.0</ele><time>2026-05-01T14:49:27.998Z</time></trkpt><trkpt lat="44.93004600875225" lon="7.274274396912313"><ele>1019.0</ele><time>2026-05-01T14:49:29.998Z</time></trkpt><trkpt lat="44.929981391005086" lon="7.274256708265952"><ele>1019.0</ele><time>2026-05-01T14:49:30.998Z</time></trkpt><trkpt lat="44.92991558400107" lon="7.274289065192916"><ele>1019.0000000000001</ele><time>2026-05-01T14:49:31.998Z</time></trkpt><trkpt lat="44.92984903091173" lon="7.274311906097037"><ele>1019.0</ele><time>2026-05-01T14:49:32.998Z</time></trkpt><trkpt lat="44.92977178823833" lon="7.274378961143501"><ele>1019.0000000000001</ele><time>2026-05-01T14:49:34.998Z</time></trkpt><trkpt lat="44.92971902148507" lon="7.274432260233393"><ele>1019.0</ele><time>2026-05-01T14:49:37Z</time></trkpt><trkpt lat="44.929645165055156" lon="7.2745190194076965"><ele>1019.0</ele><time>2026-05-01T14:49:41Z</time></trkpt><trkpt lat="44.92971768653932" lon="7.274632480168233"><ele>1019.0</ele><time>2026-05-01T14:49:46Z</time></trkpt><trkpt lat="44.929771390192236" lon="7.27468284812139"><ele>1019.0000000000001</ele><time>2026-05-01T14:49:47Z</time></trkpt><trkpt lat="44.929849814035194" lon="7.274779545066913"><ele>1019.0</ele><time>2026-05-01T14:49:49Z</time></trkpt><trkpt lat="44.9298814837157" lon="7.274695192802752"><ele>1019.0000000000001</ele><time>2026-05-01T14:49:52Z</time></trkpt><trkpt lat="44.929922020954784" lon="7.274563309121556"><ele>1019.0</ele><time>2026-05-01T14:49:55Z</time></trkpt><trkpt lat="44.929934909525976" lon="7.274434782128188"><ele>1019.0</ele><time>2026-05-01T14:49:58Z</time></trkpt><trkpt lat="44.92989488502718" lon="7.274365388470636"><ele>1019.0</ele><time>2026-05-01T14:50:00Z</time></trkpt><trkpt lat="44.92993443391379" lon="7.274444900598653"><ele>1019.0000000000001</ele><time>2026-05-01T14:50:04Z</time></trkpt><trkpt lat="44.93002231823949" lon="7.274426259446771"><ele>1019.0</ele><time>2026-05-01T14:50:07Z</time></trkpt><trkpt lat="44.93006823276915" lon="7.274340696463131"><ele>1019.0000000000001</ele><time>2026-05-01T14:50:18.999Z</time></trkpt><trkpt lat="44.929986669666455" lon="7.2743010911953325"><ele>1019.0</ele><time>2026-05-01T14:50:23.999Z</time></trkpt><trkpt lat="44.92990318410684" lon="7.274323743188298"><ele>1019.0</ele><time>2026-05-01T14:50:25.999Z</time></trkpt><trkpt lat="44.92981366948218" lon="7.274372673784566"><ele>1019.0</ele><time>2026-05-01T14:50:27.999Z</time></trkpt><trkpt lat="44.92974611825103" lon="7.274438803262588"><ele>1019.0000000000001</ele><time>2026-05-01T14:50:30.999Z</time></trkpt><trkpt lat="44.92976766067563" lon="7.274537955377022"><ele>1019.0</ele><time>2026-05-01T14:50:34.999Z</time></trkpt><trkpt lat="44.929800060021876" lon="7.274461344664702"><ele>1019.0000000000001</ele><time>2026-05-01T14:50:39.999Z</time></trkpt><trkpt lat="44.92975731319063" lon="7.274384529532013"><ele>1019.0</ele><time>2026-05-01T14:50:48.999Z</time></trkpt><trkpt lat="44.929832587568825" lon="7.274435659378451"><ele>1019.0</ele><time>2026-05-01T14:51:50Z</time></trkpt><trkpt lat="44.929956273239696" lon="7.274399972524076"><ele>1019.0</ele><time>2026-05-01T14:51:53Z</time></trkpt><trkpt lat="44.930043136888024" lon="7.27437701098071"><ele>1019.0000000000001</ele><time>2026-05-01T14:51:54Z</time></trkpt><trkpt lat="44.93010551061484" lon="7.27435815607509"><ele>1019.0</ele><time>2026-05-01T14:51:55Z</time></trkpt><trkpt lat="44.930053432045064" lon="7.27424540207042"><ele>1019.0000000000001</ele><time>2026-05-01T14:51:58Z</time></trkpt><trkpt lat="44.9299691046477" lon="7.27421880935381"><ele>1019.0</ele><time>2026-05-01T14:52:03Z</time></trkpt><trkpt lat="44.929923724788246" lon="7.274283082217198"><ele>1019.0</ele><time>2026-05-01T14:52:04Z</time></trkpt><trkpt lat="44.929841808908584" lon="7.27436903679525"><ele>1019.0</ele><time>2026-05-01T14:52:07Z</time></trkpt><trkpt lat="44.929801070160295" lon="7.2744521381908624"><ele>1019.0000000000001</ele><time>2026-05-01T14:52:11Z</time></trkpt><trkpt lat="44.92981032421295" lon="7.274568086515237"><ele>1019.0</ele><time>2026-05-01T14:52:19Z</time></trkpt><trkpt lat="44.92980512331566" lon="7.2744656129182"><ele>1019.0000000000001</ele><time>2026-05-01T14:52:27.999Z</time></trkpt><trkpt lat="44.929826092322095" lon="7.274381038297404"><ele>1019.0</ele><time>2026-05-01T14:52:30.999Z</time></trkpt><trkpt lat="44.92987401630299" lon="7.2743134828658045"><ele>1019.0000000000001</ele><time>2026-05-01T14:52:34.999Z</time></trkpt><trkpt lat="44.92981703710004" lon="7.2743703757497284"><ele>1019.0000000000001</ele><time>2026-05-01T14:52:40.999Z</time></trkpt><trkpt lat="44.92977319565968" lon="7.274436321941824"><ele>1019.0</ele><time>2026-05-01T14:52:43.999Z</time></trkpt><trkpt lat="44.92972821180082" lon="7.274499594029976"><ele>1019.0000000000001</ele><time>2026-05-01T14:52:46.999Z</time></trkpt><trkpt lat="44.9296596699129" lon="7.274539366380575"><ele>1019.0000000000001</ele><time>2026-05-01T14:52:52.999Z</time></trkpt><trkpt lat="44.9295772915212" lon="7.274567931238554"><ele>1019.0000000000001</ele><time>2026-05-01T14:52:55.999Z</time></trkpt><trkpt lat="44.929529759375825" lon="7.274635978401658"><ele>1019.0</ele><time>2026-05-01T14:53:07.998Z</time></trkpt><trkpt lat="44.9296023506042" lon="7.274651394259541"><ele>1019.0</ele><time>2026-05-01T14:58:00Z</time></trkpt><trkpt lat="44.92968421728929" lon="7.2746910567913945"><ele>1019.0</ele><time>2026-05-01T14:58:02Z</time></trkpt><trkpt lat="44.92975151956321" lon="7.2747526132877205"><ele>1019.0000000000001</ele><time>2026-05-01T14:58:04Z</time></trkpt><trkpt lat="44.929797363535734" lon="7.274824081117733"><ele>1019.0</ele><time>2026-05-01T14:58:06Z</time></trkpt><trkpt lat="44.9297474884017" lon="7.274723407274791"><ele>1019.0000000000001</ele><time>2026-05-01T14:58:12Z</time></trkpt><trkpt lat="44.92962622002536" lon="7.274650565018003"><ele>1019.0</ele><time>2026-05-01T14:58:14Z</time></trkpt><trkpt lat="44.9295721870357" lon="7.274589846244366"><ele>1019.0</ele><time>2026-05-01T14:58:15Z</time></trkpt><trkpt lat="44.92951993214854" lon="7.274518549981098"><ele>1019.0</ele><time>2026-05-01T14:58:16Z</time></trkpt><trkpt lat="44.929469776379" lon="7.274442216521482"><ele>1019.0000000000001</ele><time>2026-05-01T14:58:17Z</time></trkpt><trkpt lat="44.929402765843214" lon="7.274372806969092"><ele>1019.0</ele><time>2026-05-01T14:58:18Z</time></trkpt><trkpt lat="44.92930538341508" lon="7.274282399946954"><ele>1019.6</ele><time>2026-05-01T14:58:19Z</time></trkpt><trkpt lat="44.92921264409549" lon="7.274189961899955"><ele>1020.2</ele><time>2026-05-01T14:58:20Z</time></trkpt><trkpt lat="44.92911445883593" lon="7.274092166597262"><ele>1020.8000000000001</ele><time>2026-05-01T14:58:21Z</time></trkpt><trkpt lat="44.929025175614335" lon="7.273998822903849"><ele>1021.4000000000001</ele><time>2026-05-01T14:58:22Z</time></trkpt><trkpt lat="44.92893739874602" lon="7.273933545997932"><ele>1022.0</ele><time>2026-05-01T14:58:23Z</time></trkpt><trkpt lat="44.92884715593614" lon="7.27390781324348"><ele>1022.0000000000001</ele><time>2026-05-01T14:58:24Z</time></trkpt><trkpt lat="44.928764868884926" lon="7.273906821483956"><ele>1022.0</ele><time>2026-05-01T14:58:25Z</time></trkpt><trkpt lat="44.928704292249215" lon="7.273941344989538"><ele>1022.0</ele><time>2026-05-01T14:58:26Z</time></trkpt><trkpt lat="44.928624879320594" lon="7.27404601485422"><ele>1022.0</ele><time>2026-05-01T14:58:30Z</time></trkpt><trkpt lat="44.92859316629332" lon="7.274123645298656"><ele>1022.0000000000001</ele><time>2026-05-01T14:58:31Z</time></trkpt><trkpt lat="44.92852876925387" lon="7.2742154764848586"><ele>1022.0</ele><time>2026-05-01T14:58:31.999Z</time></trkpt><trkpt lat="44.928430462810034" lon="7.274324969182324"><ele>1023.5</ele><time>2026-05-01T14:58:32.999Z</time></trkpt><trkpt lat="44.92829706831721" lon="7.274467315696141"><ele>1025.0</ele><time>2026-05-01T14:58:33.999Z</time></trkpt><trkpt lat="44.92812158780615" lon="7.274560289236908"><ele>1026.5</ele><time>2026-05-01T14:58:34.999Z</time></trkpt><trkpt lat="44.92804183771138" lon="7.27461185841521"><ele>1028.0</ele><time>2026-05-01T14:58:35.999Z</time></trkpt><trkpt lat="44.92797482472486" lon="7.274621884796718"><ele>1028.0</ele><time>2026-05-01T14:58:36.999Z</time></trkpt><trkpt lat="44.92787609522273" lon="7.274652572155336"><ele>1028.0</ele><time>2026-05-01T14:58:37.999Z</time></trkpt><trkpt lat="44.92777081930008" lon="7.274722144471249"><ele>1028.0</ele><time>2026-05-01T14:58:38.999Z</time></trkpt><trkpt lat="44.92765376493052" lon="7.274670786657167"><ele>1028.0</ele><time>2026-05-01T14:58:39.999Z</time></trkpt><trkpt lat="44.92756136509622" lon="7.274676982639132"><ele>1028.0</ele><time>2026-05-01T14:58:40.999Z</time></trkpt><trkpt lat="44.92749058093315" lon="7.274573341153346"><ele>1027.3333333333335</ele><time>2026-05-01T14:58:42.999Z</time></trkpt><trkpt lat="44.927441194021895" lon="7.274476411984769"><ele>1026.6666666666667</ele><time>2026-05-01T14:58:44.999Z</time></trkpt><trkpt lat="44.92740390105087" lon="7.274404277989591"><ele>1026.0</ele><time>2026-05-01T14:58:45.999Z</time></trkpt><trkpt lat="44.92735583466892" lon="7.274293277795346"><ele>1025.3333333333333</ele><time>2026-05-01T14:58:47.999Z</time></trkpt><trkpt lat="44.92731393384762" lon="7.274160020120856"><ele>1024.6666666666665</ele><time>2026-05-01T14:58:49.999Z</time></trkpt><trkpt lat="44.92725611277967" lon="7.274087878822593"><ele>1024.0</ele><time>2026-05-01T14:58:52.999Z</time></trkpt><trkpt lat="44.92713964342292" lon="7.273995596242693"><ele>1024.0</ele><time>2026-05-01T14:58:56.999Z</time></trkpt><trkpt lat="44.92703643155232" lon="7.274012322822361"><ele>1024.0</ele><time>2026-05-01T14:59:01.999Z</time></trkpt><trkpt lat="44.9269613140536" lon="7.274054590112053"><ele>1024.0</ele><time>2026-05-01T14:59:04.999Z</time></trkpt><trkpt lat="44.92646594253458" lon="7.274291955632805"><ele>1020.8000000000001</ele><time>2026-05-01T14:59:07.999Z</time></trkpt><trkpt lat="44.9263900443418" lon="7.274388162381384"><ele>1017.6000000000001</ele><time>2026-05-01T14:59:09.999Z</time></trkpt><trkpt lat="44.92630990787172" lon="7.27447115122383"><ele>1014.4</ele><time>2026-05-01T14:59:11.999Z</time></trkpt><trkpt lat="44.9262234173558" lon="7.27455126118591"><ele>1011.2</ele><time>2026-05-01T14:59:13.999Z</time></trkpt><trkpt lat="44.92613521155196" lon="7.274606901263044"><ele>1008.0</ele><time>2026-05-01T14:59:15.999Z</time></trkpt><trkpt lat="44.92603930554809" lon="7.274641648916364"><ele>1008.0</ele><time>2026-05-01T14:59:17.999Z</time></trkpt><trkpt lat="44.92597119247586" lon="7.274642155619029"><ele>1008.0</ele><time>2026-05-01T14:59:18.998Z</time></trkpt><trkpt lat="44.92583505684685" lon="7.274630613533842"><ele>1008.0</ele><time>2026-05-01T14:59:20.998Z</time></trkpt><trkpt lat="44.92577133947674" lon="7.274616799654245"><ele>1008.0</ele><time>2026-05-01T14:59:21.998Z</time></trkpt><trkpt lat="44.92569390929208" lon="7.274594272848749"><ele>1008.0</ele><time>2026-05-01T14:59:23.998Z</time></trkpt><trkpt lat="44.9257618117" lon="7.274412907495231"><ele>1003.4</ele><time>2026-05-01T14:59:26.998Z</time></trkpt><trkpt lat="44.92570690773025" lon="7.274328417828604"><ele>998.8</ele><time>2026-05-01T14:59:28.998Z</time></trkpt><trkpt lat="44.925774779399624" lon="7.274294606715164"><ele>994.2</ele><time>2026-05-01T14:59:29.998Z</time></trkpt><trkpt lat="44.925707628870555" lon="7.27424067026715"><ele>989.6</ele><time>2026-05-01T14:59:30.998Z</time></trkpt><trkpt lat="44.92565701810292" lon="7.274082479532361"><ele>985.0</ele><time>2026-05-01T14:59:32.998Z</time></trkpt><trkpt lat="44.92557869513647" lon="7.273999832500178"><ele>983.6666666666666</ele><time>2026-05-01T14:59:35.998Z</time></trkpt><trkpt lat="44.92555807677916" lon="7.27389439284397"><ele>982.3333333333333</ele><time>2026-05-01T14:59:36.998Z</time></trkpt><trkpt lat="44.92552720691286" lon="7.273812182324691"><ele>981.0</ele><time>2026-05-01T14:59:37.998Z</time></trkpt><trkpt lat="44.92545421432139" lon="7.273701827650874"><ele>979.6666666666667</ele><time>2026-05-01T14:59:39.998Z</time></trkpt><trkpt lat="44.9254201033957" lon="7.273611341931885"><ele>978.3333333333334</ele><time>2026-05-01T14:59:41.998Z</time></trkpt><trkpt lat="44.92537222898437" lon="7.273502584844311"><ele>977.0</ele><time>2026-05-01T14:59:43.998Z</time></trkpt><trkpt lat="44.925320398471335" lon="7.273378266037593"><ele>977.0</ele><time>2026-05-01T14:59:45.998Z</time></trkpt><trkpt lat="44.925347836752906" lon="7.273283581303126"><ele>977.0</ele><time>2026-05-01T14:59:46.998Z</time></trkpt><trkpt lat="44.925366210826645" lon="7.273177955709113"><ele>977.0</ele><time>2026-05-01T14:59:47.998Z</time></trkpt><trkpt lat="44.92534819721138" lon="7.2730908734879955"><ele>977.0</ele><time>2026-05-01T14:59:49.998Z</time></trkpt><trkpt lat="44.92529138246281" lon="7.2729574364588245"><ele>977.0</ele><time>2026-05-01T14:59:52.998Z</time></trkpt><trkpt lat="44.92507875424961" lon="7.272438811700347"><ele>974.0000000000001</ele><time>2026-05-01T14:59:55.998Z</time></trkpt><trkpt lat="44.92506387180409" lon="7.272344985466476"><ele>971.0</ele><time>2026-05-01T14:59:56.998Z</time></trkpt><trkpt lat="44.92504800504364" lon="7.2722401525670355"><ele>968.0</ele><time>2026-05-01T14:59:57.998Z</time></trkpt><trkpt lat="44.925032104729674" lon="7.272147101895414"><ele>965.0</ele><time>2026-05-01T14:59:58.998Z</time></trkpt><trkpt lat="44.92502220062606" lon="7.272039720129493"><ele>962.0000000000001</ele><time>2026-05-01T14:59:59.998Z</time></trkpt><trkpt lat="44.925008544567405" lon="7.271939558530644"><ele>959.0</ele><time>2026-05-01T15:00:00.998Z</time></trkpt><trkpt lat="44.92497787033006" lon="7.271790695837154"><ele>956.1428571428571</ele><time>2026-05-01T15:00:02.998Z</time></trkpt><trkpt lat="44.92496695871859" lon="7.27169141464775"><ele>953.2857142857142</ele><time>2026-05-01T15:00:04.998Z</time></trkpt><trkpt lat="44.92492408412283" lon="7.271597836183942"><ele>950.4285714285714</ele><time>2026-05-01T15:00:07Z</time></trkpt><trkpt lat="44.924887081339534" lon="7.271523578054858"><ele>947.5714285714286</ele><time>2026-05-01T15:00:08Z</time></trkpt><trkpt lat="44.924845619309224" lon="7.271446982602677"><ele>944.7142857142857</ele><time>2026-05-01T15:00:09Z</time></trkpt><trkpt lat="44.92480215724395" lon="7.271361868235524"><ele>941.8571428571429</ele><time>2026-05-01T15:00:10Z</time></trkpt><trkpt lat="44.92477183311604" lon="7.271257090381196"><ele>939.0</ele><time>2026-05-01T15:00:11Z</time></trkpt><trkpt lat="44.924748667030286" lon="7.271162219509"><ele>935.6</ele><time>2026-05-01T15:00:12Z</time></trkpt><trkpt lat="44.924728429954065" lon="7.271077488671826"><ele>932.2</ele><time>2026-05-01T15:00:13Z</time></trkpt><trkpt lat="44.924670630712704" lon="7.270919638734014"><ele>928.8000000000001</ele><time>2026-05-01T15:00:15Z</time></trkpt><trkpt lat="44.924627475460746" lon="7.2708054589328075"><ele>925.4000000000001</ele><time>2026-05-01T15:00:16Z</time></trkpt><trkpt lat="44.924582567445384" lon="7.270674398144183"><ele>922.0</ele><time>2026-05-01T15:00:17Z</time></trkpt><trkpt lat="44.92453987642267" lon="7.27054029387173"><ele>918.9999999999999</ele><time>2026-05-01T15:00:18Z</time></trkpt><trkpt lat="44.92451406436106" lon="7.2704319005158595"><ele>916.0</ele><time>2026-05-01T15:00:19Z</time></trkpt><trkpt lat="44.92449840138211" lon="7.2703450772024985"><ele>913.0</ele><time>2026-05-01T15:00:20Z</time></trkpt><trkpt lat="44.924437004025734" lon="7.270231034979422"><ele>910.0</ele><time>2026-05-01T15:00:22Z</time></trkpt><trkpt lat="44.92441174224582" lon="7.270125519818048"><ele>906.9999999999999</ele><time>2026-05-01T15:00:24Z</time></trkpt><trkpt lat="44.92433329044073" lon="7.270049802992432"><ele>904.0</ele><time>2026-05-01T15:00:26Z</time></trkpt><trkpt lat="44.92430327182648" lon="7.269955983689105"><ele>903.9999999999999</ele><time>2026-05-01T15:00:27Z</time></trkpt><trkpt lat="44.92428180819742" lon="7.269849688099035"><ele>904.0</ele><time>2026-05-01T15:00:28Z</time></trkpt><trkpt lat="44.92426780689432" lon="7.269732574898242"><ele>904.0</ele><time>2026-05-01T15:00:29Z</time></trkpt><trkpt lat="44.92426738083546" lon="7.269553062047137"><ele>904.0</ele><time>2026-05-01T15:00:31Z</time></trkpt><trkpt lat="44.924251215613594" lon="7.269446700206362"><ele>903.9999999999999</ele><time>2026-05-01T15:00:32Z</time></trkpt><trkpt lat="44.924229192137375" lon="7.269334272090786"><ele>904.0</ele><time>2026-05-01T15:00:33Z</time></trkpt><trkpt lat="44.92422646049191" lon="7.269219404276714"><ele>902.1666666666666</ele><time>2026-05-01T15:00:34Z</time></trkpt><trkpt lat="44.9242450436659" lon="7.2691145133429265"><ele>900.3333333333333</ele><time>2026-05-01T15:00:35Z</time></trkpt><trkpt lat="44.92430340544486" lon="7.268972082829962"><ele>898.5</ele><time>2026-05-01T15:00:36.999Z</time></trkpt><trkpt lat="44.92430580362596" lon="7.268871976864896"><ele>896.6666666666667</ele><time>2026-05-01T15:00:37.999Z</time></trkpt><trkpt lat="44.92429546395619" lon="7.268755356476012"><ele>894.8333333333334</ele><time>2026-05-01T15:00:38.999Z</time></trkpt><trkpt lat="44.9242902110511" lon="7.268657237105743"><ele>893.0</ele><time>2026-05-01T15:00:39.999Z</time></trkpt><trkpt lat="44.92429565127182" lon="7.268507228183548"><ele>891.8333333333334</ele><time>2026-05-01T15:00:41.999Z</time></trkpt><trkpt lat="44.92431171434009" lon="7.268367917754168"><ele>890.6666666666667</ele><time>2026-05-01T15:00:43.999Z</time></trkpt><trkpt lat="44.924311461309635" lon="7.26827261090238"><ele>889.5</ele><time>2026-05-01T15:00:45.999Z</time></trkpt><trkpt lat="44.92427028516519" lon="7.268188869650728"><ele>888.3333333333333</ele><time>2026-05-01T15:00:48.999Z</time></trkpt><trkpt lat="44.92419047600618" lon="7.268143181188141"><ele>887.1666666666666</ele><time>2026-05-01T15:00:51.999Z</time></trkpt><trkpt lat="44.92412230499424" lon="7.268093513140524"><ele>886.0</ele><time>2026-05-01T15:00:53.999Z</time></trkpt><trkpt lat="44.92405948362016" lon="7.268047903818941"><ele>882.9999999999999</ele><time>2026-05-01T15:01:13.999Z</time></trkpt><trkpt lat="44.923981042203096" lon="7.268052151995614"><ele>880.0</ele><time>2026-05-01T15:01:18.999Z</time></trkpt><trkpt lat="44.9239078459073" lon="7.268040805646773"><ele>877.0</ele><time>2026-05-01T15:01:21.999Z</time></trkpt><trkpt lat="44.92382403853788" lon="7.2679469868727695"><ele>874.0</ele><time>2026-05-01T15:01:23.999Z</time></trkpt><trkpt lat="44.92375732410375" lon="7.267887273597028"><ele>870.9999999999999</ele><time>2026-05-01T15:01:26.998Z</time></trkpt><trkpt lat="44.92367627597114" lon="7.267839351021026"><ele>868.0</ele><time>2026-05-01T15:01:29.998Z</time></trkpt><trkpt lat="44.92339031573407" lon="7.267674699118318"><ele>867.2</ele><time>2026-05-01T15:01:32.998Z</time></trkpt><trkpt lat="44.92331043090993" lon="7.267652979144291"><ele>866.4</ele><time>2026-05-01T15:01:33.998Z</time></trkpt><trkpt lat="44.92322710239377" lon="7.267658768338842"><ele>865.6000000000001</ele><time>2026-05-01T15:01:34.998Z</time></trkpt><trkpt lat="44.92314464105704" lon="7.267666330818712"><ele>864.8000000000001</ele><time>2026-05-01T15:01:35.998Z</time></trkpt><trkpt lat="44.9230409817511" lon="7.267681961204146"><ele>864.0</ele><time>2026-05-01T15:01:36.998Z</time></trkpt><trkpt lat="44.922930583207375" lon="7.267704842094967"><ele>864.0</ele><time>2026-05-01T15:01:37.998Z</time></trkpt><trkpt lat="44.92283019088284" lon="7.2677325882154555"><ele>864.0</ele><time>2026-05-01T15:01:38.998Z</time></trkpt><trkpt lat="44.92274530207729" lon="7.267771955056073"><ele>864.0</ele><time>2026-05-01T15:01:39.998Z</time></trkpt><trkpt lat="44.922668198018485" lon="7.267828911173222"><ele>864.0</ele><time>2026-05-01T15:01:40.998Z</time></trkpt><trkpt lat="44.92260801532042" lon="7.2679018023251265"><ele>864.0</ele><time>2026-05-01T15:01:41.998Z</time></trkpt><trkpt lat="44.92256095331685" lon="7.2679649136796245"><ele>864.0</ele><time>2026-05-01T15:01:42.998Z</time></trkpt><trkpt lat="44.9224936139748" lon="7.268008878544657"><ele>864.0</ele><time>2026-05-01T15:01:43.998Z</time></trkpt><trkpt lat="44.922427872797236" lon="7.268014180264914"><ele>864.0</ele><time>2026-05-01T15:01:46.998Z</time></trkpt><trkpt lat="44.92243264153789" lon="7.267902507398078"><ele>864.0</ele><time>2026-05-01T15:01:48.998Z</time></trkpt><trkpt lat="44.922463350946025" lon="7.267738824755876"><ele>864.0</ele><time>2026-05-01T15:01:50.998Z</time></trkpt><trkpt lat="44.92256898035572" lon="7.267336461487357"><ele>860.25</ele><time>2026-05-01T15:01:51.998Z</time></trkpt><trkpt lat="44.922596520627025" lon="7.267238936282675"><ele>856.5</ele><time>2026-05-01T15:01:52.998Z</time></trkpt><trkpt lat="44.92268461626058" lon="7.267111122275109"><ele>852.75</ele><time>2026-05-01T15:01:53.998Z</time></trkpt><trkpt lat="44.92277796010011" lon="7.266975447533412"><ele>849.0</ele><time>2026-05-01T15:01:54.998Z</time></trkpt><trkpt lat="44.92287122217786" lon="7.266833787886341"><ele>849.0</ele><time>2026-05-01T15:01:55.998Z</time></trkpt><trkpt lat="44.92293696153021" lon="7.266691595923945"><ele>849.0</ele><time>2026-05-01T15:01:56.998Z</time></trkpt><trkpt lat="44.922998881212166" lon="7.266551795080457"><ele>849.0</ele><time>2026-05-01T15:01:57.998Z</time></trkpt><trkpt lat="44.923051376367354" lon="7.26641786346133"><ele>849.0</ele><time>2026-05-01T15:01:58.998Z</time></trkpt><trkpt lat="44.92311055356781" lon="7.266285920884832"><ele>844.2</ele><time>2026-05-01T15:01:59.998Z</time></trkpt><trkpt lat="44.92316401380895" lon="7.2661601176639845"><ele>839.4000000000001</ele><time>2026-05-01T15:02:00.998Z</time></trkpt><trkpt lat="44.92323248630677" lon="7.266063043785732"><ele>834.6</ele><time>2026-05-01T15:02:01.998Z</time></trkpt><trkpt lat="44.92331442471045" lon="7.265990319653752"><ele>829.8</ele><time>2026-05-01T15:02:02.998Z</time></trkpt><trkpt lat="44.92340531595271" lon="7.265926577171345"><ele>825.0</ele><time>2026-05-01T15:02:03.998Z</time></trkpt><trkpt lat="44.92349576789086" lon="7.265866851519414"><ele>825.0</ele><time>2026-05-01T15:02:04.998Z</time></trkpt><trkpt lat="44.92357910344681" lon="7.265785571483199"><ele>825.0</ele><time>2026-05-01T15:02:05.998Z</time></trkpt><trkpt lat="44.92365930433417" lon="7.265747179915963"><ele>825.0</ele><time>2026-05-01T15:02:06.998Z</time></trkpt><trkpt lat="44.92372473634611" lon="7.265729863730879"><ele>825.0</ele><time>2026-05-01T15:02:07.998Z</time></trkpt><trkpt lat="44.923821984143515" lon="7.265714647507434"><ele>825.0</ele><time>2026-05-01T15:02:08.998Z</time></trkpt><trkpt lat="44.92391761069337" lon="7.265729062719445"><ele>825.0</ele><time>2026-05-01T15:02:09.998Z</time></trkpt><trkpt lat="44.92399847878437" lon="7.2657854715027455"><ele>825.0</ele><time>2026-05-01T15:02:10.997Z</time></trkpt><trkpt lat="44.9240675141012" lon="7.26586360740198"><ele>825.0</ele><time>2026-05-01T15:02:12Z</time></trkpt><trkpt lat="44.924145842487654" lon="7.265935398462968"><ele>825.0</ele><time>2026-05-01T15:02:13Z</time></trkpt><trkpt lat="44.92422673564231" lon="7.265979837908414"><ele>825.0</ele><time>2026-05-01T15:02:14Z</time></trkpt><trkpt lat="44.924315620137655" lon="7.265959514439835"><ele>825.0</ele><time>2026-05-01T15:02:15Z</time></trkpt><trkpt lat="44.92443777349317" lon="7.26589281127068"><ele>822.75</ele><time>2026-05-01T15:02:16Z</time></trkpt><trkpt lat="44.92457351779581" lon="7.265811948736632"><ele>820.5</ele><time>2026-05-01T15:02:17Z</time></trkpt><trkpt lat="44.92471050291416" lon="7.265814164238379"><ele>818.25</ele><time>2026-05-01T15:02:18Z</time></trkpt><trkpt lat="44.92479436985229" lon="7.265843123026274"><ele>816.0</ele><time>2026-05-01T15:02:19Z</time></trkpt><trkpt lat="44.92489756444382" lon="7.265898664384609"><ele>816.0</ele><time>2026-05-01T15:02:21Z</time></trkpt><trkpt lat="44.924942829309735" lon="7.26597228160768"><ele>816.0</ele><time>2026-05-01T15:02:23Z</time></trkpt><trkpt lat="44.92497062324903" lon="7.266057493404376"><ele>816.0</ele><time>2026-05-01T15:02:25Z</time></trkpt><trkpt lat="44.9248910148012" lon="7.266013025546978"><ele>816.0</ele><time>2026-05-01T15:02:36Z</time></trkpt><trkpt lat="44.92482824599552" lon="7.265915483216509"><ele>816.0</ele><time>2026-05-01T15:02:37Z</time></trkpt><trkpt lat="44.92477670124776" lon="7.265861778153856"><ele>816.0</ele><time>2026-05-01T15:02:38Z</time></trkpt><trkpt lat="44.92470778627409" lon="7.265846556137106"><ele>816.0</ele><time>2026-05-01T15:02:39Z</time></trkpt><trkpt lat="44.92463636551077" lon="7.265844870764358"><ele>816.0</ele><time>2026-05-01T15:02:40Z</time></trkpt><trkpt lat="44.924556760400044" lon="7.265856887457749"><ele>816.0</ele><time>2026-05-01T15:02:40.999Z</time></trkpt><trkpt lat="44.92444182021792" lon="7.2658954274187755"><ele>816.0</ele><time>2026-05-01T15:02:41.999Z</time></trkpt><trkpt lat="44.92435226304497" lon="7.2659135236730865"><ele>816.0</ele><time>2026-05-01T15:02:42.999Z</time></trkpt><trkpt lat="44.92427065769671" lon="7.265947396418899"><ele>816.0</ele><time>2026-05-01T15:02:43.999Z</time></trkpt><trkpt lat="44.92419584229381" lon="7.265967006318535"><ele>817.5</ele><time>2026-05-01T15:02:44.999Z</time></trkpt><trkpt lat="44.92410137909604" lon="7.265940292612432"><ele>819.0</ele><time>2026-05-01T15:02:45.999Z</time></trkpt><trkpt lat="44.92401707917223" lon="7.265921153537198"><ele>820.5</ele><time>2026-05-01T15:02:46.999Z</time></trkpt><trkpt lat="44.92395766184284" lon="7.265879699977531"><ele>822.0</ele><time>2026-05-01T15:02:47.999Z</time></trkpt><trkpt lat="44.92390046434499" lon="7.265808153762149"><ele>823.5</ele><time>2026-05-01T15:02:48.999Z</time></trkpt><trkpt lat="44.923839994952445" lon="7.265781861678514"><ele>825.0</ele><time>2026-05-01T15:02:49.999Z</time></trkpt><trkpt lat="44.923692948153885" lon="7.2657769678637685"><ele>825.0</ele><time>2026-05-01T15:02:51.999Z</time></trkpt><trkpt lat="44.92359273077768" lon="7.265802937411616"><ele>825.0</ele><time>2026-05-01T15:02:52.999Z</time></trkpt><trkpt lat="44.92349663069727" lon="7.265852645303654"><ele>825.0</ele><time>2026-05-01T15:02:53.999Z</time></trkpt><trkpt lat="44.923418346667134" lon="7.26593085154119"><ele>825.0</ele><time>2026-05-01T15:02:54.999Z</time></trkpt><trkpt lat="44.92333444644839" lon="7.266004341402766"><ele>825.0</ele><time>2026-05-01T15:02:55.999Z</time></trkpt><trkpt lat="44.923245189529865" lon="7.266074676106021"><ele>824.8</ele><time>2026-05-01T15:02:56.999Z</time></trkpt><trkpt lat="44.92316814817628" lon="7.26615310671623"><ele>824.6</ele><time>2026-05-01T15:02:57.999Z</time></trkpt><trkpt lat="44.92310064971886" lon="7.266254287988921"><ele>824.4000000000001</ele><time>2026-05-01T15:02:58.999Z</time></trkpt><trkpt lat="44.92305158960565" lon="7.26639096947541"><ele>824.2</ele><time>2026-05-01T15:02:59.999Z</time></trkpt><trkpt lat="44.92299604322331" lon="7.266516617904985"><ele>824.0</ele><time>2026-05-01T15:03:00.999Z</time></trkpt><trkpt lat="44.922928607710794" lon="7.266665005301653"><ele>830.25</ele><time>2026-05-01T15:03:01.999Z</time></trkpt><trkpt lat="44.922859190664205" lon="7.266821660794228"><ele>836.5</ele><time>2026-05-01T15:03:02.999Z</time></trkpt><trkpt lat="44.922775632241205" lon="7.266973575855056"><ele>842.75</ele><time>2026-05-01T15:03:03.999Z</time></trkpt><trkpt lat="44.92268758133364" lon="7.267114457467047"><ele>849.0</ele><time>2026-05-01T15:03:04.999Z</time></trkpt><trkpt lat="44.922619854852854" lon="7.2672415305187865"><ele>848.3333333333334</ele><time>2026-05-01T15:03:05.999Z</time></trkpt><trkpt lat="44.92257151687204" lon="7.267368667672715"><ele>847.6666666666667</ele><time>2026-05-01T15:03:06.999Z</time></trkpt><trkpt lat="44.92254233926429" lon="7.267473234931744"><ele>847.0</ele><time>2026-05-01T15:03:07.999Z</time></trkpt><trkpt lat="44.92252440350093" lon="7.267585920080387"><ele>846.3333333333334</ele><time>2026-05-01T15:03:08.999Z</time></trkpt><trkpt lat="44.922508758098" lon="7.267697434234021"><ele>845.6666666666667</ele><time>2026-05-01T15:03:09.999Z</time></trkpt><trkpt lat="44.92250353946101" lon="7.267804184311707"><ele>845.0</ele><time>2026-05-01T15:03:10.999Z</time></trkpt><trkpt lat="44.92252093631159" lon="7.267917753382607"><ele>845.0</ele><time>2026-05-01T15:03:12.999Z</time></trkpt><trkpt lat="44.922556160941404" lon="7.268016205030311"><ele>845.0</ele><time>2026-05-01T15:03:14.999Z</time></trkpt><trkpt lat="44.92264513300968" lon="7.268055246744044"><ele>845.0</ele><time>2026-05-01T15:03:16.999Z</time></trkpt><trkpt lat="44.92267616136376" lon="7.267962968686092"><ele>845.0</ele><time>2026-05-01T15:03:18.999Z</time></trkpt><trkpt lat="44.9226959325018" lon="7.2677948137218165"><ele>845.0</ele><time>2026-05-01T15:03:20.999Z</time></trkpt><trkpt lat="44.92276173761308" lon="7.267718064951689"><ele>849.75</ele><time>2026-05-01T15:03:21.999Z</time></trkpt><trkpt lat="44.92287813569577" lon="7.267611874582366"><ele>854.5</ele><time>2026-05-01T15:03:23.999Z</time></trkpt><trkpt lat="44.9229455870987" lon="7.267576190660845"><ele>859.25</ele><time>2026-05-01T15:03:24.999Z</time></trkpt><trkpt lat="44.9231265435605" lon="7.267520779095426"><ele>864.0</ele><time>2026-05-01T15:03:25.999Z</time></trkpt><trkpt lat="44.92324945600494" lon="7.267542319139899"><ele>864.0</ele><time>2026-05-01T15:03:26.998Z</time></trkpt><trkpt lat="44.92336725398401" lon="7.267588433674466"><ele>864.0</ele><time>2026-05-01T15:03:27.998Z</time></trkpt><trkpt lat="44.9234713621531" lon="7.2676794206728745"><ele>864.0</ele><time>2026-05-01T15:03:28.998Z</time></trkpt><trkpt lat="44.92358223287852" lon="7.267750454752"><ele>864.0</ele><time>2026-05-01T15:03:29.998Z</time></trkpt><trkpt lat="44.92368746138723" lon="7.267810282049106"><ele>864.8000000000001</ele><time>2026-05-01T15:03:30.998Z</time></trkpt><trkpt lat="44.92373922430322" lon="7.26789361344235"><ele>865.6000000000001</ele><time>2026-05-01T15:03:31.998Z</time></trkpt><trkpt lat="44.923684057430485" lon="7.2680308786789665"><ele>866.4</ele><time>2026-05-01T15:03:34.998Z</time></trkpt><trkpt lat="44.923610757837686" lon="7.268092811350724"><ele>867.2</ele><time>2026-05-01T15:03:35.998Z</time></trkpt><trkpt lat="44.923474835520864" lon="7.268182129467144"><ele>868.0</ele><time>2026-05-01T15:03:36.998Z</time></trkpt><trkpt lat="44.923293839080856" lon="7.2682546745967285"><ele>869.5999999999999</ele><time>2026-05-01T15:03:37.998Z</time></trkpt><trkpt lat="44.92316820774521" lon="7.268298048612329"><ele>871.1999999999999</ele><time>2026-05-01T15:03:38.998Z</time></trkpt><trkpt lat="44.92307478233789" lon="7.268346263796068"><ele>872.8</ele><time>2026-05-01T15:03:39.998Z</time></trkpt><trkpt lat="44.923096620139894" lon="7.268447719635134"><ele>874.4</ele><time>2026-05-01T15:03:40.998Z</time></trkpt><trkpt lat="44.92307732595491" lon="7.268611692937605"><ele>876.0</ele><time>2026-05-01T15:03:41.998Z</time></trkpt><trkpt lat="44.92312817147376" lon="7.268820003848089"><ele>878.0</ele><time>2026-05-01T15:03:42.998Z</time></trkpt><trkpt lat="44.92309200541036" lon="7.269061375904931"><ele>880.0</ele><time>2026-05-01T15:03:43.998Z</time></trkpt><trkpt lat="44.923054911210535" lon="7.269298425997372"><ele>882.0</ele><time>2026-05-01T15:03:44.998Z</time></trkpt><trkpt lat="44.923041912212824" lon="7.269505300010941"><ele>882.0</ele><time>2026-05-01T15:03:45.998Z</time></trkpt><trkpt lat="44.923046922148195" lon="7.269687474612344"><ele>882.0</ele><time>2026-05-01T15:03:46.998Z</time></trkpt><trkpt lat="44.92308256864334" lon="7.2698610457547055"><ele>882.0</ele><time>2026-05-01T15:03:47.998Z</time></trkpt><trkpt lat="44.92308757790968" lon="7.270076847974779"><ele>882.0</ele><time>2026-05-01T15:03:48.998Z</time></trkpt><trkpt lat="44.92310373263293" lon="7.270271517150277"><ele>881.5</ele><time>2026-05-01T15:03:49.998Z</time></trkpt><trkpt lat="44.923154804962316" lon="7.270383235237971"><ele>881.0</ele><time>2026-05-01T15:03:50.998Z</time></trkpt><trkpt lat="44.92324165303749" lon="7.270465595344889"><ele>880.5</ele><time>2026-05-01T15:03:51.998Z</time></trkpt><trkpt lat="44.92333276526551" lon="7.270593583078094"><ele>880.0</ele><time>2026-05-01T15:03:52.998Z</time></trkpt><trkpt lat="44.92341487090564" lon="7.2707683716363665"><ele>885.8</ele><time>2026-05-01T15:03:53.998Z</time></trkpt><trkpt lat="44.923460344071074" lon="7.270883156040623"><ele>891.6</ele><time>2026-05-01T15:03:54.998Z</time></trkpt><trkpt lat="44.92353592242006" lon="7.2710148189882835"><ele>897.4000000000001</ele><time>2026-05-01T15:03:55.998Z</time></trkpt><trkpt lat="44.923558337676894" lon="7.271139073778275"><ele>903.2</ele><time>2026-05-01T15:03:56.998Z</time></trkpt><trkpt lat="44.923569327468954" lon="7.271273958142603"><ele>909.0</ele><time>2026-05-01T15:03:57.998Z</time></trkpt><trkpt lat="44.92347500928522" lon="7.2715313747392445"><ele>911.25</ele><time>2026-05-01T15:03:59.998Z</time></trkpt><trkpt lat="44.92343919382848" lon="7.271703123715916"><ele>913.5</ele><time>2026-05-01T15:04:00.998Z</time></trkpt><trkpt lat="44.923420872947496" lon="7.271855507579086"><ele>915.75</ele><time>2026-05-01T15:04:01.998Z</time></trkpt><trkpt lat="44.92341094157751" lon="7.272029863637843"><ele>918.0</ele><time>2026-05-01T15:04:02.998Z</time></trkpt><trkpt lat="44.92339112422512" lon="7.272183670571287"><ele>921.25</ele><time>2026-05-01T15:04:03.998Z</time></trkpt><trkpt lat="44.92337915978522" lon="7.272363481453177"><ele>924.5</ele><time>2026-05-01T15:04:04.998Z</time></trkpt><trkpt lat="44.923385892847136" lon="7.272568901842741"><ele>927.75</ele><time>2026-05-01T15:04:05.998Z</time></trkpt><trkpt lat="44.92340469655861" lon="7.272757650306384"><ele>931.0</ele><time>2026-05-01T15:04:06.998Z</time></trkpt><trkpt lat="44.923432770894735" lon="7.272992721258581"><ele>931.6666666666666</ele><time>2026-05-01T15:04:07.998Z</time></trkpt><trkpt lat="44.92348296439185" lon="7.273249367479049"><ele>932.3333333333333</ele><time>2026-05-01T15:04:08.998Z</time></trkpt><trkpt lat="44.92351670104053" lon="7.273477698687939"><ele>933.0</ele><time>2026-05-01T15:04:09.998Z</time></trkpt><trkpt lat="44.92356704630577" lon="7.273687897803662"><ele>933.0</ele><time>2026-05-01T15:04:10.998Z</time></trkpt><trkpt lat="44.92361778083405" lon="7.273872859593519"><ele>933.0</ele><time>2026-05-01T15:04:11.998Z</time></trkpt><trkpt lat="44.92367305380241" lon="7.27401756262043"><ele>933.0</ele><time>2026-05-01T15:04:12.998Z</time></trkpt><trkpt lat="44.92372795786685" lon="7.274171190899836"><ele>933.0</ele><time>2026-05-01T15:04:13.997Z</time></trkpt><trkpt lat="44.923778069221164" lon="7.2743307708843"><ele>932.0</ele><time>2026-05-01T15:04:14.997Z</time></trkpt><trkpt lat="44.92380416160792" lon="7.274471864569419"><ele>931.0</ele><time>2026-05-01T15:04:15.997Z</time></trkpt><trkpt lat="44.92383022178529" lon="7.274603666702451"><ele>930.0</ele><time>2026-05-01T15:04:17Z</time></trkpt><trkpt lat="44.923861962385864" lon="7.274754087330011"><ele>929.0</ele><time>2026-05-01T15:04:18Z</time></trkpt><trkpt lat="44.923881647116886" lon="7.274903639057164"><ele>928.0</ele><time>2026-05-01T15:04:19Z</time></trkpt><trkpt lat="44.9239706355824" lon="7.27497278694816"><ele>927.8333333333333</ele><time>2026-05-01T15:04:20Z</time></trkpt><trkpt lat="44.923988564146214" lon="7.275106792249288"><ele>927.6666666666666</ele><time>2026-05-01T15:04:21Z</time></trkpt><trkpt lat="44.92398568538605" lon="7.275241291318717"><ele>927.5</ele><time>2026-05-01T15:04:22Z</time></trkpt><trkpt lat="44.92399859275635" lon="7.275332883926581"><ele>927.3333333333333</ele><time>2026-05-01T15:04:23Z</time></trkpt><trkpt lat="44.92392894811788" lon="7.275313951627996"><ele>927.1666666666666</ele><time>2026-05-01T15:04:27Z</time></trkpt><trkpt lat="44.92385057543472" lon="7.275242909558713"><ele>927.0</ele><time>2026-05-01T15:04:28Z</time></trkpt><trkpt lat="44.92373659385369" lon="7.275138765533777"><ele>927.0</ele><time>2026-05-01T15:04:29Z</time></trkpt><trkpt lat="44.923581474009836" lon="7.27497453586643"><ele>927.0</ele><time>2026-05-01T15:04:30Z</time></trkpt><trkpt lat="44.92346631355247" lon="7.274838860647105"><ele>927.0</ele><time>2026-05-01T15:04:31Z</time></trkpt><trkpt lat="44.92341686986892" lon="7.2747295350311285"><ele>927.0</ele><time>2026-05-01T15:04:32Z</time></trkpt><trkpt lat="44.92329627937084" lon="7.274648639574745"><ele>920.3333333333333</ele><time>2026-05-01T15:04:33Z</time></trkpt><trkpt lat="44.92311628020761" lon="7.2745807003708025"><ele>913.6666666666666</ele><time>2026-05-01T15:04:34Z</time></trkpt><trkpt lat="44.922950270305826" lon="7.274539660136882"><ele>907.0</ele><time>2026-05-01T15:04:35Z</time></trkpt><trkpt lat="44.92279870496103" lon="7.274501474246713"><ele>907.0</ele><time>2026-05-01T15:04:36Z</time></trkpt><trkpt lat="44.92262929266176" lon="7.274485942554057"><ele>907.0</ele><time>2026-05-01T15:04:37Z</time></trkpt><trkpt lat="44.922501577009676" lon="7.274408546853944"><ele>907.0</ele><time>2026-05-01T15:04:38Z</time></trkpt><trkpt lat="44.922392070425865" lon="7.274393320227989"><ele>907.0</ele><time>2026-05-01T15:04:39Z</time></trkpt><trkpt lat="44.92227503418069" lon="7.27440866503856"><ele>907.6</ele><time>2026-05-01T15:04:40Z</time></trkpt><trkpt lat="44.922217423947934" lon="7.274470460682559"><ele>908.2</ele><time>2026-05-01T15:04:41Z</time></trkpt><trkpt lat="44.92215983781022" lon="7.274569456234269"><ele>908.8</ele><time>2026-05-01T15:04:42Z</time></trkpt><trkpt lat="44.92214079066975" lon="7.274723302833312"><ele>909.4</ele><time>2026-05-01T15:04:43Z</time></trkpt><trkpt lat="44.922139108667004" lon="7.274850314445643"><ele>910.0</ele><time>2026-05-01T15:04:43.999Z</time></trkpt><trkpt lat="44.92214228806198" lon="7.274988025133094"><ele>916.0</ele><time>2026-05-01T15:04:44.999Z</time></trkpt><trkpt lat="44.92218698899075" lon="7.275167230065282"><ele>922.0</ele><time>2026-05-01T15:04:45.999Z</time></trkpt><trkpt lat="44.92224480340196" lon="7.27538643050205"><ele>928.0</ele><time>2026-05-01T15:04:46.999Z</time></trkpt><trkpt lat="44.92229731747364" lon="7.275631248108451"><ele>929.75</ele><time>2026-05-01T15:04:47.999Z</time></trkpt><trkpt lat="44.92233187510858" lon="7.27587928057739"><ele>931.5</ele><time>2026-05-01T15:04:48.999Z</time></trkpt><trkpt lat="44.92235943604764" lon="7.276059680358938"><ele>933.25</ele><time>2026-05-01T15:04:49.999Z</time></trkpt><trkpt lat="44.92239116534297" lon="7.276215362411821"><ele>935.0</ele><time>2026-05-01T15:04:50.999Z</time></trkpt><trkpt lat="44.92241739429496" lon="7.276396534338031"><ele>935.4</ele><time>2026-05-01T15:04:51.999Z</time></trkpt><trkpt lat="44.92244419085202" lon="7.2765394410156405"><ele>935.8</ele><time>2026-05-01T15:04:52.999Z</time></trkpt><trkpt lat="44.92244276218118" lon="7.276672679376431"><ele>936.2</ele><time>2026-05-01T15:04:53.999Z</time></trkpt><trkpt lat="44.922443733114385" lon="7.276823791339875"><ele>936.6</ele><time>2026-05-01T15:04:54.999Z</time></trkpt><trkpt lat="44.92248077994343" lon="7.276995507854698"><ele>937.0</ele><time>2026-05-01T15:04:55.999Z</time></trkpt><trkpt lat="44.9225083522358" lon="7.277151982149793"><ele>938.25</ele><time>2026-05-01T15:04:56.999Z</time></trkpt><trkpt lat="44.92255040677098" lon="7.277353525150881"><ele>939.5</ele><time>2026-05-01T15:04:57.999Z</time></trkpt><trkpt lat="44.9225794115373" lon="7.277525602196883"><ele>940.75</ele><time>2026-05-01T15:04:58.999Z</time></trkpt><trkpt lat="44.922602130778635" lon="7.2776986133854304"><ele>942.0</ele><time>2026-05-01T15:04:59.999Z</time></trkpt><trkpt lat="44.92262845303762" lon="7.2778353518921115"><ele>942.0</ele><time>2026-05-01T15:05:00.999Z</time></trkpt><trkpt lat="44.9226198805685" lon="7.277964433131725"><ele>942.0</ele><time>2026-05-01T15:05:02.999Z</time></trkpt><trkpt lat="44.92254658347454" lon="7.27803992231413"><ele>942.0</ele><time>2026-05-01T15:05:04.999Z</time></trkpt><trkpt lat="44.92247625936677" lon="7.278063113492541"><ele>942.0</ele><time>2026-05-01T15:05:05.999Z</time></trkpt><trkpt lat="44.922413246429876" lon="7.278096470916661"><ele>942.0</ele><time>2026-05-01T15:05:08.999Z</time></trkpt><trkpt lat="44.92234563906036" lon="7.278165850330914"><ele>942.0</ele><time>2026-05-01T15:05:11.999Z</time></trkpt><trkpt lat="44.92228549598616" lon="7.278261778360496"><ele>941.6666666666667</ele><time>2026-05-01T15:05:13.999Z</time></trkpt><trkpt lat="44.92225525503675" lon="7.278348186219667"><ele>941.3333333333334</ele><time>2026-05-01T15:05:14.999Z</time></trkpt><trkpt lat="44.92223055929027" lon="7.278433911026627"><ele>941.0</ele><time>2026-05-01T15:05:16.999Z</time></trkpt><trkpt lat="44.922044832913045" lon="7.278865736763443"><ele>940.6666666666667</ele><time>2026-05-01T15:05:19.999Z</time></trkpt><trkpt lat="44.9220143331654" lon="7.278964977605945"><ele>940.3333333333334</ele><time>2026-05-01T15:05:20.999Z</time></trkpt><trkpt lat="44.92196228984906" lon="7.27905418560862"><ele>940.0</ele><time>2026-05-01T15:05:21.999Z</time></trkpt><trkpt lat="44.92187161392763" lon="7.2791467070662055"><ele>939.6666666666667</ele><time>2026-05-01T15:05:22.999Z</time></trkpt><trkpt lat="44.921796909400896" lon="7.279237515840492"><ele>939.3333333333334</ele><time>2026-05-01T15:05:23.999Z</time></trkpt><trkpt lat="44.92173292404651" lon="7.279303813891242"><ele>939.0</ele><time>2026-05-01T15:05:24.999Z</time></trkpt><trkpt lat="44.921658864406666" lon="7.279344911894692"><ele>941.4000000000001</ele><time>2026-05-01T15:05:25.999Z</time></trkpt><trkpt lat="44.92158411122323" lon="7.279402038229263"><ele>943.8000000000001</ele><time>2026-05-01T15:05:26.999Z</time></trkpt><trkpt lat="44.92149795793574" lon="7.279468650191381"><ele>946.1999999999999</ele><time>2026-05-01T15:05:27.999Z</time></trkpt><trkpt lat="44.921400168136515" lon="7.2795244376374075"><ele>948.5999999999999</ele><time>2026-05-01T15:05:28.999Z</time></trkpt><trkpt lat="44.92130721564853" lon="7.279554188473062"><ele>951.0</ele><time>2026-05-01T15:05:29.999Z</time></trkpt><trkpt lat="44.921213858898355" lon="7.279562546364226"><ele>951.0</ele><time>2026-05-01T15:05:30.999Z</time></trkpt><trkpt lat="44.92112395902659" lon="7.279597479489076"><ele>950.9999999999999</ele><time>2026-05-01T15:05:31.998Z</time></trkpt><trkpt lat="44.92104067452702" lon="7.279640523757329"><ele>950.9999999999999</ele><time>2026-05-01T15:05:32.998Z</time></trkpt><trkpt lat="44.9209612785623" lon="7.2796909015901985"><ele>951.0</ele><time>2026-05-01T15:05:33.998Z</time></trkpt><trkpt lat="44.92090332662141" lon="7.279771110450177"><ele>951.0</ele><time>2026-05-01T15:05:34.998Z</time></trkpt><trkpt lat="44.92083849088023" lon="7.279879364582226"><ele>950.0</ele><time>2026-05-01T15:05:35.998Z</time></trkpt><trkpt lat="44.920802375297924" lon="7.280017958769656"><ele>948.9999999999999</ele><time>2026-05-01T15:05:36.998Z</time></trkpt><trkpt lat="44.920783585111664" lon="7.280163192459172"><ele>947.9999999999999</ele><time>2026-05-01T15:05:37.998Z</time></trkpt><trkpt lat="44.92083318057205" lon="7.28026580262666"><ele>947.0</ele><time>2026-05-01T15:05:38.998Z</time></trkpt><trkpt lat="44.92079894164761" lon="7.280394290124783"><ele>946.0</ele><time>2026-05-01T15:05:39.998Z</time></trkpt><trkpt lat="44.920743937641426" lon="7.280526976480286"><ele>943.9999999999999</ele><time>2026-05-01T15:05:40.998Z</time></trkpt><trkpt lat="44.92070410066399" lon="7.280657039685611"><ele>942.0</ele><time>2026-05-01T15:05:41.998Z</time></trkpt><trkpt lat="44.920689213175635" lon="7.28077681548424"><ele>940.0</ele><time>2026-05-01T15:05:42.998Z</time></trkpt><trkpt lat="44.920694932119126" lon="7.280885206242432"><ele>938.0</ele><time>2026-05-01T15:05:43.998Z</time></trkpt><trkpt lat="44.92067104940306" lon="7.2810201209229275"><ele>935.9999999999999</ele><time>2026-05-01T15:05:44.998Z</time></trkpt><trkpt lat="44.92066255719089" lon="7.281134829796174"><ele>934.0</ele><time>2026-05-01T15:05:45.998Z</time></trkpt><trkpt lat="44.920661614778226" lon="7.281236352938512"><ele>933.9999999999999</ele><time>2026-05-01T15:05:46.998Z</time></trkpt><trkpt lat="44.92066944336289" lon="7.281349401725971"><ele>934.0</ele><time>2026-05-01T15:05:47.998Z</time></trkpt><trkpt lat="44.920709855507965" lon="7.281467087999297"><ele>934.0</ele><time>2026-05-01T15:05:48.998Z</time></trkpt><trkpt lat="44.92072776368464" lon="7.281556688702124"><ele>934.0</ele><time>2026-05-01T15:05:49.998Z</time></trkpt><trkpt lat="44.920753252324694" lon="7.281675603659016"><ele>933.9999999999999</ele><time>2026-05-01T15:05:50.998Z</time></trkpt><trkpt lat="44.92074360691747" lon="7.281770568980979"><ele>934.0</ele><time>2026-05-01T15:05:51.998Z</time></trkpt><trkpt lat="44.92067987145932" lon="7.281920713716402"><ele>932.0</ele><time>2026-05-01T15:05:53.998Z</time></trkpt><trkpt lat="44.92068846684512" lon="7.282111091788248"><ele>930.0000000000001</ele><time>2026-05-01T15:05:55.998Z</time></trkpt><trkpt lat="44.9206493024819" lon="7.282221401749304"><ele>928.0000000000001</ele><time>2026-05-01T15:05:57.998Z</time></trkpt><trkpt lat="44.92059581000477" lon="7.282351091370105"><ele>926.0</ele><time>2026-05-01T15:05:59.998Z</time></trkpt><trkpt lat="44.92056326342991" lon="7.282451771254612"><ele>924.0</ele><time>2026-05-01T15:06:00.998Z</time></trkpt><trkpt lat="44.92051507861871" lon="7.282558676569595"><ele>922.3333333333334</ele><time>2026-05-01T15:06:01.998Z</time></trkpt><trkpt lat="44.92047700146912" lon="7.282652899746281"><ele>920.6666666666667</ele><time>2026-05-01T15:06:02.998Z</time></trkpt><trkpt lat="44.920407577224566" lon="7.282796895802681"><ele>919.0</ele><time>2026-05-01T15:06:04.998Z</time></trkpt><trkpt lat="44.92035623415471" lon="7.282870847566232"><ele>917.3333333333334</ele><time>2026-05-01T15:06:05.998Z</time></trkpt><trkpt lat="44.92029734996798" lon="7.2829426661748835"><ele>915.6666666666667</ele><time>2026-05-01T15:06:06.998Z</time></trkpt><trkpt lat="44.92022945295562" lon="7.283013504423574"><ele>914.0</ele><time>2026-05-01T15:06:07.998Z</time></trkpt><trkpt lat="44.92017667056994" lon="7.283063466534808"><ele>914.0000000000001</ele><time>2026-05-01T15:06:08.998Z</time></trkpt><trkpt lat="44.920069519377165" lon="7.2830728229143835"><ele>914.0</ele><time>2026-05-01T15:06:10.998Z</time></trkpt><trkpt lat="44.91999638108523" lon="7.283073717346129"><ele>914.0</ele><time>2026-05-01T15:06:11.998Z</time></trkpt><trkpt lat="44.919912109923615" lon="7.283077928614619"><ele>914.0</ele><time>2026-05-01T15:06:12.998Z</time></trkpt><trkpt lat="44.919828044705525" lon="7.283070658685763"><ele>914.0000000000001</ele><time>2026-05-01T15:06:13.998Z</time></trkpt><trkpt lat="44.91974208300173" lon="7.283046740256828"><ele>914.0</ele><time>2026-05-01T15:06:14.998Z</time></trkpt><trkpt lat="44.91965460650327" lon="7.283022675315978"><ele>914.0</ele><time>2026-05-01T15:06:15.998Z</time></trkpt><trkpt lat="44.91956267027601" lon="7.2829797982246625"><ele>914.0000000000001</ele><time>2026-05-01T15:06:16.998Z</time></trkpt><trkpt lat="44.91948612679308" lon="7.282943688042548"><ele>914.0000000000001</ele><time>2026-05-01T15:06:17.997Z</time></trkpt><trkpt lat="44.91940521863575" lon="7.282887052211245"><ele>914.0</ele><time>2026-05-01T15:06:19.997Z</time></trkpt><trkpt lat="44.91931460570266" lon="7.282781338740705"><ele>914.0</ele><time>2026-05-01T15:06:21.997Z</time></trkpt><trkpt lat="44.91926483749362" lon="7.282694180470979"><ele>910.0000000000001</ele><time>2026-05-01T15:06:24Z</time></trkpt><trkpt lat="44.91923284893709" lon="7.282578369497224"><ele>906.0</ele><time>2026-05-01T15:06:27Z</time></trkpt><trkpt lat="44.91916889374793" lon="7.282537717308688"><ele>902.0</ele><time>2026-05-01T15:06:29Z</time></trkpt><trkpt lat="44.919107090750536" lon="7.282479077927821"><ele>898.0</ele><time>2026-05-01T15:06:34Z</time></trkpt><trkpt lat="44.919023706597606" lon="7.28246233495996"><ele>894.0000000000001</ele><time>2026-05-01T15:06:38Z</time></trkpt><trkpt lat="44.91896679265864" lon="7.282401305930769"><ele>890.0</ele><time>2026-05-01T15:06:40Z</time></trkpt><trkpt lat="44.91892801314361" lon="7.282305386836602"><ele>892.5000000000001</ele><time>2026-05-01T15:06:42Z</time></trkpt><trkpt lat="44.91892443719042" lon="7.282191267749042"><ele>895.0</ele><time>2026-05-01T15:06:43Z</time></trkpt><trkpt lat="44.91890263600012" lon="7.282082326186149"><ele>897.5</ele><time>2026-05-01T15:06:44Z</time></trkpt><trkpt lat="44.918870552386004" lon="7.281967533530523"><ele>900.0</ele><time>2026-05-01T15:06:45Z</time></trkpt><trkpt lat="44.91885591922333" lon="7.28187776566646"><ele>902.5000000000001</ele><time>2026-05-01T15:06:46Z</time></trkpt><trkpt lat="44.91883740132321" lon="7.2817818851737925"><ele>905.0</ele><time>2026-05-01T15:06:47.999Z</time></trkpt><trkpt lat="44.918824691578216" lon="7.281673558673684"><ele>905.0</ele><time>2026-05-01T15:06:51.999Z</time></trkpt><trkpt lat="44.918794051986254" lon="7.28159317579538"><ele>904.9999999999999</ele><time>2026-05-01T15:06:54.999Z</time></trkpt><trkpt lat="44.9187707352881" lon="7.2815022059012025"><ele>905.0</ele><time>2026-05-01T15:06:57.999Z</time></trkpt><trkpt lat="44.918758402931935" lon="7.281386545147718"><ele>905.0</ele><time>2026-05-01T15:07:00.999Z</time></trkpt><trkpt lat="44.91872773162185" lon="7.281290800207378"><ele>904.9999999999999</ele><time>2026-05-01T15:07:04.999Z</time></trkpt><trkpt lat="44.91871488813413" lon="7.2812032685286745"><ele>905.0</ele><time>2026-05-01T15:07:07.999Z</time></trkpt><trkpt lat="44.918629796033514" lon="7.2811774623996515"><ele>905.0</ele><time>2026-05-01T15:07:11.999Z</time></trkpt><trkpt lat="44.918479683251476" lon="7.2811562108809955"><ele>905.0</ele><time>2026-05-01T15:07:13.999Z</time></trkpt><trkpt lat="44.918371355531264" lon="7.281140979494877"><ele>905.0</ele><time>2026-05-01T15:07:14.999Z</time></trkpt><trkpt lat="44.91829583423795" lon="7.281125031011737"><ele>905.0</ele><time>2026-05-01T15:07:15.999Z</time></trkpt><trkpt lat="44.91818808040849" lon="7.2811172687009735"><ele>905.0</ele><time>2026-05-01T15:07:16.999Z</time></trkpt><trkpt lat="44.9181238962093" lon="7.281138310051667"><ele>905.0</ele><time>2026-05-01T15:07:17.999Z</time></trkpt><trkpt lat="44.91797268836555" lon="7.281168464765573"><ele>905.0</ele><time>2026-05-01T15:07:19.999Z</time></trkpt><trkpt lat="44.917849514182116" lon="7.281193443179519"><ele>905.0</ele><time>2026-05-01T15:07:21.999Z</time></trkpt><trkpt lat="44.917752737112195" lon="7.281198991335298"><ele>905.0</ele><time>2026-05-01T15:07:22.999Z</time></trkpt><trkpt lat="44.91764999512529" lon="7.28118516377529"><ele>905.0</ele><time>2026-05-01T15:07:23.999Z</time></trkpt><trkpt lat="44.917575844246024" lon="7.281178948038103"><ele>905.0</ele><time>2026-05-01T15:07:24.999Z</time></trkpt><trkpt lat="44.91749062542396" lon="7.281176642479751"><ele>906.2</ele><time>2026-05-01T15:07:25.999Z</time></trkpt><trkpt lat="44.91741089997346" lon="7.281160688239345"><ele>907.4</ele><time>2026-05-01T15:07:26.999Z</time></trkpt><trkpt lat="44.91733934991875" lon="7.281144600189426"><ele>908.5999999999999</ele><time>2026-05-01T15:07:27.999Z</time></trkpt><trkpt lat="44.917249329099334" lon="7.281143988626533"><ele>909.8</ele><time>2026-05-01T15:07:28.999Z</time></trkpt><trkpt lat="44.91712613814726" lon="7.281053143812252"><ele>911.0</ele><time>2026-05-01T15:07:29.999Z</time></trkpt><trkpt lat="44.917009066667106" lon="7.280963270408131"><ele>911.0</ele><time>2026-05-01T15:07:30.999Z</time></trkpt><trkpt lat="44.91691278457403" lon="7.280886618093659"><ele>910.9999999999999</ele><time>2026-05-01T15:07:31.999Z</time></trkpt><trkpt lat="44.916813622963055" lon="7.280767671584573"><ele>910.9999999999999</ele><time>2026-05-01T15:07:32.999Z</time></trkpt><trkpt lat="44.91671606856615" lon="7.2807155871301"><ele>911.0</ele><time>2026-05-01T15:07:33.998Z</time></trkpt><trkpt lat="44.91666611394024" lon="7.280602573298634"><ele>911.0</ele><time>2026-05-01T15:07:34.998Z</time></trkpt><trkpt lat="44.91658361995796" lon="7.280515237488675"><ele>915.3333333333334</ele><time>2026-05-01T15:07:35.998Z</time></trkpt><trkpt lat="44.91651217917016" lon="7.280385909046042"><ele>919.6666666666667</ele><time>2026-05-01T15:07:36.998Z</time></trkpt><trkpt lat="44.91643720427272" lon="7.2803326916081215"><ele>924.0</ele><time>2026-05-01T15:07:37.998Z</time></trkpt><trkpt lat="44.916368701471626" lon="7.280250266951217"><ele>928.3333333333333</ele><time>2026-05-01T15:07:38.998Z</time></trkpt><trkpt lat="44.91629348649434" lon="7.2801924047781315"><ele>932.6666666666666</ele><time>2026-05-01T15:07:39.998Z</time></trkpt><trkpt lat="44.916231963469635" lon="7.280160814383066"><ele>937.0</ele><time>2026-05-01T15:07:40.998Z</time></trkpt><trkpt lat="44.916148016867254" lon="7.280075548932252"><ele>937.0</ele><time>2026-05-01T15:07:41.998Z</time></trkpt><trkpt lat="44.91608330478241" lon="7.279995159010004"><ele>937.0</ele><time>2026-05-01T15:07:42.998Z</time></trkpt><trkpt lat="44.916001251664184" lon="7.279907634625379"><ele>937.0</ele><time>2026-05-01T15:07:43.998Z</time></trkpt><trkpt lat="44.915913108331885" lon="7.279840900977843"><ele>937.0</ele><time>2026-05-01T15:07:44.998Z</time></trkpt><trkpt lat="44.91580518400596" lon="7.27975933320078"><ele>937.0</ele><time>2026-05-01T15:07:45.998Z</time></trkpt><trkpt lat="44.91571205666148" lon="7.279662340508924"><ele>937.0</ele><time>2026-05-01T15:07:46.998Z</time></trkpt><trkpt lat="44.915630694044744" lon="7.279565941759263"><ele>937.0</ele><time>2026-05-01T15:07:47.998Z</time></trkpt><trkpt lat="44.91554537784937" lon="7.279488887023082"><ele>937.0</ele><time>2026-05-01T15:07:48.998Z</time></trkpt><trkpt lat="44.915455151365734" lon="7.279386580046828"><ele>937.0</ele><time>2026-05-01T15:07:49.998Z</time></trkpt><trkpt lat="44.915383666282466" lon="7.279277673502844"><ele>937.0</ele><time>2026-05-01T15:07:50.998Z</time></trkpt><trkpt lat="44.91530106369725" lon="7.27918537117452"><ele>937.0</ele><time>2026-05-01T15:07:51.998Z</time></trkpt><trkpt lat="44.91522215789491" lon="7.279070350659614"><ele>937.0</ele><time>2026-05-01T15:07:52.998Z</time></trkpt><trkpt lat="44.915159544859705" lon="7.278976796997702"><ele>937.0</ele><time>2026-05-01T15:07:53.998Z</time></trkpt><trkpt lat="44.915093946098985" lon="7.2788813936775245"><ele>937.0</ele><time>2026-05-01T15:07:54.998Z</time></trkpt><trkpt lat="44.91501887619915" lon="7.278773930108487"><ele>937.0</ele><time>2026-05-01T15:07:55.998Z</time></trkpt><trkpt lat="44.914945423009804" lon="7.278677356798595"><ele>935.3333333333333</ele><time>2026-05-01T15:07:56.998Z</time></trkpt><trkpt lat="44.91488821337105" lon="7.278604584688421"><ele>933.6666666666666</ele><time>2026-05-01T15:07:57.998Z</time></trkpt><trkpt lat="44.91483156867506" lon="7.278543334261935"><ele>932.0</ele><time>2026-05-01T15:07:58.998Z</time></trkpt><trkpt lat="44.91476544000119" lon="7.278464495831821"><ele>930.3333333333333</ele><time>2026-05-01T15:07:59.998Z</time></trkpt><trkpt lat="44.91470263688656" lon="7.278385984373156"><ele>928.6666666666666</ele><time>2026-05-01T15:08:00.998Z</time></trkpt><trkpt lat="44.914640856072886" lon="7.278305643128445"><ele>927.0</ele><time>2026-05-01T15:08:01.998Z</time></trkpt><trkpt lat="44.91467950568943" lon="7.2780084398125995"><ele>927.0</ele><time>2026-05-01T15:08:02.998Z</time></trkpt><trkpt lat="44.91461835570666" lon="7.277952556043324"><ele>927.0</ele><time>2026-05-01T15:08:03.998Z</time></trkpt><trkpt lat="44.91456548439722" lon="7.277904148736381"><ele>927.0</ele><time>2026-05-01T15:08:04.998Z</time></trkpt><trkpt lat="44.91449273007265" lon="7.277835611215747"><ele>927.0</ele><time>2026-05-01T15:08:06.998Z</time></trkpt><trkpt lat="44.91441459358318" lon="7.27776073073393"><ele>927.0</ele><time>2026-05-01T15:08:09.998Z</time></trkpt><trkpt lat="44.914359025230596" lon="7.277694982853344"><ele>927.0</ele><time>2026-05-01T15:08:11.998Z</time></trkpt><trkpt lat="44.91427776783106" lon="7.277600696068446"><ele>925.3333333333334</ele><time>2026-05-01T15:08:13.998Z</time></trkpt><trkpt lat="44.91419601750511" lon="7.277565299740559"><ele>923.6666666666667</ele><time>2026-05-01T15:08:15.998Z</time></trkpt><trkpt lat="44.914128005817766" lon="7.277554998462587"><ele>922.0</ele><time>2026-05-01T15:08:16.998Z</time></trkpt><trkpt lat="44.914061712339105" lon="7.27756603816774"><ele>920.3333333333334</ele><time>2026-05-01T15:08:17.998Z</time></trkpt><trkpt lat="44.91394266740015" lon="7.277584150295941"><ele>918.6666666666667</ele><time>2026-05-01T15:08:19.998Z</time></trkpt><trkpt lat="44.91393206720308" lon="7.277719525261932"><ele>917.0</ele><time>2026-05-01T15:08:20.997Z</time></trkpt><trkpt lat="44.91385777401841" lon="7.277773004323327"><ele>917.0</ele><time>2026-05-01T15:08:22.997Z</time></trkpt><trkpt lat="44.91379025819059" lon="7.277815326498688"><ele>917.0</ele><time>2026-05-01T15:08:24.997Z</time></trkpt><trkpt lat="44.91372993928038" lon="7.2777557761692195"><ele>917.0</ele><time>2026-05-01T15:08:25.997Z</time></trkpt><trkpt lat="44.913726564079276" lon="7.277859840727302"><ele>917.0</ele><time>2026-05-01T15:08:29Z</time></trkpt><trkpt lat="44.91365871247936" lon="7.277914446182025"><ele>917.0</ele><time>2026-05-01T15:08:31Z</time></trkpt><trkpt lat="44.913597922023165" lon="7.277961948710886"><ele>917.0</ele><time>2026-05-01T15:08:32Z</time></trkpt><trkpt lat="44.91354034221768" lon="7.278008938987302"><ele>917.0</ele><time>2026-05-01T15:08:33Z</time></trkpt><trkpt lat="44.913472248959046" lon="7.278056520472513"><ele>917.0</ele><time>2026-05-01T15:08:34Z</time></trkpt><trkpt lat="44.91339659127541" lon="7.278180552097835"><ele>917.0</ele><time>2026-05-01T15:08:36Z</time></trkpt><trkpt lat="44.91332773310734" lon="7.278258691609338"><ele>917.0</ele><time>2026-05-01T15:08:38Z</time></trkpt><trkpt lat="44.913390206776036" lon="7.278193433153514"><ele>917.0</ele><time>2026-05-01T15:08:44Z</time></trkpt><trkpt lat="44.91346026681063" lon="7.2780891322378265"><ele>917.0</ele><time>2026-05-01T15:08:46Z</time></trkpt><trkpt lat="44.91353487667798" lon="7.278011465562997"><ele>917.0</ele><time>2026-05-01T15:08:48Z</time></trkpt><trkpt lat="44.913621454603465" lon="7.277945005209923"><ele>917.0</ele><time>2026-05-01T15:08:50Z</time></trkpt><trkpt lat="44.91372368515298" lon="7.2778967459928445"><ele>917.0</ele><time>2026-05-01T15:08:51.999Z</time></trkpt><trkpt lat="44.91382693516494" lon="7.277846425556608"><ele>917.0</ele><time>2026-05-01T15:08:53.999Z</time></trkpt><trkpt lat="44.91391591955239" lon="7.27781071657085"><ele>917.0</ele><time>2026-05-01T15:08:55.999Z</time></trkpt><trkpt lat="44.91393804488894" lon="7.277720313678536"><ele>917.0</ele><time>2026-05-01T15:09:22.999Z</time></trkpt><trkpt lat="44.9140180053785" lon="7.277688318803198"><ele>917.0</ele><time>2026-05-01T15:14:01.998Z</time></trkpt><trkpt lat="44.9140180053785" lon="7.277688318803198"><ele>917.0</ele><time>2026-05-01T15:14:01.998Z</time></trkpt><trkpt lat="44.91393481756394" lon="7.277763994917098"><ele>917.0</ele><time>2026-05-01T15:14:44.997Z</time></trkpt><trkpt lat="44.91384948288121" lon="7.277857667953271"><ele>917.0</ele><time>2026-05-01T15:14:47Z</time></trkpt><trkpt lat="44.91378021629669" lon="7.2778892863418925"><ele>917.0</ele><time>2026-05-01T15:14:48Z</time></trkpt><trkpt lat="44.91370275845605" lon="7.277926028440406"><ele>917.0</ele><time>2026-05-01T15:14:49Z</time></trkpt><trkpt lat="44.913617547693136" lon="7.277945770709593"><ele>917.0</ele><time>2026-05-01T15:14:50Z</time></trkpt><trkpt lat="44.91352607416025" lon="7.27800165385954"><ele>917.0</ele><time>2026-05-01T15:14:51Z</time></trkpt><trkpt lat="44.91342773447882" lon="7.27810609010251"><ele>917.0</ele><time>2026-05-01T15:14:52Z</time></trkpt><trkpt lat="44.91338636988361" lon="7.2782123818997455"><ele>917.0</ele><time>2026-05-01T15:14:53Z</time></trkpt><trkpt lat="44.913349278434204" lon="7.278285823923406"><ele>917.0</ele><time>2026-05-01T15:14:54Z</time></trkpt><trkpt lat="44.913304478068575" lon="7.278402182947822"><ele>918.2857142857142</ele><time>2026-05-01T15:14:56Z</time></trkpt><trkpt lat="44.91325349863625" lon="7.278480249448229"><ele>919.5714285714286</ele><time>2026-05-01T15:14:58Z</time></trkpt><trkpt lat="44.91321914048202" lon="7.278568381565436"><ele>920.8571428571429</ele><time>2026-05-01T15:15:01Z</time></trkpt><trkpt lat="44.91319183842001" lon="7.278648702789751"><ele>922.1428571428571</ele><time>2026-05-01T15:15:05.999Z</time></trkpt><trkpt lat="44.91316080706962" lon="7.278740812288402"><ele>923.4285714285713</ele><time>2026-05-01T15:15:11.999Z</time></trkpt><trkpt lat="44.91312756940975" lon="7.278847127124788"><ele>924.7142857142857</ele><time>2026-05-01T15:15:15.999Z</time></trkpt><trkpt lat="44.913126672704834" lon="7.278944882698165"><ele>926.0</ele><time>2026-05-01T15:15:18.999Z</time></trkpt><trkpt lat="44.913114863204875" lon="7.279035459837762"><ele>926.0000000000001</ele><time>2026-05-01T15:15:21.999Z</time></trkpt><trkpt lat="44.91309400396334" lon="7.279123335954173"><ele>926.0</ele><time>2026-05-01T15:15:24.999Z</time></trkpt><trkpt lat="44.91308506048003" lon="7.279211885559096"><ele>926.0</ele><time>2026-05-01T15:15:27.999Z</time></trkpt><trkpt lat="44.91307586625815" lon="7.279311015958538"><ele>926.0</ele><time>2026-05-01T15:15:30.999Z</time></trkpt><trkpt lat="44.913077248695394" lon="7.2794321016346695"><ele>926.0000000000001</ele><time>2026-05-01T15:15:33.999Z</time></trkpt><trkpt lat="44.91308685856682" lon="7.279537538878877"><ele>926.0</ele><time>2026-05-01T15:15:35.999Z</time></trkpt><trkpt lat="44.913112523967456" lon="7.279659011314523"><ele>925.4</ele><time>2026-05-01T15:15:37.999Z</time></trkpt><trkpt lat="44.91314717200789" lon="7.2797972365453445"><ele>924.8</ele><time>2026-05-01T15:15:39.999Z</time></trkpt><trkpt lat="44.913116493088935" lon="7.27996814431183"><ele>924.1999999999999</ele><time>2026-05-01T15:15:41.999Z</time></trkpt><trkpt lat="44.91314579015917" lon="7.280134129388005"><ele>923.5999999999999</ele><time>2026-05-01T15:15:43.999Z</time></trkpt><trkpt lat="44.913163323957704" lon="7.280221077291234"><ele>923.0</ele><time>2026-05-01T15:15:44.999Z</time></trkpt><trkpt lat="44.91318218709732" lon="7.280312774470521"><ele>923.0</ele><time>2026-05-01T15:15:45.999Z</time></trkpt><trkpt lat="44.91320245717526" lon="7.280401843650669"><ele>923.0</ele><time>2026-05-01T15:15:46.999Z</time></trkpt><trkpt lat="44.913225216026966" lon="7.280493985583241"><ele>923.0</ele><time>2026-05-01T15:15:47.999Z</time></trkpt><trkpt lat="44.91324797020231" lon="7.280581832196487"><ele>923.0</ele><time>2026-05-01T15:15:48.999Z</time></trkpt><trkpt lat="44.91327605621913" lon="7.280672232597212"><ele>923.0</ele><time>2026-05-01T15:15:49.999Z</time></trkpt><trkpt lat="44.91331127821811" lon="7.280764179081883"><ele>923.0</ele><time>2026-05-01T15:15:50.999Z</time></trkpt><trkpt lat="44.91334510090604" lon="7.2808476563224005"><ele>923.0</ele><time>2026-05-01T15:15:51.998Z</time></trkpt><trkpt lat="44.913379815559196" lon="7.280933335058164"><ele>916.6666666666667</ele><time>2026-05-01T15:15:52.998Z</time></trkpt><trkpt lat="44.91341359150312" lon="7.281021598935871"><ele>910.3333333333334</ele><time>2026-05-01T15:15:53.998Z</time></trkpt><trkpt lat="44.913461097667415" lon="7.281104234983924"><ele>904.0</ele><time>2026-05-01T15:15:54.998Z</time></trkpt><trkpt lat="44.913494345350855" lon="7.281199398326311"><ele>897.6666666666667</ele><time>2026-05-01T15:15:55.998Z</time></trkpt><trkpt lat="44.91351965323864" lon="7.28129936552673"><ele>891.3333333333334</ele><time>2026-05-01T15:15:56.998Z</time></trkpt><trkpt lat="44.91351778783982" lon="7.281410206108821"><ele>885.0</ele><time>2026-05-01T15:15:57.998Z</time></trkpt><trkpt lat="44.91351705521642" lon="7.281530587759302"><ele>884.5</ele><time>2026-05-01T15:15:58.998Z</time></trkpt><trkpt lat="44.91349675127325" lon="7.281634409467148"><ele>884.0</ele><time>2026-05-01T15:15:59.998Z</time></trkpt><trkpt lat="44.91346121807512" lon="7.281733720401281"><ele>883.5</ele><time>2026-05-01T15:16:00.998Z</time></trkpt><trkpt lat="44.91341353698942" lon="7.28180654604856"><ele>883.0</ele><time>2026-05-01T15:16:01.998Z</time></trkpt><trkpt lat="44.91334699200167" lon="7.281850098091084"><ele>882.5</ele><time>2026-05-01T15:16:02.998Z</time></trkpt><trkpt lat="44.91327056150396" lon="7.281885924467572"><ele>882.0</ele><time>2026-05-01T15:16:03.998Z</time></trkpt><trkpt lat="44.9131802492472" lon="7.281905963112613"><ele>886.0</ele><time>2026-05-01T15:16:04.998Z</time></trkpt><trkpt lat="44.91308664829838" lon="7.281897457936376"><ele>890.0</ele><time>2026-05-01T15:16:05.998Z</time></trkpt><trkpt lat="44.91302248677642" lon="7.281828069723053"><ele>894.0</ele><time>2026-05-01T15:16:06.998Z</time></trkpt><trkpt lat="44.91294802581948" lon="7.281791711034599"><ele>898.0</ele><time>2026-05-01T15:16:07.998Z</time></trkpt><trkpt lat="44.91285864816493" lon="7.281760975950019"><ele>902.0</ele><time>2026-05-01T15:16:08.998Z</time></trkpt><trkpt lat="44.912764142893955" lon="7.281763045482845"><ele>906.0</ele><time>2026-05-01T15:16:09.998Z</time></trkpt><trkpt lat="44.91266648467307" lon="7.281803023858688"><ele>906.5999999999999</ele><time>2026-05-01T15:16:10.998Z</time></trkpt><trkpt lat="44.91257255621907" lon="7.281849448495831"><ele>907.1999999999999</ele><time>2026-05-01T15:16:11.998Z</time></trkpt><trkpt lat="44.91247269525028" lon="7.281900832309244"><ele>907.8000000000001</ele><time>2026-05-01T15:16:12.998Z</time></trkpt><trkpt lat="44.912363359525045" lon="7.281932576352272"><ele>908.4000000000001</ele><time>2026-05-01T15:16:13.998Z</time></trkpt><trkpt lat="44.91227756371711" lon="7.281945582779975"><ele>909.0</ele><time>2026-05-01T15:16:14.998Z</time></trkpt><trkpt lat="44.91221891646275" lon="7.281978969153339"><ele>909.0</ele><time>2026-05-01T15:16:15.998Z</time></trkpt><trkpt lat="44.91215110922568" lon="7.282015489646654"><ele>909.0</ele><time>2026-05-01T15:16:16.998Z</time></trkpt><trkpt lat="44.91209013262387" lon="7.282086742971827"><ele>909.0</ele><time>2026-05-01T15:16:17.998Z</time></trkpt><trkpt lat="44.91206284117904" lon="7.282187192859415"><ele>909.0</ele><time>2026-05-01T15:16:18.998Z</time></trkpt><trkpt lat="44.912082904459275" lon="7.282289656315541"><ele>909.0</ele><time>2026-05-01T15:16:19.998Z</time></trkpt><trkpt lat="44.91216253849308" lon="7.28232626863151"><ele>909.0</ele><time>2026-05-01T15:16:20.998Z</time></trkpt><trkpt lat="44.91223777198573" lon="7.2823509853194786"><ele>905.4000000000001</ele><time>2026-05-01T15:16:21.998Z</time></trkpt><trkpt lat="44.91232492240736" lon="7.282363700400028"><ele>901.8000000000001</ele><time>2026-05-01T15:16:22.998Z</time></trkpt><trkpt lat="44.91241387289972" lon="7.282353180473856"><ele>898.1999999999999</ele><time>2026-05-01T15:16:23.998Z</time></trkpt><trkpt lat="44.9124978419299" lon="7.282335792262458"><ele>894.5999999999999</ele><time>2026-05-01T15:16:24.998Z</time></trkpt><trkpt lat="44.91259508387382" lon="7.282324549199568"><ele>891.0</ele><time>2026-05-01T15:16:25.998Z</time></trkpt><trkpt lat="44.912698064712" lon="7.282319713349683"><ele>891.0</ele><time>2026-05-01T15:16:26.998Z</time></trkpt><trkpt lat="44.91278441589828" lon="7.282341813197542"><ele>890.9999999999999</ele><time>2026-05-01T15:16:27.998Z</time></trkpt><trkpt lat="44.91286416609997" lon="7.28240456508046"><ele>890.9999999999999</ele><time>2026-05-01T15:16:28.998Z</time></trkpt><trkpt lat="44.91291154827203" lon="7.282518838712707"><ele>891.0</ele><time>2026-05-01T15:16:29.998Z</time></trkpt><trkpt lat="44.91296507936897" lon="7.282647156124207"><ele>891.0</ele><time>2026-05-01T15:16:30.998Z</time></trkpt><trkpt lat="44.913021470137444" lon="7.2827637410503865"><ele>891.0</ele><time>2026-05-01T15:16:31.998Z</time></trkpt><trkpt lat="44.913086444718054" lon="7.282891623481775"><ele>891.0</ele><time>2026-05-01T15:16:32.998Z</time></trkpt><trkpt lat="44.91314440369249" lon="7.283026492804698"><ele>891.0</ele><time>2026-05-01T15:16:33.998Z</time></trkpt><trkpt lat="44.913187103673096" lon="7.283187576091579"><ele>891.0</ele><time>2026-05-01T15:16:34.998Z</time></trkpt><trkpt lat="44.91323040948005" lon="7.283348618635832"><ele>886.5</ele><time>2026-05-01T15:16:35.998Z</time></trkpt><trkpt lat="44.91325672220099" lon="7.283488719884423"><ele>882.0</ele><time>2026-05-01T15:16:36.998Z</time></trkpt><trkpt lat="44.913289020772716" lon="7.283658252858474"><ele>877.5</ele><time>2026-05-01T15:16:37.998Z</time></trkpt><trkpt lat="44.913317016424706" lon="7.283814077705859"><ele>873.0</ele><time>2026-05-01T15:16:38.997Z</time></trkpt><trkpt lat="44.91335374732306" lon="7.28401445389423"><ele>868.75</ele><time>2026-05-01T15:16:39.997Z</time></trkpt><trkpt lat="44.913390009835624" lon="7.284194851046856"><ele>864.5</ele><time>2026-05-01T15:16:40.997Z</time></trkpt><trkpt lat="44.91344059459993" lon="7.284375998100187"><ele>860.25</ele><time>2026-05-01T15:16:41.997Z</time></trkpt><trkpt lat="44.9134966163816" lon="7.284536507314376"><ele>856.0</ele><time>2026-05-01T15:16:42.997Z</time></trkpt><trkpt lat="44.91356966049838" lon="7.284685286567855"><ele>853.8</ele><time>2026-05-01T15:16:43.997Z</time></trkpt><trkpt lat="44.91364263828246" lon="7.284817978435685"><ele>851.5999999999999</ele><time>2026-05-01T15:16:44.997Z</time></trkpt><trkpt lat="44.91371811533359" lon="7.284941113971455"><ele>849.4</ele><time>2026-05-01T15:16:45.997Z</time></trkpt><trkpt lat="44.91379202944711" lon="7.285055831925254"><ele>847.2</ele><time>2026-05-01T15:16:46.997Z</time></trkpt><trkpt lat="44.91385150363657" lon="7.285174158244093"><ele>845.0</ele><time>2026-05-01T15:16:47.997Z</time></trkpt><trkpt lat="44.913889401250934" lon="7.285304476783872"><ele>845.0</ele><time>2026-05-01T15:16:48.997Z</time></trkpt><trkpt lat="44.91391916274883" lon="7.2854470767357835"><ele>845.0</ele><time>2026-05-01T15:16:49.997Z</time></trkpt><trkpt lat="44.91393830822456" lon="7.285578894079389"><ele>845.0</ele><time>2026-05-01T15:16:50.997Z</time></trkpt><trkpt lat="44.913955015801086" lon="7.2857337906508475"><ele>845.0</ele><time>2026-05-01T15:16:51.997Z</time></trkpt><trkpt lat="44.913978640658776" lon="7.285881216093176"><ele>845.0</ele><time>2026-05-01T15:16:53Z</time></trkpt><trkpt lat="44.91401718116851" lon="7.286028452647206"><ele>844.2</ele><time>2026-05-01T15:16:54Z</time></trkpt><trkpt lat="44.91406794892947" lon="7.286175828136327"><ele>843.4</ele><time>2026-05-01T15:16:55Z</time></trkpt><trkpt lat="44.91412486105433" lon="7.286314612315605"><ele>842.5999999999999</ele><time>2026-05-01T15:16:56Z</time></trkpt><trkpt lat="44.91416997087147" lon="7.286449241760184"><ele>841.8</ele><time>2026-05-01T15:16:57Z</time></trkpt><trkpt lat="44.91419798448454" lon="7.286584928469993"><ele>841.0</ele><time>2026-05-01T15:16:58Z</time></trkpt><trkpt lat="44.914179789028765" lon="7.286727007692636"><ele>839.1999999999999</ele><time>2026-05-01T15:16:59Z</time></trkpt><trkpt lat="44.91414617902321" lon="7.286865336836033"><ele>837.4</ele><time>2026-05-01T15:17:00Z</time></trkpt><trkpt lat="44.91407233992732" lon="7.2869761429421995"><ele>835.6</ele><time>2026-05-01T15:17:01Z</time></trkpt><trkpt lat="44.913987899221375" lon="7.287062263947877"><ele>833.8</ele><time>2026-05-01T15:17:02Z</time></trkpt><trkpt lat="44.913898936509106" lon="7.287130815509659"><ele>832.0</ele><time>2026-05-01T15:17:03Z</time></trkpt><trkpt lat="44.91383822661894" lon="7.287218495349287"><ele>830.4000000000001</ele><time>2026-05-01T15:17:04Z</time></trkpt><trkpt lat="44.91383415107713" lon="7.287352049543825"><ele>828.8000000000001</ele><time>2026-05-01T15:17:05Z</time></trkpt><trkpt lat="44.91392205921115" lon="7.287473194377426"><ele>827.2</ele><time>2026-05-01T15:17:06Z</time></trkpt><trkpt lat="44.91398120746277" lon="7.2875778096389805"><ele>825.6</ele><time>2026-05-01T15:17:07Z</time></trkpt><trkpt lat="44.91404109071483" lon="7.287662238064258"><ele>824.0</ele><time>2026-05-01T15:17:07.999Z</time></trkpt><trkpt lat="44.91411091752641" lon="7.287737466141708"><ele>824.0</ele><time>2026-05-01T15:17:08.999Z</time></trkpt><trkpt lat="44.91417684042049" lon="7.287819377260487"><ele>824.0</ele><time>2026-05-01T15:17:09.999Z</time></trkpt><trkpt lat="44.91423913229416" lon="7.287939046984605"><ele>824.0</ele><time>2026-05-01T15:17:10.999Z</time></trkpt><trkpt lat="44.914310828401206" lon="7.288039437942936"><ele>824.0</ele><time>2026-05-01T15:17:11.999Z</time></trkpt><trkpt lat="44.91438259238356" lon="7.288140095131961"><ele>824.0</ele><time>2026-05-01T15:17:12.999Z</time></trkpt><trkpt lat="44.914443858539784" lon="7.2882296257908745"><ele>819.5000000000001</ele><time>2026-05-01T15:17:13.999Z</time></trkpt><trkpt lat="44.91448620748875" lon="7.2883070235122265"><ele>815.0</ele><time>2026-05-01T15:17:14.999Z</time></trkpt><trkpt lat="44.914515236947494" lon="7.288401768201466"><ele>810.5</ele><time>2026-05-01T15:17:15.999Z</time></trkpt><trkpt lat="44.914535221364375" lon="7.2885186331108995"><ele>806.0</ele><time>2026-05-01T15:17:16.999Z</time></trkpt><trkpt lat="44.91454930028757" lon="7.288654347179869"><ele>801.5000000000001</ele><time>2026-05-01T15:17:17.999Z</time></trkpt><trkpt lat="44.9145558160203" lon="7.288796299488806"><ele>797.0</ele><time>2026-05-01T15:17:18.999Z</time></trkpt><trkpt lat="44.91454633056189" lon="7.288935426127463"><ele>796.0000000000001</ele><time>2026-05-01T15:17:19.999Z</time></trkpt><trkpt lat="44.91452081509023" lon="7.289080626578156"><ele>795.0</ele><time>2026-05-01T15:17:20.999Z</time></trkpt><trkpt lat="44.91449249828778" lon="7.289226029878592"><ele>794.0</ele><time>2026-05-01T15:17:21.999Z</time></trkpt><trkpt lat="44.914462818326186" lon="7.289326780018546"><ele>793.0</ele><time>2026-05-01T15:17:22.999Z</time></trkpt><trkpt lat="44.914421204262744" lon="7.289413428798326"><ele>792.0000000000001</ele><time>2026-05-01T15:17:23.999Z</time></trkpt><trkpt lat="44.914342192180776" lon="7.289443864308144"><ele>791.0</ele><time>2026-05-01T15:17:24.999Z</time></trkpt><trkpt lat="44.91424425691436" lon="7.2894533342515935"><ele>793.4</ele><time>2026-05-01T15:17:25.999Z</time></trkpt><trkpt lat="44.914143170456164" lon="7.289433893933609"><ele>795.8</ele><time>2026-05-01T15:17:26.999Z</time></trkpt><trkpt lat="44.914040808376456" lon="7.289396685548653"><ele>798.1999999999999</ele><time>2026-05-01T15:17:27.999Z</time></trkpt><trkpt lat="44.91392193166582" lon="7.289380159662556"><ele>800.5999999999999</ele><time>2026-05-01T15:17:28.999Z</time></trkpt><trkpt lat="44.913817822524756" lon="7.28932777946993"><ele>803.0</ele><time>2026-05-01T15:17:29.999Z</time></trkpt><trkpt lat="44.91372586898117" lon="7.289245589745965"><ele>803.0</ele><time>2026-05-01T15:17:30.999Z</time></trkpt><trkpt lat="44.9136347345581" lon="7.289187243228128"><ele>803.0</ele><time>2026-05-01T15:17:31.999Z</time></trkpt><trkpt lat="44.913538575554426" lon="7.289125134504029"><ele>803.0</ele><time>2026-05-01T15:17:32.999Z</time></trkpt><trkpt lat="44.91344856602036" lon="7.28906699772822"><ele>803.0</ele><time>2026-05-01T15:17:33.999Z</time></trkpt><trkpt lat="44.91337403887987" lon="7.289023937479968"><ele>803.0</ele><time>2026-05-01T15:17:34.999Z</time></trkpt><trkpt lat="44.91330983410599" lon="7.289016779605141"><ele>803.0</ele><time>2026-05-01T15:17:35.999Z</time></trkpt><trkpt lat="44.91323056743038" lon="7.2890818479182675"><ele>803.0</ele><time>2026-05-01T15:17:37.999Z</time></trkpt><trkpt lat="44.91321285070853" lon="7.289196674914019"><ele>803.0</ele><time>2026-05-01T15:17:39.999Z</time></trkpt><trkpt lat="44.91330964858011" lon="7.289291470537651"><ele>803.0</ele><time>2026-05-01T15:17:41.999Z</time></trkpt><trkpt lat="44.91335977730247" lon="7.289383788029246"><ele>803.0</ele><time>2026-05-01T15:17:42.999Z</time></trkpt><trkpt lat="44.9134467568847" lon="7.2894543591031455"><ele>803.0000000000001</ele><time>2026-05-01T15:17:43.999Z</time></trkpt><trkpt lat="44.91350358384017" lon="7.289545513050792"><ele>803.0</ele><time>2026-05-01T15:17:44.999Z</time></trkpt><trkpt lat="44.913528341408664" lon="7.289647135935783"><ele>803.0</ele><time>2026-05-01T15:17:45.999Z</time></trkpt><trkpt lat="44.9135449573695" lon="7.289756299337108"><ele>803.0</ele><time>2026-05-01T15:17:46.999Z</time></trkpt><trkpt lat="44.913550892445585" lon="7.289866013783148"><ele>803.0000000000001</ele><time>2026-05-01T15:17:47.999Z</time></trkpt><trkpt lat="44.913557112615486" lon="7.28999275076526"><ele>803.0</ele><time>2026-05-01T15:17:48.999Z</time></trkpt><trkpt lat="44.913523673696844" lon="7.290090552939483"><ele>801.5000000000001</ele><time>2026-05-01T15:17:49.999Z</time></trkpt><trkpt lat="44.91350696612416" lon="7.290209932558509"><ele>800.0</ele><time>2026-05-01T15:17:50.999Z</time></trkpt><trkpt lat="44.91349763260625" lon="7.290333290140441"><ele>798.5</ele><time>2026-05-01T15:17:51.999Z</time></trkpt><trkpt lat="44.91350303205377" lon="7.290454698698712"><ele>797.0</ele><time>2026-05-01T15:17:52.999Z</time></trkpt><trkpt lat="44.91348787587199" lon="7.2905829616415065"><ele>795.5000000000001</ele><time>2026-05-01T15:17:53.999Z</time></trkpt><trkpt lat="44.91348600273257" lon="7.290712476667633"><ele>794.0</ele><time>2026-05-01T15:17:54.999Z</time></trkpt><trkpt lat="44.91348494045285" lon="7.290842969243235"><ele>791.2</ele><time>2026-05-01T15:17:55.998Z</time></trkpt><trkpt lat="44.913481933414296" lon="7.290973448941013"><ele>788.4000000000001</ele><time>2026-05-01T15:17:56.998Z</time></trkpt><trkpt lat="44.91347616694536" lon="7.291116786477838"><ele>785.6</ele><time>2026-05-01T15:17:57.998Z</time></trkpt><trkpt lat="44.91347777281306" lon="7.291259552606763"><ele>782.8</ele><time>2026-05-01T15:17:58.998Z</time></trkpt><trkpt lat="44.9134436626038" lon="7.29139363624247"><ele>780.0</ele><time>2026-05-01T15:17:59.998Z</time></trkpt><trkpt lat="44.91342078385055" lon="7.2915298355660205"><ele>776.6</ele><time>2026-05-01T15:18:00.998Z</time></trkpt><trkpt lat="44.91339764016783" lon="7.291667183266741"><ele>773.2</ele><time>2026-05-01T15:18:01.998Z</time></trkpt><trkpt lat="44.91337407886461" lon="7.2918060822507105"><ele>769.8</ele><time>2026-05-01T15:18:02.998Z</time></trkpt><trkpt lat="44.91335448135206" lon="7.291939989869278"><ele>766.4</ele><time>2026-05-01T15:18:03.998Z</time></trkpt><trkpt lat="44.91333497104461" lon="7.292073301655461"><ele>763.0</ele><time>2026-05-01T15:18:04.998Z</time></trkpt><trkpt lat="44.91331061138464" lon="7.292209362671981"><ele>761.2</ele><time>2026-05-01T15:18:05.998Z</time></trkpt><trkpt lat="44.91328244434825" lon="7.292348114158761"><ele>759.4</ele><time>2026-05-01T15:18:06.998Z</time></trkpt><trkpt lat="44.91325565348588" lon="7.292475034736686"><ele>757.6</ele><time>2026-05-01T15:18:07.998Z</time></trkpt><trkpt lat="44.913228884522105" lon="7.292593396870325"><ele>755.8000000000001</ele><time>2026-05-01T15:18:08.998Z</time></trkpt><trkpt lat="44.913197320964315" lon="7.292713963236567"><ele>754.0</ele><time>2026-05-01T15:18:09.998Z</time></trkpt><trkpt lat="44.913153389253054" lon="7.292825958163332"><ele>754.0</ele><time>2026-05-01T15:18:10.998Z</time></trkpt><trkpt lat="44.913098042312924" lon="7.292920922686337"><ele>754.0</ele><time>2026-05-01T15:18:11.998Z</time></trkpt><trkpt lat="44.91302988848377" lon="7.292985409918165"><ele>754.0</ele><time>2026-05-01T15:18:12.998Z</time></trkpt><trkpt lat="44.91295372109483" lon="7.293037550844682"><ele>754.0</ele><time>2026-05-01T15:18:13.998Z</time></trkpt><trkpt lat="44.912882263108706" lon="7.293067274893383"><ele>754.0</ele><time>2026-05-01T15:18:14.998Z</time></trkpt><trkpt lat="44.91281864610515" lon="7.293072797176484"><ele>754.0</ele><time>2026-05-01T15:18:15.998Z</time></trkpt><trkpt lat="44.91275285714933" lon="7.293063478529797"><ele>754.0</ele><time>2026-05-01T15:18:16.998Z</time></trkpt><trkpt lat="44.91269675632644" lon="7.29299241387242"><ele>754.0</ele><time>2026-05-01T15:18:17.998Z</time></trkpt><trkpt lat="44.91268235125183" lon="7.292889047229411"><ele>754.0</ele><time>2026-05-01T15:18:18.998Z</time></trkpt><trkpt lat="44.912700400540274" lon="7.292774558790692"><ele>754.0</ele><time>2026-05-01T15:18:19.998Z</time></trkpt><trkpt lat="44.91273174326676" lon="7.292672660497059"><ele>754.0</ele><time>2026-05-01T15:18:20.998Z</time></trkpt><trkpt lat="44.912754772143806" lon="7.292576449599041"><ele>754.0</ele><time>2026-05-01T15:18:21.998Z</time></trkpt><trkpt lat="44.912750556674666" lon="7.2924757309228365"><ele>754.0</ele><time>2026-05-01T15:18:22.998Z</time></trkpt><trkpt lat="44.9126958548414" lon="7.292336089186873"><ele>754.0</ele><time>2026-05-01T15:18:24.998Z</time></trkpt><trkpt lat="44.912595089057675" lon="7.292374817130181"><ele>754.0</ele><time>2026-05-01T15:18:25.998Z</time></trkpt><trkpt lat="44.91254011231054" lon="7.292484696206954"><ele>754.0</ele><time>2026-05-01T15:18:26.998Z</time></trkpt><trkpt lat="44.91247991384602" lon="7.29252931404509"><ele>754.0</ele><time>2026-05-01T15:18:27.998Z</time></trkpt><trkpt lat="44.91242874215082" lon="7.292603277707066"><ele>752.7142857142857</ele><time>2026-05-01T15:18:28.998Z</time></trkpt><trkpt lat="44.91237145669472" lon="7.292646949464337"><ele>751.4285714285714</ele><time>2026-05-01T15:18:29.998Z</time></trkpt><trkpt lat="44.91231610218986" lon="7.29271393259466"><ele>750.1428571428571</ele><time>2026-05-01T15:18:30.998Z</time></trkpt><trkpt lat="44.91226403639609" lon="7.292793482566991"><ele>748.8571428571429</ele><time>2026-05-01T15:18:31.998Z</time></trkpt><trkpt lat="44.91221589744076" lon="7.292875868334072"><ele>747.5714285714286</ele><time>2026-05-01T15:18:32.998Z</time></trkpt><trkpt lat="44.912171119047365" lon="7.2929644515525345"><ele>746.2857142857142</ele><time>2026-05-01T15:18:33.998Z</time></trkpt><trkpt lat="44.912131695345344" lon="7.293056353740185"><ele>745.0</ele><time>2026-05-01T15:18:34.998Z</time></trkpt><trkpt lat="44.91209101909071" lon="7.293153231961411"><ele>745.0</ele><time>2026-05-01T15:18:35.998Z</time></trkpt><trkpt lat="44.912046031294125" lon="7.293242910206011"><ele>745.0</ele><time>2026-05-01T15:18:36.998Z</time></trkpt><trkpt lat="44.912003932924854" lon="7.293334886592856"><ele>745.0</ele><time>2026-05-01T15:18:37.998Z</time></trkpt><trkpt lat="44.91196476119423" lon="7.293431546057502"><ele>745.0</ele><time>2026-05-01T15:18:38.998Z</time></trkpt><trkpt lat="44.911927516002336" lon="7.293533061336019"><ele>745.0</ele><time>2026-05-01T15:18:39.998Z</time></trkpt><trkpt lat="44.91189689109312" lon="7.293642650080768"><ele>745.0</ele><time>2026-05-01T15:18:40.998Z</time></trkpt><trkpt lat="44.91186871056092" lon="7.293751081271839"><ele>745.0</ele><time>2026-05-01T15:18:41.998Z</time></trkpt><trkpt lat="44.91184809426494" lon="7.293869908037807"><ele>745.0</ele><time>2026-05-01T15:18:42.997Z</time></trkpt><trkpt lat="44.911808388502564" lon="7.293983732143082"><ele>745.0</ele><time>2026-05-01T15:18:43.997Z</time></trkpt><trkpt lat="44.911776453365356" lon="7.294110426940689"><ele>745.0</ele><time>2026-05-01T15:18:44.997Z</time></trkpt><trkpt lat="44.91174371321514" lon="7.294226876261073"><ele>745.0</ele><time>2026-05-01T15:18:45.997Z</time></trkpt><trkpt lat="44.91169917416036" lon="7.294342166158327"><ele>741.8</ele><time>2026-05-01T15:18:46.997Z</time></trkpt><trkpt lat="44.91165010874804" lon="7.294463327556348"><ele>738.6</ele><time>2026-05-01T15:18:47.997Z</time></trkpt><trkpt lat="44.91160549163591" lon="7.294593331131591"><ele>735.4000000000001</ele><time>2026-05-01T15:18:48.997Z</time></trkpt><trkpt lat="44.91158178694471" lon="7.294732208810009"><ele>732.2</ele><time>2026-05-01T15:18:49.997Z</time></trkpt><trkpt lat="44.9115374365397" lon="7.294854592176668"><ele>729.0</ele><time>2026-05-01T15:18:50.997Z</time></trkpt><trkpt lat="44.911519198199166" lon="7.294980779702777"><ele>727.3333333333334</ele><time>2026-05-01T15:18:51.997Z</time></trkpt><trkpt lat="44.911517370486294" lon="7.2951033793231215"><ele>725.6666666666666</ele><time>2026-05-01T15:18:52.997Z</time></trkpt><trkpt lat="44.911527616491675" lon="7.2952171465335"><ele>724.0</ele><time>2026-05-01T15:18:53.997Z</time></trkpt><trkpt lat="44.91158787239065" lon="7.295284555350424"><ele>722.3333333333333</ele><time>2026-05-01T15:18:54.997Z</time></trkpt><trkpt lat="44.91165509003598" lon="7.295381276269646"><ele>720.6666666666666</ele><time>2026-05-01T15:18:55.997Z</time></trkpt><trkpt lat="44.911728020516" lon="7.295415929328966"><ele>719.0</ele><time>2026-05-01T15:18:56.997Z</time></trkpt><trkpt lat="44.911803222116255" lon="7.295449603268753"><ele>718.0</ele><time>2026-05-01T15:18:57.997Z</time></trkpt><trkpt lat="44.91188824395584" lon="7.295497478225359"><ele>717.0</ele><time>2026-05-01T15:18:59Z</time></trkpt><trkpt lat="44.91195347312606" lon="7.2955423926586755"><ele>716.0</ele><time>2026-05-01T15:19:00Z</time></trkpt><trkpt lat="44.912253205757" lon="7.295816462866959"><ele>709.6666666666666</ele><time>2026-05-01T15:19:01Z</time></trkpt><trkpt lat="44.912164489673735" lon="7.296157607195676"><ele>703.3333333333334</ele><time>2026-05-01T15:19:04Z</time></trkpt><trkpt lat="44.9121684672751" lon="7.296343220319134"><ele>697.0</ele><time>2026-05-01T15:19:06Z</time></trkpt><trkpt lat="44.9121846829065" lon="7.296484076453694"><ele>695.2</ele><time>2026-05-01T15:19:07Z</time></trkpt><trkpt lat="44.91222149091026" lon="7.29665564638433"><ele>693.4000000000001</ele><time>2026-05-01T15:19:10Z</time></trkpt><trkpt lat="44.912240242105845" lon="7.296777702747375"><ele>691.5999999999999</ele><time>2026-05-01T15:19:11Z</time></trkpt><trkpt lat="44.91227487656825" lon="7.296912382384814"><ele>689.8</ele><time>2026-05-01T15:19:12Z</time></trkpt><trkpt lat="44.91229994511328" lon="7.297046219543949"><ele>688.0</ele><time>2026-05-01T15:19:13Z</time></trkpt><trkpt lat="44.91231843933657" lon="7.297182965229568"><ele>685.5999999999999</ele><time>2026-05-01T15:19:13.999Z</time></trkpt><trkpt lat="44.91233575284498" lon="7.297330737089529"><ele>683.1999999999999</ele><time>2026-05-01T15:19:14.999Z</time></trkpt><trkpt lat="44.9123453985095" lon="7.2974850709602075"><ele>680.8</ele><time>2026-05-01T15:19:15.999Z</time></trkpt><trkpt lat="44.912342431390165" lon="7.297638264053538"><ele>678.4</ele><time>2026-05-01T15:19:16.999Z</time></trkpt><trkpt lat="44.91231287962507" lon="7.297764625232065"><ele>676.0</ele><time>2026-05-01T15:19:17.999Z</time></trkpt><trkpt lat="44.91225523337695" lon="7.297881917228538"><ele>676.0</ele><time>2026-05-01T15:19:18.999Z</time></trkpt><trkpt lat="44.912180667625606" lon="7.298003518432356"><ele>676.0</ele><time>2026-05-01T15:19:19.999Z</time></trkpt><trkpt lat="44.91210845082041" lon="7.298137440374244"><ele>676.0</ele><time>2026-05-01T15:19:20.999Z</time></trkpt><trkpt lat="44.91205242279044" lon="7.298266153468342"><ele>676.0</ele><time>2026-05-01T15:19:21.999Z</time></trkpt><trkpt lat="44.912005846643275" lon="7.2984047826378085"><ele>676.0</ele><time>2026-05-01T15:19:22.999Z</time></trkpt><trkpt lat="44.91196636580185" lon="7.298555371178353"><ele>673.0</ele><time>2026-05-01T15:19:23.999Z</time></trkpt><trkpt lat="44.91194670923567" lon="7.298702448260973"><ele>670.0</ele><time>2026-05-01T15:19:24.999Z</time></trkpt><trkpt lat="44.91190877983214" lon="7.298819959065453"><ele>667.0</ele><time>2026-05-01T15:19:25.999Z</time></trkpt><trkpt lat="44.91187196071922" lon="7.298911385657443"><ele>664.0</ele><time>2026-05-01T15:19:26.999Z</time></trkpt><trkpt lat="44.911824420448944" lon="7.299053580157567"><ele>661.0</ele><time>2026-05-01T15:19:27.999Z</time></trkpt><trkpt lat="44.91177748605317" lon="7.299173649780528"><ele>660.4</ele><time>2026-05-01T15:19:28.999Z</time></trkpt><trkpt lat="44.91171909060793" lon="7.299323792347685"><ele>659.8</ele><time>2026-05-01T15:19:29.999Z</time></trkpt><trkpt lat="44.9117519111936" lon="7.299450620007516"><ele>659.1999999999999</ele><time>2026-05-01T15:19:31.999Z</time></trkpt><trkpt lat="44.91179170572659" lon="7.299601402943095"><ele>658.5999999999999</ele><time>2026-05-01T15:19:33.999Z</time></trkpt><trkpt lat="44.91180586965178" lon="7.299753244455975"><ele>658.0</ele><time>2026-05-01T15:19:34.999Z</time></trkpt><trkpt lat="44.91182124183077" lon="7.299891846084831"><ele>653.6</ele><time>2026-05-01T15:19:35.999Z</time></trkpt><trkpt lat="44.91184308440459" lon="7.300034005895158"><ele>649.1999999999999</ele><time>2026-05-01T15:19:36.999Z</time></trkpt><trkpt lat="44.911863923909664" lon="7.30019009591516"><ele>644.8</ele><time>2026-05-01T15:19:37.999Z</time></trkpt><trkpt lat="44.91184536867274" lon="7.300344832900816"><ele>640.4</ele><time>2026-05-01T15:19:38.999Z</time></trkpt><trkpt lat="44.91184241820226" lon="7.300493421343499"><ele>636.0</ele><time>2026-05-01T15:19:39.999Z</time></trkpt><trkpt lat="44.91184683861219" lon="7.300679134227004"><ele>635.5</ele><time>2026-05-01T15:19:40.999Z</time></trkpt><trkpt lat="44.9118597685336" lon="7.300862691160779"><ele>635.0</ele><time>2026-05-01T15:19:41.999Z</time></trkpt><trkpt lat="44.91187404460453" lon="7.301040285237063"><ele>634.5</ele><time>2026-05-01T15:19:42.999Z</time></trkpt><trkpt lat="44.9118855514368" lon="7.301209557560192"><ele>634.0</ele><time>2026-05-01T15:19:43.999Z</time></trkpt><trkpt lat="44.91188610106679" lon="7.3013861956934"><ele>634.3333333333334</ele><time>2026-05-01T15:19:44.999Z</time></trkpt><trkpt lat="44.91187844794291" lon="7.301523983608896"><ele>634.6666666666667</ele><time>2026-05-01T15:19:45.999Z</time></trkpt><trkpt lat="44.91184779297834" lon="7.301614861418196"><ele>635.0</ele><time>2026-05-01T15:19:46.999Z</time></trkpt><trkpt lat="44.911797445705915" lon="7.301687837649983"><ele>635.3333333333334</ele><time>2026-05-01T15:19:47.999Z</time></trkpt><trkpt lat="44.911718911095" lon="7.30171109816381"><ele>635.6666666666666</ele><time>2026-05-01T15:19:48.999Z</time></trkpt><trkpt lat="44.91162046005764" lon="7.301760509581274"><ele>636.0</ele><time>2026-05-01T15:19:49.999Z</time></trkpt><trkpt lat="44.91151778329467" lon="7.301692127069422"><ele>636.0</ele><time>2026-05-01T15:19:50.999Z</time></trkpt><trkpt lat="44.91140597965898" lon="7.301620945263099"><ele>636.0</ele><time>2026-05-01T15:19:51.999Z</time></trkpt><trkpt lat="44.91130108174879" lon="7.301532155917644"><ele>636.0</ele><time>2026-05-01T15:19:52.999Z</time></trkpt><trkpt lat="44.911197124854276" lon="7.3014513658734"><ele>636.0</ele><time>2026-05-01T15:19:53.999Z</time></trkpt><trkpt lat="44.91110304093486" lon="7.301374291295553"><ele>635.6</ele><time>2026-05-01T15:19:54.999Z</time></trkpt><trkpt lat="44.911021742096864" lon="7.301311502687878"><ele>635.2</ele><time>2026-05-01T15:19:55.999Z</time></trkpt><trkpt lat="44.91092821276973" lon="7.301320322948196"><ele>634.8</ele><time>2026-05-01T15:19:56.999Z</time></trkpt><trkpt lat="44.91082993083321" lon="7.301364375901044"><ele>634.4</ele><time>2026-05-01T15:19:57.999Z</time></trkpt><trkpt lat="44.910774494355394" lon="7.3015252729762885"><ele>634.0</ele><time>2026-05-01T15:19:58.999Z</time></trkpt><trkpt lat="44.91071146222792" lon="7.301661670616421"><ele>631.6</ele><time>2026-05-01T15:19:59.999Z</time></trkpt><trkpt lat="44.91063259312454" lon="7.301757010620203"><ele>629.2</ele><time>2026-05-01T15:20:00.998Z</time></trkpt><trkpt lat="44.910593614294484" lon="7.301850910794577"><ele>626.8000000000001</ele><time>2026-05-01T15:20:01.998Z</time></trkpt><trkpt lat="44.91054861066319" lon="7.301948351696791"><ele>624.4</ele><time>2026-05-01T15:20:03.998Z</time></trkpt><trkpt lat="44.910474839803754" lon="7.302079996246136"><ele>622.0</ele><time>2026-05-01T15:20:05.998Z</time></trkpt><trkpt lat="44.910409319654676" lon="7.3022421140016425"><ele>619.8333333333334</ele><time>2026-05-01T15:20:07.998Z</time></trkpt><trkpt lat="44.91037639586533" lon="7.302326837421562"><ele>617.6666666666667</ele><time>2026-05-01T15:20:08.998Z</time></trkpt><trkpt lat="44.91033630278763" lon="7.302401805062421"><ele>615.5</ele><time>2026-05-01T15:20:09.998Z</time></trkpt><trkpt lat="44.910288848728705" lon="7.302469099106109"><ele>613.3333333333334</ele><time>2026-05-01T15:20:10.998Z</time></trkpt><trkpt lat="44.9101970961465" lon="7.302569426155113"><ele>611.1666666666666</ele><time>2026-05-01T15:20:12.998Z</time></trkpt><trkpt lat="44.910134028478396" lon="7.302653942220573"><ele>609.0</ele><time>2026-05-01T15:20:14.998Z</time></trkpt><trkpt lat="44.91008382203294" lon="7.302769378532024"><ele>608.2857142857143</ele><time>2026-05-01T15:20:16.998Z</time></trkpt><trkpt lat="44.90998853070093" lon="7.30285643398337"><ele>607.5714285714286</ele><time>2026-05-01T15:20:18.998Z</time></trkpt><trkpt lat="44.90994389355014" lon="7.302919733226594"><ele>606.8571428571429</ele><time>2026-05-01T15:20:19.998Z</time></trkpt><trkpt lat="44.90989900881505" lon="7.302983383579874"><ele>606.1428571428571</ele><time>2026-05-01T15:20:20.998Z</time></trkpt><trkpt lat="44.90985308609886" lon="7.303048505833889"><ele>605.4285714285714</ele><time>2026-05-01T15:20:21.998Z</time></trkpt><trkpt lat="44.909804185110396" lon="7.303117851607653"><ele>604.7142857142858</ele><time>2026-05-01T15:20:22.998Z</time></trkpt><trkpt lat="44.90975457017646" lon="7.3031882097136895"><ele>604.0</ele><time>2026-05-01T15:20:23.998Z</time></trkpt><trkpt lat="44.909702098390156" lon="7.303262619199879"><ele>602.8333333333334</ele><time>2026-05-01T15:20:24.998Z</time></trkpt><trkpt lat="44.90964797137516" lon="7.303339375851266"><ele>601.6666666666667</ele><time>2026-05-01T15:20:25.999Z</time></trkpt><trkpt lat="44.909592390963795" lon="7.303417160849146"><ele>600.5</ele><time>2026-05-01T15:20:26.999Z</time></trkpt><trkpt lat="44.909533881254305" lon="7.303496154000336"><ele>599.3333333333334</ele><time>2026-05-01T15:20:27.999Z</time></trkpt><trkpt lat="44.90947223427829" lon="7.303570815816783"><ele>598.1666666666666</ele><time>2026-05-01T15:20:28.999Z</time></trkpt><trkpt lat="44.90940554468051" lon="7.303651819602036"><ele>597.0</ele><time>2026-05-01T15:20:29.999Z</time></trkpt><trkpt lat="44.90934989922635" lon="7.303753058636863"><ele>597.0</ele><time>2026-05-01T15:20:30.999Z</time></trkpt><trkpt lat="44.909268907510764" lon="7.30382971012509"><ele>597.0</ele><time>2026-05-01T15:20:31.999Z</time></trkpt><trkpt lat="44.9092012171506" lon="7.303932098181512"><ele>597.0</ele><time>2026-05-01T15:20:32.999Z</time></trkpt><trkpt lat="44.90914713635715" lon="7.304029390054946"><ele>597.0</ele><time>2026-05-01T15:20:33.999Z</time></trkpt><trkpt lat="44.909090192104586" lon="7.304110348605966"><ele>597.0</ele><time>2026-05-01T15:20:34.999Z</time></trkpt><trkpt lat="44.90903816543903" lon="7.304182574759833"><ele>597.0</ele><time>2026-05-01T15:20:35.999Z</time></trkpt><trkpt lat="44.90899366288932" lon="7.304253540917289"><ele>593.3333333333334</ele><time>2026-05-01T15:20:36.999Z</time></trkpt><trkpt lat="44.908953961940625" lon="7.304336417049325"><ele>589.6666666666666</ele><time>2026-05-01T15:20:37.999Z</time></trkpt><trkpt lat="44.90889939477751" lon="7.304461613718025"><ele>586.0</ele><time>2026-05-01T15:20:39.999Z</time></trkpt><trkpt lat="44.90885416026128" lon="7.304533411518842"><ele>582.3333333333333</ele><time>2026-05-01T15:20:43.999Z</time></trkpt><trkpt lat="44.908885914990016" lon="7.304695866647299"><ele>578.6666666666666</ele><time>2026-05-01T15:20:46.999Z</time></trkpt><trkpt lat="44.9089519265944" lon="7.304757954188591"><ele>575.0</ele><time>2026-05-01T15:20:48.998Z</time></trkpt><trkpt lat="44.90902878626794" lon="7.3048254486379545"><ele>572.2</ele><time>2026-05-01T15:20:50.998Z</time></trkpt><trkpt lat="44.909113629263175" lon="7.304890199333933"><ele>569.4</ele><time>2026-05-01T15:20:52.998Z</time></trkpt><trkpt lat="44.90918264943028" lon="7.304940459632174"><ele>566.6</ele><time>2026-05-01T15:20:54.998Z</time></trkpt><trkpt lat="44.90925044840426" lon="7.305030533218805"><ele>563.8</ele><time>2026-05-01T15:20:56.998Z</time></trkpt><trkpt lat="44.90928160724398" lon="7.305148620245394"><ele>561.0</ele><time>2026-05-01T15:20:58.998Z</time></trkpt><trkpt lat="44.90926592005814" lon="7.305308587761068"><ele>560.6666666666666</ele><time>2026-05-01T15:21:00.998Z</time></trkpt><trkpt lat="44.90921114600983" lon="7.305464472560016"><ele>560.3333333333334</ele><time>2026-05-01T15:21:02.998Z</time></trkpt><trkpt lat="44.90917349540164" lon="7.305543459180376"><ele>560.0</ele><time>2026-05-01T15:21:03.998Z</time></trkpt><trkpt lat="44.909126661766514" lon="7.305615921931448"><ele>559.6666666666667</ele><time>2026-05-01T15:21:05.001Z</time></trkpt><trkpt lat="44.90907437963599" lon="7.3056863498374405"><ele>559.3333333333334</ele><time>2026-05-01T15:21:06.001Z</time></trkpt><trkpt lat="44.909012843379735" lon="7.305738644604042"><ele>559.0</ele><time>2026-05-01T15:21:07Z</time></trkpt><trkpt lat="44.908943476192775" lon="7.305773895520567"><ele>559.0</ele><time>2026-05-01T15:21:08.001Z</time></trkpt><trkpt lat="44.90887431302747" lon="7.305792755536012"><ele>559.0</ele><time>2026-05-01T15:21:09.001Z</time></trkpt><trkpt lat="44.90880478232496" lon="7.3057958771695235"><ele>559.0</ele><time>2026-05-01T15:21:10Z</time></trkpt><trkpt lat="44.90873830861193" lon="7.3057793269959905"><ele>559.0</ele><time>2026-05-01T15:21:11.001Z</time></trkpt><trkpt lat="44.90866738073348" lon="7.305752613607682"><ele>559.0</ele><time>2026-05-01T15:21:12.001Z</time></trkpt><trkpt lat="44.90861109464223" lon="7.305676873998839"><ele>559.0</ele><time>2026-05-01T15:21:13Z</time></trkpt><trkpt lat="44.90854727650858" lon="7.305616282078419"><ele>559.0</ele><time>2026-05-01T15:21:14Z</time></trkpt><trkpt lat="44.908481785856296" lon="7.305553376320553"><ele>559.0</ele><time>2026-05-01T15:21:15.001Z</time></trkpt><trkpt lat="44.90841793349708" lon="7.305485321374661"><ele>559.0</ele><time>2026-05-01T15:21:16Z</time></trkpt><trkpt lat="44.908351053641155" lon="7.305414697927571"><ele>559.0</ele><time>2026-05-01T15:21:17Z</time></trkpt><trkpt lat="44.90828416328648" lon="7.30534261943315"><ele>559.0</ele><time>2026-05-01T15:21:18.001Z</time></trkpt><trkpt lat="44.90820534127706" lon="7.305286666357256"><ele>559.0</ele><time>2026-05-01T15:21:19Z</time></trkpt><trkpt lat="44.90814438807221" lon="7.305192002596613"><ele>559.0</ele><time>2026-05-01T15:21:20Z</time></trkpt><trkpt lat="44.9080710049175" lon="7.305113810570146"><ele>556.4</ele><time>2026-05-01T15:21:21Z</time></trkpt><trkpt lat="44.907985851079594" lon="7.305050481473493"><ele>553.8</ele><time>2026-05-01T15:21:22Z</time></trkpt><trkpt lat="44.90791198157267" lon="7.30496989623217"><ele>551.2</ele><time>2026-05-01T15:21:23Z</time></trkpt><trkpt lat="44.90783265082376" lon="7.304902644455104"><ele>548.6</ele><time>2026-05-01T15:21:24Z</time></trkpt><trkpt lat="44.90773793426429" lon="7.304873496286036"><ele>546.0</ele><time>2026-05-01T15:21:25Z</time></trkpt><trkpt lat="44.90763187224864" lon="7.3048839453622705"><ele>541.4</ele><time>2026-05-01T15:21:26Z</time></trkpt><trkpt lat="44.907522996579054" lon="7.304914051514678"><ele>536.8</ele><time>2026-05-01T15:21:27Z</time></trkpt><trkpt lat="44.90742155922327" lon="7.304954883520871"><ele>532.1999999999999</ele><time>2026-05-01T15:21:28Z</time></trkpt><trkpt lat="44.90733994157646" lon="7.305038862803044"><ele>527.6</ele><time>2026-05-01T15:21:29Z</time></trkpt><trkpt lat="44.907286703711954" lon="7.305158457591564"><ele>523.0</ele><time>2026-05-01T15:21:30Z</time></trkpt><trkpt lat="44.90728507874744" lon="7.305304728330747"><ele>523.0</ele><time>2026-05-01T15:21:31Z</time></trkpt><trkpt lat="44.90731622260789" lon="7.305439975822691"><ele>523.0</ele><time>2026-05-01T15:21:32Z</time></trkpt><trkpt lat="44.90735887796185" lon="7.305547768676855"><ele>523.0</ele><time>2026-05-01T15:21:33Z</time></trkpt><trkpt lat="44.907417976323494" lon="7.305631425079613"><ele>523.0</ele><time>2026-05-01T15:21:34Z</time></trkpt><trkpt lat="44.90748917744804" lon="7.305691662123273"><ele>523.0</ele><time>2026-05-01T15:21:35Z</time></trkpt><trkpt lat="44.90756588077861" lon="7.305740331039732"><ele>523.0</ele><time>2026-05-01T15:21:36Z</time></trkpt><trkpt lat="44.90763814153102" lon="7.305804173852732"><ele>522.1666666666667</ele><time>2026-05-01T15:21:37Z</time></trkpt><trkpt lat="44.90771179625229" lon="7.305848733965901"><ele>521.3333333333334</ele><time>2026-05-01T15:21:38Z</time></trkpt><trkpt lat="44.90779738542394" lon="7.3059275815767055"><ele>520.5</ele><time>2026-05-01T15:21:40Z</time></trkpt><trkpt lat="44.90776898592231" lon="7.306011263227775"><ele>519.6666666666666</ele><time>2026-05-01T15:21:41Z</time></trkpt><trkpt lat="44.90769901118389" lon="7.306056398418041"><ele>518.8333333333333</ele><time>2026-05-01T15:21:42Z</time></trkpt><trkpt lat="44.90761316662647" lon="7.306064173908805"><ele>518.0</ele><time>2026-05-01T15:21:43Z</time></trkpt><trkpt lat="44.907540215095935" lon="7.306090494052052"><ele>518.0</ele><time>2026-05-01T15:21:44Z</time></trkpt><trkpt lat="44.9074663709166" lon="7.306127152574955"><ele>518.0</ele><time>2026-05-01T15:21:45Z</time></trkpt><trkpt lat="44.90739813579348" lon="7.306177477048217"><ele>518.0</ele><time>2026-05-01T15:21:46Z</time></trkpt><trkpt lat="44.90732754104095" lon="7.306229752083618"><ele>518.0</ele><time>2026-05-01T15:21:47Z</time></trkpt><trkpt lat="44.90725165553732" lon="7.306252753605442"><ele>518.0</ele><time>2026-05-01T15:21:48Z</time></trkpt><trkpt lat="44.90718405729574" lon="7.306252816509202"><ele>518.0</ele><time>2026-05-01T15:21:49Z</time></trkpt><trkpt lat="44.907103746756455" lon="7.306362989985519"><ele>516.0</ele><time>2026-05-01T15:21:51Z</time></trkpt><trkpt lat="44.90709455276109" lon="7.306458806698658"><ele>514.0</ele><time>2026-05-01T15:21:52Z</time></trkpt><trkpt lat="44.90717923883578" lon="7.306554247587334"><ele>512.0</ele><time>2026-05-01T15:21:53Z</time></trkpt><trkpt lat="44.907215916148765" lon="7.30665242905598"><ele>510.0</ele><time>2026-05-01T15:21:54Z</time></trkpt><trkpt lat="44.90726035455358" lon="7.306752155369776"><ele>507.99999999999994</ele><time>2026-05-01T15:21:55Z</time></trkpt><trkpt lat="44.90731594080563" lon="7.306848254496159"><ele>506.0</ele><time>2026-05-01T15:21:56Z</time></trkpt><trkpt lat="44.90733900110915" lon="7.306952606135716"><ele>506.0</ele><time>2026-05-01T15:21:57Z</time></trkpt><trkpt lat="44.90733994060542" lon="7.307071982902858"><ele>506.0</ele><time>2026-05-01T15:21:58Z</time></trkpt><trkpt lat="44.90729750316507" lon="7.307195490391419"><ele>506.0</ele><time>2026-05-01T15:21:59Z</time></trkpt><trkpt lat="44.9072387466216" lon="7.307309012756491"><ele>506.0</ele><time>2026-05-01T15:22:00Z</time></trkpt><trkpt lat="44.90719755579454" lon="7.30743128064068"><ele>506.0</ele><time>2026-05-01T15:22:01Z</time></trkpt><trkpt lat="44.90718975210266" lon="7.307571310712768"><ele>504.99999999999994</ele><time>2026-05-01T15:22:02Z</time></trkpt><trkpt lat="44.907208687250545" lon="7.3077058160452815"><ele>504.0</ele><time>2026-05-01T15:22:03Z</time></trkpt><trkpt lat="44.90723794153915" lon="7.307827627441036"><ele>503.0</ele><time>2026-05-01T15:22:04Z</time></trkpt><trkpt lat="44.90727389976647" lon="7.307939097065399"><ele>502.0</ele><time>2026-05-01T15:22:05Z</time></trkpt><trkpt lat="44.90731293434553" lon="7.308044932748986"><ele>500.99999999999994</ele><time>2026-05-01T15:22:05.999Z</time></trkpt><trkpt lat="44.907352544599135" lon="7.3081440601606"><ele>500.0</ele><time>2026-05-01T15:22:06.999Z</time></trkpt><trkpt lat="44.90739505342559" lon="7.308240898587487"><ele>499.3333333333333</ele><time>2026-05-01T15:22:07.999Z</time></trkpt><trkpt lat="44.90744064370387" lon="7.308338110191483"><ele>498.66666666666663</ele><time>2026-05-01T15:22:08.999Z</time></trkpt><trkpt lat="44.907488014796414" lon="7.308439928422508"><ele>498.0</ele><time>2026-05-01T15:22:09.999Z</time></trkpt><trkpt lat="44.90753522120246" lon="7.308551217806004"><ele>497.33333333333337</ele><time>2026-05-01T15:22:10.999Z</time></trkpt><trkpt lat="44.90757905788267" lon="7.308662240628522"><ele>496.6666666666667</ele><time>2026-05-01T15:22:11.999Z</time></trkpt><trkpt lat="44.907629522136574" lon="7.30877617891852"><ele>496.0</ele><time>2026-05-01T15:22:12.999Z</time></trkpt><trkpt lat="44.907679537119435" lon="7.308893853404252"><ele>494.4</ele><time>2026-05-01T15:22:13.999Z</time></trkpt><trkpt lat="44.90772919497824" lon="7.309013589036786"><ele>492.8</ele><time>2026-05-01T15:22:14.999Z</time></trkpt><trkpt lat="44.907767544153735" lon="7.309142415724413"><ele>491.19999999999993</ele><time>2026-05-01T15:22:15.999Z</time></trkpt><trkpt lat="44.907817001118076" lon="7.309263552130305"><ele>489.59999999999997</ele><time>2026-05-01T15:22:16.999Z</time></trkpt><trkpt lat="44.90786517267945" lon="7.30938989958713"><ele>488.0</ele><time>2026-05-01T15:22:17.999Z</time></trkpt><trkpt lat="44.907912655506635" lon="7.309521114712426"><ele>487.99999999999994</ele><time>2026-05-01T15:22:18.999Z</time></trkpt><trkpt lat="44.90794132028008" lon="7.309626589299161"><ele>488.0</ele><time>2026-05-01T15:22:19.999Z</time></trkpt><trkpt lat="44.907962715254875" lon="7.309723627517154"><ele>488.0</ele><time>2026-05-01T15:22:20.999Z</time></trkpt><trkpt lat="44.90796395407696" lon="7.3098170630304855"><ele>488.0</ele><time>2026-05-01T15:22:21.999Z</time></trkpt><trkpt lat="44.90795728075989" lon="7.309946214629698"><ele>487.99999999999994</ele><time>2026-05-01T15:22:22.999Z</time></trkpt><trkpt lat="44.907883998150034" lon="7.310051587856618"><ele>488.0</ele><time>2026-05-01T15:22:23.999Z</time></trkpt><trkpt lat="44.907791286466804" lon="7.310131293946956"><ele>485.2</ele><time>2026-05-01T15:22:24.999Z</time></trkpt><trkpt lat="44.90769051478502" lon="7.310201387672438"><ele>482.4</ele><time>2026-05-01T15:22:25.999Z</time></trkpt><trkpt lat="44.907602114637164" lon="7.310281436577377"><ele>479.59999999999997</ele><time>2026-05-01T15:22:26.999Z</time></trkpt><trkpt lat="44.907519341076515" lon="7.310377460664127"><ele>476.79999999999995</ele><time>2026-05-01T15:22:27.999Z</time></trkpt><trkpt lat="44.90745765178971" lon="7.310504469495642"><ele>474.0</ele><time>2026-05-01T15:22:28.999Z</time></trkpt><trkpt lat="44.90743850977699" lon="7.310659007362355"><ele>472.0</ele><time>2026-05-01T15:22:29.999Z</time></trkpt><trkpt lat="44.90746666421493" lon="7.31081801214099"><ele>470.0</ele><time>2026-05-01T15:22:30.999Z</time></trkpt><trkpt lat="44.90749431007728" lon="7.310965067292089"><ele>468.0</ele><time>2026-05-01T15:22:31.999Z</time></trkpt><trkpt lat="44.907522350293945" lon="7.311104908972889"><ele>466.0</ele><time>2026-05-01T15:22:32.999Z</time></trkpt><trkpt lat="44.907557745008255" lon="7.311235355357629"><ele>464.0</ele><time>2026-05-01T15:22:33.999Z</time></trkpt><trkpt lat="44.90755689317154" lon="7.31137999938018"><ele>462.2</ele><time>2026-05-01T15:22:34.999Z</time></trkpt><trkpt lat="44.90756074346759" lon="7.311516810083212"><ele>460.4</ele><time>2026-05-01T15:22:35.999Z</time></trkpt><trkpt lat="44.90755838141994" lon="7.311655656742569"><ele>458.6</ele><time>2026-05-01T15:22:36.999Z</time></trkpt><trkpt lat="44.9075492333408" lon="7.311789466449148"><ele>456.8</ele><time>2026-05-01T15:22:37.999Z</time></trkpt><trkpt lat="44.90753846561271" lon="7.31192213642964"><ele>455.0</ele><time>2026-05-01T15:22:38.999Z</time></trkpt><trkpt lat="44.907523918456036" lon="7.312054497917331"><ele>455.0</ele><time>2026-05-01T15:22:39.999Z</time></trkpt><trkpt lat="44.90751870854893" lon="7.3122014033734315"><ele>455.0</ele><time>2026-05-01T15:22:40.999Z</time></trkpt><trkpt lat="44.90748465415242" lon="7.312312689343271"><ele>455.0</ele><time>2026-05-01T15:22:41.999Z</time></trkpt><trkpt lat="44.90746325069676" lon="7.312441188122366"><ele>455.0</ele><time>2026-05-01T15:22:42.999Z</time></trkpt><trkpt lat="44.907448241489924" lon="7.3125722555638815"><ele>455.0</ele><time>2026-05-01T15:22:43.999Z</time></trkpt><trkpt lat="44.90745434182619" lon="7.312703076214054"><ele>454.2</ele><time>2026-05-01T15:22:44.999Z</time></trkpt><trkpt lat="44.90744086353536" lon="7.312819112105878"><ele>453.4</ele><time>2026-05-01T15:22:45.999Z</time></trkpt><trkpt lat="44.90738834498608" lon="7.312948231370474"><ele>452.6</ele><time>2026-05-01T15:22:47.999Z</time></trkpt><trkpt lat="44.9073268835019" lon="7.313035818374164"><ele>451.8</ele><time>2026-05-01T15:22:49.999Z</time></trkpt><trkpt lat="44.90724440256682" lon="7.312944250677138"><ele>451.0</ele><time>2026-05-01T15:22:50.999Z</time></trkpt><trkpt lat="44.90717861279292" lon="7.3128867635691455"><ele>451.0</ele><time>2026-05-01T15:22:52.998Z</time></trkpt><trkpt lat="44.90708045063775" lon="7.312841292762541"><ele>451.0</ele><time>2026-05-01T15:22:54.998Z</time></trkpt><trkpt lat="44.90695132503913" lon="7.312776075546123"><ele>451.0</ele><time>2026-05-01T15:22:56.998Z</time></trkpt><trkpt lat="44.906866269735936" lon="7.31272160439796"><ele>451.0</ele><time>2026-05-01T15:22:57.998Z</time></trkpt><trkpt lat="44.90674415649683" lon="7.312641116852028"><ele>450.33333333333337</ele><time>2026-05-01T15:22:58.998Z</time></trkpt><trkpt lat="44.906591329961294" lon="7.312510860384842"><ele>449.66666666666663</ele><time>2026-05-01T15:22:59.998Z</time></trkpt><trkpt lat="44.90643247642733" lon="7.3124057685592785"><ele>449.0</ele><time>2026-05-01T15:23:00.998Z</time></trkpt><trkpt lat="44.90632747056248" lon="7.312274173466338"><ele>449.66666666666663</ele><time>2026-05-01T15:23:01.998Z</time></trkpt><trkpt lat="44.90623002598963" lon="7.3121881413525385"><ele>450.3333333333333</ele><time>2026-05-01T15:23:02.998Z</time></trkpt><trkpt lat="44.90615769371363" lon="7.312090136897755"><ele>451.0</ele><time>2026-05-01T15:23:03.998Z</time></trkpt><trkpt lat="44.90609600706856" lon="7.312011801063082"><ele>451.66666666666663</ele><time>2026-05-01T15:23:04.998Z</time></trkpt><trkpt lat="44.90603952090507" lon="7.311943989484393"><ele>452.3333333333333</ele><time>2026-05-01T15:23:05.998Z</time></trkpt><trkpt lat="44.90599098420571" lon="7.31188535265084"><ele>453.0</ele><time>2026-05-01T15:23:06.998Z</time></trkpt><trkpt lat="44.905914827011294" lon="7.311783110142685"><ele>453.66666666666663</ele><time>2026-05-01T15:23:08.998Z</time></trkpt><trkpt lat="44.90586310775935" lon="7.311729979660532"><ele>454.3333333333333</ele><time>2026-05-01T15:23:11Z</time></trkpt><trkpt lat="44.905774501370736" lon="7.311655569371548"><ele>455.0</ele><time>2026-05-01T15:23:13Z</time></trkpt><trkpt lat="44.90606038917533" lon="7.311266815640592"><ele>460.0</ele><time>2026-05-01T15:23:14Z</time></trkpt><trkpt lat="44.90580420549416" lon="7.311312600006929"><ele>463.0</ele><time>2026-05-01T15:23:19Z</time></trkpt><trkpt lat="44.905797524936105" lon="7.311192305359445"><ele>463.0</ele><time>2026-05-01T15:23:33Z</time></trkpt><trkpt lat="44.905797524936105" lon="7.311192305359445"><ele>463.0</ele><time>2026-05-01T15:23:33Z</time></trkpt><trkpt lat="44.905797524936105" lon="7.311192305359445"><ele>463.0</ele><time>2026-05-01T15:23:33Z</time></trkpt></trkseg></trk></gpx>